# Wetter Temperatur Luftdruck Luftfeuchtigkeit Sichtweite Windgeschwindigkeit Windrichtung Zeit
1 Clear 0 1025 59 8000 3.1 360 22:19 24.01.2020
2 Clear 0 1026 68 10000 2.1 20 21:41 24.01.2020
3 Clear 0 1026 59 10000 3.1 360 21:19 24.01.2020
4 Clear 1 1027 59 10000 2.1 350 20:44 24.01.2020
5 Clear 1 1027 55 10000 2.1 360 20:23 24.01.2020
6 Clear 1 1027 59 10000 2.1 30 19:59 24.01.2020
7 Clear 1 1027 59 10000 2.1 30 19:41 24.01.2020
8 Clear 1 1027 59 10000 2.1 360 19:22 24.01.2020
9 Clear 3 1027 44 10000 7.25 217 18:58 24.01.2020
10 Clear 3 1027 44 10000 7.25 217 18:40 24.01.2020
11 Clear 3 1027 44 10000 1.5 200 18:21 24.01.2020
12 Clear 3 1028 44 10000 7.25 217 17:44 24.01.2020
13 Clear 4 1028 38 10000 2.6 210 17:21 24.01.2020
14 Clear 5 1028 38 10000 3.1 220 16:57 24.01.2020
15 Clear 5 1028 38 10000 3.1 220 16:38 24.01.2020
16 Clear 6 1028 36 10000 2.1 230 16:18 24.01.2020
17 Clear 6 1028 36 10000 2.1 230 16:18 24.01.2020
18 Clear 8 1028 33 10000 3.1 230 15:40 24.01.2020
19 Clear 8 1028 31 10000 4.1 250 15:20 24.01.2020
20 Clear 8 1028 31 10000 4.1 220 14:42 24.01.2020
21 Clear 8 1028 34 10000 4.1 230 14:23 24.01.2020
22 Clear 8 1028 36 10000 4.1 220 13:58 24.01.2020
23 Clear 8 1028 36 10000 4.1 220 13:39 24.01.2020
24 Clear 8 1029 36 10000 3.1 240 13:19 24.01.2020
25 Clear 8 1029 36 10000 3.1 240 13:19 24.01.2020
26 Clear 7 1029 39 10000 3.1 250 12:41 24.01.2020
27 Clear 7 1030 42 10000 2.1 270 12:19 24.01.2020
28 Clear 7 1031 45 10000 0.5 0 11:43 24.01.2020
29 Clear 6 1031 45 10000 1.5 260 11:19 24.01.2020
30 Clear 5 1032 48 10000 1.5 0 10:43 24.01.2020
31 Clear 5 1032 59 10000 1 0 10:22 24.01.2020
32 Clear 3 1033 64 10000 1.5 260 09:57 24.01.2020
33 Clear 3 1033 64 10000 1.5 260 09:39 24.01.2020
34 Clear 3 1033 64 10000 2.16 214 09:21 24.01.2020
35 Clear 0 1033 74 9000 1 0 08:40 24.01.2020
36 Clear -1 1033 74 9000 2.34 255 08:20 24.01.2020
37 Clear -3 1033 79 10000 0.5 0 07:51 24.01.2020
38 Clear -4 1033 79 10000 0.5 0 07:32 24.01.2020
39 Clear -6 1033 79 10000 1 0 06:48 24.01.2020
40 Clear -4 1033 79 10000 2.34 255 06:29 24.01.2020
41 Clear -4 1033 79 10000 1 0 05:58 24.01.2020
42 Clear -5 1032 79 10000 1.5 10 04:54 24.01.2020
43 Clear -4 1033 73 10000 0.5 0 02:53 24.01.2020
44 Clear -2 1033 68 10000 1.5 300 02:24 24.01.2020
45 Clear -2 1033 68 10000 1 0 01:42 24.01.2020
46 Clear -3 1033 73 10000 1.5 310 01:24 24.01.2020
47 Clear -2 1033 68 10000 2.6 220 00:20 24.01.2020
48 Clear 0 1032 55 10000 2.1 30 23:48 23.01.2020
49 Clear 0 1033 59 10000 1 0 23:30 23.01.2020
50 Clear 0 1032 56 10000 0.5 0 22:59 23.01.2020
51 Clear 0 1032 56 10000 0.5 0 22:37 23.01.2020
52 Clear -1 1032 68 10000 1 0 22:19 23.01.2020
53 Clear 1 1032 55 10000 2.6 350 21:57 23.01.2020
54 Clear 0 1032 55 10000 2.6 350 21:38 23.01.2020
55 Clear 0 1032 55 10000 2.6 360 21:20 23.01.2020
56 Clear 0 1032 55 10000 3.1 10 20:57 23.01.2020
57 Clear 0 1032 55 10000 3.1 10 20:38 23.01.2020
58 Clear 0 1032 53 10000 2.1 360 20:19 23.01.2020
59 Clear 1 1032 50 10000 3.1 300 19:44 23.01.2020
60 Clear 1 1032 50 10000 3.1 300 19:44 23.01.2020
61 Clear 1 1031 50 10000 2.1 350 19:24 23.01.2020
62 Clear 1 1031 50 10000 2.1 350 19:24 23.01.2020
63 Clear 1 1031 50 10000 2.1 300 18:59 23.01.2020
64 Clear 2 1031 50 10000 2.1 300 18:40 23.01.2020
65 Clear 2 1031 51 10000 3.1 320 18:20 23.01.2020
66 Clear 3 1030 47 10000 4.1 330 17:58 23.01.2020
67 Clear 3 1030 47 10000 4.1 330 17:39 23.01.2020
68 Clear 4 1030 48 10000 4.1 330 17:19 23.01.2020
69 Clear 5 1030 44 10000 4.6 310 16:39 23.01.2020
70 Clear 5 1029 38 10000 4.6 310 16:20 23.01.2020
71 Clear 6 1029 33 10000 6.7 310 15:58 23.01.2020
72 Clear 7 1029 33 10000 6.7 310 15:40 23.01.2020
73 Clear 7 1029 36 10000 6.7 310 15:19 23.01.2020
74 Clear 7 1029 36 10000 6.7 310 15:19 23.01.2020
75 Clear 7 1029 33 10000 7.7 320 14:59 23.01.2020
76 Clear 7 1029 33 10000 7.7 320 14:41 23.01.2020
77 Clear 7 1028 33 10000 8.7 320 14:23 23.01.2020
78 Clear 7 1028 36 10000 9.3 320 13:59 23.01.2020
79 Clear 7 1028 36 10000 9.3 320 13:38 23.01.2020
80 Clear 7 1028 36 10000 8.2 310 13:19 23.01.2020
81 Clear 6 1028 36 10000 9.3 330 12:46 23.01.2020
82 Clear 6 1028 39 10000 7.2 330 12:25 23.01.2020
83 Clear 6 1029 45 10000 8.7 310 11:57 23.01.2020
84 Clear 6 1029 45 10000 8.7 310 11:38 23.01.2020
85 Clear 6 1029 39 10000 7.2 340 11:19 23.01.2020
86 Clear 5 1028 45 10000 7.2 320 10:44 23.01.2020
87 Clear 5 1028 45 10000 7.2 330 10:22 23.01.2020
88 Clear 4 1027 48 10000 9.3 340 09:57 23.01.2020
89 Clear 4 1027 48 10000 9.3 340 09:36 23.01.2020
90 Clear 4 1028 51 10000 5.7 320 09:18 23.01.2020
91 Clear 2 1028 55 10000 5.1 300 08:40 23.01.2020
92 Clear 2 1027 55 10000 6.7 310 08:22 23.01.2020
93 Clouds 1 1027 55 10000 6.7 310 07:45 23.01.2020
94 Clouds 0 1027 62 10000 0.5 0 07:26 23.01.2020
95 Clouds 0 1026 62 10000 5.7 280 06:52 23.01.2020
96 Clouds 0 1025 64 10000 5.1 260 06:22 23.01.2020
97 Clouds 1 1024 64 10000 3.1 290 05:44 23.01.2020
98 Clouds 3 1022 55 10000 9.3 360 04:24 23.01.2020
99 Clouds 4 1020 48 10000 11.3 360 02:34 23.01.2020
100 Clouds 4 1020 35 10000 6.2 310 01:19 23.01.2020
101 Clouds 5 1018 24 10000 6.2 260 00:27 23.01.2020
102 Clouds 5 1018 26 10000 3.6 280 23:48 22.01.2020
103 Clouds 7 1017 24 10000 4.1 250 23:29 22.01.2020
104 Clouds 5 1017 32 10000 4.6 260 22:59 22.01.2020
105 Clouds 5 1017 32 10000 4.6 260 22:40 22.01.2020
106 Clouds 5 1017 32 10000 4.6 260 22:40 22.01.2020
107 Clouds 6 1017 33 10000 5.7 260 22:22 22.01.2020
108 Clouds 2 1018 47 10000 1.5 0 21:40 22.01.2020
109 Clouds 3 1018 40 10000 0.5 0 21:22 22.01.2020
110 Clouds 4 1018 38 10000 1 0 20:57 22.01.2020
111 Clouds 4 1018 38 10000 1 0 20:37 22.01.2020
112 Clouds 4 1018 44 10000 0.5 0 20:19 22.01.2020
113 Clouds 5 1019 38 10000 0.5 0 19:56 22.01.2020
114 Clouds 5 1019 38 10000 0.5 0 19:37 22.01.2020
115 Clouds 5 1019 35 10000 4.6 290 19:18 22.01.2020
116 Clouds 5 1020 38 10000 4.1 300 18:56 22.01.2020
117 Clouds 5 1020 38 10000 4.1 300 18:37 22.01.2020
118 Clouds 5 1020 38 10000 3.6 310 18:19 22.01.2020
119 Clouds 5 1021 41 10000 4.6 320 17:40 22.01.2020
120 Clouds 5 1021 41 10000 3.6 310 17:21 22.01.2020
121 Clouds 5 1021 45 10000 4.1 300 16:58 22.01.2020
122 Clouds 5 1021 45 10000 4.1 300 16:58 22.01.2020
123 Clouds 5 1021 45 10000 4.1 300 16:39 22.01.2020
124 Clouds 6 1021 36 10000 5.1 290 16:21 22.01.2020
125 Clouds 9 1022 36 10000 4.1 300 15:56 22.01.2020
126 Clouds 9 1022 36 10000 4.1 300 15:38 22.01.2020
127 Clouds 8 1022 36 10000 4.1 290 15:18 22.01.2020
128 Clouds 8 1022 36 10000 4.1 290 15:18 22.01.2020
129 Clouds 8 1023 37 10000 3.6 280 14:39 22.01.2020
130 Clouds 8 1023 37 10000 5.7 260 14:20 22.01.2020
131 Clouds 8 1023 37 10000 5.7 260 14:20 22.01.2020
132 Clouds 9 1024 32 10000 5.7 270 13:58 22.01.2020
133 Clouds 9 1024 32 10000 5.7 270 13:37 22.01.2020
134 Clear 8 1025 34 10000 6.7 270 13:19 22.01.2020
135 Clear 9 1026 37 10000 8.2 270 12:57 22.01.2020
136 Clear 9 1026 37 10000 8.2 270 12:38 22.01.2020
137 Clear 8 1026 39 10000 5.7 260 12:19 22.01.2020
138 Clear 8 1027 42 10000 6.2 270 11:57 22.01.2020
139 Clear 8 1027 42 10000 6.2 270 11:39 22.01.2020
140 Clear 7 1027 45 10000 6.7 280 11:19 22.01.2020
141 Clear 6 1028 45 10000 6.7 280 10:45 22.01.2020
142 Clear 5 1029 52 10000 7.2 270 10:21 22.01.2020
143 Clear 5 1029 52 10000 7.2 270 10:21 22.01.2020
144 Clear 4 1029 55 10000 7.7 280 09:58 22.01.2020
145 Clear 4 1029 55 10000 7.7 280 09:40 22.01.2020
146 Clear 4 1029 55 10000 7.2 280 09:21 22.01.2020
147 Clear 2 1030 64 10000 6.7 260 08:55 22.01.2020
148 Clear 2 1030 64 10000 6.7 260 08:37 22.01.2020
149 Clear 1 1030 69 10000 7.2 250 08:19 22.01.2020
150 Clear 0 1030 66 10000 3.6 250 07:44 22.01.2020
151 Clear -1 1030 66 10000 4.1 260 07:26 22.01.2020
152 Clear -1 1031 74 10000 3.6 270 06:34 22.01.2020
153 Clear -1 1031 74 10000 3.1 270 05:54 22.01.2020
154 Clear 0 1032 69 10000 5.7 280 04:25 22.01.2020
155 Clear 0 1032 69 10000 7.2 280 03:26 22.01.2020
156 Clear 0 1033 69 10000 5.7 270 02:48 22.01.2020
157 Clear 0 1033 71 10000 4.1 270 00:47 22.01.2020
158 Clear 0 1034 71 10000 5.1 270 00:27 22.01.2020
159 Clear 0 1034 71 10000 3.6 260 23:57 21.01.2020
160 Clear 0 1034 71 10000 3.6 260 23:37 21.01.2020
161 Clear -1 1034 80 10000 3.6 290 23:19 21.01.2020
162 Clear -1 1034 80 10000 4.6 280 22:40 21.01.2020
163 Clear 1 1035 74 10000 5.7 270 22:21 21.01.2020
164 Clear 0 1035 75 10000 4.6 270 21:58 21.01.2020
165 Clear 0 1035 75 10000 4.6 270 21:38 21.01.2020
166 Clear 1 1035 69 10000 3.1 260 21:20 21.01.2020
167 Clear 1 1035 69 10000 5.1 280 20:57 21.01.2020
168 Clear 1 1035 69 10000 5.1 280 20:38 21.01.2020
169 Clouds 1 1035 69 10000 4.6 280 20:19 21.01.2020
170 Clouds 1 1036 69 10000 4.1 290 19:56 21.01.2020
171 Clouds 1 1036 69 10000 4.1 290 19:56 21.01.2020
172 Clouds 1 1036 69 10000 4.1 290 19:38 21.01.2020
173 Clouds 1 1036 69 10000 3.6 270 19:20 21.01.2020
174 Clouds 1 1036 69 10000 3.6 280 18:55 21.01.2020
175 Clouds 1 1036 69 10000 3.6 280 18:55 21.01.2020
176 Clouds 1 1036 69 10000 3.6 280 18:37 21.01.2020
177 Clouds 2 1036 64 10000 4.6 310 18:18 21.01.2020
178 Clouds 2 1036 64 10000 4.1 300 17:45 21.01.2020
179 Clouds 2 1036 64 10000 3.6 290 17:20 21.01.2020
180 Clouds 2 1036 59 10000 3.6 270 16:59 21.01.2020
181 Clouds 2 1036 59 10000 3.6 270 16:59 21.01.2020
182 Clouds 3 1036 59 10000 3.6 270 16:37 21.01.2020
183 Clouds 3 1036 60 10000 5.1 310 16:19 21.01.2020
184 Clouds 5 1036 52 10000 5.7 310 15:42 21.01.2020
185 Clouds 5 1036 52 10000 6.2 300 15:22 21.01.2020
186 Clouds 5 1036 52 10000 7.7 300 14:59 21.01.2020
187 Clouds 6 1036 48 10000 7.7 280 14:38 21.01.2020
188 Clouds 5 1036 52 10000 7.7 300 14:38 21.01.2020
189 Clouds 6 1036 48 10000 7.7 280 14:19 21.01.2020
190 Clouds 5 1037 52 10000 7.2 270 13:40 21.01.2020
191 Clouds 5 1037 52 10000 7.2 280 13:19 21.01.2020
192 Clouds 5 1038 56 10000 7.2 270 12:44 21.01.2020
193 Clouds 5 1038 56 10000 6.2 270 12:25 21.01.2020
194 Clouds 4 1039 60 10000 7.2 280 11:57 21.01.2020
195 Clouds 3 1039 60 10000 7.2 280 11:39 21.01.2020
196 Clouds 3 1039 60 10000 7.2 270 11:21 21.01.2020
197 Clouds 3 1040 60 10000 7.2 260 10:55 21.01.2020
198 Clouds 3 1040 60 10000 7.2 260 10:37 21.01.2020
199 Clouds 3 1040 59 10000 6.2 260 10:18 21.01.2020
200 Clouds 2 1040 64 10000 6.2 260 09:41 21.01.2020
201 Clouds 2 1040 64 10000 5.1 250 09:22 21.01.2020
202 Clouds 1 1040 69 10000 4.1 260 08:49 21.01.2020
203 Clouds 0 1040 69 10000 3.1 300 08:29 21.01.2020
204 Clouds -1 1041 80 10000 3.6 290 07:59 21.01.2020
205 Clouds -1 1041 80 10000 3.6 290 07:39 21.01.2020
206 Clouds -2 1041 80 10000 3.1 280 07:21 21.01.2020
207 Clouds -2 1041 80 10000 3.6 270 06:48 21.01.2020
208 Clouds -1 1041 76 10000 4.1 270 06:26 21.01.2020
209 Clouds -1 1041 76 10000 4.1 280 05:42 21.01.2020
210 Clouds -1 1041 75 10000 3.6 300 04:39 21.01.2020
211 Clouds 0 1041 69 10000 3.6 310 02:56 21.01.2020
212 Clouds 0 1041 69 10000 3.6 320 01:51 21.01.2020
213 Clouds 0 1041 69 10000 4.1 300 00:57 21.01.2020
214 Clouds 0 1041 71 10000 3.6 280 00:35 21.01.2020
215 Clouds 0 1041 71 10000 4.1 270 23:57 20.01.2020
216 Clouds 0 1041 71 10000 4.1 270 23:37 20.01.2020
217 Clouds 0 1042 72 10000 3.6 280 23:18 20.01.2020
218 Clouds 0 1042 72 10000 3.6 280 23:18 20.01.2020
219 Clouds 0 1042 72 10000 3.6 270 22:56 20.01.2020
220 Clouds 0 1042 72 10000 3.6 270 22:37 20.01.2020
221 Clouds 0 1042 72 10000 3.1 290 22:18 20.01.2020
222 Clouds 0 1042 69 10000 2.6 310 21:57 20.01.2020
223 Clouds 0 1042 69 10000 2.6 310 21:36 20.01.2020
224 Clouds 0 1042 69 10000 2.6 320 21:18 20.01.2020
225 Clouds 0 1042 69 10000 2.1 320 20:55 20.01.2020
226 Clouds 0 1042 69 10000 2.1 320 20:36 20.01.2020
227 Clouds 0 1041 69 10000 1.5 0 20:18 20.01.2020
228 Clouds 0 1041 69 10000 2.1 330 19:56 20.01.2020
229 Clouds 0 1041 69 10000 2.1 330 19:37 20.01.2020
230 Clouds 0 1041 69 10000 3.1 310 19:18 20.01.2020
231 Clouds 0 1041 69 10000 3.1 310 18:42 20.01.2020
232 Clouds 0 1041 69 10000 3.1 310 18:21 20.01.2020
233 Clouds 1 1040 69 10000 2.6 300 17:39 20.01.2020
234 Clouds 1 1040 59 10000 3.6 310 17:19 20.01.2020
235 Clouds 1 1040 59 10000 3.6 310 16:55 20.01.2020
236 Clouds 1 1040 59 10000 3.6 310 16:36 20.01.2020
237 Clouds 1 1040 59 10000 3.6 320 16:18 20.01.2020
238 Clouds 1 1040 59 10000 5.1 330 15:41 20.01.2020
239 Clouds 1 1040 59 10000 4.1 340 15:22 20.01.2020
240 Clouds 1 1040 64 10000 6.2 350 14:59 20.01.2020
241 Clouds 1 1040 64 10000 6.2 350 14:41 20.01.2020
242 Clouds 1 1040 64 10000 6.2 330 14:21 20.01.2020
243 Clouds 1 1039 64 10000 6.2 350 13:57 20.01.2020
244 Clouds 1 1039 64 10000 6.2 350 13:38 20.01.2020
245 Clouds 1 1039 64 10000 6.2 350 13:20 20.01.2020
246 Clouds 1 1039 64 10000 8.2 360 12:42 20.01.2020
247 Clouds 1 1039 64 10000 7.7 350 12:23 20.01.2020
248 Clouds 1 1039 64 10000 6.2 350 11:56 20.01.2020
249 Clouds 1 1039 64 10000 6.2 350 11:37 20.01.2020
250 Clouds 1 1039 64 10000 6.2 340 11:18 20.01.2020
251 Clouds 0 1039 64 10000 6.2 340 10:46 20.01.2020
252 Clouds 0 1038 64 10000 7.7 360 10:21 20.01.2020
253 Clouds 0 1038 64 10000 7.7 360 09:42 20.01.2020
254 Clouds 0 1038 64 10000 7.7 360 09:24 20.01.2020
255 Clouds 0 1037 69 10000 8.2 360 08:56 20.01.2020
256 Clouds -1 1037 72 10000 8.2 360 08:34 20.01.2020
257 Clouds -1 1036 77 10000 7.7 360 07:59 20.01.2020
258 Clouds -1 1036 77 10000 7.7 360 07:41 20.01.2020
259 Clouds -1 1036 77 10000 7.7 350 07:21 20.01.2020
260 Clouds -1 1036 77 10000 7.7 360 06:44 20.01.2020
261 Clouds 0 1035 74 10000 6.7 10 06:22 20.01.2020
262 Clouds 0 1034 74 10000 5.1 330 05:38 20.01.2020
263 Clouds 0 1034 74 10000 5.1 330 05:19 20.01.2020
264 Clouds 0 1033 69 10000 9.3 360 04:23 20.01.2020
265 Clouds 1 1032 64 10000 7.2 10 01:59 20.01.2020
266 Clouds 2 1032 64 10000 7.2 10 01:40 20.01.2020
267 Clouds 2 1032 69 10000 7.2 10 01:18 20.01.2020
268 Clouds 1 1031 69 10000 8.2 360 00:42 20.01.2020
269 Clouds 1 1031 69 10000 8.7 360 00:20 20.01.2020
270 Clouds 1 1031 69 10000 8.7 360 23:38 19.01.2020
271 Clouds 1 1030 69 10000 8.7 360 23:19 19.01.2020
272 Clouds 1 1030 74 10000 9.3 360 22:56 19.01.2020
273 Clouds 2 1030 74 10000 9.3 360 22:37 19.01.2020
274 Clouds 2 1030 69 10000 9.3 360 22:19 19.01.2020
275 Clouds 2 1030 69 10000 8.2 10 21:56 19.01.2020
276 Clouds 2 1030 69 10000 8.2 10 21:38 19.01.2020
277 Clouds 2 1030 74 10000 7.2 10 21:19 19.01.2020
278 Clouds 2 1029 74 10000 8.2 360 20:56 19.01.2020
279 Clouds 2 1029 74 10000 8.2 360 20:38 19.01.2020
280 Clouds 2 1029 74 10000 9.3 360 20:19 19.01.2020
281 Clouds 2 1029 83 10000 8.2 10 19:55 19.01.2020
282 Clouds 3 1029 83 10000 8.2 10 19:37 19.01.2020
283 Clouds 2 1029 74 10000 9.3 10 19:19 19.01.2020
284 Clouds 2 1028 83 10000 9.3 360 18:55 19.01.2020
285 Clouds 3 1028 83 10000 9.3 360 18:37 19.01.2020
286 Clouds 3 1028 74 10000 9.8 350 18:18 19.01.2020
287 Clouds 3 1028 74 10000 9.8 350 18:18 19.01.2020
288 Clouds 3 1028 69 10000 7.7 10 17:57 19.01.2020
289 Clouds 3 1028 69 10000 7.7 10 17:38 19.01.2020
290 Clouds 3 1027 69 10000 6.7 10 17:19 19.01.2020
291 Clouds 3 1026 78 10000 7.2 350 16:55 19.01.2020
292 Clouds 4 1026 78 10000 7.2 350 16:36 19.01.2020
293 Clouds 3 1026 78 10000 6.7 360 16:18 19.01.2020
294 Rain 4 1026 78 10000 6.7 350 15:54 19.01.2020
295 Rain 4 1026 78 10000 6.7 350 15:36 19.01.2020
296 Clouds 4 1026 78 10000 6.2 350 15:18 19.01.2020
297 Clouds 4 1026 78 10000 6.2 350 15:18 19.01.2020
298 Clouds 4 1026 78 10000 6.2 350 15:18 19.01.2020
299 Clouds 5 1026 65 10000 5.7 10 14:40 19.01.2020
300 Clouds 4 1026 65 10000 5.1 10 14:20 19.01.2020
301 Clouds 4 1025 65 10000 4.6 360 13:59 19.01.2020
302 Clouds 4 1025 65 10000 4.6 360 13:40 19.01.2020
303 Clouds 4 1025 65 10000 4.1 20 13:21 19.01.2020
304 Clouds 4 1025 80 10000 6.2 20 12:59 19.01.2020
305 Clouds 4 1025 80 10000 6.2 20 12:59 19.01.2020
306 Clouds 4 1025 80 10000 6.2 20 12:40 19.01.2020
307 Clouds 4 1025 80 10000 5.1 20 12:21 19.01.2020
308 Clouds 4 1025 80 10000 5.7 20 11:57 19.01.2020
309 Clouds 4 1025 80 10000 5.7 20 11:37 19.01.2020
310 Clouds 4 1025 81 10000 6.2 10 11:18 19.01.2020
311 Clouds 4 1025 69 10000 6.7 20 10:40 19.01.2020
312 Clouds 3 1025 69 10000 5.7 10 10:20 19.01.2020
313 Clouds 3 1025 69 10000 5.7 10 09:57 19.01.2020
314 Clouds 3 1025 69 10000 5.7 10 09:38 19.01.2020
315 Clouds 3 1025 69 10000 5.7 20 09:19 19.01.2020
316 Clouds 2 1025 74 10000 6.2 10 08:55 19.01.2020
317 Clouds 2 1025 79 10000 5.1 10 08:32 19.01.2020
318 Rain 2 1025 78 10000 5.1 10 07:54 19.01.2020
319 Clouds 2 1025 74 10000 5.7 10 07:28 19.01.2020
320 Clouds 2 1025 74 10000 5.7 10 06:55 19.01.2020
321 Clouds 2 1025 74 10000 5.1 20 06:22 19.01.2020
322 Clouds 2 1025 74 10000 5.7 10 03:55 19.01.2020
323 Clouds 2 1025 72 10000 4.6 10 02:33 19.01.2020
324 Clouds 2 1025 72 10000 4.6 20 01:39 19.01.2020
325 Clouds 2 1025 71 10000 4.6 20 01:19 19.01.2020
326 Clouds 3 1025 71 10000 4.6 10 00:44 19.01.2020
327 Clouds 3 1025 71 10000 4.1 10 00:20 19.01.2020
328 Clouds 3 1025 71 10000 4.1 10 23:45 18.01.2020
329 Clouds 3 1026 71 10000 3.6 10 23:25 18.01.2020
330 Clouds 3 1026 74 10000 4.1 10 22:58 18.01.2020
331 Clouds 3 1026 74 10000 4.1 10 22:40 18.01.2020
332 Clouds 3 1026 74 10000 3.6 10 22:21 18.01.2020
333 Clouds 3 1026 74 10000 4.1 10 21:58 18.01.2020
334 Clouds 3 1026 74 10000 4.1 10 21:38 18.01.2020
335 Clouds 3 1026 74 10000 4.1 20 21:20 18.01.2020
336 Clouds 3 1026 74 10000 4.1 20 21:20 18.01.2020
337 Clouds 3 1026 74 10000 4.1 10 20:55 18.01.2020
338 Clouds 3 1026 74 10000 4.1 10 20:36 18.01.2020
339 Clouds 3 1026 80 10000 4.1 20 20:18 18.01.2020
340 Clouds 3 1027 80 10000 4.1 20 19:42 18.01.2020
341 Clouds 3 1027 80 10000 2.6 20 19:24 18.01.2020
342 Clouds 3 1027 80 10000 2.6 10 18:43 18.01.2020
343 Clouds 3 1027 75 10000 3.1 30 18:24 18.01.2020
344 Clouds 3 1027 75 10000 2.6 20 17:57 18.01.2020
345 Clouds 3 1027 75 10000 2.6 20 17:39 18.01.2020
346 Clouds 4 1027 74 10000 3.6 40 17:19 18.01.2020
347 Clouds 4 1027 74 10000 3.1 20 16:55 18.01.2020
348 Clouds 4 1027 74 10000 3.1 20 16:37 18.01.2020
349 Clouds 4 1027 74 10000 4.1 30 16:19 18.01.2020
350 Clouds 4 1027 74 10000 4.6 30 15:42 18.01.2020
351 Clouds 5 1027 74 10000 4.6 30 15:24 18.01.2020
352 Clouds 5 1027 74 10000 5.1 40 14:57 18.01.2020
353 Clouds 5 1027 74 10000 5.1 40 14:39 18.01.2020
354 Clouds 5 1027 74 10000 6.2 40 14:18 18.01.2020
355 Clouds 5 1027 74 10000 4.6 40 13:44 18.01.2020
356 Clouds 5 1028 74 10000 2.6 50 13:26 18.01.2020
357 Clouds 5 1028 75 10000 4.6 20 12:58 18.01.2020
358 Clouds 5 1028 75 10000 4.6 20 12:39 18.01.2020
359 Clouds 4 1028 75 10000 4.6 20 12:20 18.01.2020
360 Clouds 4 1029 75 10000 5.7 20 11:44 18.01.2020
361 Clouds 4 1029 76 10000 5.7 20 11:22 18.01.2020
362 Clouds 4 1029 76 10000 5.1 10 10:57 18.01.2020
363 Clouds 4 1029 76 10000 5.1 10 10:38 18.01.2020
364 Clouds 3 1029 76 10000 6.2 10 10:20 18.01.2020
365 Clouds 2 1030 76 10000 6.7 360 09:46 18.01.2020
366 Clouds 2 1030 76 10000 6.2 360 09:28 18.01.2020
367 Clouds 2 1030 76 10000 7.2 10 08:56 18.01.2020
368 Clouds 2 1030 76 10000 7.2 10 08:38 18.01.2020
369 Clouds 1 1030 80 10000 6.7 360 08:19 18.01.2020
370 Clouds 1 1030 80 10000 7.2 10 07:47 18.01.2020
371 Clouds 1 1030 80 10000 7.2 10 07:29 18.01.2020
372 Clouds 1 1029 80 10000 7.2 10 06:47 18.01.2020
373 Clouds 1 1029 80 10000 5.7 10 05:59 18.01.2020
374 Clouds 1 1029 80 10000 5.7 350 05:19 18.01.2020
375 Clouds 1 1030 80 10000 7.7 360 02:53 18.01.2020
376 Clouds 1 1030 79 10000 7.2 350 01:52 18.01.2020
377 Clouds 1 1030 78 10000 6.7 350 01:29 18.01.2020
378 Clouds 1 1030 78 10000 6.2 350 00:36 18.01.2020
379 Clouds 1 1030 78 10000 5.7 360 00:18 18.01.2020
380 Clouds 1 1030 78 10000 5.1 350 23:40 17.01.2020
381 Clouds 1 1030 74 10000 5.7 340 23:19 17.01.2020
382 Clouds 1 1031 74 10000 5.7 350 22:44 17.01.2020
383 Clouds 1 1031 74 10000 5.1 350 22:21 17.01.2020
384 Clouds 1 1031 74 10000 5.7 340 21:58 17.01.2020
385 Clouds 1 1031 74 10000 5.7 340 21:58 17.01.2020
386 Clouds 1 1031 74 10000 5.7 340 21:40 17.01.2020
387 Clouds 1 1031 80 10000 5.1 330 21:22 17.01.2020
388 Clouds 1 1031 80 10000 5.7 340 20:55 17.01.2020
389 Clouds 1 1031 80 10000 5.7 340 20:37 17.01.2020
390 Clouds 1 1031 80 10000 4.6 330 20:19 17.01.2020
391 Clouds 1 1031 80 10000 4.6 350 19:54 17.01.2020
392 Clouds 1 1031 80 10000 4.6 350 19:36 17.01.2020
393 Clouds 1 1031 80 10000 5.1 340 19:18 17.01.2020
394 Clouds 1 1031 80 10000 5.1 340 19:18 17.01.2020
395 Clouds 1 1032 71 10000 5.7 330 18:44 17.01.2020
396 Clouds 1 1031 71 10000 5.1 320 18:26 17.01.2020
397 Clouds 1 1031 71 10000 4.6 310 17:56 17.01.2020
398 Clouds 1 1031 71 10000 4.6 330 17:38 17.01.2020
399 Clouds 1 1031 70 10000 4.6 330 17:20 17.01.2020
400 Clouds 1 1031 70 10000 6.2 340 16:42 17.01.2020
401 Clouds 2 1030 70 10000 5.1 340 16:20 17.01.2020
402 Clouds 2 1030 80 10000 5.1 350 15:48 17.01.2020
403 Clouds 2 1030 80 10000 6.7 350 15:27 17.01.2020
404 Clouds 2 1030 80 10000 7.2 360 14:56 17.01.2020
405 Clouds 2 1030 80 10000 7.2 360 14:38 17.01.2020
406 Clouds 2 1030 74 10000 6.7 350 14:19 17.01.2020
407 Clouds 2 1030 74 10000 7.7 350 13:39 17.01.2020
408 Clouds 2 1030 80 10000 6.7 340 13:20 17.01.2020
409 Clouds 2 1030 74 10000 7.2 350 12:45 17.01.2020
410 Clouds 2 1030 74 10000 7.2 350 12:22 17.01.2020
411 Clouds 2 1030 74 10000 6.2 350 11:41 17.01.2020
412 Clouds 2 1030 74 10000 7.2 340 11:19 17.01.2020
413 Clouds 2 1030 80 10000 7.2 340 10:45 17.01.2020
414 Clouds 2 1031 74 10000 7.2 330 10:24 17.01.2020
415 Clouds 1 1031 80 10000 6.2 340 09:59 17.01.2020
416 Clouds 1 1031 80 10000 6.2 340 09:41 17.01.2020
417 Clouds 1 1031 80 10000 5.7 340 09:20 17.01.2020
418 Clouds 1 1031 74 10000 6.2 330 08:46 17.01.2020
419 Clouds 1 1030 76 10000 5.1 340 08:26 17.01.2020
420 Clouds 1 1030 76 10000 6.2 340 07:56 17.01.2020
421 Clouds 1 1030 76 10000 6.2 340 07:36 17.01.2020
422 Clouds 1 1030 76 10000 4.6 340 07:18 17.01.2020
423 Clouds 2 1030 74 10000 3.6 330 06:41 17.01.2020
424 Clouds 2 1030 76 10000 3.6 340 05:57 17.01.2020
425 Clouds 1 1027 85 0 1.34 315 03:39 17.01.2020
426 Clouds 3 1029 73 10000 4.1 340 02:55 17.01.2020
427 Clouds 2 1027 84 0 0.89 349 01:48 17.01.2020
428 Clouds 2 1027 84 0 0.45 188 01:29 17.01.2020
429 Clouds 2 1027 83 0 0.89 59 00:51 17.01.2020
430 Clouds 4 1029 68 10000 2.1 30 00:28 17.01.2020
431 Clouds 5 1029 68 10000 2.1 30 23:46 16.01.2020
432 Clouds 5 1029 68 10000 2.1 30 23:46 16.01.2020
433 Clouds 5 1029 68 10000 2.1 30 23:26 16.01.2020
434 Clouds 5 1030 72 10000 2.1 20 22:58 16.01.2020
435 Clouds 5 1030 72 10000 2.1 20 22:40 16.01.2020
436 Clouds 5 1030 72 10000 3.1 40 22:20 16.01.2020
437 Clouds 5 1030 72 10000 2.1 40 21:55 16.01.2020
438 Clouds 5 1030 72 10000 2.1 40 21:37 16.01.2020
439 Clouds 6 1029 72 10000 2.6 10 21:18 16.01.2020
440 Clouds 6 1029 72 10000 3.1 10 20:41 16.01.2020
441 Clouds 6 1029 72 10000 3.1 10 20:41 16.01.2020
442 Clouds 5 1029 72 10000 3.1 30 20:22 16.01.2020
443 Clouds 5 1029 72 10000 1.5 20 19:59 16.01.2020
444 Clouds 5 1029 72 10000 1.5 20 19:41 16.01.2020
445 Clouds 5 1030 60 10000 2.6 30 19:22 16.01.2020
446 Clouds 5 1030 60 10000 4.1 40 18:57 16.01.2020
447 Clouds 5 1030 60 10000 4.1 40 18:39 16.01.2020
448 Clouds 5 1029 72 10000 3.1 60 18:20 16.01.2020
449 Clouds 5 1029 72 10000 2.6 30 17:59 16.01.2020
450 Clouds 5 1029 72 10000 2.6 30 17:40 16.01.2020
451 Clouds 5 1029 72 10000 2.6 30 17:40 16.01.2020
452 Clouds 6 1029 71 10000 3.1 60 17:20 16.01.2020
453 Clouds 6 1029 65 10000 3.1 60 16:42 16.01.2020
454 Clouds 6 1029 65 10000 3.6 100 16:24 16.01.2020
455 Clouds 6 1029 65 10000 2.1 30 15:59 16.01.2020
456 Clouds 6 1029 65 10000 2.1 30 15:39 16.01.2020
457 Clouds 6 1029 65 10000 3.6 60 15:20 16.01.2020
458 Clouds 7 1029 71 10000 3.1 80 14:45 16.01.2020
459 Clouds 7 1029 71 10000 2.6 110 14:24 16.01.2020
460 Clouds 7 1029 72 10000 3.1 140 13:56 16.01.2020
461 Clouds 7 1029 72 10000 3.1 140 13:37 16.01.2020
462 Clouds 7 1029 71 10000 1.5 120 13:19 16.01.2020
463 Clouds 7 1029 71 10000 2.6 140 12:42 16.01.2020
464 Clouds 7 1029 65 10000 2.1 130 12:22 16.01.2020
465 Clouds 6 1030 70 10000 2.1 110 11:43 16.01.2020
466 Clouds 6 1030 70 10000 2.1 110 11:43 16.01.2020
467 Clouds 6 1030 81 10000 1.5 140 11:24 16.01.2020
468 Mist 6 1030 100 9000 1 0 10:59 16.01.2020
469 Mist 6 1030 100 9000 1 0 10:38 16.01.2020
470 Mist 5 1030 100 1700 0.5 0 10:20 16.01.2020
471 Mist 4 1031 100 1200 1 0 09:56 16.01.2020
472 Mist 4 1031 100 1200 1 0 09:37 16.01.2020
473 Mist 4 1031 100 1200 1 0 09:37 16.01.2020
474 Mist 3 1031 100 1200 1 0 09:18 16.01.2020
475 Fog 1 1031 100 750 5.3 78 08:44 16.01.2020
476 Fog 1 1031 74 250 5.3 78 08:23 16.01.2020
477 Fog 0 1031 73 100 3.32 84 07:44 16.01.2020
478 Fog 0 1030 73 650 3.32 84 07:25 16.01.2020
479 Fog 0 1030 73 450 3.32 84 06:56 16.01.2020
480 Fog 0 1030 73 450 3.32 84 06:37 16.01.2020
481 Fog 0 1030 73 600 3.32 84 05:56 16.01.2020
482 Fog -1 1030 100 300 3.32 84 05:31 16.01.2020
483 Fog -1 1030 100 350 4.55 72 04:37 16.01.2020
484 Fog 1 1030 100 550 1 0 03:28 16.01.2020
485 Fog 1 1031 100 750 4.55 72 02:29 16.01.2020
486 Fog 1 1031 100 300 0.5 0 00:45 16.01.2020
487 Fog 2 1031 100 350 1 320 00:24 16.01.2020
488 Fog 1 1031 100 300 1 330 23:48 15.01.2020
489 Fog 0 1031 100 450 0.5 0 23:22 15.01.2020
490 Fog 1 1031 100 1000 1 330 22:57 15.01.2020
491 Fog 0 1031 100 1000 1 330 22:39 15.01.2020
492 Fog 0 1032 100 450 1 340 22:19 15.01.2020
493 Fog 0 1032 100 300 1 350 21:57 15.01.2020
494 Fog 0 1032 100 300 1 350 21:37 15.01.2020
495 Fog 0 1032 100 250 1 0 21:19 15.01.2020
496 Fog 0 1032 100 300 1 10 20:56 15.01.2020
497 Fog 1 1032 100 300 1 10 20:38 15.01.2020
498 Fog 1 1032 100 300 1.5 340 20:19 15.01.2020
499 Fog 2 1032 100 300 1.5 20 19:54 15.01.2020
500 Fog 3 1032 100 300 1.5 20 19:36 15.01.2020
501 Fog 2 1032 100 300 1.5 10 19:18 15.01.2020
502 Fog 2 1032 100 300 1.5 10 19:18 15.01.2020
503 Fog 2 1032 100 350 1.5 20 18:56 15.01.2020
504 Fog 3 1032 100 350 1.5 20 18:37 15.01.2020
505 Fog 3 1032 100 500 3.57 105 18:19 15.01.2020
506 Fog 4 1031 100 1000 2.1 360 17:42 15.01.2020
507 Mist 3 1031 100 3100 2.6 100 17:23 15.01.2020
508 Drizzle 4 1031 100 2000 2.6 100 16:59 15.01.2020
509 Drizzle 4 1031 100 2000 2.6 100 16:39 15.01.2020
510 Fog 5 1030 100 900 3.6 130 16:21 15.01.2020
511 Fog 5 1030 100 900 3.6 130 16:21 15.01.2020
512 Mist 5 1030 100 3500 3.6 130 15:44 15.01.2020
513 Mist 5 1030 100 3900 4.6 120 15:22 15.01.2020
514 Mist 6 1030 93 4500 4.6 120 14:59 15.01.2020
515 Mist 7 1030 87 5000 3.6 130 14:41 15.01.2020
516 Mist 7 1030 87 5000 3.6 130 14:18 15.01.2020
517 Mist 8 1030 87 2100 3.6 120 13:46 15.01.2020
518 Mist 9 1030 81 4500 1.5 120 13:26 15.01.2020
519 Mist 8 1030 93 4200 1 0 12:58 15.01.2020
520 Mist 8 1030 93 4200 1 0 12:39 15.01.2020
521 Mist 7 1030 100 3300 0.5 0 12:19 15.01.2020
522 Mist 6 1031 100 1200 0.5 0 11:56 15.01.2020
523 Mist 7 1031 100 1200 0.5 0 11:36 15.01.2020
524 Fog 6 1031 100 300 0.5 0 11:18 15.01.2020
525 Fog 5 1031 100 200 1 300 10:41 15.01.2020
526 Fog 5 1031 100 200 1 0 10:23 15.01.2020
527 Fog 3 1031 100 200 1 0 09:42 15.01.2020
528 Fog 2 1031 74 500 0.5 0 09:22 15.01.2020
529 Fog 2 1031 74 250 0.5 0 08:55 15.01.2020
530 Fog 2 1031 74 250 0.5 0 08:37 15.01.2020
531 Fog 1 1031 100 150 1.8 329 08:19 15.01.2020
532 Fog 0 1030 100 100 0.5 0 07:43 15.01.2020
533 Fog -1 1030 100 100 1 10 07:24 15.01.2020
534 Fog -2 1030 100 150 1.5 300 06:44 15.01.2020
535 Fog -2 1029 100 100 1 20 05:57 15.01.2020
536 Fog -3 1029 100 250 1 0 03:56 15.01.2020
537 Fog -3 1028 100 350 1.5 250 02:28 15.01.2020
538 Fog -2 1028 100 350 1.83 286 01:22 15.01.2020
539 Fog -1 1028 100 250 1.79 278 00:44 15.01.2020
540 Fog -1 1028 100 250 0.5 0 00:25 15.01.2020
541 Fog -1 1028 72 400 1.5 300 23:47 14.01.2020
542 Fog 1 1028 100 800 1.5 320 23:29 14.01.2020
543 Mist -1 1028 100 2400 2.1 340 22:58 14.01.2020
544 Mist -1 1028 100 2400 2.1 340 22:40 14.01.2020
545 Fog 0 1028 100 1200 1.08 274 22:19 14.01.2020
546 Mist 1 1028 100 4700 2.1 50 21:58 14.01.2020
547 Clouds 1 1028 93 6000 1.5 20 21:39 14.01.2020
548 Clouds 0 1028 93 6000 1.5 20 21:19 14.01.2020
549 Mist 0 1028 70 5000 1.08 274 20:54 14.01.2020
550 Mist 0 1028 70 5000 1.08 274 20:54 14.01.2020
551 Mist 0 1028 70 5000 1.08 274 20:36 14.01.2020
552 Clouds 1 1028 74 8000 1 30 20:18 14.01.2020
553 Clouds 1 1028 74 8000 1 30 19:55 14.01.2020
554 Clouds 1 1028 74 8000 1 30 19:37 14.01.2020
555 Clouds 1 1027 74 8000 2.1 40 19:18 14.01.2020
556 Clouds 1 1027 74 8000 2.1 40 19:18 14.01.2020
557 Clouds 2 1027 74 8000 2.1 30 18:41 14.01.2020
558 Clouds 3 1027 75 9000 2.1 50 18:20 14.01.2020
559 Clouds 3 1027 75 9000 2.1 50 17:56 14.01.2020
560 Clouds 3 1027 75 9000 2.1 50 17:36 14.01.2020
561 Clouds 4 1026 80 9000 2.1 70 17:18 14.01.2020
562 Clouds 4 1026 80 9000 3.6 100 16:42 14.01.2020
563 Clouds 5 1026 75 9000 2.6 120 16:22 14.01.2020
564 Clouds 7 1025 75 9000 2.6 120 15:56 14.01.2020
565 Clouds 7 1025 75 9000 2.6 120 15:38 14.01.2020
566 Clouds 7 1025 70 10000 2.6 130 15:19 14.01.2020
567 Clouds 8 1025 66 10000 2.1 130 14:43 14.01.2020
568 Clouds 8 1025 57 10000 2.1 150 14:20 14.01.2020
569 Clouds 9 1025 67 10000 0.5 0 13:55 14.01.2020
570 Clouds 8 1025 67 10000 0.5 0 13:37 14.01.2020
571 Clouds 8 1025 53 10000 1.5 210 13:18 14.01.2020
572 Clouds 9 1025 57 10000 2.1 180 12:41 14.01.2020
573 Clouds 10 1025 57 10000 1.5 220 12:20 14.01.2020
574 Clouds 8 1026 61 9000 1 0 11:43 14.01.2020
575 Clouds 6 1026 65 8000 1 0 11:23 14.01.2020
576 Clouds 6 1026 75 7000 1 0 10:59 14.01.2020
577 Clouds 7 1026 75 7000 1 0 10:39 14.01.2020
578 Clouds 6 1026 75 7000 1 0 10:20 14.01.2020
579 Mist 6 1026 100 4500 1 0 09:57 14.01.2020
580 Mist 6 1026 100 4500 1 0 09:57 14.01.2020
581 Mist 6 1026 100 4500 1 0 09:39 14.01.2020
582 Mist 4 1026 68 3200 1 0 09:20 14.01.2020
583 Mist 2 1026 100 1200 1.21 266 08:46 14.01.2020
584 Fog 2 1026 100 800 1.5 280 08:24 14.01.2020
585 Fog 0 1026 100 1000 1.5 290 07:53 14.01.2020
586 Fog -1 1025 100 650 1.5 280 07:33 14.01.2020
587 Mist -3 1025 100 3100 2.1 310 06:54 14.01.2020
588 Fog -3 1025 100 1500 1.5 300 06:27 14.01.2020
589 Fog -4 1025 100 150 1.5 280 05:25 14.01.2020
590 Fog -3 1025 100 1800 1 280 03:52 14.01.2020
591 Mist -2 1025 100 4000 0.5 340 02:42 14.01.2020
592 Mist -3 1025 100 4100 1 260 01:53 14.01.2020
593 Mist -2 1025 100 5000 1 260 00:51 14.01.2020
594 Clear -2 1025 74 7000 0.5 330 00:32 14.01.2020
595 Clear -2 1025 74 9000 2.02 280 23:54 13.01.2020
596 Clear -2 1025 74 9000 2.02 280 23:54 13.01.2020
597 Clear -1 1025 74 9000 2.02 280 23:36 13.01.2020
598 Clear -1 1025 73 8000 2.65 217 23:18 13.01.2020
599 Clear -1 1025 100 8000 0.5 310 22:41 13.01.2020
600 Clear -1 1025 92 8000 2.65 217 22:21 13.01.2020
601 Clear -1 1025 73 9000 2.65 217 21:56 13.01.2020
602 Clear -1 1025 73 9000 2.65 217 21:38 13.01.2020
603 Clear -1 1025 73 8000 1 0 21:18 13.01.2020
604 Clear 0 1025 73 10000 1 350 20:57 13.01.2020
605 Clear 0 1025 73 10000 2.1 10 20:38 13.01.2020
606 Clear 0 1025 74 10000 2.1 10 20:20 13.01.2020
607 Clear 0 1025 86 8000 2.1 10 19:56 13.01.2020
608 Clear 0 1025 86 8000 2.1 10 19:38 13.01.2020
609 Clear 0 1025 86 9000 2.1 10 19:18 13.01.2020
610 Clear 1 1026 80 8000 1.5 10 18:56 13.01.2020
611 Clear 1 1026 80 8000 1.5 10 18:37 13.01.2020
612 Clear 1 1026 80 7000 3.17 183 18:18 13.01.2020
613 Clear 2 1025 74 8000 2.1 30 17:40 13.01.2020
614 Clear 3 1025 80 9000 2.1 30 17:21 13.01.2020
615 Clear 5 1025 81 10000 2.6 100 16:56 13.01.2020
616 Clear 5 1025 81 10000 2.6 100 16:37 13.01.2020
617 Clear 5 1023 62 0 0.89 189 16:18 13.01.2020
618 Clear 7 1026 73 0 3.51 167 15:43 13.01.2020
619 Clear 7 1026 73 0 3.51 167 15:22 13.01.2020
620 Clear 7 1026 73 0 3.51 167 15:22 13.01.2020
621 Clear 7 1026 73 0 3.51 167 14:57 13.01.2020
622 Clear 7 1026 73 0 3.51 167 14:37 13.01.2020
623 Clear 7 1026 73 0 3.51 167 14:37 13.01.2020
624 Clear 11 1023 41 0 1.79 248 14:18 13.01.2020
625 Clear 12 1023 40 0 1.79 213 13:41 13.01.2020
626 Clear 12 1023 40 0 2.24 231 13:22 13.01.2020
627 Clear 9 1027 70 10000 2.1 270 12:58 13.01.2020
628 Clear 9 1027 70 10000 2.1 270 12:40 13.01.2020
629 Clear 8 1027 70 10000 2.1 270 12:21 13.01.2020
630 Clear 8 1027 70 10000 2.1 270 11:56 13.01.2020
631 Clear 8 1027 70 10000 2.1 270 11:36 13.01.2020
632 Clear 7 1028 70 10000 2.6 260 11:18 13.01.2020
633 Clear 7 1028 70 10000 2.6 260 11:18 13.01.2020
634 Clear 7 1028 70 10000 2.6 260 11:18 13.01.2020
635 Clouds 6 1028 100 10000 1.5 270 10:55 13.01.2020
636 Clouds 6 1028 100 10000 1.5 270 10:36 13.01.2020
637 Fog 6 1028 100 2900 1.5 270 10:18 13.01.2020
638 Fog 5 1028 66 900 2.1 260 09:40 13.01.2020
639 Fog 5 1028 66 900 2.1 260 09:40 13.01.2020
640 Fog 3 1028 100 100 2.1 270 09:22 13.01.2020
641 Fog 2 1028 100 200 1.5 260 08:41 13.01.2020
642 Fog 2 1028 100 1900 1 290 08:21 13.01.2020
643 Fog -1 1028 92 200 2.6 280 07:52 13.01.2020
644 Fog -1 1028 92 150 2.1 270 07:33 13.01.2020
645 Fog -2 1028 92 250 1.5 290 06:44 13.01.2020
646 Fog -3 1028 100 250 1.5 290 06:22 13.01.2020
647 Fog -3 1028 100 200 1.5 260 05:36 13.01.2020
648 Mist -3 1029 100 2000 1.5 300 03:57 13.01.2020
649 Mist -3 1029 100 3800 1.83 285 03:25 13.01.2020
650 Clear -3 1029 100 6000 1.83 285 02:47 13.01.2020
651 Clear -3 1029 100 9000 1.83 285 02:28 13.01.2020
652 Clear -2 1029 100 10000 2.56 317 01:21 13.01.2020
653 Clear -2 1029 100 10000 2.56 317 00:41 13.01.2020
654 Clear -1 1029 100 10000 2.56 317 00:22 13.01.2020
655 Clear -2 1029 100 10000 2.56 317 23:44 12.01.2020
656 Clear -2 1029 100 10000 2.56 317 23:24 12.01.2020
657 Clear -2 1030 92 10000 2.31 327 22:58 12.01.2020
658 Clear -2 1030 92 10000 2.31 327 22:39 12.01.2020
659 Clear -2 1030 92 10000 1 0 22:21 12.01.2020
660 Clear -2 1030 92 10000 1.5 350 21:56 12.01.2020
661 Clear -1 1030 92 10000 1.5 350 21:38 12.01.2020
662 Clear -1 1030 86 10000 2.1 330 21:19 12.01.2020
663 Clear -1 1030 68 10000 1 0 20:56 12.01.2020
664 Clear -1 1030 68 10000 1 0 20:37 12.01.2020
665 Clouds 0 1030 80 10000 2.1 350 20:19 12.01.2020
666 Clouds 0 1030 80 10000 2.1 350 20:19 12.01.2020
667 Clouds 0 1030 80 10000 1 310 19:55 12.01.2020
668 Clouds 0 1030 80 10000 1 310 19:37 12.01.2020
669 Clouds 1 1030 70 10000 4.83 7 19:18 12.01.2020
670 Clouds 1 1030 74 10000 1 0 18:57 12.01.2020
671 Clouds 1 1030 74 10000 1 0 18:38 12.01.2020
672 Clouds 1 1030 74 10000 2.1 10 18:20 12.01.2020
673 Clouds 3 1029 70 10000 2.1 30 17:42 12.01.2020
674 Clouds 4 1029 70 10000 2.6 10 17:22 12.01.2020
675 Clouds 5 1029 74 10000 2.6 360 16:58 12.01.2020
676 Clouds 5 1029 74 10000 2.6 360 16:39 12.01.2020
677 Clouds 6 1029 74 10000 2.1 350 16:20 12.01.2020
678 Clouds 8 1029 61 10000 3.1 10 15:56 12.01.2020
679 Clouds 8 1029 61 10000 3.1 10 15:38 12.01.2020
680 Clouds 8 1029 57 10000 3.6 350 15:20 12.01.2020
681 Clouds 10 1029 74 10000 2.1 20 14:42 12.01.2020
682 Clouds 9 1029 74 10000 2.6 50 14:23 12.01.2020
683 Clouds 9 1029 53 10000 2.1 0 13:57 12.01.2020
684 Clouds 9 1029 53 10000 2.1 0 13:39 12.01.2020
685 Clouds 9 1028 76 10000 3.1 20 13:20 12.01.2020
686 Clouds 8 1029 76 10000 3.6 40 12:55 12.01.2020
687 Clouds 9 1029 76 10000 3.6 40 12:37 12.01.2020
688 Clouds 9 1029 76 10000 3.6 40 12:37 12.01.2020
689 Clouds 8 1029 76 10000 4.6 50 12:18 12.01.2020
690 Clouds 8 1029 57 10000 2.1 340 11:41 12.01.2020
691 Clouds 8 1029 65 10000 5.1 340 11:22 12.01.2020
692 Clouds 8 1029 65 10000 2.1 10 10:56 12.01.2020
693 Clouds 7 1029 65 10000 2.1 10 10:37 12.01.2020
694 Clouds 6 1029 65 10000 2.6 290 10:18 12.01.2020
695 Clouds 6 1029 65 10000 2.1 280 09:41 12.01.2020
696 Clouds 6 1029 65 10000 2.1 280 09:41 12.01.2020
697 Clouds 6 1029 65 10000 3.1 280 09:21 12.01.2020
698 Clouds 5 1029 70 10000 2.6 290 08:47 12.01.2020
699 Clouds 5 1029 70 10000 2.1 320 08:22 12.01.2020
700 Clouds 5 1029 70 10000 2.1 0 07:46 12.01.2020
701 Clouds 5 1028 70 10000 1 0 07:25 12.01.2020
702 Clouds 5 1028 65 10000 4.1 300 06:50 12.01.2020
703 Clouds 5 1028 70 10000 1.5 290 06:32 12.01.2020
704 Clouds 5 1027 70 10000 3.1 270 05:49 12.01.2020
705 Clouds 5 1027 65 10000 3.1 340 04:53 12.01.2020
706 Clouds 6 1026 74 10000 1.5 280 03:33 12.01.2020
707 Clouds 5 1026 65 10000 1 0 02:43 12.01.2020
708 Clouds 5 1026 74 10000 1 0 02:22 12.01.2020
709 Clouds 5 1026 74 10000 2.6 240 01:30 12.01.2020
710 Clouds 5 1026 74 10000 2.1 280 00:45 12.01.2020
711 Clouds 5 1026 74 10000 2.1 250 00:22 12.01.2020
712 Clouds 5 1025 74 10000 3.1 230 23:56 11.01.2020
713 Clouds 4 1025 74 10000 3.1 230 23:37 11.01.2020
714 Clouds 4 1026 66 10000 4.1 280 23:18 11.01.2020
715 Clouds 5 1025 66 10000 2.6 240 22:56 11.01.2020
716 Clouds 5 1025 66 10000 2.6 240 22:37 11.01.2020
717 Clouds 5 1025 66 10000 2.1 250 22:18 11.01.2020
718 Clouds 5 1025 66 10000 3.6 300 21:42 11.01.2020
719 Clouds 5 1025 66 10000 3.6 280 21:18 11.01.2020
720 Clouds 6 1024 66 10000 3.1 270 20:55 11.01.2020
721 Clouds 6 1024 66 10000 2.6 260 20:36 11.01.2020
722 Clouds 6 1024 65 10000 2.6 260 20:18 11.01.2020
723 Clouds 6 1024 65 10000 2.6 260 20:18 11.01.2020
724 Clouds 6 1023 65 10000 3.6 280 19:54 11.01.2020
725 Clouds 6 1023 65 10000 1.5 0 19:36 11.01.2020
726 Clouds 6 1023 65 10000 1.5 0 19:18 11.01.2020
727 Clouds 6 1023 65 10000 3.6 260 18:39 11.01.2020
728 Clouds 6 1022 65 10000 2.1 0 18:20 11.01.2020
729 Clouds 6 1023 65 10000 4.1 300 17:58 11.01.2020
730 Clouds 6 1023 65 10000 4.1 300 17:40 11.01.2020
731 Clouds 6 1023 62 10000 6.2 330 17:20 11.01.2020
732 Clouds 7 1022 62 10000 4.6 340 16:55 11.01.2020
733 Clouds 7 1022 62 10000 4.6 340 16:55 11.01.2020
734 Clouds 7 1022 62 10000 4.6 340 16:36 11.01.2020
735 Clouds 7 1022 62 10000 4.6 340 16:36 11.01.2020
736 Clouds 7 1022 62 10000 5.1 340 16:18 11.01.2020
737 Clouds 8 1022 62 10000 4.6 310 15:41 11.01.2020
738 Clouds 9 1022 62 10000 5.1 310 15:23 11.01.2020
739 Clouds 9 1021 62 10000 4.6 320 14:58 11.01.2020
740 Clouds 10 1021 62 10000 4.6 320 14:39 11.01.2020
741 Clear 10 1021 62 10000 6.2 310 14:21 11.01.2020
742 Clear 11 1021 62 10000 6.2 280 13:55 11.01.2020
743 Clear 11 1021 62 10000 6.2 280 13:36 11.01.2020
744 Clear 11 1020 62 10000 7.7 280 13:18 11.01.2020
745 Clear 12 1021 62 10000 7.2 280 12:41 11.01.2020
746 Clear 12 1021 62 10000 7.2 280 12:41 11.01.2020
747 Clear 13 1021 37 10000 6.2 290 12:23 11.01.2020
748 Clear 12 1021 37 10000 6.7 280 11:48 11.01.2020
749 Clear 12 1021 40 10000 5.7 270 11:26 11.01.2020
750 Clear 11 1022 40 10000 4.6 270 10:55 11.01.2020
751 Clear 10 1022 46 10000 2.6 240 10:36 11.01.2020
752 Clear 12 1022 40 10000 4.6 270 10:36 11.01.2020
753 Clear 10 1022 46 10000 2.6 240 10:18 11.01.2020
754 Clear 9 1022 52 10000 2.1 260 09:39 11.01.2020
755 Clear 8 1022 60 10000 1.5 270 09:20 11.01.2020
756 Clear 8 1022 60 10000 1.5 270 09:20 11.01.2020
757 Clear 6 1022 64 9000 1 0 08:42 11.01.2020
758 Clear 2 1022 69 8000 1 0 08:22 11.01.2020
759 Clear 4 1022 74 7000 1 0 07:44 11.01.2020
760 Clear 3 1022 80 6000 1 280 07:25 11.01.2020
761 Clear 2 1022 54 9000 2.66 276 06:51 11.01.2020
762 Clear 1 1022 54 10000 2.66 276 05:48 11.01.2020
763 Clear 3 1021 52 10000 2.35 273 04:47 11.01.2020
764 Clear 2 1021 69 10000 1 0 04:28 11.01.2020
765 Clear 2 1021 80 10000 1 0 02:49 11.01.2020
766 Clear 1 1021 52 10000 2.1 250 02:27 11.01.2020
767 Clear 1 1021 52 10000 1 0 01:43 11.01.2020
768 Clear 1 1021 51 10000 1.5 260 01:19 11.01.2020
769 Clear 2 1021 69 10000 2.36 276 00:38 11.01.2020
770 Clear 1 1021 64 10000 1.5 320 23:59 10.01.2020
771 Clear 1 1021 64 10000 1.5 320 23:40 10.01.2020
772 Clear 2 1022 59 10000 1.5 350 23:21 10.01.2020
773 Clear 1 1022 69 10000 1.5 360 22:57 10.01.2020
774 Clear 1 1022 69 10000 1.5 360 22:39 10.01.2020
775 Clear 2 1022 64 10000 0.5 0 22:20 10.01.2020
776 Clear 2 1022 69 10000 1.5 330 21:56 10.01.2020
777 Clear 1 1022 69 10000 1.5 330 21:36 10.01.2020
778 Clear 1 1022 69 10000 1 360 21:18 10.01.2020
779 Clear 2 1022 59 10000 1.5 350 20:43 10.01.2020
780 Clear 2 1022 59 10000 1.5 350 20:43 10.01.2020
781 Clear 2 1022 59 10000 1.5 30 20:24 10.01.2020
782 Clear 2 1021 64 10000 0.5 10 19:56 10.01.2020
783 Clear 2 1021 64 10000 0.5 10 19:37 10.01.2020
784 Clear 2 1021 64 10000 1.5 10 19:19 10.01.2020
785 Clear 2 1021 64 10000 1.5 10 19:19 10.01.2020
786 Clear 3 1021 64 10000 1.5 10 18:42 10.01.2020
787 Clear 2 1021 64 10000 1 20 18:19 10.01.2020
788 Clear 3 1022 56 10000 2.1 60 17:57 10.01.2020
789 Clear 2 1022 64 10000 3.6 100 17:39 10.01.2020
790 Clear 3 1022 64 10000 3.6 100 17:20 10.01.2020
791 Clear 4 1021 64 10000 4.1 100 16:56 10.01.2020
792 Clear 5 1021 56 10000 4.1 110 16:37 10.01.2020
793 Clear 6 1021 56 10000 4.1 110 16:19 10.01.2020
794 Clear 8 1021 56 10000 4.1 110 15:55 10.01.2020
795 Clear 8 1021 56 10000 4.1 110 15:36 10.01.2020
796 Clear 9 1021 34 10000 2.6 170 15:18 10.01.2020
797 Clear 9 1021 34 10000 3.6 270 14:54 10.01.2020
798 Clear 9 1021 37 10000 4.1 260 14:36 10.01.2020
799 Clouds 9 1021 37 10000 4.1 260 14:18 10.01.2020
800 Clouds 9 1021 37 10000 3.6 250 13:41 10.01.2020
801 Clouds 10 1021 37 10000 2.6 250 13:23 10.01.2020
802 Clouds 9 1022 39 10000 1.5 0 12:58 10.01.2020
803 Clouds 9 1022 39 10000 1.5 0 12:38 10.01.2020
804 Clouds 9 1022 39 10000 2.6 270 12:19 10.01.2020
805 Clouds 7 1023 45 10000 1 0 11:55 10.01.2020
806 Clouds 7 1023 45 10000 1 0 11:37 10.01.2020
807 Clear 5 1023 48 10000 1 0 11:18 10.01.2020
808 Clear 5 1023 55 10000 1.5 310 10:42 10.01.2020
809 Clear 5 1024 60 10000 1.5 310 10:24 10.01.2020
810 Clear 4 1024 64 10000 1.5 260 09:56 10.01.2020
811 Clear 4 1024 64 10000 1.5 260 09:56 10.01.2020
812 Clear 4 1024 64 10000 1.5 260 09:37 10.01.2020
813 Clear 4 1024 69 7000 2.01 247 09:19 10.01.2020
814 Clear 3 1024 74 8000 1 0 08:41 10.01.2020
815 Clouds 3 1024 74 7000 0.5 0 08:23 10.01.2020
816 Clouds 1 1024 56 6000 2.7 277 07:44 10.01.2020
817 Clouds 0 1024 86 7000 1 0 07:24 10.01.2020
818 Clouds 0 1024 80 10000 1 10 06:46 10.01.2020
819 Clouds 0 1024 80 10000 1 0 06:26 10.01.2020
820 Clouds 0 1024 86 10000 1 270 05:48 10.01.2020
821 Clear 0 1023 80 10000 0.5 250 03:37 10.01.2020
822 Clear 0 1024 57 10000 1 290 03:18 10.01.2020
823 Clear 0 1024 57 10000 1 250 02:39 10.01.2020
824 Clouds 0 1024 55 10000 2.5 300 01:38 10.01.2020
825 Clouds 0 1025 53 10000 2.61 292 01:19 10.01.2020
826 Clouds 0 1025 53 10000 0.5 0 00:39 10.01.2020
827 Clouds 1 1025 69 10000 0.5 300 23:58 09.01.2020
828 Clouds 1 1025 69 10000 0.5 300 23:38 09.01.2020
829 Clouds 1 1025 69 10000 2.96 287 23:20 09.01.2020
830 Clouds 1 1025 69 10000 1.5 260 22:57 09.01.2020
831 Clouds 1 1025 69 10000 1.5 260 22:37 09.01.2020
832 Clouds 1 1025 64 10000 1.5 10 22:18 09.01.2020
833 Clouds 2 1025 59 10000 2.96 287 21:56 09.01.2020
834 Clouds 1 1025 64 10000 2.96 287 21:37 09.01.2020
835 Clouds 1 1025 59 10000 2.96 287 21:37 09.01.2020
836 Clouds 1 1025 64 10000 2.96 287 21:37 09.01.2020
837 Clouds 1 1025 64 10000 2.96 287 21:18 09.01.2020
838 Clouds 2 1025 59 10000 2.96 287 20:56 09.01.2020
839 Clouds 2 1025 59 10000 2.96 287 20:38 09.01.2020
840 Clouds 2 1025 59 10000 1 0 20:19 09.01.2020
841 Clouds 2 1025 59 10000 1.5 240 19:54 09.01.2020
842 Clouds 3 1025 55 10000 1.5 0 19:36 09.01.2020
843 Clouds 3 1025 55 10000 1.5 0 19:18 09.01.2020
844 Clouds 4 1025 55 10000 3.1 310 18:54 09.01.2020
845 Clouds 4 1025 55 10000 3.1 330 18:36 09.01.2020
846 Clouds 4 1025 55 10000 3.1 330 18:18 09.01.2020
847 Clouds 4 1025 55 10000 1.5 360 17:40 09.01.2020
848 Clouds 3 1025 55 10000 1.5 360 17:18 09.01.2020
849 Clouds 3 1025 55 10000 1.5 360 17:18 09.01.2020
850 Clouds 3 1025 55 10000 1.5 360 17:18 09.01.2020
851 Clouds 3 1025 55 10000 2.6 310 16:46 09.01.2020
852 Clouds 5 1025 52 10000 3.1 250 16:22 09.01.2020
853 Clouds 6 1025 45 10000 4.1 250 15:44 09.01.2020
854 Clouds 6 1025 45 10000 4.1 250 15:25 09.01.2020
855 Clouds 6 1025 45 10000 3.6 240 14:59 09.01.2020
856 Clouds 7 1025 42 10000 3.6 290 14:41 09.01.2020
857 Clouds 7 1025 42 10000 3.6 290 14:19 09.01.2020
858 Clouds 6 1025 42 10000 3.6 290 13:56 09.01.2020
859 Clouds 6 1025 42 10000 4.1 280 13:38 09.01.2020
860 Clouds 6 1025 42 10000 4.1 280 13:19 09.01.2020
861 Clouds 6 1025 45 10000 4.1 250 12:56 09.01.2020
862 Clouds 6 1026 48 10000 5.1 260 12:38 09.01.2020
863 Clouds 6 1026 48 10000 5.1 260 12:18 09.01.2020
864 Clouds 4 1027 51 10000 3.6 270 11:42 09.01.2020
865 Clouds 4 1027 51 10000 3.6 270 11:24 09.01.2020
866 Clouds 4 1027 51 10000 3.6 270 11:24 09.01.2020
867 Clouds 4 1027 51 10000 3.6 270 11:24 09.01.2020
868 Clouds 3 1027 51 10000 4.1 260 10:58 09.01.2020
869 Clouds 3 1028 55 10000 4.6 270 10:40 09.01.2020
870 Clouds 2 1028 55 10000 4.6 270 10:21 09.01.2020
871 Clouds 2 1028 55 10000 2.6 280 09:46 09.01.2020
872 Clouds 1 1028 64 10000 2.1 260 09:25 09.01.2020
873 Clouds 0 1028 74 10000 0.5 0 08:58 09.01.2020
874 Clouds -1 1028 79 10000 1 270 08:39 09.01.2020
875 Clear -1 1028 79 10000 1 270 08:20 09.01.2020
876 Clear -1 1028 79 10000 1 270 08:20 09.01.2020
877 Clear -3 1028 79 10000 1.5 280 07:47 09.01.2020
878 Clear -3 1028 85 10000 2.1 260 07:28 09.01.2020
879 Clear -4 1028 79 10000 2.1 320 06:40 09.01.2020
880 Clear -4 1028 79 10000 2.1 320 06:22 09.01.2020
881 Clear -4 1028 85 10000 2.6 320 05:51 09.01.2020
882 Clear -4 1028 85 10000 1.5 310 05:18 09.01.2020
883 Clear -4 1028 85 10000 1.5 300 04:38 09.01.2020
884 Clear -4 1029 85 10000 2.1 240 03:26 09.01.2020
885 Clear -4 1029 79 10000 0.5 0 02:46 09.01.2020
886 Clear -3 1030 79 10000 5.7 310 01:41 09.01.2020
887 Clear -3 1030 79 10000 5.1 310 00:56 09.01.2020
888 Clear -3 1029 79 10000 2.6 340 00:36 09.01.2020
889 Clear -3 1029 79 10000 2.6 340 00:18 09.01.2020
890 Clear -2 1030 80 10000 2.6 260 23:39 08.01.2020
891 Clear -2 1030 80 10000 2.6 260 23:20 08.01.2020
892 Clear -2 1030 79 10000 4.6 250 22:40 08.01.2020
893 Clear -2 1030 79 10000 4.6 250 22:21 08.01.2020
894 Clear -2 1030 79 10000 4.6 250 21:58 08.01.2020
895 Clear -2 1030 80 10000 3.6 260 21:40 08.01.2020
896 Clear -2 1030 80 10000 3.6 260 21:40 08.01.2020
897 Clear -2 1030 80 10000 3.6 260 21:20 08.01.2020
898 Clear -2 1030 80 10000 3.1 250 20:59 08.01.2020
899 Clear -2 1030 80 10000 3.6 280 20:40 08.01.2020
900 Clear -2 1030 80 10000 3.6 280 20:20 08.01.2020
901 Clear -2 1030 80 10000 3.6 280 20:20 08.01.2020
902 Clear -2 1030 80 10000 3.6 290 19:57 08.01.2020
903 Clear -2 1030 74 10000 3.1 270 19:38 08.01.2020
904 Clear -2 1030 74 10000 3.1 270 19:19 08.01.2020
905 Clear -1 1030 74 10000 2.6 260 18:57 08.01.2020
906 Clear -1 1030 60 10000 2.1 0 18:38 08.01.2020
907 Clear -1 1030 60 10000 2.1 0 18:18 08.01.2020
908 Clear -1 1030 74 10000 3.6 250 17:56 08.01.2020
909 Clear -1 1030 74 10000 3.6 250 17:56 08.01.2020
910 Clear -1 1030 60 10000 2.6 270 17:37 08.01.2020
911 Clear -1 1030 60 10000 2.6 270 17:18 08.01.2020
912 Clear -1 1030 60 10000 2.6 300 16:54 08.01.2020
913 Clear 0 1030 59 10000 4.1 310 16:36 08.01.2020
914 Clear 1 1030 59 10000 4.1 310 16:18 08.01.2020
915 Clear 1 1029 55 10000 6.7 320 15:41 08.01.2020
916 Clear 1 1029 55 10000 6.7 320 15:21 08.01.2020
917 Clear 2 1029 55 10000 5.7 330 14:57 08.01.2020
918 Clear 2 1029 55 10000 5.7 340 14:39 08.01.2020
919 Clouds 2 1029 55 10000 5.7 340 14:20 08.01.2020
920 Clouds 2 1029 55 10000 6.2 340 13:40 08.01.2020
921 Clouds 2 1029 55 10000 6.2 340 13:40 08.01.2020
922 Clouds 2 1029 55 10000 6.2 340 13:19 08.01.2020
923 Clouds 1 1029 55 10000 6.2 330 12:42 08.01.2020
924 Clouds 1 1029 55 10000 6.2 330 12:19 08.01.2020
925 Clouds 1 1030 51 10000 5.7 330 11:55 08.01.2020
926 Clouds 1 1030 59 10000 6.2 330 11:37 08.01.2020
927 Clouds 1 1030 59 10000 6.2 330 11:19 08.01.2020
928 Clouds 0 1030 59 10000 4.6 320 10:55 08.01.2020
929 Clouds 0 1031 64 10000 4.1 320 10:37 08.01.2020
930 Clouds 0 1031 64 10000 4.1 320 10:18 08.01.2020
931 Clouds -1 1030 74 10000 3.6 290 09:41 08.01.2020
932 Clouds -1 1030 74 10000 3.6 290 09:19 08.01.2020
933 Clouds -3 1030 79 10000 3.6 270 08:56 08.01.2020
934 Clouds -4 1030 79 10000 3.1 280 08:37 08.01.2020
935 Clouds -4 1030 79 10000 3.1 280 08:19 08.01.2020
936 Clear -5 1030 79 10000 2.6 280 07:48 08.01.2020
937 Clear -5 1030 79 10000 0.5 0 07:29 08.01.2020
938 Clear -5 1029 73 10000 2.6 260 06:45 08.01.2020
939 Clear -5 1029 73 10000 2.6 260 06:19 08.01.2020
940 Clear -5 1028 79 10000 3.6 250 05:41 08.01.2020
941 Clear -5 1028 73 10000 2.6 300 04:56 08.01.2020
942 Clear -5 1028 79 10000 2.1 0 04:24 08.01.2020
943 Clear -5 1028 85 10000 3.1 260 02:45 08.01.2020
944 Clouds -5 1028 85 10000 3.1 260 02:21 08.01.2020
945 Clouds -5 1028 79 10000 3.6 270 01:42 08.01.2020
946 Clouds -5 1028 79 10000 3.6 280 00:59 08.01.2020
947 Clouds -4 1028 73 10000 3.6 270 00:27 08.01.2020
948 Clouds -4 1028 73 10000 2.6 270 23:47 07.01.2020
949 Clouds -3 1028 68 10000 2.6 260 23:22 07.01.2020
950 Clouds -3 1028 74 10000 2.6 280 22:58 07.01.2020
951 Clouds -3 1028 73 10000 3.1 270 22:39 07.01.2020
952 Clouds -3 1028 73 10000 3.1 270 22:20 07.01.2020
953 Clouds -3 1028 68 10000 3.1 270 21:55 07.01.2020
954 Clouds -3 1027 74 10000 2.6 290 21:37 07.01.2020
955 Clouds -3 1027 74 10000 2.6 290 21:19 07.01.2020
956 Clouds -3 1027 74 10000 2.6 290 21:19 07.01.2020
957 Clouds -2 1027 71 10000 3.1 300 20:42 07.01.2020
958 Clouds -2 1027 70 10000 3.1 300 20:24 07.01.2020
959 Clouds -1 1027 70 10000 3.1 320 19:59 07.01.2020
960 Clouds -1 1027 70 10000 3.1 320 19:38 07.01.2020
961 Clouds -1 1027 70 10000 3.1 320 19:19 07.01.2020
962 Clouds -1 1027 70 10000 5.7 340 18:58 07.01.2020
963 Clouds -1 1027 70 10000 4.1 340 18:39 07.01.2020
964 Clouds -1 1027 70 10000 4.1 340 18:18 07.01.2020
965 Clouds 0 1027 70 10000 5.7 10 17:58 07.01.2020
966 Clouds 0 1027 70 10000 5.1 360 17:38 07.01.2020
967 Clouds 0 1027 69 10000 5.1 360 17:20 07.01.2020
968 Clouds 0 1026 69 10000 4.1 350 16:55 07.01.2020
969 Clouds 0 1026 69 10000 5.1 340 16:37 07.01.2020
970 Clouds 0 1026 69 10000 5.1 340 16:18 07.01.2020
971 Clouds 0 1025 50 10000 4.6 350 15:43 07.01.2020
972 Clouds 0 1025 50 10000 4.6 350 15:24 07.01.2020
973 Clouds 0 1025 50 10000 4.6 350 15:24 07.01.2020
974 Clouds 0 1025 50 10000 4.6 350 15:24 07.01.2020
975 Clouds 1 1025 47 10000 6.2 340 14:59 07.01.2020
976 Clouds 1 1025 47 10000 6.2 350 14:41 07.01.2020
977 Clouds 1 1025 47 10000 6.2 350 14:22 07.01.2020
978 Clouds 1 1025 47 10000 6.2 350 14:22 07.01.2020
979 Clouds 2 1025 51 10000 7.7 330 13:56 07.01.2020
980 Clouds 2 1025 47 10000 7.2 340 13:37 07.01.2020
981 Clouds 2 1025 47 10000 7.2 340 13:18 07.01.2020
982 Clouds 2 1025 47 10000 8.2 350 12:40 07.01.2020
983 Clouds 2 1025 47 10000 8.2 350 12:19 07.01.2020
984 Clouds 2 1025 47 10000 7.2 350 11:42 07.01.2020
985 Clouds 2 1025 47 10000 7.2 350 11:23 07.01.2020
986 Clouds 1 1025 47 10000 5.1 350 10:58 07.01.2020
987 Clouds 1 1025 55 10000 5.1 360 10:39 07.01.2020
988 Clouds 1 1025 55 10000 5.1 360 10:21 07.01.2020
989 Clouds 0 1025 59 10000 5.1 350 09:55 07.01.2020
990 Clouds 0 1025 68 10000 3.6 320 09:37 07.01.2020
991 Clouds 0 1025 68 10000 3.6 320 09:19 07.01.2020
992 Clouds -2 1026 74 10000 3.1 300 08:41 07.01.2020
993 Clouds -2 1025 74 10000 4.1 330 08:18 07.01.2020
994 Clouds -2 1025 74 10000 6.2 340 07:47 07.01.2020
995 Clouds -3 1025 74 10000 6.2 340 07:23 07.01.2020
996 Clouds -3 1024 74 10000 4.6 330 06:50 07.01.2020
997 Clouds -3 1024 74 10000 5.7 320 06:30 07.01.2020
998 Clouds -3 1024 74 10000 5.1 340 05:41 07.01.2020
999 Clouds -2 1024 74 10000 6.7 350 03:47 07.01.2020
1000 Clouds -2 1024 77 10000 6.7 350 03:25 07.01.2020
1001 Clouds -1 1024 79 10000 6.7 340 02:20 07.01.2020
1002 Clouds 0 1024 69 10000 5.1 350 01:40 07.01.2020
1003 Clouds 0 1024 69 10000 5.1 350 01:40 07.01.2020
1004 Clouds -1 1024 69 10000 3.6 0 00:59 07.01.2020
1005 Clouds 0 1024 74 10000 4.1 0 00:21 07.01.2020
1006 Clouds 0 1023 74 10000 7.2 340 23:57 06.01.2020
1007 Clouds 0 1023 74 10000 6.7 350 23:38 06.01.2020
1008 Clouds 0 1023 74 10000 7.2 350 23:20 06.01.2020
1009 Clouds 1 1023 69 10000 8.7 360 22:44 06.01.2020
1010 Clouds 1 1023 69 10000 8.7 360 22:25 06.01.2020
1011 Clouds 1 1023 69 10000 9.3 350 21:59 06.01.2020
1012 Clouds 1 1023 69 10000 7.7 350 21:40 06.01.2020
1013 Clouds 1 1023 69 10000 7.7 350 21:20 06.01.2020
1014 Clouds 1 1023 74 10000 7.2 350 20:57 06.01.2020
1015 Clouds 1 1024 74 10000 6.7 360 20:39 06.01.2020
1016 Clouds 1 1024 74 10000 6.7 360 20:20 06.01.2020
1017 Clouds 1 1023 74 10000 7.7 360 19:57 06.01.2020
1018 Clouds 1 1023 74 10000 9.8 360 19:38 06.01.2020
1019 Clouds 1 1023 74 10000 9.8 360 19:20 06.01.2020
1020 Clouds 1 1023 74 10000 9.3 360 18:48 06.01.2020
1021 Clouds 1 1023 74 10000 9.3 360 18:48 06.01.2020
1022 Clouds 1 1023 74 10000 8.7 10 18:23 06.01.2020
1023 Clouds 1 1023 74 10000 8.7 360 17:59 06.01.2020
1024 Clouds 2 1023 74 10000 7.7 360 17:38 06.01.2020
1025 Clouds 1 1023 74 10000 7.7 360 17:19 06.01.2020
1026 Clouds 2 1023 64 10000 7.7 10 16:46 06.01.2020
1027 Clouds 2 1023 69 10000 8.2 10 16:46 06.01.2020
1028 Clouds 2 1023 69 10000 8.2 10 16:27 06.01.2020
1029 Clouds 2 1023 69 10000 8.2 10 15:59 06.01.2020
1030 Clouds 2 1022 69 10000 7.7 10 15:39 06.01.2020
1031 Clouds 3 1022 60 10000 9.8 10 15:20 06.01.2020
1032 Clouds 3 1022 60 10000 9.8 10 14:58 06.01.2020
1033 Clouds 3 1022 60 10000 9.8 10 14:40 06.01.2020
1034 Clouds 3 1022 60 10000 9.8 10 14:20 06.01.2020
1035 Clouds 3 1022 64 10000 10.3 10 13:55 06.01.2020
1036 Clouds 3 1022 64 10000 10.3 10 13:55 06.01.2020
1037 Clouds 3 1021 64 10000 10.8 10 13:37 06.01.2020
1038 Clouds 3 1021 64 10000 10.8 10 13:19 06.01.2020
1039 Clouds 3 1022 64 10000 10.8 10 12:42 06.01.2020
1040 Clouds 3 1022 64 10000 10.8 10 12:20 06.01.2020
1041 Clouds 2 1022 69 10000 9.3 10 11:57 06.01.2020
1042 Clouds 2 1023 69 10000 9.8 10 11:39 06.01.2020
1043 Clouds 2 1023 69 10000 9.8 10 11:20 06.01.2020
1044 Clouds 2 1023 69 10000 9.3 10 10:45 06.01.2020
1045 Clouds 2 1023 69 10000 9.3 10 10:45 06.01.2020
1046 Clouds 2 1023 69 10000 9.3 10 10:27 06.01.2020
1047 Clouds 2 1023 69 10000 9.3 10 09:59 06.01.2020
1048 Clouds 2 1023 69 10000 8.7 360 09:37 06.01.2020
1049 Clouds 2 1023 69 10000 8.7 360 09:19 06.01.2020
1050 Clouds 1 1023 80 10000 9.8 360 08:43 06.01.2020
1051 Clouds 1 1023 80 10000 9.8 360 08:24 06.01.2020
1052 Clouds 1 1022 74 10000 8.2 350 07:48 06.01.2020
1053 Clouds 1 1023 80 10000 5.1 0 07:23 06.01.2020
1054 Clouds 1 1022 74 10000 3.1 290 06:44 06.01.2020
1055 Clouds 1 1022 74 10000 4.1 330 05:52 06.01.2020
1056 Clouds 1 1022 74 10000 4.6 330 05:33 06.01.2020
1057 Clouds 1 1022 74 10000 3.6 0 04:26 06.01.2020
1058 Clouds 1 1022 74 10000 2.6 0 03:53 06.01.2020
1059 Clouds 0 1022 80 10000 3.1 0 02:32 06.01.2020
1060 Clouds 0 1022 80 10000 3.1 0 01:56 06.01.2020
1061 Clouds 0 1022 74 10000 3.6 270 01:32 06.01.2020
1062 Clouds 0 1021 74 10000 2.1 240 00:58 06.01.2020
1063 Clouds 1 1021 69 10000 1.5 0 00:39 06.01.2020
1064 Clouds 1 1021 69 10000 3.1 0 00:18 06.01.2020
1065 Clouds 1 1021 69 10000 3.6 310 23:40 05.01.2020
1066 Clouds 1 1021 69 10000 3.6 310 23:21 05.01.2020
1067 Clouds 1 1020 69 10000 6.2 10 22:54 05.01.2020
1068 Clouds 1 1020 69 10000 5.7 10 22:36 05.01.2020
1069 Clouds 1 1020 69 10000 5.7 10 22:18 05.01.2020
1070 Clouds 1 1020 69 10000 3.1 0 21:41 05.01.2020
1071 Clouds 1 1020 69 10000 3.1 0 21:21 05.01.2020
1072 Clouds 1 1020 69 10000 2.6 360 20:58 05.01.2020
1073 Clouds 1 1020 69 10000 3.6 330 20:39 05.01.2020
1074 Clouds 1 1020 69 10000 3.6 330 20:20 05.01.2020
1075 Clouds 1 1020 74 10000 4.1 340 19:59 05.01.2020
1076 Clouds 2 1019 69 10000 4.1 340 19:39 05.01.2020
1077 Clouds 2 1019 69 10000 4.1 340 19:20 05.01.2020
1078 Clouds 1 1019 74 10000 4.1 340 18:56 05.01.2020
1079 Clouds 1 1018 74 10000 3.1 290 18:38 05.01.2020
1080 Clouds 1 1018 74 10000 3.1 290 18:19 05.01.2020
1081 Clouds 2 1018 74 10000 3.6 320 17:58 05.01.2020
1082 Clouds 2 1018 74 10000 3.6 360 17:39 05.01.2020
1083 Clouds 2 1018 74 10000 3.6 360 17:20 05.01.2020
1084 Clouds 2 1017 64 10000 4.6 10 16:57 05.01.2020
1085 Clouds 2 1017 69 10000 4.6 360 16:38 05.01.2020
1086 Clouds 2 1017 69 10000 4.6 360 16:19 05.01.2020
1087 Clouds 3 1016 69 10000 5.7 360 15:39 05.01.2020
1088 Clouds 3 1016 69 10000 5.7 360 15:39 05.01.2020
1089 Clouds 3 1016 69 10000 5.7 360 15:20 05.01.2020
1090 Clouds 3 1015 69 10000 6.7 10 14:56 05.01.2020
1091 Clouds 3 1015 77 10000 7.7 10 14:38 05.01.2020
1092 Clouds 3 1015 77 10000 7.7 10 14:20 05.01.2020
1093 Clouds 3 1014 77 10000 6.2 350 13:56 05.01.2020
1094 Clouds 3 1014 77 10000 7.2 340 13:38 05.01.2020
1095 Clouds 3 1014 78 10000 7.2 340 13:19 05.01.2020
1096 Clouds 3 1014 78 10000 7.2 340 13:19 05.01.2020
1097 Clouds 2 1014 78 10000 4.6 310 12:55 05.01.2020
1098 Clouds 2 1014 78 10000 4.6 320 12:37 05.01.2020
1099 Clouds 3 1014 78 10000 5.7 340 12:19 05.01.2020
1100 Clouds 3 1014 78 10000 6.7 340 11:44 05.01.2020
1101 Clouds 3 1014 81 10000 6.7 340 11:20 05.01.2020
1102 Clouds 3 1014 81 10000 5.7 340 10:58 05.01.2020
1103 Clouds 3 1014 69 10000 6.7 330 10:39 05.01.2020
1104 Clouds 3 1014 69 10000 6.7 330 10:39 05.01.2020
1105 Clouds 4 1014 69 10000 6.7 330 10:19 05.01.2020
1106 Clouds 3 1014 65 10000 6.7 290 09:42 05.01.2020
1107 Clouds 3 1014 65 10000 6.7 290 09:22 05.01.2020
1108 Clouds 4 1014 65 10000 5.1 270 08:50 05.01.2020
1109 Clouds 4 1014 65 10000 5.7 280 08:31 05.01.2020
1110 Clouds 5 1013 65 10000 4.6 270 07:57 05.01.2020
1111 Clouds 5 1013 65 10000 6.7 270 07:38 05.01.2020
1112 Clouds 5 1013 65 10000 6.7 270 07:20 05.01.2020
1113 Clouds 6 1013 60 10000 6.2 290 06:20 05.01.2020
1114 Clouds 6 1012 70 10000 6.7 290 05:33 05.01.2020
1115 Clouds 6 1012 70 10000 6.7 290 05:33 05.01.2020
1116 Clouds 6 1012 70 10000 6.7 290 05:33 05.01.2020
1117 Clouds 6 1012 70 10000 6.7 290 05:33 05.01.2020
1118 Clouds 5 1012 65 10000 8.2 280 04:44 05.01.2020
1119 Clouds 5 1012 70 10000 7.7 280 04:18 05.01.2020
1120 Clouds 5 1013 75 10000 2.1 270 02:46 05.01.2020
1121 Clouds 5 1013 75 10000 2.1 270 02:24 05.01.2020
1122 Clouds 5 1013 70 10000 4.1 310 01:48 05.01.2020
1123 Clouds 4 1013 75 10000 5.7 290 01:19 05.01.2020
1124 Clouds 3 1014 59 10000 2.1 310 00:42 05.01.2020
1125 Clouds 3 1014 59 10000 2.1 310 00:42 05.01.2020
1126 Clouds 3 1014 59 10000 2.1 310 00:23 05.01.2020
1127 Clouds 4 1014 59 10000 2.1 310 23:59 04.01.2020
1128 Clouds 3 1014 64 10000 2.6 330 23:40 04.01.2020
1129 Clouds 3 1014 64 10000 2.6 330 23:19 04.01.2020
1130 Clouds 3 1014 64 10000 2.6 330 23:19 04.01.2020
1131 Clouds 3 1014 64 10000 2.6 330 23:19 04.01.2020
1132 Clouds 3 1015 64 10000 2.1 310 22:40 04.01.2020
1133 Clouds 3 1015 64 10000 2.1 310 22:22 04.01.2020
1134 Clouds 3 1015 64 10000 2.1 320 21:58 04.01.2020
1135 Clouds 3 1015 55 10000 1.5 220 21:39 04.01.2020
1136 Clouds 3 1015 55 10000 1.5 220 21:20 04.01.2020
1137 Clouds 3 1015 51 10000 2.1 10 20:59 04.01.2020
1138 Clouds 3 1015 55 10000 1.5 0 20:40 04.01.2020
1139 Clouds 2 1015 55 10000 1.5 0 20:21 04.01.2020
1140 Clouds 3 1015 51 10000 2.1 280 19:56 04.01.2020
1141 Clouds 4 1015 48 10000 3.1 300 19:38 04.01.2020
1142 Clouds 4 1015 48 10000 3.1 300 19:19 04.01.2020
1143 Clouds 5 1015 48 10000 3.6 280 18:54 04.01.2020
1144 Clouds 5 1015 48 10000 3.6 280 18:36 04.01.2020
1145 Clouds 5 1015 48 10000 3.6 280 18:18 04.01.2020
1146 Clouds 5 1015 48 10000 3.6 280 18:18 04.01.2020
1147 Clouds 7 1015 42 10000 3.6 290 17:41 04.01.2020
1148 Clouds 5 1015 42 10000 3.6 290 17:23 04.01.2020
1149 Clear 5 1015 39 10000 3.6 270 16:57 04.01.2020
1150 Clear 6 1015 36 10000 4.1 320 16:39 04.01.2020
1151 Clear 6 1015 36 10000 4.1 320 16:39 04.01.2020
1152 Clear 7 1015 36 10000 4.1 320 16:21 04.01.2020
1153 Clear 11 1015 29 10000 5.1 300 15:43 04.01.2020
1154 Clear 11 1015 29 10000 5.1 300 15:20 04.01.2020
1155 Clear 12 1015 25 10000 4.6 330 14:59 04.01.2020
1156 Clear 12 1015 25 10000 5.1 310 14:41 04.01.2020
1157 Clouds 12 1015 25 10000 5.1 310 14:20 04.01.2020
1158 Clouds 12 1015 25 10000 4.6 300 13:58 04.01.2020
1159 Clouds 12 1015 23 10000 5.1 320 13:37 04.01.2020
1160 Clouds 12 1015 23 10000 5.1 320 13:19 04.01.2020
1161 Clouds 11 1015 27 10000 5.7 300 12:56 04.01.2020
1162 Clouds 11 1015 27 10000 5.1 310 12:38 04.01.2020
1163 Clouds 11 1015 27 10000 5.1 310 12:18 04.01.2020
1164 Clouds 10 1015 27 10000 5.7 300 11:55 04.01.2020
1165 Clouds 10 1016 31 10000 5.1 280 11:36 04.01.2020
1166 Clouds 10 1016 31 10000 5.1 280 11:18 04.01.2020
1167 Clouds 7 1017 36 10000 4.1 260 10:40 04.01.2020
1168 Clouds 7 1017 36 10000 4.1 260 10:21 04.01.2020
1169 Clouds 7 1017 39 10000 5.1 260 09:44 04.01.2020
1170 Clouds 6 1017 39 10000 5.1 260 09:25 04.01.2020
1171 Clouds 5 1017 48 10000 2.6 260 08:49 04.01.2020
1172 Clouds 4 1017 51 10000 2.6 240 08:29 04.01.2020
1173 Clear 2 1017 59 10000 2.1 260 07:55 04.01.2020
1174 Clear 2 1017 59 10000 2.1 260 07:55 04.01.2020
1175 Clear 1 1016 64 10000 0.5 0 07:37 04.01.2020
1176 Clear 2 1016 51 10000 2.1 230 06:43 04.01.2020
1177 Clear 1 1016 59 10000 2.1 0 05:57 04.01.2020
1178 Clear 0 1016 74 10000 2.6 270 04:50 04.01.2020
1179 Clear 0 1017 56 10000 2.6 300 04:29 04.01.2020
1180 Clear 1 1017 56 10000 2.6 270 03:28 04.01.2020
1181 Clear 1 1017 56 10000 3.1 270 02:46 04.01.2020
1182 Clouds 1 1018 64 10000 3.1 250 02:18 04.01.2020
1183 Clouds 0 1018 58 10000 4.1 270 01:37 04.01.2020
1184 Clouds 0 1018 58 10000 4.1 270 01:18 04.01.2020
1185 Clouds 1 1018 58 10000 4.6 280 00:29 04.01.2020
1186 Clouds 1 1018 58 10000 4.1 280 23:53 03.01.2020
1187 Clouds 1 1019 64 10000 2.6 280 23:28 03.01.2020
1188 Clouds 1 1019 64 10000 4.1 250 22:56 03.01.2020
1189 Clouds 1 1019 69 10000 4.6 260 22:37 03.01.2020
1190 Clouds 1 1019 69 10000 4.6 260 22:18 03.01.2020
1191 Clouds 1 1019 69 10000 3.6 260 21:56 03.01.2020
1192 Clouds 1 1019 69 10000 2.6 280 21:37 03.01.2020
1193 Clouds 1 1019 69 10000 2.6 280 21:18 03.01.2020
1194 Clouds 1 1020 69 10000 3.6 270 20:54 03.01.2020
1195 Clouds 2 1020 64 10000 2.6 250 20:36 03.01.2020
1196 Clouds 1 1020 64 10000 2.6 250 20:18 03.01.2020
1197 Clouds 2 1020 69 10000 2.1 270 19:41 03.01.2020
1198 Clouds 2 1020 69 10000 2.1 270 19:23 03.01.2020
1199 Clouds 2 1021 69 10000 3.1 280 18:54 03.01.2020
1200 Clouds 2 1021 69 10000 3.6 280 18:36 03.01.2020
1201 Clouds 2 1021 69 10000 3.6 280 18:18 03.01.2020
1202 Clouds 4 1021 64 10000 3.6 270 17:41 03.01.2020
1203 Clouds 3 1021 64 10000 3.6 270 17:21 03.01.2020
1204 Clouds 3 1021 60 10000 3.1 260 16:44 03.01.2020
1205 Clouds 4 1021 60 10000 3.1 260 16:25 03.01.2020
1206 Clouds 4 1021 56 10000 3.1 270 15:59 03.01.2020
1207 Clouds 7 1021 52 10000 4.1 270 15:41 03.01.2020
1208 Clouds 6 1021 52 10000 4.1 270 15:19 03.01.2020
1209 Clouds 8 1022 52 10000 5.7 260 14:40 03.01.2020
1210 Clouds 6 1022 52 10000 5.7 260 14:20 03.01.2020
1211 Clouds 7 1022 49 10000 6.2 250 13:57 03.01.2020
1212 Clouds 7 1022 52 10000 6.7 260 13:39 03.01.2020
1213 Clouds 7 1022 52 10000 6.7 260 13:20 03.01.2020
1214 Clouds 6 1023 52 10000 5.7 270 12:41 03.01.2020
1215 Clouds 6 1023 52 10000 5.7 270 12:22 03.01.2020
1216 Clouds 5 1023 60 10000 5.7 250 11:53 03.01.2020
1217 Clouds 4 1024 64 10000 5.7 250 11:34 03.01.2020
1218 Clouds 4 1024 64 10000 5.1 250 10:58 03.01.2020
1219 Clouds 3 1025 69 10000 4.6 250 10:39 03.01.2020
1220 Clouds 4 1025 69 10000 4.6 250 10:21 03.01.2020
1221 Clouds 2 1025 74 10000 4.1 250 09:55 03.01.2020
1222 Clouds 2 1025 80 10000 4.1 250 09:37 03.01.2020
1223 Clouds 2 1025 80 10000 4.1 250 09:19 03.01.2020
1224 Clouds 1 1026 86 10000 3.1 290 08:44 03.01.2020
1225 Clouds 1 1026 86 10000 3.1 290 08:22 03.01.2020
1226 Clouds -1 1026 92 10000 1.5 290 07:43 03.01.2020
1227 Clouds -1 1026 92 10000 1.5 290 07:19 03.01.2020
1228 Clouds -1 1026 92 10000 1.5 290 07:19 03.01.2020
1229 Clouds -3 1026 100 8000 1 320 06:58 03.01.2020
1230 Clouds -2 1026 92 9000 2.1 290 06:39 03.01.2020
1231 Clouds -2 1026 92 9000 2.1 290 06:20 03.01.2020
1232 Clouds -2 1026 92 6000 1.5 260 04:43 03.01.2020
1233 Mist -3 1027 100 5000 1.5 290 03:37 03.01.2020
1234 Clouds -3 1027 100 5000 2.1 220 02:50 03.01.2020
1235 Clear -3 1028 92 8000 3.68 300 01:48 03.01.2020
1236 Clear -2 1028 92 10000 3.74 300 00:57 03.01.2020
1237 Clear -3 1028 92 10000 3.74 300 00:33 03.01.2020
1238 Clear -2 1028 86 10000 1 20 23:58 02.01.2020
1239 Clear -3 1028 86 10000 2.1 350 23:39 02.01.2020
1240 Clear -3 1028 86 10000 2.1 350 23:20 02.01.2020
1241 Clear -3 1029 86 10000 2.1 350 22:58 02.01.2020
1242 Clear -3 1029 92 10000 1 0 22:39 02.01.2020
1243 Clear -3 1029 92 10000 1 0 22:19 02.01.2020
1244 Clear -3 1029 79 10000 2.97 294 21:55 02.01.2020
1245 Clear -2 1029 86 10000 2.1 360 21:36 02.01.2020
1246 Clear -2 1029 86 10000 2.1 360 21:18 02.01.2020
1247 Clear -2 1029 86 10000 2.97 294 20:40 02.01.2020
1248 Clear -2 1029 86 10000 3.53 308 20:21 02.01.2020
1249 Clear -1 1029 80 10000 1.5 300 19:56 02.01.2020
1250 Clear -1 1030 80 10000 2.1 360 19:38 02.01.2020
1251 Clear 0 1030 80 10000 2.1 360 19:19 02.01.2020
1252 Clear 0 1030 71 10000 0.5 0 18:59 02.01.2020
1253 Clear -1 1030 74 10000 2.6 320 18:41 02.01.2020
1254 Clear -1 1030 74 10000 2.6 320 18:22 02.01.2020
1255 Clear -1 1030 71 10000 1 0 17:57 02.01.2020
1256 Clear 0 1030 69 10000 2.1 20 17:38 02.01.2020
1257 Clear 0 1030 69 10000 2.1 20 17:19 02.01.2020
1258 Clear 1 1029 59 10000 2.1 310 16:57 02.01.2020
1259 Clear 2 1030 59 10000 2.6 280 16:39 02.01.2020
1260 Clear 3 1030 59 10000 2.6 280 16:20 02.01.2020
1261 Clear 3 1029 59 10000 3.6 310 15:56 02.01.2020
1262 Clear 3 1029 59 10000 3.6 310 15:56 02.01.2020
1263 Clear 5 1029 55 10000 4.1 310 15:37 02.01.2020
1264 Clear 5 1029 52 10000 4.6 320 15:19 02.01.2020
1265 Clear 5 1029 52 10000 4.6 320 14:55 02.01.2020
1266 Clear 5 1029 52 10000 4.1 310 14:36 02.01.2020
1267 Clear 5 1029 52 10000 4.1 310 14:18 02.01.2020
1268 Clear 5 1029 52 10000 5.7 330 13:47 02.01.2020
1269 Clear 5 1029 52 10000 5.7 330 13:47 02.01.2020
1270 Clear 5 1029 52 10000 5.7 330 13:29 02.01.2020
1271 Clear 4 1030 52 10000 4.6 350 12:44 02.01.2020
1272 Clear 4 1030 52 10000 4.6 350 12:25 02.01.2020
1273 Clear 3 1030 55 10000 4.6 360 11:43 02.01.2020
1274 Clear 3 1030 55 10000 4.6 360 11:25 02.01.2020
1275 Clear 3 1031 60 10000 4.6 350 10:57 02.01.2020
1276 Clear 2 1031 59 10000 3.1 350 10:38 02.01.2020
1277 Clear 2 1031 59 10000 3.1 350 10:19 02.01.2020
1278 Clear 2 1031 69 10000 5.1 350 09:41 02.01.2020
1279 Clear 2 1031 69 10000 5.1 350 09:22 02.01.2020
1280 Clear 1 1031 70 10000 3.6 330 08:44 02.01.2020
1281 Clear 0 1031 68 10000 3.6 330 08:25 02.01.2020
1282 Clear 0 1031 80 10000 3.6 340 07:49 02.01.2020
1283 Clear -1 1031 86 10000 2.1 300 07:30 02.01.2020
1284 Clear -2 1030 79 10000 1 0 06:44 02.01.2020
1285 Clear -3 1030 79 10000 1 0 06:26 02.01.2020
1286 Clear -2 1030 80 10000 3.6 340 04:40 02.01.2020
1287 Clear -2 1030 80 10000 3.6 340 04:21 02.01.2020
1288 Clear -2 1030 80 10000 3.6 340 04:21 02.01.2020
1289 Clear -1 1030 76 10000 2.1 260 02:28 02.01.2020
1290 Clouds 0 1030 64 10000 2.6 300 01:57 02.01.2020
1291 Clouds 0 1029 64 10000 2.1 350 01:32 02.01.2020
1292 Clear 1 1029 59 10000 3.1 360 00:53 02.01.2020
1293 Clear 2 1028 64 10000 5.1 360 00:32 02.01.2020
1294 Clear 2 1028 64 10000 5.1 360 23:48 01.01.2020
1295 Clear 2 1028 64 10000 5.1 350 23:25 01.01.2020
1296 Clouds 2 1028 59 10000 5.1 350 22:54 01.01.2020
1297 Clouds 1 1028 69 10000 4.6 340 22:36 01.01.2020
1298 Clouds 1 1028 69 10000 4.6 340 22:18 01.01.2020
1299 Clouds 1 1028 74 10000 3.6 310 21:42 01.01.2020
1300 Clouds 1 1028 74 10000 3.6 310 21:21 01.01.2020
1301 Clouds 1 1029 74 10000 4.1 300 20:58 01.01.2020
1302 Clouds 1 1028 69 10000 3.6 300 20:39 01.01.2020
1303 Clouds 1 1028 69 10000 3.6 300 20:20 01.01.2020
1304 Clouds 1 1028 69 10000 3.1 270 19:57 01.01.2020
1305 Clouds 2 1028 64 10000 2.6 320 19:38 01.01.2020
1306 Clouds 2 1028 64 10000 2.6 320 19:20 01.01.2020
1307 Clouds 2 1028 69 10000 4.1 300 18:57 01.01.2020
1308 Clouds 2 1028 64 10000 4.1 300 18:38 01.01.2020
1309 Clouds 3 1028 64 10000 4.1 300 18:20 01.01.2020
1310 Clouds 3 1028 64 10000 4.6 330 17:58 01.01.2020
1311 Clouds 3 1027 60 10000 4.6 330 17:39 01.01.2020
1312 Clouds 3 1027 60 10000 4.6 330 17:19 01.01.2020
1313 Clouds 3 1027 60 10000 4.1 320 16:57 01.01.2020
1314 Clouds 3 1026 60 10000 4.6 320 16:38 01.01.2020
1315 Clouds 3 1026 60 10000 4.6 320 16:38 01.01.2020
1316 Clouds 3 1026 60 10000 4.6 320 16:19 01.01.2020
1317 Clouds 3 1026 56 10000 5.7 310 15:54 01.01.2020
1318 Clouds 4 1026 56 10000 5.7 310 15:36 01.01.2020
1319 Clouds 4 1026 56 10000 5.7 310 15:36 01.01.2020
1320 Clouds 4 1026 56 10000 5.7 310 15:18 01.01.2020
1321 Clouds 4 1025 56 10000 5.1 310 14:41 01.01.2020
1322 Clouds 5 1025 56 10000 5.1 310 14:23 01.01.2020
1323 Clouds 5 1025 56 10000 7.2 310 13:57 01.01.2020
1324 Clouds 5 1025 52 10000 8.7 330 13:38 01.01.2020
1325 Clouds 5 1025 52 10000 8.7 330 13:19 01.01.2020
1326 Clouds 4 1025 52 10000 7.7 330 12:57 01.01.2020
1327 Clouds 4 1025 52 10000 7.7 340 12:39 01.01.2020
1328 Clouds 5 1025 52 10000 7.7 340 12:19 01.01.2020
1329 Clouds 5 1025 52 10000 7.7 340 12:19 01.01.2020
1330 Clouds 4 1024 48 10000 10.3 340 11:56 01.01.2020
1331 Clouds 4 1024 48 10000 9.8 340 11:37 01.01.2020
1332 Clouds 4 1024 48 10000 9.8 340 11:18 01.01.2020
1333 Clouds 4 1025 45 10000 8.7 330 10:41 01.01.2020
1334 Clouds 6 1025 45 10000 8.7 330 10:21 01.01.2020
1335 Clouds 4 1025 48 10000 9.8 330 09:59 01.01.2020
1336 Clouds 4 1024 48 10000 6.7 320 09:38 01.01.2020
1337 Clouds 4 1024 51 10000 4.1 290 09:19 01.01.2020
1338 Clouds 3 1024 51 10000 4.1 290 08:56 01.01.2020
1339 Clouds 3 1023 55 10000 7.2 320 08:37 01.01.2020
1340 Clouds 3 1023 55 10000 7.2 320 08:19 01.01.2020
1341 Clouds 3 1023 59 10000 7.2 320 07:54 01.01.2020
1342 Clouds 2 1023 59 10000 7.2 320 07:36 01.01.2020
1343 Clouds 0 1023 64 10000 6.2 310 06:45 01.01.2020
1344 Clouds 1 1022 59 10000 6.2 310 06:21 01.01.2020
1345 Clouds 2 1022 64 10000 4.1 270 05:23 01.01.2020
1346 Clouds 3 1021 60 10000 4.1 280 03:47 01.01.2020
1347 Clouds 3 1021 55 10000 4.6 280 03:23 01.01.2020
1348 Clouds 3 1021 55 10000 4.6 280 03:23 01.01.2020
1349 Clouds 4 1021 60 10000 5.1 250 02:57 01.01.2020
1350 Clouds 3 1021 60 10000 4.6 290 02:37 01.01.2020
1351 Clouds 3 1021 55 10000 5.1 280 01:59 01.01.2020
1352 Clouds 3 1021 60 10000 6.7 300 01:38 01.01.2020
1353 Clouds 3 1021 60 10000 6.7 300 01:20 01.01.2020
1354 Clouds 4 1020 60 10000 5.1 280 00:44 01.01.2020
1355 Clouds 4 1020 60 10000 5.1 280 00:44 01.01.2020
1356 Clouds 3 1020 60 10000 5.1 280 00:25 01.01.2020
1357 Clouds 3 1020 52 10000 5.7 300 23:41 31.12.2019
1358 Clouds 5 1020 52 10000 5.7 300 23:21 31.12.2019
1359 Clouds 3 1020 52 10000 6.2 290 22:57 31.12.2019
1360 Rain 3 1020 52 10000 8.2 290 22:39 31.12.2019
1361 Rain 3 1020 52 10000 8.2 290 22:39 31.12.2019
1362 Rain 3 1020 52 10000 8.2 290 22:20 31.12.2019
1363 Rain 3 1020 55 10000 5.7 280 21:57 31.12.2019
1364 Rain 3 1020 51 10000 5.1 270 21:39 31.12.2019
1365 Rain 3 1020 51 10000 5.1 270 21:39 31.12.2019
1366 Rain 3 1020 51 10000 5.1 270 21:20 31.12.2019
1367 Clouds 3 1020 51 10000 4.6 280 20:55 31.12.2019
1368 Clouds 3 1020 55 10000 6.2 290 20:37 31.12.2019
1369 Clouds 3 1020 55 10000 6.2 290 20:18 31.12.2019
1370 Clouds 3 1020 55 10000 7.2 280 19:43 31.12.2019
1371 Clouds 2 1020 55 10000 7.2 280 19:24 31.12.2019
1372 Clouds 2 1021 55 10000 6.2 280 18:59 31.12.2019
1373 Clouds 2 1021 55 10000 5.1 290 18:40 31.12.2019
1374 Clouds 2 1021 55 10000 5.1 290 18:21 31.12.2019
1375 Clouds 1 1021 59 10000 4.6 290 17:57 31.12.2019
1376 Clouds 1 1021 64 10000 2.1 320 17:38 31.12.2019
1377 Clouds 1 1021 64 10000 2.1 320 17:19 31.12.2019
1378 Clouds 1 1021 64 10000 2.1 320 17:19 31.12.2019
1379 Clouds 2 1022 59 10000 3.6 310 16:57 31.12.2019
1380 Clouds 2 1022 59 10000 3.6 310 16:57 31.12.2019
1381 Clouds 2 1022 55 10000 3.1 280 16:38 31.12.2019
1382 Clouds 2 1022 55 10000 3.1 280 16:19 31.12.2019
1383 Clear 4 1022 55 10000 3.6 280 15:57 31.12.2019
1384 Clear 5 1022 52 10000 4.6 270 15:39 31.12.2019
1385 Clear 4 1022 52 10000 4.6 270 15:21 31.12.2019
1386 Clear 5 1022 52 10000 5.1 280 14:58 31.12.2019
1387 Clear 5 1022 52 10000 6.7 280 14:39 31.12.2019
1388 Clear 4 1023 52 10000 6.7 270 14:19 31.12.2019
1389 Clear 5 1023 52 10000 6.7 270 13:58 31.12.2019
1390 Clear 5 1023 48 10000 8.2 280 13:40 31.12.2019
1391 Clear 5 1023 48 10000 8.2 280 13:21 31.12.2019
1392 Clear 5 1024 52 10000 7.7 260 12:58 31.12.2019
1393 Clear 4 1024 52 10000 6.7 260 12:40 31.12.2019
1394 Clear 5 1024 52 10000 6.7 260 12:20 31.12.2019
1395 Clear 4 1025 55 10000 6.7 280 11:57 31.12.2019
1396 Clear 4 1025 51 10000 4.6 280 11:38 31.12.2019
1397 Clear 4 1025 51 10000 4.6 280 11:20 31.12.2019
1398 Clear 3 1026 55 10000 5.7 270 10:58 31.12.2019
1399 Clear 2 1026 64 10000 5.1 260 10:38 31.12.2019
1400 Clear 2 1026 64 10000 5.1 260 10:20 31.12.2019
1401 Clear 1 1027 64 10000 5.1 270 09:59 31.12.2019
1402 Clear 0 1027 73 10000 5.1 260 09:39 31.12.2019
1403 Clear 0 1027 73 10000 5.1 260 09:21 31.12.2019
1404 Clear -1 1027 80 10000 3.6 260 08:57 31.12.2019
1405 Clear -1 1027 79 10000 2.6 270 08:39 31.12.2019
1406 Clear -1 1027 79 10000 2.6 270 08:19 31.12.2019
1407 Clear -3 1027 85 10000 3.1 230 07:43 31.12.2019
1408 Clear -3 1027 85 10000 3.1 230 07:21 31.12.2019
1409 Clear -4 1027 85 10000 2.6 270 06:50 31.12.2019
1410 Clear -4 1028 86 10000 4.1 270 05:57 31.12.2019
1411 Clear -3 1028 79 10000 4.6 300 04:29 31.12.2019
1412 Clouds -3 1028 92 10000 3.6 270 03:38 31.12.2019
1413 Clouds -2 1029 86 10000 3.6 270 02:55 31.12.2019
1414 Clouds -1 1029 86 10000 3.6 270 02:18 31.12.2019
1415 Clouds -2 1030 86 10000 2.6 290 01:42 31.12.2019
1416 Clouds -2 1030 86 10000 2.6 290 01:23 31.12.2019
1417 Clouds -2 1030 86 10000 2.1 300 00:46 31.12.2019
1418 Clouds -2 1030 80 10000 3.6 320 00:22 31.12.2019
1419 Clouds -2 1030 80 10000 5.7 320 23:56 30.12.2019
1420 Clouds -2 1030 80 10000 5.1 340 23:38 30.12.2019
1421 Clouds -2 1030 80 10000 5.1 340 23:20 30.12.2019
1422 Clouds -1 1031 77 10000 3.6 340 22:57 30.12.2019
1423 Clouds -1 1031 77 10000 3.6 320 22:38 30.12.2019
1424 Clouds -1 1031 77 10000 3.6 320 22:19 30.12.2019
1425 Clouds -1 1031 77 10000 5.1 340 21:56 30.12.2019
1426 Clouds -1 1031 77 10000 4.6 350 21:38 30.12.2019
1427 Clouds -1 1031 77 10000 4.6 350 21:18 30.12.2019
1428 Clouds 0 1031 69 10000 3.6 340 20:56 30.12.2019
1429 Clouds 0 1031 69 10000 5.7 350 20:38 30.12.2019
1430 Clouds 0 1031 69 10000 5.7 350 20:19 30.12.2019
1431 Clouds 0 1031 69 10000 4.6 350 19:56 30.12.2019
1432 Clouds 0 1031 69 10000 4.6 10 19:37 30.12.2019
1433 Clouds 0 1031 69 10000 4.6 10 19:37 30.12.2019
1434 Clouds 0 1031 69 10000 4.6 10 19:19 30.12.2019
1435 Clouds 0 1031 74 10000 3.6 10 18:56 30.12.2019
1436 Clouds 0 1031 74 10000 4.6 340 18:37 30.12.2019
1437 Clouds 0 1031 74 10000 4.6 340 18:19 30.12.2019
1438 Clouds 0 1031 74 10000 5.7 360 17:54 30.12.2019
1439 Clouds 0 1030 74 10000 4.6 10 17:36 30.12.2019
1440 Clouds 0 1030 74 10000 4.6 10 17:18 30.12.2019
1441 Clouds 1 1030 69 10000 5.7 10 16:41 30.12.2019
1442 Clouds 1 1030 69 10000 5.7 10 16:41 30.12.2019
1443 Clouds 1 1030 69 10000 5.7 10 16:21 30.12.2019
1444 Clouds 1 1030 74 10000 5.1 10 15:58 30.12.2019
1445 Clouds 1 1030 74 10000 8.2 10 15:39 30.12.2019
1446 Clouds 1 1030 74 10000 8.2 10 15:19 30.12.2019
1447 Clouds 1 1030 74 10000 8.2 10 15:19 30.12.2019
1448 Clouds 1 1030 74 10000 7.7 10 14:55 30.12.2019
1449 Clouds 2 1030 69 10000 7.2 20 14:37 30.12.2019
1450 Clouds 2 1030 69 10000 7.2 20 14:37 30.12.2019
1451 Clouds 2 1030 69 10000 7.2 20 14:18 30.12.2019
1452 Clouds 2 1029 74 10000 9.3 10 13:42 30.12.2019
1453 Clouds 2 1029 74 10000 9.3 10 13:24 30.12.2019
1454 Clouds 2 1029 85 10000 8.7 10 12:59 30.12.2019
1455 Clouds 2 1029 85 10000 8.2 10 12:41 30.12.2019
1456 Clouds 2 1029 85 10000 8.2 10 12:19 30.12.2019
1457 Clouds 2 1029 85 10000 8.7 20 11:56 30.12.2019
1458 Clouds 1 1029 85 10000 8.7 20 11:38 30.12.2019
1459 Clouds 1 1029 87 10000 8.7 20 11:18 30.12.2019
1460 Clouds 2 1029 87 9000 8.2 10 10:43 30.12.2019
1461 Clouds 1 1029 87 9000 8.2 10 10:20 30.12.2019
1462 Clouds 1 1028 80 8000 10.8 10 09:44 30.12.2019
1463 Clouds 1 1028 80 8000 10.8 10 09:22 30.12.2019
1464 Clouds 1 1028 87 9000 11.3 10 08:58 30.12.2019
1465 Rain 1 1029 87 9000 10.8 10 08:39 30.12.2019
1466 Rain 1 1029 84 9000 10.8 10 08:21 30.12.2019
1467 Clouds 1 1028 80 10000 12.3 10 07:49 30.12.2019
1468 Clouds 1 1028 84 10000 10.8 10 07:25 30.12.2019
1469 Clouds 1 1027 84 10000 10.3 10 06:39 30.12.2019
1470 Clouds 1 1027 80 10000 9.3 10 04:32 30.12.2019
1471 Clouds 1 1027 80 10000 10.3 10 03:51 30.12.2019
1472 Drizzle 1 1027 80 10000 9.8 360 02:47 30.12.2019
1473 Drizzle 1 1027 82 10000 10.3 360 02:27 30.12.2019
1474 Drizzle 1 1026 92 10000 11.3 10 01:39 30.12.2019
1475 Drizzle 1 1026 92 10000 11.3 10 01:19 30.12.2019
1476 Clouds 1 1026 86 10000 9.8 10 00:42 30.12.2019
1477 Clouds 1 1026 80 10000 8.7 360 23:58 29.12.2019
1478 Rain 0 1026 86 10000 10.3 360 23:37 29.12.2019
1479 Clouds 0 1026 86 10000 10.3 360 23:19 29.12.2019
1480 Clouds 0 1026 86 10000 9.8 360 22:41 29.12.2019
1481 Clouds 0 1026 86 10000 9.8 360 22:22 29.12.2019
1482 Clouds 0 1026 86 10000 9.8 360 21:56 29.12.2019
1483 Clouds 0 1025 86 10000 9.8 360 21:38 29.12.2019
1484 Clouds 0 1025 86 10000 9.8 360 21:19 29.12.2019
1485 Clouds 0 1026 86 10000 9.3 10 20:55 29.12.2019
1486 Snow 0 1025 86 10000 9.3 360 20:37 29.12.2019
1487 Snow 0 1025 86 10000 9.3 360 20:18 29.12.2019
1488 Snow 0 1025 86 10000 8.2 360 19:56 29.12.2019
1489 Snow 0 1026 86 10000 6.2 360 19:37 29.12.2019
1490 Snow 0 1026 86 10000 6.2 360 19:19 29.12.2019
1491 Snow 0 1025 80 10000 6.7 360 18:55 29.12.2019
1492 Snow 0 1025 80 10000 6.7 360 18:55 29.12.2019
1493 Snow 0 1025 80 10000 6.7 360 18:37 29.12.2019
1494 Snow 0 1025 80 10000 6.7 360 18:18 29.12.2019
1495 Snow 0 1024 80 10000 8.7 360 17:56 29.12.2019
1496 Clouds 0 1024 80 10000 8.2 350 17:37 29.12.2019
1497 Clouds 0 1024 80 10000 8.2 350 17:37 29.12.2019
1498 Clouds 0 1024 80 10000 8.2 350 17:37 29.12.2019
1499 Clouds 0 1024 80 10000 8.2 350 17:19 29.12.2019
1500 Clouds 0 1024 80 10000 7.2 340 16:55 29.12.2019
1501 Clouds 0 1024 80 10000 7.2 340 16:36 29.12.2019
1502 Clouds 0 1024 80 10000 7.2 340 16:36 29.12.2019
1503 Clouds 0 1024 80 10000 7.2 340 16:18 29.12.2019
1504 Clouds 0 1024 74 10000 7.7 340 15:55 29.12.2019
1505 Clouds 1 1024 74 10000 7.2 340 15:37 29.12.2019
1506 Clouds 1 1024 74 10000 7.2 340 15:18 29.12.2019
1507 Clouds 1 1023 74 10000 7.7 350 14:55 29.12.2019
1508 Clouds 1 1023 74 10000 8.7 350 14:37 29.12.2019
1509 Clouds 1 1022 74 10000 9.8 350 14:18 29.12.2019
1510 Clouds 1 1022 74 10000 9.3 360 13:40 29.12.2019
1511 Clouds 1 1022 74 10000 9.3 360 13:40 29.12.2019
1512 Clouds 1 1022 74 10000 9.3 360 13:22 29.12.2019
1513 Clouds 1 1022 74 10000 8.7 350 12:58 29.12.2019
1514 Rain 1 1023 74 10000 7.7 350 12:40 29.12.2019
1515 Rain 1 1023 74 10000 7.7 350 12:22 29.12.2019
1516 Rain 1 1023 74 10000 7.7 350 12:22 29.12.2019
1517 Clouds 1 1023 74 10000 4.1 0 11:43 29.12.2019
1518 Clouds 1 1023 74 10000 4.1 0 11:23 29.12.2019
1519 Clouds 1 1023 80 10000 3.1 0 10:59 29.12.2019
1520 Clouds 1 1023 80 10000 5.7 330 10:40 29.12.2019
1521 Clouds 1 1023 80 10000 5.7 330 10:18 29.12.2019
1522 Clouds 1 1024 80 10000 4.6 320 09:47 29.12.2019
1523 Clouds 1 1023 80 10000 5.7 320 09:28 29.12.2019
1524 Clouds 1 1023 80 10000 5.7 320 09:28 29.12.2019
1525 Clouds 1 1023 74 10000 6.2 330 08:59 29.12.2019
1526 Clouds 1 1023 74 10000 7.2 330 08:40 29.12.2019
1527 Clouds 1 1023 74 10000 7.2 330 08:40 29.12.2019
1528 Clouds 1 1023 74 10000 7.2 330 08:21 29.12.2019
1529 Clouds 1 1022 80 10000 4.6 300 07:44 29.12.2019
1530 Clouds 1 1022 80 10000 4.6 300 07:25 29.12.2019
1531 Clouds 1 1022 74 10000 5.1 320 06:38 29.12.2019
1532 Clouds 1 1022 74 10000 5.1 320 06:18 29.12.2019
1533 Clouds 0 1022 86 10000 4.1 310 05:44 29.12.2019
1534 Clouds 1 1022 80 10000 7.2 340 04:32 29.12.2019
1535 Clouds 1 1022 74 10000 6.7 340 03:36 29.12.2019
1536 Clouds 1 1022 80 10000 5.7 350 02:30 29.12.2019
1537 Clouds 1 1022 80 10000 5.7 350 02:30 29.12.2019
1538 Clouds 1 1022 80 10000 6.7 350 01:52 29.12.2019
1539 Clouds 1 1022 80 10000 5.1 340 01:29 29.12.2019
1540 Clouds 1 1022 80 10000 5.1 340 01:29 29.12.2019
1541 Clouds 1 1022 86 10000 5.1 340 00:45 29.12.2019
1542 Clouds 1 1022 86 10000 5.1 340 00:45 29.12.2019
1543 Clouds 1 1022 86 10000 3.1 330 00:25 29.12.2019
1544 Clouds 1 1022 86 10000 3.1 330 00:25 29.12.2019
1545 Clouds 1 1022 86 10000 0.5 0 23:55 28.12.2019
1546 Clouds 1 1022 80 10000 1.5 330 23:37 28.12.2019
1547 Clouds 1 1022 80 10000 1.5 330 23:18 28.12.2019
1548 Clouds 0 1022 65 10000 1.5 360 22:37 28.12.2019
1549 Clouds 0 1022 65 10000 1.5 360 22:18 28.12.2019
1550 Clouds 0 1021 86 10000 2.6 320 21:56 28.12.2019
1551 Clouds 0 1021 86 10000 2.6 320 21:56 28.12.2019
1552 Clouds 0 1021 65 10000 1 290 21:37 28.12.2019
1553 Clouds 0 1021 65 10000 1 290 21:19 28.12.2019
1554 Clouds -1 1021 86 10000 1.5 300 20:42 28.12.2019
1555 Clouds -1 1021 86 10000 1.5 300 20:23 28.12.2019
1556 Clouds 0 1021 62 10000 2.6 350 19:59 28.12.2019
1557 Clouds 0 1021 62 10000 1 0 19:41 28.12.2019
1558 Clouds 0 1021 62 10000 1 0 19:23 28.12.2019
1559 Clouds 0 1021 86 10000 2.1 350 18:59 28.12.2019
1560 Clouds 0 1020 62 10000 2.1 360 18:40 28.12.2019
1561 Clouds 0 1020 62 10000 2.1 360 18:20 28.12.2019
1562 Clouds 1 1020 80 10000 2.6 350 17:57 28.12.2019
1563 Clouds 1 1020 80 10000 3.1 360 17:38 28.12.2019
1564 Clouds 2 1019 80 10000 2.1 350 17:19 28.12.2019
1565 Clouds 3 1019 74 10000 3.1 320 16:47 28.12.2019
1566 Clouds 3 1019 74 10000 3.1 320 16:26 28.12.2019
1567 Clouds 3 1019 69 10000 4.1 300 15:57 28.12.2019
1568 Clouds 4 1019 60 10000 3.6 300 15:39 28.12.2019
1569 Clouds 4 1019 60 10000 3.6 300 15:19 28.12.2019
1570 Clouds 5 1019 60 10000 4.6 340 14:44 28.12.2019
1571 Clouds 5 1019 60 10000 4.6 340 14:24 28.12.2019
1572 Clouds 5 1019 60 10000 4.6 340 14:24 28.12.2019
1573 Clouds 5 1019 56 10000 4.1 310 13:57 28.12.2019
1574 Clouds 5 1018 60 10000 5.1 320 13:38 28.12.2019
1575 Clouds 5 1018 60 10000 5.1 320 13:19 28.12.2019
1576 Clouds 5 1019 60 10000 2.1 20 12:43 28.12.2019
1577 Clouds 5 1019 60 10000 2.1 20 12:24 28.12.2019
1578 Clouds 5 1019 65 10000 4.6 330 11:57 28.12.2019
1579 Clouds 5 1019 60 10000 3.6 360 11:38 28.12.2019
1580 Clouds 5 1019 60 10000 3.6 360 11:20 28.12.2019
1581 Clouds 4 1019 64 10000 2.1 330 10:44 28.12.2019
1582 Clouds 4 1019 64 10000 2.1 330 10:22 28.12.2019
1583 Clouds 3 1019 74 10000 2.1 0 09:58 28.12.2019
1584 Clouds 2 1019 80 10000 2.6 260 09:40 28.12.2019
1585 Clouds 2 1019 80 10000 2.6 260 09:20 28.12.2019
1586 Clouds 1 1019 80 10000 0.5 0 08:44 28.12.2019
1587 Clouds 1 1019 80 10000 0.5 0 08:26 28.12.2019
1588 Clouds 1 1019 80 10000 1 0 07:53 28.12.2019
1589 Clouds 0 1018 80 10000 2.6 270 07:31 28.12.2019
1590 Clouds 0 1018 80 10000 3.1 260 06:41 28.12.2019
1591 Clouds 0 1018 76 10000 0.5 0 04:51 28.12.2019
1592 Clouds 0 1018 76 10000 6.56 326 03:47 28.12.2019
1593 Clouds 0 1018 76 10000 1.5 250 02:48 28.12.2019
1594 Clouds 0 1017 75 10000 1 0 01:59 28.12.2019
1595 Clouds 1 1017 86 10000 2.1 250 01:30 28.12.2019
1596 Clouds 1 1017 80 10000 3.6 260 00:55 28.12.2019
1597 Clouds 1 1017 86 10000 4.1 270 00:37 28.12.2019
1598 Clouds 1 1017 86 10000 4.1 270 00:19 28.12.2019
1599 Clouds 2 1017 80 10000 4.1 270 23:43 27.12.2019
1600 Clouds 2 1017 80 10000 4.1 270 23:20 27.12.2019
1601 Clouds 2 1018 72 10000 4.6 320 22:57 27.12.2019
1602 Clouds 2 1018 72 10000 5.7 280 22:38 27.12.2019
1603 Clouds 2 1018 72 10000 5.7 280 22:20 27.12.2019
1604 Clouds 3 1018 72 10000 4.1 260 21:55 27.12.2019
1605 Clouds 3 1018 72 10000 3.1 240 21:36 27.12.2019
1606 Clouds 3 1018 72 10000 3.1 240 21:18 27.12.2019
1607 Clouds 3 1017 72 10000 2.6 250 20:41 27.12.2019
1608 Rain 3 1017 63 10000 2.6 250 20:22 27.12.2019
1609 Clouds 3 1017 65 10000 1.5 320 19:42 27.12.2019
1610 Clouds 3 1017 65 10000 1.5 320 19:21 27.12.2019
1611 Clouds 3 1017 80 10000 1.5 310 18:59 27.12.2019
1612 Clouds 3 1017 65 10000 2.1 330 18:39 27.12.2019
1613 Clouds 4 1017 65 10000 2.1 330 18:20 27.12.2019
1614 Clouds 4 1017 86 10000 3.1 330 17:57 27.12.2019
1615 Clouds 4 1017 65 10000 2.6 300 17:39 27.12.2019
1616 Clouds 3 1017 57 10000 2.6 300 17:19 27.12.2019
1617 Clouds 3 1017 86 10000 2.1 320 16:58 27.12.2019
1618 Clouds 4 1017 75 10000 1.5 300 16:38 27.12.2019
1619 Clouds 4 1017 75 10000 1.5 300 16:19 27.12.2019
1620 Clouds 4 1017 75 10000 1.5 300 16:19 27.12.2019
1621 Clouds 5 1016 70 10000 3.6 280 15:43 27.12.2019
1622 Clouds 6 1016 70 10000 3.6 280 15:20 27.12.2019
1623 Clouds 8 1016 61 10000 5.1 270 14:57 27.12.2019
1624 Clouds 7 1016 65 10000 4.1 290 14:39 27.12.2019
1625 Clouds 8 1016 65 10000 4.1 290 14:20 27.12.2019
1626 Clouds 7 1016 65 10000 6.2 290 13:48 27.12.2019
1627 Clouds 7 1016 65 10000 5.7 270 13:25 27.12.2019
1628 Clouds 7 1016 65 10000 3.1 290 12:58 27.12.2019
1629 Clouds 6 1016 63 10000 4.6 280 12:39 27.12.2019
1630 Clouds 6 1016 63 10000 4.6 280 12:21 27.12.2019
1631 Clouds 6 1017 70 10000 2.6 270 11:43 27.12.2019
1632 Clouds 6 1017 70 10000 2.6 270 11:23 27.12.2019
1633 Clouds 5 1017 73 10000 4.6 280 10:55 27.12.2019
1634 Clouds 5 1017 73 10000 4.6 280 10:36 27.12.2019
1635 Clouds 5 1017 73 10000 4.6 280 10:18 27.12.2019
1636 Clouds 5 1017 73 10000 4.6 280 09:40 27.12.2019
1637 Clouds 5 1017 73 10000 4.6 280 09:21 27.12.2019
1638 Clouds 4 1017 73 10000 4.6 290 08:54 27.12.2019
1639 Clouds 4 1017 80 10000 5.7 300 08:34 27.12.2019
1640 Clouds 3 1017 80 10000 5.7 280 07:49 27.12.2019
1641 Clouds 3 1017 80 10000 5.7 260 07:28 27.12.2019
1642 Clouds 4 1017 80 10000 4.6 270 06:36 27.12.2019
1643 Clouds 4 1017 80 10000 5.1 280 04:58 27.12.2019
1644 Clouds 4 1017 80 10000 3.6 260 02:53 27.12.2019
1645 Clear 4 1016 75 10000 3.1 210 01:59 27.12.2019
1646 Clear 4 1016 75 10000 2.1 180 01:24 27.12.2019
1647 Clear 4 1016 75 10000 1 0 00:53 27.12.2019
1648 Clear 4 1016 80 10000 1 0 00:34 27.12.2019
1649 Clear 4 1016 80 10000 1 0 23:59 26.12.2019
1650 Clear 4 1016 80 10000 1 0 23:40 26.12.2019
1651 Clear 4 1016 80 10000 1 0 23:21 26.12.2019
1652 Clear 4 1016 80 10000 3.1 290 22:43 26.12.2019
1653 Clear 4 1016 80 10000 3.1 290 22:21 26.12.2019
1654 Clear 4 1016 86 10000 2.6 270 21:56 26.12.2019
1655 Clear 4 1016 65 10000 2.6 260 21:37 26.12.2019
1656 Clear 4 1016 65 10000 2.6 260 21:19 26.12.2019
1657 Clear 4 1016 65 10000 3.6 290 20:45 26.12.2019
1658 Clear 4 1016 65 10000 3.6 290 20:45 26.12.2019
1659 Clouds 4 1016 63 10000 3.6 290 20:22 26.12.2019
1660 Clouds 3 1016 61 10000 3.6 290 19:58 26.12.2019
1661 Clouds 3 1015 61 10000 3.6 310 19:39 26.12.2019
1662 Clouds 3 1015 61 10000 3.6 310 19:20 26.12.2019
1663 Clouds 3 1015 61 10000 3.1 300 18:57 26.12.2019
1664 Clouds 3 1015 80 10000 3.1 300 18:37 26.12.2019
1665 Clouds 3 1015 80 10000 3.1 300 18:19 26.12.2019
1666 Clouds 3 1015 80 10000 2.1 280 17:42 26.12.2019
1667 Clouds 3 1015 80 10000 2.1 280 17:22 26.12.2019
1668 Clouds 4 1014 70 10000 2.6 280 16:54 26.12.2019
1669 Clouds 5 1014 70 10000 3.1 280 16:36 26.12.2019
1670 Clouds 5 1014 70 10000 3.1 280 16:36 26.12.2019
1671 Clouds 4 1014 70 10000 3.1 280 16:18 26.12.2019
1672 Clouds 5 1014 65 10000 4.1 300 15:41 26.12.2019
1673 Clouds 5 1014 65 10000 4.1 300 15:19 26.12.2019
1674 Clouds 6 1013 65 10000 3.6 310 14:43 26.12.2019
1675 Clouds 6 1013 59 10000 3.6 310 14:24 26.12.2019
1676 Clouds 6 1013 59 10000 3.6 310 14:24 26.12.2019
1677 Clouds 6 1013 65 10000 3.6 310 14:24 26.12.2019
1678 Clouds 6 1013 59 10000 3.6 310 14:24 26.12.2019
1679 Clouds 6 1013 65 10000 4.6 310 13:58 26.12.2019
1680 Clouds 7 1013 65 10000 3.6 310 13:40 26.12.2019
1681 Clouds 7 1013 65 10000 3.6 310 13:18 26.12.2019
1682 Clouds 7 1013 60 10000 4.6 320 12:56 26.12.2019
1683 Clouds 7 1013 60 10000 5.7 340 12:36 26.12.2019
1684 Clouds 7 1013 60 10000 5.7 340 12:18 26.12.2019
1685 Clouds 6 1013 60 10000 4.6 330 11:42 26.12.2019
1686 Clouds 6 1013 60 10000 4.6 330 11:42 26.12.2019
1687 Clouds 6 1013 60 10000 4.6 330 11:23 26.12.2019
1688 Clouds 6 1013 63 10000 4.6 350 10:54 26.12.2019
1689 Clouds 6 1013 63 10000 3.6 340 10:36 26.12.2019
1690 Clouds 6 1013 63 10000 3.6 340 10:18 26.12.2019
1691 Clouds 5 1013 75 10000 4.1 300 09:42 26.12.2019
1692 Clouds 5 1013 75 10000 4.1 300 09:24 26.12.2019
1693 Clouds 5 1012 70 10000 4.1 310 08:40 26.12.2019
1694 Clouds 5 1012 70 10000 4.1 310 08:21 26.12.2019
1695 Clouds 4 1012 75 10000 3.6 330 07:46 26.12.2019
1696 Clouds 4 1012 75 10000 3.6 330 07:26 26.12.2019
1697 Clouds 5 1011 70 10000 4.1 310 06:39 26.12.2019
1698 Clouds 4 1011 70 10000 4.1 310 06:20 26.12.2019
1699 Clouds 5 1010 75 10000 3.6 280 05:43 26.12.2019
1700 Clouds 5 1010 75 10000 3.6 280 05:43 26.12.2019
1701 Clouds 5 1010 75 10000 3.1 290 04:36 26.12.2019
1702 Clouds 4 1010 87 10000 3.6 260 03:32 26.12.2019
1703 Clouds 4 1010 87 10000 3.6 270 02:47 26.12.2019
1704 Clouds 5 1010 87 10000 4.6 250 02:29 26.12.2019
1705 Clouds 5 1010 87 10000 2.1 0 01:44 26.12.2019
1706 Clouds 5 1010 87 10000 2.1 0 01:25 26.12.2019
1707 Clouds 5 1009 81 10000 3.6 260 00:44 26.12.2019
1708 Clouds 5 1009 81 10000 3.6 260 00:23 26.12.2019
1709 Clouds 5 1009 87 10000 2.1 270 23:57 25.12.2019
1710 Clouds 5 1009 87 10000 2.1 270 23:37 25.12.2019
1711 Clouds 5 1009 87 10000 1 0 23:19 25.12.2019
1712 Clouds 5 1009 87 10000 1 0 22:56 25.12.2019
1713 Clouds 5 1009 87 10000 2.6 260 22:37 25.12.2019
1714 Clouds 6 1009 87 10000 2.6 260 22:18 25.12.2019
1715 Clouds 6 1009 87 10000 2.6 260 22:18 25.12.2019
1716 Clouds 5 1009 87 10000 2.1 230 21:55 25.12.2019
1717 Clouds 5 1009 87 10000 2.1 230 21:55 25.12.2019
1718 Clouds 5 1009 87 10000 2.6 250 21:37 25.12.2019
1719 Clouds 5 1009 87 10000 2.6 250 21:18 25.12.2019
1720 Clouds 5 1009 93 10000 7.66 313 20:40 25.12.2019
1721 Clouds 5 1009 93 10000 7.1 316 20:21 25.12.2019
1722 Clouds 5 1008 93 10000 1.5 280 19:59 25.12.2019
1723 Clouds 5 1008 87 10000 3.1 260 19:40 25.12.2019
1724 Clouds 5 1008 87 10000 3.1 260 19:21 25.12.2019
1725 Clouds 5 1008 87 10000 2.6 270 18:40 25.12.2019
1726 Clouds 5 1008 87 10000 2.6 270 18:20 25.12.2019
1727 Clouds 6 1007 81 10000 3.1 280 17:57 25.12.2019
1728 Clouds 5 1007 87 10000 3.6 280 17:39 25.12.2019
1729 Clouds 6 1007 81 10000 3.1 280 17:18 25.12.2019
1730 Clouds 6 1007 87 10000 3.6 280 16:39 25.12.2019
1731 Clouds 6 1007 87 10000 3.6 280 16:20 25.12.2019
1732 Clouds 6 1007 87 10000 3.6 270 15:59 25.12.2019
1733 Clouds 6 1007 87 10000 4.6 260 15:40 25.12.2019
1734 Clouds 6 1007 87 10000 4.6 260 15:21 25.12.2019
1735 Clouds 6 1007 87 10000 5.1 260 14:59 25.12.2019
1736 Rain 7 1007 87 10000 5.1 260 14:40 25.12.2019
1737 Rain 6 1007 87 10000 5.1 260 14:22 25.12.2019
1738 Rain 6 1007 87 10000 5.1 260 13:57 25.12.2019
1739 Rain 6 1007 87 10000 5.7 270 13:39 25.12.2019
1740 Rain 6 1007 87 10000 5.7 270 13:19 25.12.2019
1741 Rain 6 1007 87 10000 5.7 270 12:42 25.12.2019
1742 Rain 6 1007 87 10000 5.7 270 12:21 25.12.2019
1743 Rain 6 1007 87 10000 5.7 270 11:57 25.12.2019
1744 Rain 6 1007 93 10000 4.1 280 11:39 25.12.2019
1745 Rain 6 1007 93 10000 4.1 280 11:18 25.12.2019
1746 Rain 6 1007 93 10000 5.1 280 10:38 25.12.2019
1747 Rain 6 1007 93 10000 5.1 280 10:20 25.12.2019
1748 Rain 6 1007 87 10000 6.2 280 09:51 25.12.2019
1749 Rain 6 1007 87 10000 7.2 280 09:32 25.12.2019
1750 Rain 6 1007 87 10000 6.2 280 08:51 25.12.2019
1751 Rain 6 1007 87 10000 6.2 280 08:51 25.12.2019
1752 Rain 5 1006 100 10000 4.6 270 08:31 25.12.2019
1753 Rain 5 1006 100 10000 5.7 280 07:52 25.12.2019
1754 Rain 5 1006 100 10000 5.1 280 07:34 25.12.2019
1755 Rain 5 1006 87 10000 4.6 290 06:52 25.12.2019
1756 Rain 5 1006 100 10000 4.1 290 06:23 25.12.2019
1757 Rain 5 1006 93 10000 5.1 290 05:18 25.12.2019
1758 Rain 5 1005 93 10000 5.1 290 04:39 25.12.2019
1759 Rain 5 1005 93 10000 5.1 290 04:20 25.12.2019
1760 Rain 5 1005 93 10000 5.1 280 03:42 25.12.2019
1761 Rain 5 1005 93 10000 5.7 270 02:54 25.12.2019
1762 Rain 5 1005 93 10000 6.2 270 02:27 25.12.2019
1763 Rain 6 1005 100 10000 6.2 270 01:25 25.12.2019
1764 Rain 6 1005 100 10000 5.7 270 00:54 25.12.2019
1765 Rain 6 1005 100 10000 5.7 270 00:54 25.12.2019
1766 Rain 6 1005 87 10000 6.2 270 00:32 25.12.2019
1767 Rain 6 1005 87 10000 6.2 280 23:57 24.12.2019
1768 Rain 7 1005 87 10000 6.2 270 23:38 24.12.2019
1769 Rain 6 1005 87 10000 6.2 270 23:20 24.12.2019
1770 Clouds 7 1005 93 10000 7.7 260 22:41 24.12.2019
1771 Clouds 6 1005 93 10000 7.7 260 22:21 24.12.2019
1772 Clouds 7 1004 93 10000 7.2 260 21:44 24.12.2019
1773 Clouds 7 1004 93 10000 7.2 260 21:23 24.12.2019
1774 Rain 7 1004 81 10000 5.7 270 20:57 24.12.2019
1775 Clouds 7 1004 81 10000 5.1 270 20:39 24.12.2019
1776 Clouds 7 1004 81 10000 5.1 270 20:19 24.12.2019
1777 Rain 7 1004 87 10000 6.2 280 19:44 24.12.2019
1778 Rain 7 1004 87 10000 6.2 280 19:20 24.12.2019
1779 Clouds 8 1003 81 10000 7.7 290 18:44 24.12.2019
1780 Clouds 8 1003 81 10000 7.7 290 18:44 24.12.2019
1781 Clouds 8 1003 81 10000 7.7 290 18:25 24.12.2019
1782 Clouds 8 1003 76 10000 7.2 300 17:59 24.12.2019
1783 Clouds 8 1002 76 10000 6.2 290 17:38 24.12.2019
1784 Clouds 8 1002 76 10000 6.2 290 17:20 24.12.2019
1785 Clouds 8 1002 76 10000 5.7 270 16:55 24.12.2019
1786 Clouds 8 1002 76 10000 7.2 280 16:37 24.12.2019
1787 Clouds 8 1002 76 10000 7.2 280 16:19 24.12.2019
1788 Clouds 8 1002 76 10000 6.7 270 15:55 24.12.2019
1789 Clouds 9 1001 71 10000 6.2 280 15:36 24.12.2019
1790 Clouds 9 1001 71 10000 6.2 280 15:18 24.12.2019
1791 Clouds 10 1001 71 10000 7.2 280 14:55 24.12.2019
1792 Clouds 9 1001 66 10000 8.7 280 14:36 24.12.2019
1793 Clouds 10 1001 66 10000 8.7 280 14:18 24.12.2019
1794 Clouds 10 1001 66 10000 8.2 280 13:55 24.12.2019
1795 Clouds 10 1000 66 10000 7.7 280 13:37 24.12.2019
1796 Clouds 10 1000 66 10000 7.7 280 13:18 24.12.2019
1797 Clouds 10 1000 71 10000 7.7 280 12:55 24.12.2019
1798 Clouds 9 1000 70 10000 7.7 270 12:36 24.12.2019
1799 Clouds 9 1000 70 10000 7.7 270 12:18 24.12.2019
1800 Clouds 10 1000 71 10000 6.7 280 11:54 24.12.2019
1801 Clouds 9 1000 70 10000 6.2 280 11:36 24.12.2019
1802 Clouds 9 1000 70 10000 6.2 280 11:36 24.12.2019
1803 Clouds 9 1000 70 10000 6.2 280 11:18 24.12.2019
1804 Clouds 9 1000 71 10000 5.7 290 10:55 24.12.2019
1805 Clouds 9 1000 66 10000 8.2 280 10:36 24.12.2019
1806 Clouds 9 1000 66 10000 8.2 280 10:18 24.12.2019
1807 Clouds 8 1000 70 10000 6.7 280 09:54 24.12.2019
1808 Clouds 9 1000 66 10000 7.2 280 09:36 24.12.2019
1809 Clouds 9 1000 66 10000 7.2 280 09:18 24.12.2019
1810 Clouds 8 1000 70 10000 6.2 280 08:42 24.12.2019
1811 Clouds 8 1000 70 10000 6.2 280 08:19 24.12.2019
1812 Clouds 7 999 75 10000 4.1 260 07:45 24.12.2019
1813 Clouds 6 999 75 10000 4.1 260 07:22 24.12.2019
1814 Clouds 6 999 81 10000 5.7 280 06:41 24.12.2019
1815 Clouds 6 999 81 10000 5.7 280 06:22 24.12.2019
1816 Clouds 7 998 70 10000 3.6 280 05:56 24.12.2019
1817 Clouds 7 998 70 10000 3.6 280 05:56 24.12.2019
1818 Clouds 6 998 81 10000 4.1 260 05:20 24.12.2019
1819 Clouds 7 997 75 10000 3.6 280 04:22 24.12.2019
1820 Clouds 7 997 70 10000 3.1 290 03:50 24.12.2019
1821 Clouds 7 997 75 10000 4.1 290 02:37 24.12.2019
1822 Rain 7 997 75 10000 4.1 290 02:18 24.12.2019
1823 Clouds 7 996 75 10000 4.6 270 01:42 24.12.2019
1824 Clouds 7 996 75 10000 4.6 270 01:42 24.12.2019
1825 Clouds 7 996 75 10000 4.6 270 01:19 24.12.2019
1826 Rain 8 996 81 10000 4.6 260 00:40 24.12.2019
1827 Rain 8 996 81 10000 4.6 260 00:20 24.12.2019
1828 Clouds 8 996 76 10000 5.7 270 23:43 23.12.2019
1829 Clouds 8 996 76 10000 5.7 270 23:24 23.12.2019
1830 Clouds 9 995 66 10000 5.1 270 22:58 23.12.2019
1831 Clouds 8 995 76 10000 4.6 270 22:38 23.12.2019
1832 Clouds 8 995 76 10000 4.6 270 22:20 23.12.2019
1833 Clouds 8 995 76 10000 5.1 270 21:57 23.12.2019
1834 Clouds 8 995 76 10000 6.2 280 21:37 23.12.2019
1835 Clouds 8 995 76 10000 6.2 280 21:19 23.12.2019
1836 Clouds 8 995 76 10000 6.2 280 20:59 23.12.2019
1837 Clouds 9 995 81 10000 6.7 270 20:41 23.12.2019
1838 Clouds 9 995 81 10000 6.7 270 20:19 23.12.2019
1839 Clouds 9 995 81 10000 6.7 270 20:19 23.12.2019
1840 Rain 9 994 87 10000 5.7 270 19:59 23.12.2019
1841 Rain 10 994 76 10000 4.6 300 19:40 23.12.2019
1842 Rain 10 994 76 10000 4.6 300 19:21 23.12.2019
1843 Clouds 11 994 76 10000 4.1 260 18:58 23.12.2019
1844 Clouds 11 994 76 10000 4.1 260 18:58 23.12.2019
1845 Clouds 11 993 76 10000 5.1 330 18:39 23.12.2019
1846 Clouds 11 993 76 10000 5.1 330 18:21 23.12.2019
1847 Clouds 11 993 76 10000 4.6 330 17:59 23.12.2019
1848 Clouds 11 993 71 10000 4.6 330 17:40 23.12.2019
1849 Clouds 12 993 71 10000 4.6 330 17:19 23.12.2019
1850 Clouds 12 992 82 10000 2.1 290 16:57 23.12.2019
1851 Clouds 12 992 87 10000 2.1 110 16:39 23.12.2019
1852 Clouds 12 992 87 10000 2.1 110 16:19 23.12.2019
1853 Clouds 12 992 87 10000 2.1 110 16:19 23.12.2019
1854 Clouds 12 992 87 10000 2.1 110 16:19 23.12.2019
1855 Rain 13 992 76 10000 2.6 130 15:57 23.12.2019
1856 Clouds 13 991 76 10000 2.6 130 15:37 23.12.2019
1857 Clouds 14 991 76 10000 2.6 130 15:19 23.12.2019
1858 Clouds 15 991 72 10000 3.1 140 14:56 23.12.2019
1859 Clouds 15 991 72 10000 3.1 140 14:56 23.12.2019
1860 Clouds 15 991 72 10000 3.1 140 14:56 23.12.2019
1861 Clouds 15 991 63 10000 2.6 130 14:37 23.12.2019
1862 Clouds 15 991 63 10000 2.6 130 14:18 23.12.2019
1863 Clouds 15 991 67 10000 4.1 120 13:55 23.12.2019
1864 Clouds 15 991 67 10000 3.1 120 13:37 23.12.2019
1865 Clouds 14 991 67 10000 3.1 120 13:19 23.12.2019
1866 Clouds 14 991 67 10000 1.5 220 12:41 23.12.2019
1867 Clouds 13 991 67 10000 1.5 220 12:21 23.12.2019
1868 Clouds 13 992 67 10000 3.1 210 11:59 23.12.2019
1869 Clouds 14 992 67 10000 4.1 210 11:41 23.12.2019
1870 Clouds 14 992 67 10000 4.1 210 11:22 23.12.2019
1871 Clouds 14 992 67 10000 3.6 200 10:55 23.12.2019
1872 Clouds 13 992 71 10000 3.1 190 10:37 23.12.2019
1873 Clouds 13 992 71 10000 3.1 190 10:18 23.12.2019
1874 Clouds 13 992 71 10000 2.1 170 09:54 23.12.2019
1875 Clouds 12 993 76 10000 3.1 160 09:36 23.12.2019
1876 Clouds 12 993 76 10000 3.1 160 09:18 23.12.2019
1877 Clouds 12 992 76 10000 2.1 180 08:41 23.12.2019
1878 Clouds 12 992 76 10000 2.1 180 08:22 23.12.2019
1879 Clouds 11 992 71 10000 2.6 180 07:49 23.12.2019
1880 Clouds 11 992 71 10000 2.1 190 07:22 23.12.2019
1881 Clouds 12 992 71 10000 4.1 160 06:57 23.12.2019
1882 Clouds 13 992 71 10000 5.7 190 06:30 23.12.2019
1883 Clouds 13 992 71 10000 6.7 170 05:56 23.12.2019
1884 Clouds 13 992 71 10000 5.1 180 05:30 23.12.2019
1885 Rain 13 992 71 10000 4.6 150 04:39 23.12.2019
1886 Clouds 13 993 71 10000 3.6 160 03:28 23.12.2019
1887 Clouds 13 994 76 10000 5.7 140 02:43 23.12.2019
1888 Clouds 13 994 76 10000 5.7 140 02:19 23.12.2019
1889 Clouds 13 995 71 10000 4.1 150 01:44 23.12.2019
1890 Clouds 13 995 71 10000 4.1 150 01:26 23.12.2019
1891 Clouds 13 995 71 10000 5.1 160 00:45 23.12.2019
1892 Rain 13 995 76 10000 8.2 180 00:24 23.12.2019
1893 Rain 13 995 76 10000 8.2 180 00:24 23.12.2019
1894 Clouds 15 996 63 10000 7.7 180 23:40 22.12.2019
1895 Clouds 15 996 63 10000 7.7 180 23:22 22.12.2019
1896 Clouds 16 996 55 10000 6.7 180 22:58 22.12.2019
1897 Clouds 16 996 59 10000 4.1 180 22:40 22.12.2019
1898 Clouds 15 996 59 10000 4.1 180 22:22 22.12.2019
1899 Clouds 16 997 59 10000 6.7 190 21:58 22.12.2019
1900 Clouds 16 997 55 10000 7.2 190 21:40 22.12.2019
1901 Clouds 17 997 55 10000 7.2 190 21:21 22.12.2019
1902 Clouds 16 997 63 10000 6.2 200 20:58 22.12.2019
1903 Clouds 16 998 63 10000 7.2 210 20:39 22.12.2019
1904 Clouds 16 998 63 10000 7.2 210 20:19 22.12.2019
1905 Clouds 16 998 63 10000 8.2 200 19:56 22.12.2019
1906 Clouds 16 998 67 10000 9.3 210 19:37 22.12.2019
1907 Clouds 16 998 67 10000 9.3 210 19:19 22.12.2019
1908 Clouds 17 998 63 10000 5.7 210 18:41 22.12.2019
1909 Clouds 17 998 63 10000 5.7 210 18:23 22.12.2019
1910 Clouds 16 998 63 10000 5.1 200 17:56 22.12.2019
1911 Clouds 16 998 67 10000 5.7 210 17:37 22.12.2019
1912 Clouds 16 998 67 10000 5.7 210 17:19 22.12.2019
1913 Clouds 16 998 67 10000 5.7 210 17:19 22.12.2019
1914 Clouds 16 998 59 10000 4.1 220 16:57 22.12.2019
1915 Clouds 17 998 59 10000 6.2 200 16:38 22.12.2019
1916 Clouds 17 998 59 10000 6.2 200 16:19 22.12.2019
1917 Clouds 17 998 63 10000 7.7 190 15:56 22.12.2019
1918 Clouds 17 999 59 10000 5.7 200 15:37 22.12.2019
1919 Clouds 17 999 59 10000 5.7 200 15:37 22.12.2019
1920 Clouds 17 999 59 10000 5.7 200 15:19 22.12.2019
1921 Clouds 17 999 52 10000 6.7 200 14:55 22.12.2019
1922 Clouds 18 999 52 10000 5.7 210 14:36 22.12.2019
1923 Clouds 18 999 52 10000 5.7 210 14:18 22.12.2019
1924 Clouds 18 999 55 10000 5.7 230 13:55 22.12.2019
1925 Clouds 18 999 55 10000 7.2 240 13:36 22.12.2019
1926 Clouds 18 999 55 10000 7.2 240 13:18 22.12.2019
1927 Clouds 18 999 55 10000 7.2 240 13:18 22.12.2019
1928 Clouds 19 1000 55 10000 7.2 240 12:55 22.12.2019
1929 Clouds 18 1000 55 10000 6.2 220 12:37 22.12.2019
1930 Clouds 18 1000 55 10000 6.2 220 12:18 22.12.2019
1931 Clouds 18 1001 55 10000 7.2 220 11:39 22.12.2019
1932 Clouds 18 1001 55 10000 7.2 220 11:21 22.12.2019
1933 Clear 18 1001 55 10000 7.2 210 10:59 22.12.2019
1934 Clear 18 1002 55 10000 5.1 230 10:40 22.12.2019
1935 Clear 17 1002 55 10000 5.1 230 10:21 22.12.2019
1936 Clear 17 1002 59 10000 3.6 260 09:59 22.12.2019
1937 Clear 16 1002 63 10000 2.6 290 09:40 22.12.2019
1938 Clear 16 1002 63 10000 2.6 290 09:21 22.12.2019
1939 Clear 15 1002 67 10000 2.6 330 08:59 22.12.2019
1940 Clear 15 1003 67 10000 2.6 290 08:37 22.12.2019
1941 Clouds 14 1003 67 10000 2.6 290 08:18 22.12.2019
1942 Clouds 12 1003 76 10000 2.6 330 07:38 22.12.2019
1943 Clouds 12 1003 76 10000 2.6 330 07:19 22.12.2019
1944 Clouds 12 1002 71 10000 2.6 310 06:40 22.12.2019
1945 Clouds 12 1002 76 10000 2.6 350 05:53 22.12.2019
1946 Clouds 13 1003 71 10000 2.6 10 05:21 22.12.2019
1947 Clouds 13 1003 76 10000 3.6 330 04:28 22.12.2019
1948 Clouds 13 1004 76 10000 3.6 280 03:45 22.12.2019
1949 Clouds 14 1004 71 10000 2.6 270 02:38 22.12.2019
1950 Clouds 14 1004 71 10000 2.6 270 02:38 22.12.2019
1951 Clouds 14 1004 67 10000 3.1 280 01:37 22.12.2019
1952 Clouds 14 1004 67 10000 3.1 280 01:18 22.12.2019
1953 Clouds 13 1004 67 10000 5.1 300 00:45 22.12.2019
1954 Clouds 13 1004 67 10000 5.1 300 00:21 22.12.2019
1955 Clouds 13 1004 71 10000 6.7 230 23:42 21.12.2019
1956 Clouds 13 1004 71 10000 6.7 230 23:24 21.12.2019
1957 Clouds 13 1004 71 10000 6.2 230 22:59 21.12.2019
1958 Clouds 13 1005 71 10000 3.1 220 22:40 21.12.2019
1959 Clouds 13 1005 71 10000 3.1 220 22:19 21.12.2019
1960 Clouds 13 1005 71 10000 2.1 130 21:56 21.12.2019
1961 Clouds 12 1005 82 10000 2.6 170 21:37 21.12.2019
1962 Clouds 12 1005 82 10000 2.6 170 21:19 21.12.2019
1963 Clouds 13 1005 82 10000 3.1 160 20:57 21.12.2019
1964 Clouds 13 1006 82 10000 2.6 180 20:38 21.12.2019
1965 Clouds 13 1006 82 10000 2.6 180 20:20 21.12.2019
1966 Clouds 13 1006 76 10000 3.6 190 19:57 21.12.2019
1967 Clouds 13 1006 76 10000 3.6 190 19:57 21.12.2019
1968 Clouds 13 1006 76 10000 3.6 190 19:57 21.12.2019
1969 Clouds 13 1007 76 10000 4.1 200 19:39 21.12.2019
1970 Clouds 13 1007 76 10000 4.1 200 19:19 21.12.2019
1971 Clouds 13 1007 76 10000 1.5 180 18:42 21.12.2019
1972 Clouds 13 1007 76 10000 1.5 180 18:23 21.12.2019
1973 Clouds 12 1007 81 10000 2.1 200 17:57 21.12.2019
1974 Clouds 12 1007 76 10000 1 0 17:39 21.12.2019
1975 Clouds 11 1007 76 10000 1 0 17:20 21.12.2019
1976 Clouds 11 1007 76 10000 2.1 80 16:57 21.12.2019
1977 Clouds 11 1007 76 10000 2.1 80 16:57 21.12.2019
1978 Clouds 12 1008 71 10000 0.5 0 16:39 21.12.2019
1979 Clouds 12 1008 71 10000 0.5 0 16:18 21.12.2019
1980 Clouds 12 1008 76 10000 4.56 200 15:56 21.12.2019
1981 Clouds 13 1008 67 10000 4.56 200 15:37 21.12.2019
1982 Clouds 13 1008 67 10000 4.56 200 15:18 21.12.2019
1983 Clouds 13 1008 67 10000 2.1 320 14:43 21.12.2019
1984 Clouds 13 1008 67 10000 2.1 320 14:24 21.12.2019
1985 Clouds 14 1009 62 10000 2.1 280 13:58 21.12.2019
1986 Clouds 15 1009 62 10000 2.6 260 13:40 21.12.2019
1987 Clouds 15 1009 62 10000 2.6 260 13:20 21.12.2019
1988 Clouds 15 1009 62 10000 2.6 260 13:20 21.12.2019
1989 Clouds 15 1009 67 10000 2.6 260 12:57 21.12.2019
1990 Clouds 15 1010 62 10000 1.5 280 12:39 21.12.2019
1991 Clouds 15 1010 62 10000 1.5 280 12:20 21.12.2019
1992 Clouds 15 1010 62 10000 1 0 11:55 21.12.2019
1993 Clouds 15 1011 67 10000 1.5 330 11:37 21.12.2019
1994 Clouds 15 1011 67 10000 1.5 330 11:19 21.12.2019
1995 Clouds 14 1011 71 10000 1 0 10:41 21.12.2019
1996 Clouds 14 1011 71 10000 1 0 10:22 21.12.2019
1997 Clouds 14 1011 82 10000 5.52 226 09:58 21.12.2019
1998 Clouds 12 1011 87 9000 0.5 0 09:39 21.12.2019
1999 Clouds 12 1011 87 9000 0.5 0 09:19 21.12.2019
2000 Clouds 12 1011 87 8000 1.5 130 08:51 21.12.2019
2001 Clouds 11 1012 93 7000 1 0 08:27 21.12.2019
2002 Clear 9 1012 93 7000 2.1 10 07:58 21.12.2019
2003 Clear 9 1012 93 7000 2.1 10 07:58 21.12.2019
2004 Clear 9 1012 100 8000 0.5 0 07:39 21.12.2019
2005 Clear 8 1012 100 8000 0.5 0 07:20 21.12.2019
2006 Clear 8 1012 100 9000 1.5 330 06:40 21.12.2019
2007 Clear 8 1012 100 9000 1.5 330 06:22 21.12.2019
2008 Clear 7 1012 93 10000 2.6 20 05:25 21.12.2019
2009 Clear 7 1012 100 10000 1 0 04:55 21.12.2019
2010 Clear 8 1012 100 10000 1.5 30 03:56 21.12.2019
2011 Clear 9 1013 93 10000 1.5 330 02:25 21.12.2019
2012 Clouds 9 1013 87 10000 0.5 0 01:48 21.12.2019
2013 Clouds 9 1013 93 9000 1.5 220 01:25 21.12.2019
2014 Clouds 9 1014 81 10000 1.5 330 00:45 21.12.2019
2015 Clouds 9 1014 81 10000 1.5 330 00:26 21.12.2019
2016 Clouds 10 1014 76 10000 1 0 23:39 20.12.2019
2017 Clouds 10 1014 76 10000 1 0 23:21 20.12.2019
2018 Clouds 10 1015 87 10000 2.6 320 22:59 20.12.2019
2019 Clouds 10 1015 87 10000 2.6 320 22:59 20.12.2019
2020 Clouds 10 1015 81 10000 1.5 320 22:39 20.12.2019
2021 Clouds 10 1015 81 10000 1.5 320 22:18 20.12.2019
2022 Clouds 11 1015 76 10000 2.1 250 21:41 20.12.2019
2023 Clouds 11 1015 76 10000 2.1 250 21:21 20.12.2019
2024 Clouds 11 1015 81 10000 2.1 320 20:59 20.12.2019
2025 Clouds 11 1016 81 10000 2.1 300 20:38 20.12.2019
2026 Clouds 11 1016 81 10000 2.1 300 20:19 20.12.2019
2027 Clouds 10 1016 87 10000 0.5 0 19:43 20.12.2019
2028 Clouds 10 1016 87 10000 0.5 0 19:21 20.12.2019
2029 Clouds 11 1016 81 10000 0.5 0 18:58 20.12.2019
2030 Clouds 10 1016 81 10000 2.6 100 18:40 20.12.2019
2031 Clouds 10 1016 81 10000 2.6 100 18:21 20.12.2019
2032 Clouds 10 1016 81 10000 2.6 100 18:21 20.12.2019
2033 Clouds 10 1016 87 10000 2.6 110 17:56 20.12.2019
2034 Clouds 10 1016 87 10000 2.6 110 17:56 20.12.2019
2035 Clouds 11 1016 81 10000 1 0 17:38 20.12.2019
2036 Clouds 11 1016 81 10000 1 0 17:20 20.12.2019
2037 Clouds 11 1016 76 10000 1.5 110 16:41 20.12.2019
2038 Clouds 11 1016 76 10000 1 0 16:21 20.12.2019
2039 Clouds 12 1016 71 10000 1.5 170 15:57 20.12.2019
2040 Clouds 12 1016 71 10000 1.5 170 15:39 20.12.2019
2041 Clouds 12 1016 71 10000 1.5 190 15:21 20.12.2019
2042 Clouds 13 1017 67 10000 1.5 160 14:59 20.12.2019
2043 Clouds 13 1017 67 10000 1.5 160 14:41 20.12.2019
2044 Clouds 11 1017 67 10000 2.1 180 14:23 20.12.2019
2045 Clouds 11 1017 67 10000 4.1 190 13:56 20.12.2019
2046 Clouds 11 1017 67 10000 4.1 190 13:37 20.12.2019
2047 Clouds 11 1017 67 10000 3.6 180 13:18 20.12.2019
2048 Clouds 11 1017 67 10000 3.6 180 13:18 20.12.2019
2049 Clouds 11 1018 67 10000 4.6 190 12:55 20.12.2019
2050 Clouds 11 1018 71 10000 4.6 180 12:36 20.12.2019
2051 Clouds 11 1018 71 10000 4.6 180 12:18 20.12.2019
2052 Clouds 11 1018 71 10000 4.6 190 11:56 20.12.2019
2053 Clouds 11 1019 76 10000 5.1 170 11:37 20.12.2019
2054 Clouds 11 1019 76 10000 5.1 170 11:18 20.12.2019
2055 Clouds 11 1019 76 10000 4.6 170 10:54 20.12.2019
2056 Clouds 11 1019 76 10000 4.6 170 10:36 20.12.2019
2057 Clouds 11 1020 87 10000 2.6 140 10:18 20.12.2019
2058 Clouds 10 1021 100 9000 3.6 120 09:41 20.12.2019
2059 Fog 9 1021 100 9000 0.5 0 09:21 20.12.2019
2060 Fog 9 1021 100 9000 0.5 0 09:21 20.12.2019
2061 Fog 8 1021 100 8000 2.1 120 08:44 20.12.2019
2062 Fog 8 1021 100 4000 1.5 100 08:26 20.12.2019
2063 Fog 7 1021 100 200 3.1 120 07:59 20.12.2019
2064 Fog 7 1021 100 200 3.1 120 07:41 20.12.2019
2065 Fog 7 1021 100 250 2.1 130 07:20 20.12.2019
2066 Fog 8 1021 100 350 1 0 06:52 20.12.2019
2067 Fog 8 1021 100 550 2.1 120 06:33 20.12.2019
2068 Fog 8 1021 100 450 4.1 110 05:56 20.12.2019
2069 Fog 8 1021 100 350 4.6 110 05:37 20.12.2019
2070 Fog 8 1021 100 450 4.1 110 05:37 20.12.2019
2071 Fog 8 1022 100 600 3.1 120 04:33 20.12.2019
2072 Fog 6 1022 100 800 3.6 120 03:30 20.12.2019
2073 Fog 5 1022 100 450 2.6 110 02:44 20.12.2019
2074 Fog 5 1023 100 350 0.5 0 01:52 20.12.2019
2075 Fog 5 1023 100 200 1.5 120 01:33 20.12.2019
2076 Fog 5 1024 100 350 1.5 40 00:44 20.12.2019
2077 Fog 5 1024 93 200 5.22 192 00:25 20.12.2019
2078 Fog 5 1024 100 3600 1 310 23:44 19.12.2019
2079 Mist 6 1025 100 3700 5.22 192 23:26 19.12.2019
2080 Clouds 6 1025 93 8000 1 50 22:59 19.12.2019
2081 Clouds 5 1025 93 8000 1 50 22:37 19.12.2019
2082 Clouds 5 1025 86 10000 1 20 22:18 19.12.2019
2083 Clouds 6 1025 81 10000 2.67 183 21:55 19.12.2019
2084 Clouds 5 1025 81 10000 2.67 183 21:37 19.12.2019
2085 Clouds 6 1025 80 10000 1 0 21:18 19.12.2019
2086 Clouds 6 1026 75 10000 1.5 50 20:55 19.12.2019
2087 Clouds 6 1026 70 10000 1 70 20:36 19.12.2019
2088 Clouds 5 1026 70 10000 1 70 20:18 19.12.2019
2089 Clouds 6 1026 75 10000 2.05 97 19:54 19.12.2019
2090 Clouds 6 1026 75 10000 2.05 97 19:36 19.12.2019
2091 Clouds 6 1026 75 10000 2.05 97 19:18 19.12.2019
2092 Clouds 8 1026 75 10000 0.5 0 18:41 19.12.2019
2093 Clouds 9 1026 66 10000 1 60 18:22 19.12.2019
2094 Clouds 9 1026 65 10000 1.5 90 17:57 19.12.2019
2095 Clouds 8 1026 65 10000 1.5 90 17:39 19.12.2019
2096 Clouds 8 1026 70 10000 3.1 90 17:19 19.12.2019
2097 Clouds 9 1026 66 10000 3.6 110 16:57 19.12.2019
2098 Clouds 9 1026 66 10000 3.6 110 16:39 19.12.2019
2099 Clouds 13 1026 57 10000 3.6 110 16:20 19.12.2019
2100 Clouds 14 1026 50 10000 3.6 110 15:58 19.12.2019
2101 Clouds 14 1026 50 10000 3.6 110 15:39 19.12.2019
2102 Clouds 15 1026 50 10000 3.1 110 15:19 19.12.2019
2103 Clouds 16 1026 47 10000 3.1 130 14:58 19.12.2019
2104 Clouds 16 1026 47 10000 3.1 130 14:40 19.12.2019
2105 Clouds 17 1026 48 10000 2.6 150 14:18 19.12.2019
2106 Clouds 17 1026 36 10000 1 0 13:54 19.12.2019
2107 Clouds 17 1026 36 10000 1 0 13:36 19.12.2019
2108 Clouds 17 1026 36 10000 1 0 13:18 19.12.2019
2109 Clouds 17 1026 39 10000 1.5 280 12:54 19.12.2019
2110 Clouds 16 1026 41 10000 1 0 12:36 19.12.2019
2111 Clouds 17 1026 41 10000 1 0 12:18 19.12.2019
2112 Clouds 17 1026 41 10000 1 0 12:18 19.12.2019
2113 Clouds 16 1026 41 10000 1 0 11:42 19.12.2019
2114 Clouds 15 1027 50 10000 1.5 290 11:20 19.12.2019
2115 Clouds 15 1027 50 10000 1.5 290 11:20 19.12.2019
2116 Clouds 15 1027 50 10000 1.5 290 11:20 19.12.2019
2117 Clouds 14 1027 58 10000 1.5 290 10:59 19.12.2019
2118 Clouds 15 1027 58 10000 1.5 290 10:38 19.12.2019
2119 Clouds 14 1028 62 10000 1.5 290 10:20 19.12.2019
2120 Clouds 11 1028 70 10000 1 0 09:57 19.12.2019
2121 Clouds 11 1028 70 10000 1 0 09:38 19.12.2019
2122 Clouds 11 1028 70 10000 0.5 0 09:19 19.12.2019
2123 Clouds 11 1028 70 10000 0.5 0 09:19 19.12.2019
2124 Clouds 8 1028 86 10000 1.61 303 08:55 19.12.2019
2125 Clouds 8 1028 86 10000 1.61 303 08:37 19.12.2019
2126 Clouds 8 1027 81 10000 2.71 296 08:18 19.12.2019
2127 Clouds 6 1027 86 10000 2.57 292 07:54 19.12.2019
2128 Clouds 6 1027 60 10000 0.5 190 07:36 19.12.2019
2129 Clouds 6 1027 60 10000 0.5 190 07:18 19.12.2019
2130 Clouds 5 1027 80 10000 1 0 06:42 19.12.2019
2131 Clouds 4 1026 60 10000 3.1 110 06:23 19.12.2019
2132 Clouds 5 1026 86 10000 0.5 0 05:42 19.12.2019
2133 Clouds 5 1026 86 10000 0.5 0 05:19 19.12.2019
2134 Clouds 7 1025 86 10000 3.55 274 03:54 19.12.2019
2135 Clouds 8 1025 86 10000 1 300 02:29 19.12.2019
2136 Clear 6 1025 80 10000 3.68 278 01:26 19.12.2019
2137 Clear 5 1025 86 10000 1 0 00:58 19.12.2019
2138 Clear 6 1025 86 10000 1 0 00:39 19.12.2019
2139 Clear 7 1025 80 10000 1.5 280 00:19 19.12.2019
2140 Clear 7 1025 86 10000 0.5 0 23:44 18.12.2019
2141 Clear 8 1025 75 10000 2.1 320 23:19 18.12.2019
2142 Clear 6 1025 80 10000 2.1 340 22:56 18.12.2019
2143 Clear 6 1025 80 10000 2.1 340 22:38 18.12.2019
2144 Clear 8 1025 70 10000 2.1 320 22:20 18.12.2019
2145 Clear 8 1025 65 10000 2.6 330 21:58 18.12.2019
2146 Clear 8 1025 65 10000 2.6 330 21:39 18.12.2019
2147 Clear 8 1025 65 10000 2.6 330 21:39 18.12.2019
2148 Clear 8 1025 65 10000 2.6 330 21:39 18.12.2019
2149 Clear 8 1025 70 10000 2.6 310 21:20 18.12.2019
2150 Clear 9 1025 61 10000 2.1 310 20:56 18.12.2019
2151 Clear 9 1025 61 10000 2.1 310 20:38 18.12.2019
2152 Clear 8 1025 65 10000 2.6 320 20:19 18.12.2019
2153 Clear 8 1024 65 10000 1 0 19:56 18.12.2019
2154 Clear 9 1024 65 10000 1 0 19:37 18.12.2019
2155 Clear 8 1024 61 10000 1 320 19:18 18.12.2019
2156 Clear 9 1024 57 10000 1.5 320 18:45 18.12.2019
2157 Clear 8 1024 61 10000 1 10 18:25 18.12.2019
2158 Clear 9 1024 61 10000 1.5 20 17:58 18.12.2019
2159 Clear 9 1024 61 10000 1.5 20 17:39 18.12.2019
2160 Clear 9 1024 61 10000 1.5 20 17:39 18.12.2019
2161 Clear 10 1024 62 10000 1 50 17:20 18.12.2019
2162 Clear 10 1023 62 10000 0.5 0 16:58 18.12.2019
2163 Clear 10 1023 62 10000 0.5 0 16:40 18.12.2019
2164 Clear 10 1023 62 10000 0.5 0 16:40 18.12.2019
2165 Clear 15 1023 50 10000 0.5 220 16:21 18.12.2019
2166 Clear 15 1023 44 10000 1 0 15:56 18.12.2019
2167 Clear 18 1023 42 10000 2.6 260 15:38 18.12.2019
2168 Clear 18 1023 42 10000 2.6 260 15:20 18.12.2019
2169 Clear 19 1023 45 10000 2.1 280 14:43 18.12.2019
2170 Clear 19 1023 45 10000 2.1 280 14:22 18.12.2019
2171 Clear 19 1023 42 10000 2.1 290 13:57 18.12.2019
2172 Clear 19 1023 45 10000 2.1 250 13:39 18.12.2019
2173 Clear 19 1023 45 10000 2.1 250 13:20 18.12.2019
2174 Clear 19 1023 42 10000 3.1 260 12:59 18.12.2019
2175 Clear 19 1023 42 10000 3.1 260 12:59 18.12.2019
2176 Clear 19 1023 48 10000 2.6 260 12:39 18.12.2019
2177 Clear 19 1023 48 10000 2.6 260 12:20 18.12.2019
2178 Clear 19 1023 48 10000 2.6 240 11:56 18.12.2019
2179 Clear 17 1024 51 10000 3.1 240 11:38 18.12.2019
2180 Clear 17 1024 51 10000 3.1 240 11:19 18.12.2019
2181 Clear 17 1024 58 10000 2.1 250 10:56 18.12.2019
2182 Clear 16 1024 62 10000 2.1 250 10:38 18.12.2019
2183 Clear 16 1024 62 10000 2.1 250 10:19 18.12.2019
2184 Clear 15 1024 66 10000 1 0 09:50 18.12.2019
2185 Clear 15 1024 66 10000 1 0 09:50 18.12.2019
2186 Clear 15 1024 66 10000 1 0 09:50 18.12.2019
2187 Clear 13 1024 70 10000 1.5 260 09:18 18.12.2019
2188 Clear 9 1024 80 10000 1.5 260 08:41 18.12.2019
2189 Clear 9 1024 80 10000 1.5 260 08:22 18.12.2019
2190 Clear 6 1023 93 8000 1 320 07:45 18.12.2019
2191 Clear 5 1023 93 8000 1 320 07:24 18.12.2019
2192 Clear 4 1023 93 8000 1 310 06:57 18.12.2019
2193 Clear 4 1023 86 10000 1.5 280 06:28 18.12.2019
2194 Clear 4 1023 86 10000 1.5 300 05:57 18.12.2019
2195 Clear 4 1022 93 10000 1.5 280 04:59 18.12.2019
2196 Clear 4 1022 86 10000 0.5 0 02:55 18.12.2019
2197 Clear 5 1023 80 10000 1.5 270 02:37 18.12.2019
2198 Clear 5 1023 80 10000 1.5 270 02:18 18.12.2019
2199 Clear 4 1022 93 10000 1.5 300 01:41 18.12.2019
2200 Clear 3 1022 93 10000 1.5 300 01:22 18.12.2019
2201 Clear 3 1022 93 10000 1.5 300 01:22 18.12.2019
2202 Clear 4 1022 93 10000 1.5 320 00:41 18.12.2019
2203 Clear 4 1022 93 10000 1.5 320 00:23 18.12.2019
2204 Clear 4 1023 80 10000 2.1 330 23:57 17.12.2019
2205 Clear 5 1023 86 10000 1.5 10 23:38 17.12.2019
2206 Clear 5 1023 86 10000 1.5 10 23:19 17.12.2019
2207 Clear 5 1023 86 8000 1.5 280 22:56 17.12.2019
2208 Clear 5 1023 75 10000 1.5 300 22:38 17.12.2019
2209 Clear 5 1023 75 10000 1.5 300 22:18 17.12.2019
2210 Clear 6 1023 81 10000 2.1 310 21:55 17.12.2019
2211 Clear 6 1023 81 10000 3.1 290 21:37 17.12.2019
2212 Clear 6 1023 81 10000 3.1 290 21:19 17.12.2019
2213 Clear 6 1023 81 10000 2.1 330 20:56 17.12.2019
2214 Clear 6 1023 81 10000 2.6 330 20:37 17.12.2019
2215 Clouds 5 1023 81 10000 2.6 330 20:18 17.12.2019
2216 Clouds 6 1023 75 10000 2.6 360 19:54 17.12.2019
2217 Clouds 7 1022 70 10000 1.5 340 19:36 17.12.2019
2218 Clouds 7 1022 65 10000 1 300 19:18 17.12.2019
2219 Clouds 7 1022 65 10000 2.1 340 18:41 17.12.2019
2220 Clouds 7 1022 65 10000 2.1 340 18:21 17.12.2019
2221 Clouds 8 1023 61 10000 0.5 360 17:58 17.12.2019
2222 Clouds 8 1022 61 10000 1 50 17:40 17.12.2019
2223 Clouds 9 1022 61 10000 1 50 17:19 17.12.2019
2224 Clouds 9 1022 76 10000 2.1 100 16:56 17.12.2019
2225 Clouds 9 1022 71 10000 2.1 120 16:37 17.12.2019
2226 Clouds 12 1022 71 10000 2.1 120 16:19 17.12.2019
2227 Clouds 13 1022 58 10000 2.1 130 15:55 17.12.2019
2228 Clouds 15 1022 39 10000 1 0 15:37 17.12.2019
2229 Clouds 15 1022 39 10000 1 0 15:18 17.12.2019
2230 Clouds 16 1022 39 10000 0.5 0 14:55 17.12.2019
2231 Clouds 16 1022 39 10000 2.6 260 14:36 17.12.2019
2232 Clouds 16 1022 39 10000 2.6 260 14:18 17.12.2019
2233 Clouds 17 1021 41 10000 4.1 270 13:55 17.12.2019
2234 Clouds 17 1022 41 10000 2.6 230 13:37 17.12.2019
2235 Clouds 17 1022 41 10000 2.6 230 13:18 17.12.2019
2236 Clouds 16 1022 47 10000 3.1 240 12:40 17.12.2019
2237 Clouds 17 1022 47 10000 3.1 240 12:19 17.12.2019
2238 Clouds 16 1022 50 10000 3.1 310 11:59 17.12.2019
2239 Clouds 16 1022 62 10000 3.1 270 11:37 17.12.2019
2240 Clouds 16 1022 62 10000 3.1 270 11:37 17.12.2019
2241 Clouds 14 1022 62 10000 3.1 270 11:19 17.12.2019
2242 Clouds 12 1023 71 9000 1.5 260 10:59 17.12.2019
2243 Clouds 12 1023 70 8000 2.1 240 10:40 17.12.2019
2244 Clouds 12 1023 70 8000 2.1 240 10:21 17.12.2019
2245 Clouds 9 1023 75 6000 0.5 0 09:59 17.12.2019
2246 Mist 9 1023 93 3000 2.57 242 09:40 17.12.2019
2247 Mist 9 1023 93 3000 2.57 242 09:19 17.12.2019
2248 Mist 7 1023 93 3600 1.5 270 08:55 17.12.2019
2249 Mist 7 1023 100 3000 0.5 0 08:37 17.12.2019
2250 Mist 5 1023 100 3000 0.5 0 08:19 17.12.2019
2251 Mist 3 1023 100 4500 2.1 270 07:45 17.12.2019
2252 Mist 3 1023 100 4500 2.1 270 07:24 17.12.2019
2253 Mist 2 1022 100 4500 2.13 239 06:55 17.12.2019
2254 Clear 2 1022 100 6000 1.5 280 06:32 17.12.2019
2255 Clear 1 1022 100 6000 0.5 0 05:52 17.12.2019
2256 Clear 2 1022 100 10000 1.5 310 05:32 17.12.2019
2257 Clouds 2 1022 93 10000 0.5 310 04:19 17.12.2019
2258 Clouds 3 1022 100 10000 1.4 241 02:27 17.12.2019
2259 Clouds 3 1022 93 10000 1.9 283 01:34 17.12.2019
2260 Clear 3 1022 93 10000 2.1 270 00:49 17.12.2019
2261 Clear 4 1022 93 10000 1.69 283 00:22 17.12.2019
2262 Clear 4 1022 86 10000 1.5 290 23:59 16.12.2019
2263 Clear 4 1022 93 10000 0.5 0 23:40 16.12.2019
2264 Clouds 4 1022 93 10000 0.5 0 23:18 16.12.2019
2265 Clouds 4 1023 93 10000 2.07 265 22:55 16.12.2019
2266 Clouds 5 1023 86 10000 2.07 265 22:36 16.12.2019
2267 Clouds 5 1023 86 10000 2.07 265 22:18 16.12.2019
2268 Clouds 5 1023 81 10000 0.5 280 21:54 16.12.2019
2269 Clouds 5 1023 87 10000 1 310 21:36 16.12.2019
2270 Clouds 5 1023 87 10000 1 310 21:18 16.12.2019
2271 Clouds 5 1023 81 10000 1 310 20:56 16.12.2019
2272 Clouds 6 1023 75 10000 1.5 340 20:37 16.12.2019
2273 Clear 5 1023 75 10000 1.5 340 20:18 16.12.2019
2274 Clear 6 1023 75 10000 1 0 19:55 16.12.2019
2275 Clear 6 1023 75 10000 2.1 20 19:36 16.12.2019
2276 Clear 6 1023 75 10000 2.1 20 19:18 16.12.2019
2277 Clear 6 1023 75 10000 2.1 20 19:18 16.12.2019
2278 Clear 8 1023 66 10000 2.1 350 18:42 16.12.2019
2279 Clear 8 1023 66 10000 2.1 350 18:20 16.12.2019
2280 Clear 9 1023 70 10000 1 40 17:59 16.12.2019
2281 Clear 9 1023 71 10000 1 0 17:41 16.12.2019
2282 Clear 9 1023 71 10000 1 0 17:22 16.12.2019
2283 Clear 9 1023 71 10000 2.1 350 16:59 16.12.2019
2284 Clear 11 1022 58 10000 2.1 340 16:39 16.12.2019
2285 Clear 11 1022 58 10000 2.1 340 16:39 16.12.2019
2286 Clear 12 1022 58 10000 2.1 340 16:20 16.12.2019
2287 Clouds 13 1022 50 10000 2.1 320 15:59 16.12.2019
2288 Clouds 13 1022 50 10000 2.1 320 15:59 16.12.2019
2289 Clouds 14 1022 44 10000 1.5 280 15:39 16.12.2019
2290 Clouds 14 1022 44 10000 1.5 280 15:21 16.12.2019
2291 Clear 15 1023 44 10000 2.6 260 14:58 16.12.2019
2292 Clear 15 1022 44 10000 2.6 270 14:38 16.12.2019
2293 Clear 15 1022 44 10000 2.6 270 14:20 16.12.2019
2294 Clear 15 1022 48 10000 3.1 250 13:58 16.12.2019
2295 Clear 15 1022 48 10000 3.1 250 13:38 16.12.2019
2296 Clear 15 1022 48 10000 3.1 250 13:20 16.12.2019
2297 Clear 14 1022 48 10000 3.1 230 12:58 16.12.2019
2298 Clear 16 1023 51 10000 4.1 250 12:40 16.12.2019
2299 Clear 16 1023 51 10000 4.1 250 12:20 16.12.2019
2300 Clear 15 1023 54 10000 4.6 270 11:59 16.12.2019
2301 Clear 14 1023 58 10000 4.1 280 11:41 16.12.2019
2302 Clear 13 1023 58 10000 4.1 280 11:21 16.12.2019
2303 Clear 11 1024 62 10000 3.1 290 10:58 16.12.2019
2304 Clear 11 1024 66 10000 3.1 300 10:40 16.12.2019
2305 Clear 11 1024 66 10000 3.1 300 10:20 16.12.2019
2306 Clear 10 1024 81 10000 1 280 09:45 16.12.2019
2307 Clear 10 1024 81 10000 1 280 09:27 16.12.2019
2308 Clear 9 1024 81 10000 5.09 205 08:57 16.12.2019
2309 Clear 8 1023 81 10000 5.09 205 08:38 16.12.2019
2310 Clear 8 1023 81 10000 5.86 206 08:18 16.12.2019
2311 Clear 6 1023 93 10000 5.86 206 07:47 16.12.2019
2312 Clear 6 1023 93 10000 1.5 340 07:28 16.12.2019
2313 Clear 3 1023 86 10000 5.86 206 06:45 16.12.2019
2314 Clear 3 1023 86 10000 5.86 206 06:26 16.12.2019
2315 Clear 4 1023 86 10000 1 20 05:52 16.12.2019
2316 Clear 3 1023 86 10000 1 0 05:33 16.12.2019
2317 Clear 4 1022 59 10000 1 0 04:22 16.12.2019
2318 Clear 6 1023 80 10000 1.5 70 02:31 16.12.2019
2319 Clouds 4 1023 93 10000 1 0 01:45 16.12.2019
2320 Clouds 4 1023 93 10000 1 0 01:45 16.12.2019
2321 Clouds 3 1023 86 10000 2.1 10 00:43 16.12.2019
2322 Clouds 4 1023 86 10000 2.1 10 00:25 16.12.2019
2323 Clouds 5 1023 80 10000 1.5 60 23:59 15.12.2019
2324 Clouds 4 1023 86 10000 1.5 70 23:39 15.12.2019
2325 Clear 4 1023 86 10000 1.5 70 23:20 15.12.2019
2326 Clear 4 1023 80 10000 1.5 10 22:56 15.12.2019
2327 Clear 5 1023 75 10000 1 80 22:37 15.12.2019
2328 Clear 4 1023 75 10000 1 80 22:18 15.12.2019
2329 Clear 4 1023 80 10000 1.5 10 21:56 15.12.2019
2330 Clear 4 1023 80 10000 1.5 10 21:56 15.12.2019
2331 Clear 4 1023 80 10000 1 30 21:37 15.12.2019
2332 Clear 4 1023 80 10000 1 30 21:37 15.12.2019
2333 Clear 4 1023 80 10000 1 30 21:19 15.12.2019
2334 Clear 4 1022 80 10000 2.1 60 20:56 15.12.2019
2335 Clear 4 1022 80 10000 2.6 30 20:37 15.12.2019
2336 Clear 4 1022 80 10000 2.6 30 20:18 15.12.2019
2337 Clouds 4 1022 80 10000 2.6 20 19:56 15.12.2019
2338 Clear 5 1022 75 10000 2.6 20 19:38 15.12.2019
2339 Clouds 5 1022 75 10000 2.6 20 19:18 15.12.2019
2340 Clear 5 1022 75 10000 2.1 40 18:55 15.12.2019
2341 Clear 5 1022 75 10000 1 0 18:37 15.12.2019
2342 Clouds 6 1021 70 10000 1 340 18:18 15.12.2019
2343 Clear 6 1021 70 10000 1 340 18:18 15.12.2019
2344 Clear 6 1021 70 10000 1 340 17:55 15.12.2019
2345 Clear 7 1021 61 10000 0.5 0 17:36 15.12.2019
2346 Clouds 7 1021 66 10000 2.01 282 17:18 15.12.2019
2347 Clear 7 1021 66 10000 3.02 286 17:18 15.12.2019
2348 Clouds 9 1020 61 10000 2.6 310 16:43 15.12.2019
2349 Clear 9 1020 61 10000 2.6 310 16:23 15.12.2019
2350 Clear 10 1020 54 10000 3.1 280 15:57 15.12.2019
2351 Clear 11 1020 50 10000 3.1 250 15:39 15.12.2019
2352 Clouds 12 1020 47 10000 5.1 270 15:19 15.12.2019
2353 Clouds 13 1020 47 10000 5.1 270 14:56 15.12.2019
2354 Clear 14 1019 50 10000 4.6 260 14:38 15.12.2019
2355 Clear 14 1019 50 10000 4.6 260 14:38 15.12.2019
2356 Clouds 14 1019 50 10000 4.6 260 14:19 15.12.2019
2357 Clouds 14 1019 54 10000 6.2 270 13:59 15.12.2019
2358 Clouds 14 1018 50 10000 5.1 280 13:39 15.12.2019
2359 Clouds 14 1018 50 10000 5.1 280 13:20 15.12.2019
2360 Clouds 14 1018 54 10000 3.6 280 12:57 15.12.2019
2361 Clouds 14 1018 54 10000 3.6 280 12:57 15.12.2019
2362 Clouds 14 1018 44 10000 5.7 290 12:39 15.12.2019
2363 Clouds 14 1018 44 10000 5.7 290 12:21 15.12.2019
2364 Clouds 14 1018 50 10000 5.1 290 11:59 15.12.2019
2365 Clouds 13 1018 62 10000 5.7 300 11:37 15.12.2019
2366 Clear 12 1018 62 10000 5.7 300 11:19 15.12.2019
2367 Clear 12 1017 58 10000 6.7 300 10:55 15.12.2019
2368 Clouds 12 1017 71 10000 5.7 290 10:37 15.12.2019
2369 Clouds 11 1017 71 10000 5.7 290 10:19 15.12.2019
2370 Clouds 10 1017 76 10000 5.7 250 09:41 15.12.2019
2371 Clouds 10 1017 76 10000 5.7 250 09:20 15.12.2019
2372 Clouds 9 1016 81 10000 5.1 250 08:59 15.12.2019
2373 Clouds 8 1016 81 10000 6.2 270 08:41 15.12.2019
2374 Clouds 8 1016 81 10000 6.2 270 08:22 15.12.2019
2375 Clouds 8 1016 81 10000 6.2 270 08:22 15.12.2019
2376 Clouds 7 1016 87 10000 5.1 260 07:56 15.12.2019
2377 Clouds 7 1015 81 10000 2.6 300 07:36 15.12.2019
2378 Clouds 7 1014 87 10000 5.7 280 06:56 15.12.2019
2379 Clouds 6 1013 87 10000 4.6 280 06:21 15.12.2019
2380 Clouds 7 1012 87 10000 5.1 320 05:37 15.12.2019
2381 Clouds 8 1012 87 10000 5.1 300 05:18 15.12.2019
2382 Clouds 8 1011 93 10000 3.1 300 03:54 15.12.2019
2383 Rain 8 1011 100 10000 5.1 250 02:34 15.12.2019
2384 Rain 9 1010 93 9000 2.6 240 01:50 15.12.2019
2385 Rain 9 1010 93 10000 2.6 310 01:28 15.12.2019
2386 Clouds 9 1009 100 7000 2.1 300 00:59 15.12.2019
2387 Clouds 9 1008 93 9000 2.1 280 00:41 15.12.2019
2388 Clouds 9 1008 93 9000 2.1 280 00:23 15.12.2019
2389 Clouds 9 1007 100 9000 9.82 308 23:40 14.12.2019
2390 Clouds 9 1007 100 9000 9.82 308 23:40 14.12.2019
2391 Clouds 9 1007 100 9000 9.82 308 23:40 14.12.2019
2392 Clouds 9 1007 100 9000 1.75 214 23:21 14.12.2019
2393 Clouds 10 1007 100 9000 1.75 214 22:58 14.12.2019
2394 Clouds 9 1007 100 9000 1.75 214 22:58 14.12.2019
2395 Clouds 10 1007 100 9000 1.75 214 22:58 14.12.2019
2396 Clouds 10 1007 100 10000 1.75 214 22:40 14.12.2019
2397 Clouds 10 1007 100 10000 1.75 214 22:21 14.12.2019
2398 Clouds 10 1006 93 9000 1.75 214 21:56 14.12.2019
2399 Clouds 10 1006 93 9000 1.75 214 21:56 14.12.2019
2400 Clouds 10 1006 93 10000 1.5 30 21:37 14.12.2019
2401 Clouds 10 1006 93 10000 1.5 30 21:19 14.12.2019
2402 Clouds 10 1006 93 10000 1.5 30 21:19 14.12.2019
2403 Clouds 10 1006 93 10000 2.1 30 20:56 14.12.2019
2404 Clouds 10 1006 93 10000 2.1 20 20:38 14.12.2019
2405 Clouds 10 1006 93 10000 2.1 20 20:19 14.12.2019
2406 Clouds 9 1005 93 10000 2.1 30 19:54 14.12.2019
2407 Clouds 10 1005 81 10000 2.6 90 19:36 14.12.2019
2408 Clouds 10 1005 81 10000 2.6 90 19:18 14.12.2019
2409 Clouds 11 1005 81 10000 2.6 90 18:55 14.12.2019
2410 Clouds 11 1004 87 10000 3.1 100 18:36 14.12.2019
2411 Clouds 11 1004 87 10000 2.6 100 18:18 14.12.2019
2412 Clouds 11 1004 81 10000 2.6 100 17:42 14.12.2019
2413 Clouds 11 1004 81 10000 2.6 100 17:22 14.12.2019
2414 Clouds 12 1003 76 10000 3.6 110 16:42 14.12.2019
2415 Clouds 12 1003 76 10000 3.6 110 16:20 14.12.2019
2416 Clouds 12 1003 76 10000 3.1 120 15:58 14.12.2019
2417 Clouds 12 1002 76 10000 3.6 120 15:39 14.12.2019
2418 Clouds 12 1002 76 10000 3.6 120 15:20 14.12.2019
2419 Clouds 13 1001 76 10000 4.1 120 14:57 14.12.2019
2420 Clouds 13 1001 71 10000 5.1 120 14:38 14.12.2019
2421 Clouds 14 1001 71 10000 5.1 120 14:19 14.12.2019
2422 Clouds 14 1000 72 10000 6.7 100 13:45 14.12.2019
2423 Clouds 15 1000 72 10000 6.7 100 13:20 14.12.2019
2424 Clouds 15 1000 67 10000 5.7 120 12:58 14.12.2019
2425 Clouds 15 1000 59 10000 4.6 150 12:40 14.12.2019
2426 Clouds 15 1000 59 10000 4.6 150 12:21 14.12.2019
2427 Clouds 14 1000 67 10000 5.1 140 11:58 14.12.2019
2428 Clouds 15 1000 67 10000 4.6 150 11:39 14.12.2019
2429 Clouds 14 1000 67 10000 4.6 150 11:19 14.12.2019
2430 Clouds 14 1000 67 10000 4.6 150 11:19 14.12.2019
2431 Clouds 14 1001 67 10000 4.6 140 10:57 14.12.2019
2432 Clouds 14 1001 71 10000 4.6 140 10:39 14.12.2019
2433 Clouds 14 1001 71 10000 4.6 140 10:20 14.12.2019
2434 Clouds 13 1001 76 10000 4.6 130 09:55 14.12.2019
2435 Clouds 13 1001 76 10000 4.6 130 09:55 14.12.2019
2436 Clouds 13 1001 76 10000 4.6 150 09:36 14.12.2019
2437 Clouds 12 1001 76 10000 4.6 150 09:18 14.12.2019
2438 Clouds 11 1000 87 10000 3.1 110 08:41 14.12.2019
2439 Clouds 10 1000 87 10000 3.1 110 08:19 14.12.2019
2440 Clear 8 1000 100 8000 2.6 130 07:43 14.12.2019
2441 Clear 8 1000 100 8000 2.6 130 07:22 14.12.2019
2442 Mist 8 1000 93 5000 1.5 0 06:55 14.12.2019
2443 Clouds 8 999 93 8000 4.1 140 06:36 14.12.2019
2444 Clouds 8 999 87 9000 3.6 130 05:56 14.12.2019
2445 Clear 7 999 93 10000 3.1 140 04:35 14.12.2019
2446 Mist 9 1000 93 5000 2.1 140 02:25 14.12.2019
2447 Mist 9 1000 100 4400 3.1 130 01:44 14.12.2019
2448 Mist 9 1000 100 4400 3.1 130 01:44 14.12.2019
2449 Mist 9 1000 100 4400 3.1 130 01:44 14.12.2019
2450 Mist 9 1000 100 4400 3.1 130 01:22 14.12.2019
2451 Mist 10 1000 100 4100 2.6 90 00:43 14.12.2019
2452 Mist 9 1000 100 4100 2.6 90 00:24 14.12.2019
2453 Mist 10 1000 100 4600 2.1 120 23:43 13.12.2019
2454 Mist 10 1000 100 4600 2.1 120 23:20 13.12.2019
2455 Mist 10 1000 100 5000 3.1 110 22:59 13.12.2019
2456 Clouds 10 1000 100 7000 3.1 110 22:40 13.12.2019
2457 Clouds 10 1000 100 7000 3.1 110 22:19 13.12.2019
2458 Clouds 9 1000 100 8000 3.1 90 21:55 13.12.2019
2459 Clouds 10 1001 93 10000 3.1 120 21:36 13.12.2019
2460 Clouds 10 1001 93 10000 3.1 120 21:18 13.12.2019
2461 Clouds 9 1001 93 10000 2.6 110 20:40 13.12.2019
2462 Clouds 9 1001 93 10000 2.6 110 20:21 13.12.2019
2463 Clouds 9 1001 93 10000 2.6 110 19:57 13.12.2019
2464 Clouds 9 1001 93 10000 2.6 110 19:39 13.12.2019
2465 Clouds 9 1001 100 10000 2.1 120 19:20 13.12.2019
2466 Clouds 8 1001 100 10000 2.1 90 18:56 13.12.2019
2467 Clouds 9 1001 100 10000 2.1 90 18:38 13.12.2019
2468 Clouds 9 1001 100 10000 2.1 90 18:38 13.12.2019
2469 Clouds 9 1001 100 10000 3.1 110 18:18 13.12.2019
2470 Clouds 9 1001 100 10000 3.1 110 18:18 13.12.2019
2471 Clouds 9 1001 93 10000 3.6 100 17:41 13.12.2019
2472 Clouds 9 1001 93 10000 3.6 100 17:19 13.12.2019
2473 Clouds 9 1001 93 10000 2.6 120 16:58 13.12.2019
2474 Clouds 9 1001 93 10000 2.6 120 16:39 13.12.2019
2475 Clouds 10 1001 93 10000 3.1 120 16:20 13.12.2019
2476 Clouds 11 1001 87 10000 3.1 120 15:43 13.12.2019
2477 Clouds 11 1001 87 10000 3.1 100 15:22 13.12.2019
2478 Clouds 11 1002 87 10000 2.1 110 14:58 13.12.2019
2479 Clouds 11 1002 87 10000 2.1 110 14:39 13.12.2019
2480 Clouds 11 1002 81 10000 2.6 120 14:20 13.12.2019
2481 Clouds 11 1002 81 10000 2.1 120 13:45 13.12.2019
2482 Clouds 11 1002 76 10000 1.5 120 13:27 13.12.2019
2483 Clouds 11 1002 81 10000 2.1 140 12:59 13.12.2019
2484 Clouds 10 1002 81 10000 2.1 140 12:41 13.12.2019
2485 Clouds 10 1003 81 10000 1.5 160 12:19 13.12.2019
2486 Clouds 10 1003 81 10000 1 0 11:45 13.12.2019
2487 Clouds 10 1003 81 10000 1 0 11:45 13.12.2019
2488 Clouds 10 1003 81 10000 0.5 0 11:26 13.12.2019
2489 Clouds 10 1004 81 10000 1.5 0 10:58 13.12.2019
2490 Clouds 9 1004 81 10000 1.5 0 10:40 13.12.2019
2491 Clouds 9 1004 87 10000 1 0 10:21 13.12.2019
2492 Clouds 8 1004 87 10000 1 0 09:43 13.12.2019
2493 Clouds 9 1004 87 10000 2.6 50 09:22 13.12.2019
2494 Clouds 8 1004 93 10000 2.1 50 08:55 13.12.2019
2495 Clouds 8 1004 87 10000 1.25 338 08:36 13.12.2019
2496 Clouds 8 1004 87 10000 3.04 346 08:18 13.12.2019
2497 Clouds 8 1004 93 10000 1 0 07:42 13.12.2019
2498 Clouds 8 1004 93 10000 1 0 07:19 13.12.2019
2499 Clouds 7 1004 93 10000 1 0 06:45 13.12.2019
2500 Clouds 7 1004 93 10000 1.5 320 06:25 13.12.2019
2501 Clouds 7 1005 93 10000 2.6 350 05:38 13.12.2019
2502 Clouds 7 1005 93 10000 2.1 340 05:20 13.12.2019
2503 Clouds 7 1005 87 10000 2.1 70 04:29 13.12.2019
2504 Rain 9 1005 81 10000 7.2 40 02:56 13.12.2019
2505 Clouds 7 1005 87 10000 7.2 40 02:30 13.12.2019
2506 Clouds 7 1005 87 10000 8.2 40 01:34 13.12.2019
2507 Clouds 7 1006 87 10000 7.2 40 00:50 13.12.2019
2508 Clouds 7 1006 81 10000 2.6 0 00:28 13.12.2019
2509 Clouds 7 1006 81 10000 4.6 30 23:43 12.12.2019
2510 Clouds 7 1007 87 10000 3.6 30 23:25 12.12.2019
2511 Clouds 7 1007 81 10000 3.6 30 22:56 12.12.2019
2512 Clouds 7 1007 81 10000 3.6 30 22:38 12.12.2019
2513 Clouds 7 1007 87 10000 7.7 30 22:20 12.12.2019
2514 Clouds 7 1007 87 10000 8.2 40 21:56 12.12.2019
2515 Clouds 7 1007 87 10000 8.2 40 21:37 12.12.2019
2516 Clouds 8 1007 87 10000 7.7 40 21:19 12.12.2019
2517 Clouds 8 1007 87 10000 8.2 40 20:58 12.12.2019
2518 Clouds 8 1007 87 10000 8.2 40 20:40 12.12.2019
2519 Clouds 8 1007 87 10000 7.7 40 20:21 12.12.2019
2520 Clouds 8 1007 87 10000 7.2 40 19:56 12.12.2019
2521 Clouds 8 1007 87 10000 7.2 40 19:37 12.12.2019
2522 Clouds 8 1008 87 10000 5.1 30 19:18 12.12.2019
2523 Clouds 8 1008 87 10000 5.1 20 18:55 12.12.2019
2524 Drizzle 8 1008 87 10000 6.7 40 18:37 12.12.2019
2525 Drizzle 8 1008 87 10000 6.7 40 18:18 12.12.2019
2526 Clouds 8 1008 81 10000 6.7 50 17:55 12.12.2019
2527 Clouds 8 1008 81 10000 6.7 50 17:37 12.12.2019
2528 Clouds 8 1008 87 10000 3.6 70 17:19 12.12.2019
2529 Clouds 8 1008 81 10000 6.2 50 16:54 12.12.2019
2530 Clouds 9 1008 76 10000 5.1 40 16:36 12.12.2019
2531 Clouds 9 1008 76 10000 5.1 40 16:18 12.12.2019
2532 Clouds 9 1008 81 10000 5.1 50 15:42 12.12.2019
2533 Clouds 9 1008 81 10000 4.1 70 15:19 12.12.2019
2534 Clouds 9 1008 81 10000 4.1 70 15:19 12.12.2019
2535 Clouds 10 1008 76 10000 5.7 70 14:57 12.12.2019
2536 Clouds 10 1009 76 10000 4.1 80 14:36 12.12.2019
2537 Clouds 10 1009 76 10000 4.1 80 14:18 12.12.2019
2538 Clouds 10 1009 76 10000 6.2 90 13:54 12.12.2019
2539 Clouds 10 1009 81 10000 4.1 90 13:36 12.12.2019
2540 Clouds 10 1009 81 10000 4.1 90 13:18 12.12.2019
2541 Clouds 10 1009 81 10000 4.1 90 13:18 12.12.2019
2542 Clouds 10 1009 81 10000 3.1 60 12:42 12.12.2019
2543 Rain 10 1009 81 10000 3.1 70 12:22 12.12.2019
2544 Clouds 10 1009 81 10000 4.1 70 11:59 12.12.2019
2545 Clouds 10 1009 81 10000 4.1 70 11:40 12.12.2019
2546 Clouds 10 1009 81 10000 4.6 60 11:21 12.12.2019
2547 Clouds 9 1009 81 10000 4.6 60 10:58 12.12.2019
2548 Clouds 9 1009 81 10000 4.6 60 10:40 12.12.2019
2549 Clouds 9 1010 81 10000 5.7 70 10:22 12.12.2019
2550 Clouds 9 1010 81 10000 6.2 70 09:56 12.12.2019
2551 Clouds 10 1010 81 10000 6.2 70 09:38 12.12.2019
2552 Clouds 10 1010 81 10000 6.2 70 09:19 12.12.2019
2553 Clouds 9 1010 81 10000 5.7 70 08:47 12.12.2019
2554 Clouds 8 1010 81 10000 5.1 70 08:28 12.12.2019
2555 Clouds 8 1010 87 10000 4.6 70 07:54 12.12.2019
2556 Clouds 8 1010 87 10000 4.6 70 07:36 12.12.2019
2557 Clouds 8 1011 87 10000 4.1 70 07:18 12.12.2019
2558 Rain 8 1010 87 10000 4.6 80 06:41 12.12.2019
2559 Rain 8 1010 87 10000 4.6 80 06:21 12.12.2019
2560 Clouds 9 1010 81 10000 6.2 80 05:26 12.12.2019
2561 Rain 8 1011 87 10000 4.6 60 04:31 12.12.2019
2562 Clouds 8 1012 81 10000 3.6 60 02:41 12.12.2019
2563 Clouds 9 1012 81 10000 4.1 70 02:23 12.12.2019
2564 Rain 8 1012 87 10000 5.1 60 01:58 12.12.2019
2565 Clouds 8 1012 87 10000 4.6 70 01:35 12.12.2019
2566 Clouds 9 1012 81 10000 4.6 70 00:49 12.12.2019
2567 Clouds 9 1012 81 10000 6.7 80 00:22 12.12.2019
2568 Clouds 9 1013 81 10000 7.7 80 23:58 11.12.2019
2569 Clouds 9 1013 87 10000 7.7 80 23:36 11.12.2019
2570 Clouds 9 1013 87 10000 7.7 80 23:18 11.12.2019
2571 Rain 9 1013 87 10000 7.2 90 22:55 11.12.2019
2572 Rain 9 1013 87 10000 6.7 80 22:36 11.12.2019
2573 Rain 9 1013 87 10000 6.7 80 22:18 11.12.2019
2574 Rain 9 1013 87 10000 7.2 80 21:39 11.12.2019
2575 Rain 9 1014 87 10000 5.1 70 21:20 11.12.2019
2576 Rain 9 1014 87 10000 5.1 70 21:20 11.12.2019
2577 Clouds 9 1014 87 10000 6.7 70 20:58 11.12.2019
2578 Rain 9 1014 81 10000 7.2 70 20:40 11.12.2019
2579 Rain 9 1014 81 10000 7.2 70 20:20 11.12.2019
2580 Clouds 9 1014 81 10000 6.2 70 19:59 11.12.2019
2581 Clouds 9 1014 81 10000 6.2 70 19:40 11.12.2019
2582 Clouds 9 1014 81 10000 5.7 70 19:21 11.12.2019
2583 Clouds 9 1014 81 10000 6.2 70 18:58 11.12.2019
2584 Clouds 9 1014 81 10000 6.2 70 18:39 11.12.2019
2585 Rain 9 1014 81 10000 7.7 70 18:18 11.12.2019
2586 Clouds 9 1014 81 10000 6.7 70 17:55 11.12.2019
2587 Rain 9 1014 81 10000 7.7 70 17:37 11.12.2019
2588 Rain 9 1014 81 10000 7.7 70 17:18 11.12.2019
2589 Clouds 9 1014 81 10000 7.2 70 16:55 11.12.2019
2590 Clouds 9 1014 81 10000 8.2 70 16:36 11.12.2019
2591 Clouds 9 1014 81 10000 8.2 70 16:18 11.12.2019
2592 Clouds 9 1014 81 10000 7.2 70 15:54 11.12.2019
2593 Clouds 9 1014 81 10000 7.2 80 15:36 11.12.2019
2594 Clouds 9 1014 81 10000 7.2 80 15:18 11.12.2019
2595 Clouds 9 1014 81 10000 5.1 70 14:54 11.12.2019
2596 Clouds 9 1015 87 10000 2.6 40 14:36 11.12.2019
2597 Clouds 9 1015 87 10000 2.6 40 14:18 11.12.2019
2598 Rain 10 1015 87 10000 4.6 30 13:41 11.12.2019
2599 Clouds 10 1015 87 10000 6.2 30 13:21 11.12.2019
2600 Clouds 10 1015 87 10000 6.2 30 13:21 11.12.2019
2601 Clouds 10 1015 87 10000 4.6 20 12:57 11.12.2019
2602 Clouds 10 1015 87 10000 4.6 20 12:38 11.12.2019
2603 Clouds 10 1015 93 10000 4.6 20 12:20 11.12.2019
2604 Rain 8 1015 81 10000 5.7 30 11:57 11.12.2019
2605 Clouds 8 1016 87 10000 4.6 60 11:38 11.12.2019
2606 Clouds 8 1016 87 10000 4.6 60 11:18 11.12.2019
2607 Clouds 8 1016 87 10000 4.6 60 11:18 11.12.2019
2608 Clouds 7 1016 87 10000 3.1 0 10:56 11.12.2019
2609 Clouds 6 1017 93 8000 2.6 10 10:38 11.12.2019
2610 Clouds 6 1017 93 8000 2.6 10 10:19 11.12.2019
2611 Clouds 6 1017 93 10000 3.1 20 09:41 11.12.2019
2612 Clouds 6 1017 93 8000 3.6 40 09:21 11.12.2019
2613 Clouds 6 1017 93 8000 3.6 30 08:58 11.12.2019
2614 Clouds 6 1017 93 8000 3.6 30 08:38 11.12.2019
2615 Clouds 5 1017 93 8000 4.1 20 08:19 11.12.2019
2616 Clouds 5 1017 93 8000 4.1 20 07:55 11.12.2019
2617 Clouds 5 1017 93 8000 4.1 20 07:37 11.12.2019
2618 Clouds 5 1017 93 8000 2.6 20 07:18 11.12.2019
2619 Clouds 5 1017 93 8000 2.6 20 07:18 11.12.2019
2620 Clouds 5 1016 93 10000 4.1 30 06:43 11.12.2019
2621 Clouds 4 1016 100 9000 1.5 120 06:22 11.12.2019
2622 Clouds 4 1016 100 8000 2.1 40 05:41 11.12.2019
2623 Mist 4 1016 100 4400 2.6 200 05:19 11.12.2019
2624 Mist 3 1016 100 3600 1 0 04:27 11.12.2019
2625 Mist 3 1016 100 4900 1 0 02:49 11.12.2019
2626 Mist 2 1016 100 2300 3.27 347 01:25 11.12.2019
2627 Fog 2 1016 100 4500 3.27 347 00:47 11.12.2019
2628 Mist 2 1016 100 5000 0.5 0 00:21 11.12.2019
2629 Mist 2 1016 100 5000 0.5 0 23:49 10.12.2019
2630 Fog 2 1016 100 4200 2.1 280 23:30 10.12.2019
2631 Clouds 3 1016 93 7000 2.6 20 22:58 10.12.2019
2632 Clouds 3 1016 93 7000 2.6 20 22:40 10.12.2019
2633 Clouds 3 1016 93 7000 2.6 20 22:40 10.12.2019
2634 Clouds 3 1016 100 7000 1.5 10 22:22 10.12.2019
2635 Clouds 3 1015 100 6000 2.6 10 21:56 10.12.2019
2636 Clouds 4 1015 100 6000 2.6 10 21:38 10.12.2019
2637 Clouds 5 1015 100 6000 2.6 20 21:19 10.12.2019
2638 Mist 4 1015 100 5000 2.1 10 20:57 10.12.2019
2639 Mist 5 1015 100 5000 2.1 10 20:37 10.12.2019
2640 Mist 5 1015 100 5000 1.5 300 20:19 10.12.2019
2641 Mist 5 1015 100 5000 1.5 300 20:19 10.12.2019
2642 Mist 4 1015 100 5000 2.1 260 19:54 10.12.2019
2643 Clouds 6 1014 93 8000 3.1 90 19:36 10.12.2019
2644 Clouds 5 1014 93 8000 3.1 90 19:18 10.12.2019
2645 Clouds 6 1014 93 7000 2.1 60 18:40 10.12.2019
2646 Clouds 6 1014 93 8000 1.5 70 18:20 10.12.2019
2647 Clouds 6 1014 87 9000 1.5 100 17:57 10.12.2019
2648 Clouds 6 1014 87 9000 1.5 100 17:39 10.12.2019
2649 Clear 6 1013 87 9000 3.4 150 17:20 10.12.2019
2650 Clear 7 1013 81 9000 2.6 80 16:43 10.12.2019
2651 Clear 9 1013 87 8000 3.1 100 16:20 10.12.2019
2652 Clear 9 1013 81 10000 4.6 110 15:58 10.12.2019
2653 Clear 9 1013 81 10000 4.6 110 15:37 10.12.2019
2654 Clear 10 1012 71 10000 5.1 110 15:18 10.12.2019
2655 Clear 10 1012 71 10000 5.1 110 15:18 10.12.2019
2656 Clear 11 1012 71 10000 5.1 120 14:55 10.12.2019
2657 Clear 11 1012 71 10000 5.1 120 14:37 10.12.2019
2658 Clouds 11 1012 71 10000 5.7 110 14:19 10.12.2019
2659 Clouds 12 1012 66 10000 5.7 100 13:56 10.12.2019
2660 Clouds 12 1012 66 10000 5.7 100 13:56 10.12.2019
2661 Clouds 12 1012 66 10000 5.7 100 13:56 10.12.2019
2662 Clouds 12 1012 66 10000 5.7 100 13:37 10.12.2019
2663 Clouds 12 1012 62 10000 5.7 90 13:18 10.12.2019
2664 Clouds 13 1012 54 10000 3.1 130 12:40 10.12.2019
2665 Clouds 13 1012 54 10000 3.1 130 12:40 10.12.2019
2666 Clouds 12 1012 54 10000 3.1 130 12:21 10.12.2019
2667 Clouds 12 1012 50 10000 2.1 130 11:42 10.12.2019
2668 Clouds 11 1012 54 10000 2.1 130 11:23 10.12.2019
2669 Clear 11 1012 58 10000 3.1 130 10:56 10.12.2019
2670 Clear 10 1012 58 10000 3.1 130 10:37 10.12.2019
2671 Clear 10 1013 62 10000 1.5 140 10:19 10.12.2019
2672 Clear 9 1013 71 10000 1.5 120 09:55 10.12.2019
2673 Clear 9 1013 71 10000 1.5 120 09:55 10.12.2019
2674 Clear 9 1013 71 10000 1.5 120 09:37 10.12.2019
2675 Clear 9 1013 71 8000 2.97 180 09:18 10.12.2019
2676 Mist 7 1013 93 5000 0.5 0 08:43 10.12.2019
2677 Mist 6 1013 100 4000 1 0 08:23 10.12.2019
2678 Mist 6 1013 100 4000 3.26 209 07:58 10.12.2019
2679 Mist 6 1013 100 4000 3.26 209 07:40 10.12.2019
2680 Mist 5 1012 100 2900 2.1 40 07:22 10.12.2019
2681 Mist 3 1012 100 5000 2.1 50 06:46 10.12.2019
2682 Clouds 3 1012 100 6000 1.5 40 06:19 10.12.2019
2683 Clear 3 1012 93 8000 2.1 10 05:53 10.12.2019
2684 Clear 4 1012 93 9000 1.5 40 04:52 10.12.2019
2685 Clear 4 1012 93 7000 1.5 40 03:36 10.12.2019
2686 Clear 5 1012 93 9000 3.1 10 02:44 10.12.2019
2687 Clear 5 1012 93 10000 2.1 40 01:44 10.12.2019
2688 Clear 5 1012 86 10000 1.5 80 01:20 10.12.2019
2689 Clear 5 1012 93 10000 2.1 90 00:41 10.12.2019
2690 Clear 5 1013 93 10000 2.1 80 00:20 10.12.2019
2691 Clear 5 1013 93 10000 2.1 90 23:41 09.12.2019
2692 Clear 5 1013 93 10000 1.5 90 23:22 09.12.2019
2693 Clear 5 1013 93 10000 2.1 60 22:58 09.12.2019
2694 Clear 5 1013 93 10000 2.1 60 22:39 09.12.2019
2695 Clear 5 1013 100 10000 2.1 80 22:19 09.12.2019
2696 Clear 5 1013 100 9000 1.5 80 21:56 09.12.2019
2697 Clear 5 1013 100 9000 1.5 80 21:38 09.12.2019
2698 Clear 6 1013 93 8000 2.1 50 21:18 09.12.2019
2699 Clear 6 1013 93 10000 2.1 50 20:56 09.12.2019
2700 Clear 5 1013 93 10000 2.1 50 20:38 09.12.2019
2701 Clear 6 1013 93 10000 1.5 40 20:19 09.12.2019
2702 Clear 5 1013 93 10000 1.5 10 19:55 09.12.2019
2703 Clear 5 1013 93 10000 1.5 10 19:37 09.12.2019
2704 Clear 5 1013 86 10000 2.1 40 19:19 09.12.2019
2705 Clear 5 1013 86 10000 1.5 30 18:55 09.12.2019
2706 Clear 5 1013 86 10000 1.5 30 18:37 09.12.2019
2707 Clear 6 1013 81 10000 1.5 30 18:18 09.12.2019
2708 Clear 6 1013 75 10000 0.5 0 17:56 09.12.2019
2709 Clear 6 1013 75 10000 0.5 0 17:37 09.12.2019
2710 Clear 6 1013 75 10000 2.1 210 17:19 09.12.2019
2711 Clear 7 1013 75 10000 3.6 150 16:55 09.12.2019
2712 Clear 7 1013 75 10000 3.6 150 16:36 09.12.2019
2713 Clear 9 1013 70 10000 3.6 150 16:18 09.12.2019
2714 Clear 10 1013 66 10000 3.6 140 15:55 09.12.2019
2715 Clear 10 1013 66 10000 3.6 140 15:36 09.12.2019
2716 Clear 10 1013 66 10000 3.6 140 15:36 09.12.2019
2717 Clear 11 1013 54 10000 3.6 170 15:18 09.12.2019
2718 Clear 12 1013 50 10000 3.1 160 14:42 09.12.2019
2719 Clear 12 1013 50 10000 3.1 160 14:42 09.12.2019
2720 Clear 12 1013 50 10000 2.6 140 14:19 09.12.2019
2721 Clear 12 1013 50 10000 2.6 140 14:19 09.12.2019
2722 Clear 12 1013 62 10000 4.1 100 13:57 09.12.2019
2723 Clear 12 1013 62 10000 4.1 100 13:38 09.12.2019
2724 Clear 12 1013 62 10000 4.1 100 13:38 09.12.2019
2725 Clouds 12 1013 58 10000 3.1 100 13:19 09.12.2019
2726 Clouds 12 1014 50 10000 2.6 130 12:56 09.12.2019
2727 Clouds 12 1014 50 10000 2.6 130 12:37 09.12.2019
2728 Clouds 12 1014 50 10000 1.5 200 12:19 09.12.2019
2729 Clouds 12 1015 54 10000 1 0 11:55 09.12.2019
2730 Clouds 12 1015 54 10000 1 0 11:37 09.12.2019
2731 Clear 12 1015 54 10000 1.5 190 11:18 09.12.2019
2732 Clear 12 1015 54 10000 1.5 190 11:18 09.12.2019
2733 Clear 10 1015 62 10000 0.5 0 10:40 09.12.2019
2734 Clear 8 1016 70 9000 0.5 0 10:20 09.12.2019
2735 Clear 9 1016 93 7000 5.45 198 09:57 09.12.2019
2736 Clear 8 1016 93 7000 5.45 198 09:39 09.12.2019
2737 Clouds 7 1016 100 6000 5.45 198 09:21 09.12.2019
2738 Mist 6 1017 100 4000 5.45 198 08:42 09.12.2019
2739 Fog 4 1017 67 2500 3.1 208 08:24 09.12.2019
2740 Fog 3 1017 100 2700 3.1 208 07:56 09.12.2019
2741 Fog 3 1017 100 2700 3.1 208 07:37 09.12.2019
2742 Fog 2 1017 100 4000 1 290 07:19 09.12.2019
2743 Mist 0 1016 100 5000 3.1 208 06:39 09.12.2019
2744 Mist 0 1017 67 3100 3.1 208 06:21 09.12.2019
2745 Fog 1 1016 100 400 0.5 0 05:25 09.12.2019
2746 Clear 0 1017 100 8000 0.5 280 04:29 09.12.2019
2747 Clear 0 1017 71 10000 1.5 270 03:18 09.12.2019
2748 Clear 1 1018 100 10000 0.5 330 01:48 09.12.2019
2749 Clear 1 1018 75 10000 2.74 290 01:28 09.12.2019
2750 Clear 1 1018 100 10000 2.66 281 00:39 09.12.2019
2751 Clear 1 1018 75 10000 1.5 10 00:19 09.12.2019
2752 Clear 1 1018 93 10000 1 10 23:39 08.12.2019
2753 Clear 2 1018 86 10000 1.5 350 23:20 08.12.2019
2754 Clear 1 1019 93 10000 0.5 0 22:56 08.12.2019
2755 Clear 1 1019 93 10000 0.5 0 22:38 08.12.2019
2756 Clear 1 1019 93 10000 3.36 291 22:18 08.12.2019
2757 Clear 2 1019 86 10000 1.5 310 21:57 08.12.2019
2758 Clear 2 1019 86 10000 1.5 310 21:38 08.12.2019
2759 Clear 2 1019 86 10000 0.5 0 21:19 08.12.2019
2760 Clear 3 1019 86 10000 2.1 290 20:56 08.12.2019
2761 Clear 2 1019 86 10000 2.1 290 20:38 08.12.2019
2762 Clouds 3 1019 75 10000 3.02 308 20:19 08.12.2019
2763 Clouds 4 1019 70 10000 0.5 0 19:56 08.12.2019
2764 Clouds 4 1019 70 10000 0.5 0 19:38 08.12.2019
2765 Clouds 5 1019 70 10000 0.5 0 19:20 08.12.2019
2766 Clouds 6 1019 70 10000 1 0 18:55 08.12.2019
2767 Clouds 6 1019 76 10000 2.1 250 18:36 08.12.2019
2768 Clouds 6 1019 76 10000 2.1 250 18:36 08.12.2019
2769 Clouds 7 1019 76 10000 2.1 250 18:18 08.12.2019
2770 Clouds 7 1018 70 10000 1 0 17:55 08.12.2019
2771 Clouds 7 1018 70 10000 1 0 17:37 08.12.2019
2772 Clouds 7 1018 76 10000 1 0 17:19 08.12.2019
2773 Clouds 8 1018 76 10000 2.6 280 16:55 08.12.2019
2774 Clouds 8 1018 76 10000 2.6 280 16:37 08.12.2019
2775 Clouds 9 1018 71 10000 4.6 260 16:18 08.12.2019
2776 Clouds 9 1017 76 10000 5.1 280 15:38 08.12.2019
2777 Clouds 10 1017 58 10000 6.2 300 15:19 08.12.2019
2778 Clouds 11 1017 58 10000 5.1 300 14:57 08.12.2019
2779 Clouds 12 1017 58 10000 5.1 300 14:38 08.12.2019
2780 Clouds 12 1017 58 10000 3.6 280 14:20 08.12.2019
2781 Clouds 11 1017 58 10000 4.6 300 13:42 08.12.2019
2782 Clouds 11 1017 58 10000 3.6 320 13:23 08.12.2019
2783 Clouds 13 1017 58 10000 3.6 290 12:59 08.12.2019
2784 Clouds 14 1017 58 10000 3.6 290 12:41 08.12.2019
2785 Clouds 14 1017 62 10000 4.6 290 12:41 08.12.2019
2786 Clouds 13 1017 62 10000 4.6 290 12:22 08.12.2019
2787 Clouds 13 1017 58 10000 4.6 310 11:59 08.12.2019
2788 Clouds 13 1017 58 10000 4.6 310 11:38 08.12.2019
2789 Clouds 12 1017 62 10000 2.6 240 11:19 08.12.2019
2790 Clouds 11 1018 62 10000 2.6 250 10:57 08.12.2019
2791 Clouds 11 1018 62 10000 2.6 250 10:38 08.12.2019
2792 Clouds 10 1018 66 10000 2.6 240 10:19 08.12.2019
2793 Clouds 8 1018 75 10000 1.5 220 09:55 08.12.2019
2794 Clouds 8 1018 81 10000 2.1 260 09:37 08.12.2019
2795 Clouds 7 1018 81 10000 2.1 260 09:18 08.12.2019
2796 Clouds 6 1018 87 10000 1.5 230 08:43 08.12.2019
2797 Clouds 6 1018 81 10000 2.1 240 08:23 08.12.2019
2798 Clouds 5 1018 80 10000 3.6 310 07:57 08.12.2019
2799 Clouds 5 1018 80 10000 3.6 310 07:39 08.12.2019
2800 Clouds 5 1017 80 10000 1.5 0 07:18 08.12.2019
2801 Clouds 4 1017 80 10000 4.6 320 06:41 08.12.2019
2802 Clouds 3 1016 80 10000 5.7 310 06:21 08.12.2019
2803 Clouds 3 1016 86 10000 4.6 300 05:26 08.12.2019
2804 Clouds 3 1015 86 10000 4.1 320 04:54 08.12.2019
2805 Clouds 4 1015 81 10000 3.6 280 03:40 08.12.2019
2806 Clouds 4 1015 86 10000 4.1 280 02:46 08.12.2019
2807 Clouds 4 1015 81 10000 2.6 280 02:27 08.12.2019
2808 Clouds 5 1015 87 10000 3.6 310 01:41 08.12.2019
2809 Clouds 5 1015 86 10000 1 0 00:56 08.12.2019
2810 Clouds 5 1015 86 10000 1 0 00:56 08.12.2019
2811 Clouds 5 1015 86 9000 2.1 260 00:36 08.12.2019
2812 Clouds 5 1015 86 9000 2.1 260 00:18 08.12.2019
2813 Clouds 6 1015 86 10000 4.85 284 23:39 07.12.2019
2814 Clouds 6 1015 81 10000 2.6 240 23:20 07.12.2019
2815 Clouds 6 1015 81 10000 2.6 240 23:20 07.12.2019
2816 Clouds 6 1015 86 10000 0.5 0 22:55 07.12.2019
2817 Clouds 6 1015 86 10000 0.5 0 22:37 07.12.2019
2818 Clouds 6 1015 86 10000 0.5 0 22:37 07.12.2019
2819 Clouds 6 1015 86 10000 0.5 0 22:37 07.12.2019
2820 Clouds 6 1015 86 10000 0.5 0 22:37 07.12.2019
2821 Clouds 5 1015 80 9000 2.6 240 22:19 07.12.2019
2822 Clouds 6 1015 80 10000 4.12 280 21:55 07.12.2019
2823 Clouds 6 1015 80 10000 4.12 280 21:37 07.12.2019
2824 Clouds 6 1015 80 10000 0.5 0 21:18 07.12.2019
2825 Clouds 6 1015 80 9000 4.12 280 20:38 07.12.2019
2826 Clouds 6 1015 80 10000 2.16 269 20:20 07.12.2019
2827 Clouds 6 1015 80 10000 2.16 269 19:58 07.12.2019
2828 Clouds 6 1015 80 10000 2.16 269 19:39 07.12.2019
2829 Clouds 6 1015 75 10000 2.16 269 19:21 07.12.2019
2830 Clouds 6 1015 75 10000 0.5 0 18:58 07.12.2019
2831 Clouds 6 1015 75 10000 0.5 0 18:58 07.12.2019
2832 Clouds 6 1015 75 10000 1.5 320 18:39 07.12.2019
2833 Clouds 7 1015 75 10000 1.5 320 18:18 07.12.2019
2834 Clouds 7 1015 75 10000 1.5 280 17:55 07.12.2019
2835 Clouds 7 1015 75 10000 1.5 280 17:37 07.12.2019
2836 Clouds 6 1015 86 10000 2.6 310 17:18 07.12.2019
2837 Clouds 7 1015 75 10000 2.1 270 16:55 07.12.2019
2838 Clouds 7 1014 75 10000 2.1 330 16:36 07.12.2019
2839 Clouds 7 1014 75 10000 2.1 330 16:18 07.12.2019
2840 Clouds 7 1015 75 10000 2.6 300 15:41 07.12.2019
2841 Clouds 8 1015 70 10000 2.1 310 15:22 07.12.2019
2842 Clouds 9 1015 70 10000 2.6 300 14:43 07.12.2019
2843 Clouds 9 1015 70 10000 2.6 270 14:20 07.12.2019
2844 Clouds 9 1015 65 10000 2.1 280 13:59 07.12.2019
2845 Clouds 9 1015 65 10000 2.1 280 13:39 07.12.2019
2846 Clouds 9 1015 65 10000 3.6 270 13:20 07.12.2019
2847 Clouds 9 1015 65 10000 3.6 270 13:20 07.12.2019
2848 Clouds 10 1015 57 10000 3.1 260 12:55 07.12.2019
2849 Clouds 10 1015 57 10000 3.1 260 12:37 07.12.2019
2850 Clouds 11 1015 57 10000 3.1 280 12:18 07.12.2019
2851 Clouds 11 1016 61 10000 4.1 280 11:41 07.12.2019
2852 Clouds 9 1016 48 10000 3.6 250 11:23 07.12.2019
2853 Clouds 8 1017 56 10000 2.6 270 10:56 07.12.2019
2854 Clouds 9 1017 65 10000 2.1 260 10:36 07.12.2019
2855 Clouds 9 1017 65 10000 2.1 260 10:18 07.12.2019
2856 Clouds 8 1018 56 10000 1.5 280 09:39 07.12.2019
2857 Clouds 6 1018 56 10000 2.99 244 09:21 07.12.2019
2858 Clouds 4 1018 56 7000 1 0 08:46 07.12.2019
2859 Fog 4 1018 86 6000 1 270 08:25 07.12.2019
2860 Fog 4 1018 86 6000 1 270 08:25 07.12.2019
2861 Fog 4 1018 86 6000 1 270 08:25 07.12.2019
2862 Mist 2 1018 100 4800 0.5 250 07:52 07.12.2019
2863 Mist 0 1018 100 3000 1 0 07:29 07.12.2019
2864 Fog -1 1018 100 5000 1.5 290 06:53 07.12.2019
2865 Fog -1 1018 100 8000 1 0 06:26 07.12.2019
2866 Clouds 0 1019 100 10000 1.5 290 05:47 07.12.2019
2867 Clouds 0 1019 100 10000 2.6 259 04:43 07.12.2019
2868 Clouds 0 1019 100 10000 1 0 03:50 07.12.2019
2869 Clear 0 1020 69 10000 1.5 340 02:22 07.12.2019
2870 Clear 1 1021 69 10000 1.5 330 01:41 07.12.2019
2871 Clear 1 1021 67 10000 3.1 10 01:22 07.12.2019
2872 Clear 1 1021 67 10000 1.5 10 00:21 07.12.2019
2873 Clear 2 1022 67 10000 2.1 90 23:57 06.12.2019
2874 Clear 2 1022 67 10000 2.1 90 23:39 06.12.2019
2875 Clear 2 1022 67 10000 2.1 90 23:39 06.12.2019
2876 Clear 3 1022 69 10000 1.5 60 23:19 06.12.2019
2877 Clear 2 1022 69 10000 1.5 80 22:39 06.12.2019
2878 Clear 2 1022 86 10000 3.1 100 22:21 06.12.2019
2879 Clear 3 1023 86 10000 2.1 80 21:59 06.12.2019
2880 Clear 3 1023 86 10000 2.1 80 21:40 06.12.2019
2881 Clear 2 1023 86 10000 2.1 80 21:20 06.12.2019
2882 Clear 2 1023 86 10000 2.1 80 20:46 06.12.2019
2883 Clear 2 1023 80 10000 3.6 90 20:26 06.12.2019
2884 Clear 3 1023 69 10000 2.6 90 19:59 06.12.2019
2885 Clear 3 1023 69 10000 2.6 90 19:40 06.12.2019
2886 Clear 3 1024 86 10000 2.1 100 19:22 06.12.2019
2887 Clear 3 1024 69 10000 1.5 120 18:58 06.12.2019
2888 Clear 3 1024 69 10000 1.5 120 18:40 06.12.2019
2889 Clear 2 1023 80 10000 1.5 30 18:20 06.12.2019
2890 Clear 4 1024 69 10000 5.43 208 17:57 06.12.2019
2891 Clear 4 1024 75 10000 5.43 208 17:39 06.12.2019
2892 Clear 3 1024 75 10000 5.05 206 17:20 06.12.2019
2893 Clear 5 1024 65 10000 3.1 210 16:55 06.12.2019
2894 Clear 5 1024 65 10000 3.1 210 16:37 06.12.2019
2895 Clear 5 1024 65 10000 3.6 190 16:18 06.12.2019
2896 Clear 7 1024 61 10000 3.1 180 15:41 06.12.2019
2897 Clear 10 1024 57 10000 3.6 180 15:19 06.12.2019
2898 Clear 10 1024 53 10000 3.6 200 14:57 06.12.2019
2899 Clear 10 1024 53 10000 3.6 200 14:39 06.12.2019
2900 Clear 10 1024 50 10000 3.6 200 14:19 06.12.2019
2901 Clear 10 1024 50 10000 3.6 210 13:44 06.12.2019
2902 Clear 10 1024 53 10000 3.1 220 13:26 06.12.2019
2903 Clear 10 1025 53 10000 4.6 220 12:44 06.12.2019
2904 Clear 10 1025 50 10000 5.1 230 12:23 06.12.2019
2905 Clear 9 1026 53 10000 4.6 230 11:58 06.12.2019
2906 Clear 9 1026 53 10000 4.6 230 11:40 06.12.2019
2907 Clear 9 1026 53 10000 2.6 210 11:22 06.12.2019
2908 Clear 9 1027 53 10000 0.5 0 10:44 06.12.2019
2909 Clear 8 1027 57 10000 1.5 200 10:22 06.12.2019
2910 Clear 7 1027 61 10000 1 0 09:59 06.12.2019
2911 Clear 7 1027 61 10000 1 0 09:39 06.12.2019
2912 Clear 6 1028 65 10000 0.5 0 09:20 06.12.2019
2913 Clear 5 1028 80 10000 3.45 223 08:57 06.12.2019
2914 Clear 4 1028 80 10000 3.45 223 08:38 06.12.2019
2915 Clear 4 1028 86 10000 3.95 218 08:20 06.12.2019
2916 Clear 0 1027 92 10000 0.5 0 07:37 06.12.2019
2917 Clear 0 1027 92 10000 0.5 0 07:19 06.12.2019
2918 Clear 0 1027 92 10000 1.5 10 06:30 06.12.2019
2919 Clear 0 1027 92 10000 3.95 218 05:54 06.12.2019
2920 Clear 0 1027 70 10000 3.95 218 05:35 06.12.2019
2921 Clear 0 1028 92 10000 1.5 320 02:19 06.12.2019
2922 Clear 0 1029 92 10000 1.5 340 01:34 06.12.2019
2923 Clear 0 1029 92 10000 2.24 276 00:46 06.12.2019
2924 Clear 0 1029 92 10000 1 0 00:21 06.12.2019
2925 Clear 0 1029 92 10000 1 360 23:49 05.12.2019
2926 Clear 0 1029 92 10000 1 0 23:19 05.12.2019
2927 Clear -1 1030 92 10000 1.5 10 22:58 05.12.2019
2928 Clear 0 1030 92 10000 1.5 10 22:38 05.12.2019
2929 Clear 0 1029 92 10000 1 30 22:18 05.12.2019
2930 Clear 0 1029 67 10000 1.52 226 21:44 05.12.2019
2931 Clear 0 1030 67 10000 1.52 226 21:25 05.12.2019
2932 Clear 0 1030 67 10000 1.5 10 20:59 05.12.2019
2933 Clear 0 1030 67 10000 1.5 10 20:40 05.12.2019
2934 Clear 0 1030 65 9000 2.1 10 20:21 05.12.2019
2935 Clear 0 1030 65 9000 1.5 10 19:58 05.12.2019
2936 Clear 0 1030 65 9000 1.5 10 19:58 05.12.2019
2937 Clear 0 1030 65 9000 1.5 10 19:58 05.12.2019
2938 Clear 0 1030 65 9000 0.5 360 19:40 05.12.2019
2939 Clear 0 1030 65 9000 0.5 360 19:20 05.12.2019
2940 Clear 1 1030 80 9000 1.5 20 18:57 05.12.2019
2941 Clear 1 1030 80 9000 1.5 40 18:38 05.12.2019
2942 Clear 1 1030 80 9000 1.5 40 18:20 05.12.2019
2943 Clear 1 1030 74 10000 2.1 10 17:39 05.12.2019
2944 Clear 1 1030 74 10000 2.1 10 17:20 05.12.2019
2945 Clear 2 1030 64 10000 1.5 160 16:57 05.12.2019
2946 Clear 2 1030 60 10000 2.1 160 16:39 05.12.2019
2947 Clear 4 1030 60 10000 2.1 160 16:21 05.12.2019
2948 Clear 4 1030 60 10000 2.1 160 16:21 05.12.2019
2949 Clear 4 1030 60 10000 2.6 130 15:56 05.12.2019
2950 Clear 6 1030 56 10000 2.6 120 15:38 05.12.2019
2951 Clear 6 1030 56 10000 2.6 120 15:19 05.12.2019
2952 Clear 6 1030 45 10000 2.1 140 14:55 05.12.2019
2953 Clear 6 1030 45 10000 1 0 14:37 05.12.2019
2954 Clear 7 1030 45 10000 1 0 14:18 05.12.2019
2955 Clear 7 1030 45 10000 1.5 270 13:56 05.12.2019
2956 Clear 7 1030 45 10000 1.5 270 13:56 05.12.2019
2957 Clear 7 1030 45 10000 1 0 13:37 05.12.2019
2958 Clear 7 1030 45 10000 1 0 13:18 05.12.2019
2959 Clear 6 1031 48 10000 1.5 250 12:43 05.12.2019
2960 Clear 6 1031 48 10000 1.5 250 12:24 05.12.2019
2961 Clear 6 1031 48 10000 1.5 190 11:56 05.12.2019
2962 Clear 6 1032 60 10000 1 0 11:38 05.12.2019
2963 Clear 6 1032 60 10000 1 0 11:20 05.12.2019
2964 Clear 6 1032 60 10000 1 0 11:20 05.12.2019
2965 Clear 5 1032 64 10000 2.1 300 10:56 05.12.2019
2966 Clear 5 1032 64 10000 2.1 300 10:56 05.12.2019
2967 Clear 4 1032 64 10000 2.1 220 10:38 05.12.2019
2968 Clear 2 1032 69 10000 1.5 300 10:18 05.12.2019
2969 Clear 1 1033 55 8000 1.5 250 09:45 05.12.2019
2970 Clear 1 1033 55 8000 1.5 250 09:23 05.12.2019
2971 Clear -1 1033 86 6000 2.1 260 08:59 05.12.2019
2972 Clear -1 1033 86 8000 1 270 08:38 05.12.2019
2973 Clear -1 1033 86 8000 1 270 08:19 05.12.2019
2974 Clear -3 1033 92 7000 3.23 320 07:50 05.12.2019
2975 Clear -4 1032 92 7000 3.23 320 07:32 05.12.2019
2976 Clear -4 1032 92 7000 3.23 320 07:32 05.12.2019
2977 Clear -4 1032 92 7000 3.23 320 06:57 05.12.2019
2978 Clear -5 1032 92 8000 0.5 250 06:38 05.12.2019
2979 Clear -5 1032 92 8000 0.5 250 06:19 05.12.2019
2980 Clear -4 1032 100 10000 0.5 0 05:47 05.12.2019
2981 Clear -5 1032 100 9000 1.5 250 05:22 05.12.2019
2982 Clear -3 1032 92 10000 2.1 240 03:59 05.12.2019
2983 Clear -4 1032 92 10000 1 260 02:43 05.12.2019
2984 Clear -4 1032 92 10000 1 260 02:24 05.12.2019
2985 Clear -3 1032 92 10000 1.5 260 01:52 05.12.2019
2986 Clouds -3 1032 92 10000 1 0 01:24 05.12.2019
2987 Clouds -3 1032 92 10000 1 0 00:50 05.12.2019
2988 Clouds -3 1032 92 10000 3.1 260 00:29 05.12.2019
2989 Clouds -2 1032 92 10000 1.5 250 23:57 04.12.2019
2990 Clouds -2 1032 92 10000 1.5 250 23:57 04.12.2019
2991 Clouds -3 1032 86 10000 1 0 23:38 04.12.2019
2992 Clouds -2 1032 86 10000 1 0 23:19 04.12.2019
2993 Clouds 0 1032 58 10000 1 0 22:39 04.12.2019
2994 Clouds 0 1032 58 10000 1 0 22:21 04.12.2019
2995 Clouds -2 1032 58 10000 3.1 320 21:58 04.12.2019
2996 Clouds -2 1032 58 10000 2.1 300 21:40 04.12.2019
2997 Clouds -1 1032 58 10000 2.1 300 21:21 04.12.2019
2998 Clouds -1 1031 58 10000 6.7 360 20:59 04.12.2019
2999 Clouds -1 1031 58 10000 5.7 360 20:41 04.12.2019
3000 Clouds -1 1031 68 10000 5.7 360 20:22 04.12.2019
3001 Clouds -1 1031 69 10000 6.2 360 19:59 04.12.2019
3002 Clouds 0 1031 69 10000 6.2 360 19:39 04.12.2019
3003 Clouds 0 1031 69 10000 6.2 360 19:20 04.12.2019
3004 Clouds 0 1031 69 10000 4.6 360 18:57 04.12.2019
3005 Clouds 0 1030 69 10000 6.2 350 18:39 04.12.2019
3006 Clouds 0 1030 69 10000 6.2 350 18:20 04.12.2019
3007 Clouds 0 1030 69 10000 5.7 350 17:40 04.12.2019
3008 Clouds 0 1030 69 10000 5.7 350 17:21 04.12.2019
3009 Clouds 0 1030 69 10000 5.1 360 16:59 04.12.2019
3010 Clouds 1 1030 59 10000 4.6 360 16:40 04.12.2019
3011 Clouds 2 1030 59 10000 4.6 360 16:20 04.12.2019
3012 Clouds 2 1030 59 10000 4.6 360 15:55 04.12.2019
3013 Clouds 2 1029 55 10000 4.6 360 15:37 04.12.2019
3014 Clouds 3 1030 48 10000 4.6 10 15:19 04.12.2019
3015 Clouds 3 1030 51 10000 3.6 350 14:44 04.12.2019
3016 Clouds 3 1030 51 10000 3.6 350 14:23 04.12.2019
3017 Clouds 3 1029 51 10000 4.1 350 13:59 04.12.2019
3018 Clouds 3 1029 51 10000 4.1 350 13:38 04.12.2019
3019 Clouds 3 1029 51 10000 4.1 350 13:20 04.12.2019
3020 Clouds 3 1029 60 10000 3.6 10 12:45 04.12.2019
3021 Clouds 3 1029 60 10000 3.6 10 12:25 04.12.2019
3022 Clouds 3 1029 55 10000 5.7 20 11:56 04.12.2019
3023 Clouds 3 1029 64 10000 5.1 10 11:38 04.12.2019
3024 Clouds 2 1029 64 10000 5.1 10 11:20 04.12.2019
3025 Clouds 2 1030 64 10000 3.1 10 10:44 04.12.2019
3026 Clouds 2 1030 64 10000 3.1 10 10:24 04.12.2019
3027 Clouds 1 1030 69 10000 2.1 340 09:57 04.12.2019
3028 Clouds 0 1030 69 10000 3.1 350 09:38 04.12.2019
3029 Clouds 0 1030 69 10000 3.1 350 09:19 04.12.2019
3030 Clouds 0 1029 74 10000 4.6 360 08:40 04.12.2019
3031 Clouds 0 1029 74 10000 4.6 360 08:22 04.12.2019
3032 Clouds -1 1029 71 10000 1 0 07:48 04.12.2019
3033 Clouds -1 1029 71 10000 1 0 07:30 04.12.2019
3034 Clouds -1 1028 74 10000 5.1 20 06:43 04.12.2019
3035 Clouds -1 1028 74 10000 5.1 20 06:24 04.12.2019
3036 Clouds -1 1028 74 10000 1.5 330 05:42 04.12.2019
3037 Clouds -1 1027 80 10000 3.1 340 04:30 04.12.2019
3038 Clouds 0 1027 74 10000 5.1 10 02:59 04.12.2019
3039 Clouds 0 1026 64 10000 9.07 20 00:53 04.12.2019
3040 Clouds 1 1026 64 10000 1 0 00:28 04.12.2019
3041 Clouds 1 1026 64 10000 1.5 0 23:59 03.12.2019
3042 Clouds 1 1026 64 10000 1.5 350 23:41 03.12.2019
3043 Clouds 1 1026 64 10000 1.5 350 23:19 03.12.2019
3044 Clouds 1 1026 64 10000 2.6 270 22:41 03.12.2019
3045 Clouds 1 1026 64 10000 2.6 270 22:19 03.12.2019
3046 Clouds 1 1026 93 10000 2.1 270 21:59 03.12.2019
3047 Clouds 1 1026 93 10000 2.6 300 21:39 03.12.2019
3048 Clouds 1 1026 93 10000 2.6 300 21:19 03.12.2019
3049 Clouds 1 1026 93 10000 2.6 290 20:58 03.12.2019
3050 Clouds 1 1025 100 10000 1.5 290 20:40 03.12.2019
3051 Clouds 1 1025 100 10000 1.5 290 20:19 03.12.2019
3052 Clouds 1 1025 100 10000 1.5 270 19:55 03.12.2019
3053 Clouds 1 1025 100 10000 2.1 280 19:37 03.12.2019
3054 Clouds 1 1025 100 10000 2.1 280 19:18 03.12.2019
3055 Clouds 1 1025 100 10000 2.1 280 19:18 03.12.2019
3056 Clouds 1 1025 93 10000 2.1 280 18:56 03.12.2019
3057 Clouds 1 1025 100 10000 2.1 250 18:38 03.12.2019
3058 Clouds 1 1025 100 10000 2.1 250 18:19 03.12.2019
3059 Rain 1 1024 100 10000 2.1 270 17:56 03.12.2019
3060 Rain 1 1024 93 10000 2.6 260 17:36 03.12.2019
3061 Rain 1 1024 93 10000 2.6 260 17:36 03.12.2019
3062 Rain 1 1024 93 10000 2.1 290 17:18 03.12.2019
3063 Rain 1 1024 93 10000 2.1 290 16:56 03.12.2019
3064 Rain 1 1023 93 10000 2.1 280 16:36 03.12.2019
3065 Rain 2 1023 93 10000 2.1 280 16:18 03.12.2019
3066 Rain 2 1023 88 10000 1.5 0 15:40 03.12.2019
3067 Rain 2 1023 88 10000 1.5 0 15:20 03.12.2019
3068 Rain 2 1023 93 10000 2.1 80 14:58 03.12.2019
3069 Rain 2 1023 88 10000 1.5 120 14:40 03.12.2019
3070 Rain 2 1023 95 10000 1.5 120 14:19 03.12.2019
3071 Rain 2 1023 86 8000 1.5 320 13:39 03.12.2019
3072 Rain 2 1023 86 8000 1.5 320 13:21 03.12.2019
3073 -273 0 0 0 0 0 12:59 03.12.2019
3074 Rain 2 1023 86 8000 0.5 0 12:38 03.12.2019
3075 Rain 2 1023 86 8000 0.5 0 12:38 03.12.2019
3076 Rain 2 1023 86 8000 0.5 0 12:18 03.12.2019
3077 Clouds 2 1023 86 10000 1.5 0 11:58 03.12.2019
3078 Rain 2 1022 86 7000 2.1 0 11:38 03.12.2019
3079 Rain 2 1022 86 7000 2.1 0 11:19 03.12.2019
3080 Rain 2 1022 86 7000 2.1 0 11:19 03.12.2019
3081 Rain 2 1022 86 6000 2.1 330 10:56 03.12.2019
3082 Rain 2 1023 93 4900 1.5 330 10:38 03.12.2019
3083 Rain 2 1023 93 4900 1.5 330 10:19 03.12.2019
3084 Rain 3 1022 86 7000 3.1 300 09:45 03.12.2019
3085 Rain 3 1022 86 7000 3.1 300 09:24 03.12.2019
3086 Rain 3 1021 86 7000 4.6 310 08:57 03.12.2019
3087 Rain 3 1021 86 7000 4.6 310 08:57 03.12.2019
3088 Rain 3 1021 86 9000 4.6 290 08:38 03.12.2019
3089 Rain 3 1021 86 9000 4.6 290 08:20 03.12.2019
3090 Rain 3 1021 86 10000 5.1 280 07:51 03.12.2019
3091 Rain 4 1020 80 10000 4.6 280 07:28 03.12.2019
3092 Clouds 5 1019 75 10000 6.2 310 06:42 03.12.2019
3093 Clouds 4 1019 75 10000 6.2 310 06:20 03.12.2019
3094 Clouds 5 1018 65 10000 4.6 290 04:59 03.12.2019
3095 Rain 5 1017 75 10000 3.6 280 03:42 03.12.2019
3096 Rain 5 1017 75 10000 3.6 280 03:21 03.12.2019
3097 Rain 6 1017 75 10000 4.1 270 02:52 03.12.2019
3098 Rain 6 1017 75 10000 1.5 260 02:32 03.12.2019
3099 Rain 6 1017 75 10000 1 0 01:57 03.12.2019
3100 Clouds 6 1016 75 10000 1 0 01:38 03.12.2019
3101 Clouds 7 1016 75 10000 1 0 01:18 03.12.2019
3102 Clouds 6 1016 75 10000 0.5 0 00:40 03.12.2019
3103 Clouds 6 1016 75 10000 0.5 0 00:21 03.12.2019
3104 Clouds 6 1016 75 10000 0.5 0 00:21 03.12.2019
3105 Clouds 6 1017 75 10000 1.5 280 23:43 02.12.2019
3106 Clouds 5 1017 75 10000 1.5 280 23:21 02.12.2019
3107 Clouds 6 1017 75 10000 2.1 290 22:55 02.12.2019
3108 Clouds 6 1017 70 10000 2.1 320 22:37 02.12.2019
3109 Clouds 6 1017 70 10000 2.1 320 22:19 02.12.2019
3110 Clouds 6 1017 70 10000 1.5 320 21:39 02.12.2019
3111 Clouds 6 1017 70 10000 1.5 320 21:39 02.12.2019
3112 Clouds 6 1017 70 10000 1.5 320 21:39 02.12.2019
3113 Clouds 6 1017 70 10000 1.5 320 21:20 02.12.2019
3114 Clouds 6 1017 65 10000 1.5 300 20:57 02.12.2019
3115 Clouds 7 1017 65 10000 0.5 0 20:38 02.12.2019
3116 Clouds 7 1017 65 10000 0.5 0 20:20 02.12.2019
3117 Clouds 6 1018 70 10000 8.57 211 19:56 02.12.2019
3118 Clouds 6 1018 70 10000 2.6 110 19:38 02.12.2019
3119 Clouds 6 1018 70 10000 2.6 110 19:19 02.12.2019
3120 Clouds 5 1018 75 10000 2.1 130 18:46 02.12.2019
3121 Clouds 6 1018 75 10000 2.1 130 18:21 02.12.2019
3122 Clouds 5 1018 75 10000 2.6 110 17:59 02.12.2019
3123 Clouds 6 1019 65 10000 2.6 150 17:40 02.12.2019
3124 Clouds 5 1019 65 10000 2.6 150 17:20 02.12.2019
3125 Clouds 6 1019 65 10000 3.1 180 16:54 02.12.2019
3126 Clouds 6 1019 65 10000 2.6 170 16:36 02.12.2019
3127 Clouds 7 1019 65 10000 2.6 170 16:18 02.12.2019
3128 Clouds 7 1019 61 10000 2.1 180 15:55 02.12.2019
3129 Clouds 8 1020 57 10000 3.1 220 15:37 02.12.2019
3130 Clouds 8 1020 57 10000 4.6 220 15:18 02.12.2019
3131 Clouds 9 1020 62 10000 5.7 210 14:39 02.12.2019
3132 Clouds 9 1020 64 10000 5.7 210 14:20 02.12.2019
3133 Clouds 9 1021 46 10000 6.2 210 13:58 02.12.2019
3134 Clouds 9 1021 64 10000 5.7 210 13:39 02.12.2019
3135 Clouds 9 1021 63 10000 5.7 210 13:20 02.12.2019
3136 Clouds 9 1022 63 10000 5.1 200 12:57 02.12.2019
3137 Clouds 8 1022 63 10000 5.1 200 12:38 02.12.2019
3138 Clouds 8 1022 63 10000 5.1 200 12:20 02.12.2019
3139 Clouds 8 1023 57 10000 6.7 190 11:56 02.12.2019
3140 Clouds 8 1023 61 10000 5.1 200 11:37 02.12.2019
3141 Clouds 7 1024 65 10000 1.5 180 11:18 02.12.2019
3142 Clouds 7 1024 65 10000 1.5 180 10:55 02.12.2019
3143 Clouds 7 1025 65 10000 1.5 200 10:36 02.12.2019
3144 Clouds 7 1025 65 10000 1.5 200 10:18 02.12.2019
3145 Fog 4 1026 69 9000 0.5 0 09:40 02.12.2019
3146 Fog 4 1026 69 9000 0.5 0 09:19 02.12.2019
3147 Fog 4 1026 69 9000 0.5 0 09:19 02.12.2019
3148 Fog 4 1026 69 9000 0.5 0 09:19 02.12.2019
3149 Fog 2 1026 80 10000 1.5 280 08:56 02.12.2019
3150 Fog 1 1026 86 10000 1.5 280 08:38 02.12.2019
3151 Fog 1 1026 86 10000 1.5 280 08:20 02.12.2019
3152 Fog 0 1026 86 10000 4.53 165 07:42 02.12.2019
3153 Fog 0 1026 86 10000 4.53 165 07:21 02.12.2019
3154 Fog -2 1026 92 10000 1.5 310 06:52 02.12.2019
3155 Clouds -2 1026 86 10000 4.53 165 06:34 02.12.2019
3156 Clouds -2 1027 92 10000 4.53 165 05:24 02.12.2019
3157 Clear -2 1027 92 10000 2.1 52 04:20 02.12.2019
3158 Clear -3 1028 86 10000 0.5 270 02:51 02.12.2019
3159 Clear -3 1028 86 10000 0.5 0 02:23 02.12.2019
3160 Clear -3 1029 92 10000 1.5 260 01:24 02.12.2019
3161 Clear -2 1029 80 10000 2.09 355 00:45 02.12.2019
3162 Clear -2 1029 80 10000 2.09 355 00:23 02.12.2019
3163 Clear -2 1029 80 10000 2.09 355 23:45 01.12.2019
3164 Clear -2 1029 80 10000 3.43 14 23:23 01.12.2019
3165 Clear -2 1029 80 10000 1 0 22:58 01.12.2019
3166 Clear -2 1029 54 10000 1 0 22:39 01.12.2019
3167 Clear -1 1029 54 10000 1 0 22:20 01.12.2019
3168 Clear -1 1029 54 10000 0.5 0 21:58 01.12.2019
3169 Clear -1 1029 54 10000 0.5 0 21:40 01.12.2019
3170 Clear -1 1029 54 10000 0.5 0 21:22 01.12.2019
3171 Clear 0 1029 74 10000 2.6 10 20:59 01.12.2019
3172 Clear -1 1029 74 10000 2.6 340 20:41 01.12.2019
3173 Clear 0 1029 74 10000 2.6 340 20:22 01.12.2019
3174 Clear 0 1029 69 10000 3.1 10 19:59 01.12.2019
3175 Clear 1 1029 64 10000 1 0 19:40 01.12.2019
3176 Clear 1 1029 64 10000 1 0 19:21 01.12.2019
3177 Clear 1 1029 64 10000 1 0 19:21 01.12.2019
3178 Clear 1 1029 59 10000 0.5 0 18:57 01.12.2019
3179 Clear 1 1029 59 10000 0.5 0 18:57 01.12.2019
3180 Clear 1 1028 64 10000 3.1 350 18:38 01.12.2019
3181 Clear 1 1028 64 10000 3.1 350 18:19 01.12.2019
3182 Clear 1 1028 64 10000 2.6 360 17:58 01.12.2019
3183 Clear 1 1028 69 10000 2.6 350 17:40 01.12.2019
3184 Clear 1 1028 69 10000 2.6 350 17:22 01.12.2019
3185 Clear 2 1028 64 10000 2.6 10 16:55 01.12.2019
3186 Clear 2 1027 60 10000 2.1 360 16:37 01.12.2019
3187 Clear 2 1027 60 10000 2.1 360 16:37 01.12.2019
3188 Clear 3 1027 60 10000 2.1 360 16:18 01.12.2019
3189 Clear 4 1027 52 10000 2.6 10 15:44 01.12.2019
3190 Clear 4 1027 52 10000 2.6 10 15:26 01.12.2019
3191 Clear 4 1027 52 10000 2.6 10 15:26 01.12.2019
3192 Clouds 6 1026 52 10000 5.1 320 14:39 01.12.2019
3193 Clouds 7 1026 48 10000 4.1 330 14:19 01.12.2019
3194 Clouds 6 1026 48 10000 4.1 330 13:54 01.12.2019
3195 Clouds 6 1026 48 10000 4.1 350 13:36 01.12.2019
3196 Clouds 6 1026 48 10000 4.1 350 13:18 01.12.2019
3197 Clouds 6 1026 52 10000 4.6 320 12:41 01.12.2019
3198 Clouds 6 1026 52 10000 4.1 350 11:55 01.12.2019
3199 Clouds 6 1025 56 10000 4.6 330 11:37 01.12.2019
3200 Clouds 6 1025 56 10000 4.6 330 11:18 01.12.2019
3201 Clouds 6 1025 56 10000 4.6 330 11:18 01.12.2019
3202 Clouds 6 1025 60 10000 4.6 350 10:43 01.12.2019
3203 Clouds 5 1025 60 10000 4.6 350 10:20 01.12.2019
3204 Clouds 4 1025 59 10000 5.7 350 09:42 01.12.2019
3205 Clouds 4 1025 59 10000 5.7 350 09:23 01.12.2019
3206 Clouds 3 1025 59 10000 5.1 330 08:57 01.12.2019
3207 Clouds 3 1024 59 10000 5.7 330 08:37 01.12.2019
3208 Clouds 3 1024 71 10000 4.1 310 08:18 01.12.2019
3209 Clouds 3 1024 71 10000 4.1 310 07:47 01.12.2019
3210 Clouds 3 1023 71 10000 4.1 300 07:28 01.12.2019
3211 Clouds 3 1023 71 10000 3.6 320 06:52 01.12.2019
3212 Clouds 3 1022 80 10000 4.6 320 05:58 01.12.2019
3213 Clouds 4 1021 80 10000 4.6 300 04:55 01.12.2019
3214 Clouds 4 1020 80 10000 4.1 320 04:28 01.12.2019
3215 Clouds 4 1019 86 10000 4.1 300 02:45 01.12.2019
3216 Clouds 4 1019 86 10000 4.1 300 02:27 01.12.2019
3217 Clouds 4 1019 86 10000 3.1 290 01:54 01.12.2019
3218 Clouds 4 1019 86 10000 3.1 290 01:54 01.12.2019
3219 Drizzle 4 1019 86 10000 4.1 300 01:31 01.12.2019
3220 Rain 4 1018 80 10000 6.2 330 00:47 01.12.2019
3221 Rain 4 1017 93 10000 5.7 320 00:26 01.12.2019
3222 Rain 4 1017 86 10000 7.7 280 23:56 30.11.2019
3223 Rain 4 1017 86 10000 7.2 260 23:37 30.11.2019
3224 Rain 4 1017 86 10000 7.2 260 23:18 30.11.2019
3225 Clouds 5 1016 87 10000 5.7 270 22:41 30.11.2019
3226 Clouds 5 1016 87 10000 5.7 270 22:20 30.11.2019
3227 Clouds 5 1015 87 10000 5.7 270 21:48 30.11.2019
3228 Clouds 5 1015 87 10000 7.2 290 21:28 30.11.2019
3229 Rain 6 1015 87 10000 9.8 290 20:58 30.11.2019
3230 Rain 7 1015 93 10000 9.8 290 20:40 30.11.2019
3231 Rain 7 1015 93 10000 9.8 290 20:20 30.11.2019
3232 Drizzle 7 1014 93 8000 10.8 270 19:57 30.11.2019
3233 Clouds 8 1013 81 10000 7.2 330 19:39 30.11.2019
3234 Clouds 8 1013 81 10000 7.2 330 19:39 30.11.2019
3235 Clouds 8 1013 81 10000 7.2 330 19:20 30.11.2019
3236 Clouds 8 1013 81 10000 7.2 340 18:59 30.11.2019
3237 Clouds 8 1012 81 10000 8.7 340 18:39 30.11.2019
3238 Clouds 9 1012 81 10000 8.7 340 18:20 30.11.2019
3239 Clouds 9 1012 81 10000 8.2 330 17:58 30.11.2019
3240 Clouds 9 1012 81 10000 5.7 320 17:39 30.11.2019
3241 Clouds 9 1012 81 10000 5.7 320 17:21 30.11.2019
3242 Clouds 9 1012 76 10000 4.6 280 16:58 30.11.2019
3243 Clouds 10 1011 76 10000 1 0 16:40 30.11.2019
3244 Clouds 10 1011 76 10000 1 0 16:20 30.11.2019
3245 Rain 10 1011 81 10000 2.6 350 15:42 30.11.2019
3246 Rain 10 1011 81 10000 2.6 350 15:19 30.11.2019
3247 Rain 10 1010 81 10000 1 0 14:58 30.11.2019
3248 Rain 10 1010 87 10000 2.1 70 14:38 30.11.2019
3249 Rain 11 1010 87 8000 2.6 310 14:19 30.11.2019
3250 Rain 11 1010 87 8000 2.6 310 13:58 30.11.2019
3251 Rain 11 1010 76 10000 1.5 160 13:38 30.11.2019
3252 Rain 11 1010 76 10000 1.5 160 13:19 30.11.2019
3253 Rain 12 1010 62 10000 2.1 160 12:47 30.11.2019
3254 Clouds 12 1010 62 10000 2.1 310 12:29 30.11.2019
3255 Clouds 12 1010 58 10000 3.1 360 11:58 30.11.2019
3256 Clouds 12 1011 71 10000 1.78 40 11:39 30.11.2019
3257 Clouds 12 1011 76 10000 1.5 240 11:18 30.11.2019
3258 Clouds 12 1011 76 10000 1.5 350 10:45 30.11.2019
3259 Clouds 12 1011 76 10000 1.5 350 10:21 30.11.2019
3260 Clouds 12 1011 76 10000 1 0 09:50 30.11.2019
3261 Clouds 12 1011 76 10000 1.5 110 09:30 30.11.2019
3262 Clouds 12 1011 76 10000 1 0 08:57 30.11.2019
3263 Clouds 11 1011 87 10000 3.1 310 08:38 30.11.2019
3264 Clouds 10 1011 87 10000 3.1 310 08:18 30.11.2019
3265 Clouds 7 1011 93 10000 3.1 290 07:42 30.11.2019
3266 Clouds 7 1011 93 10000 3.1 290 07:23 30.11.2019
3267 Clouds 7 1011 93 10000 3.1 290 07:23 30.11.2019
3268 Clouds 7 1011 87 10000 3.1 300 06:45 30.11.2019
3269 Clouds 6 1011 87 10000 3.1 300 06:27 30.11.2019
3270 Clear 6 1010 87 10000 1.5 290 04:59 30.11.2019
3271 Clear 8 1010 87 10000 2.1 340 03:38 30.11.2019
3272 Clear 8 1010 81 10000 1 0 02:25 30.11.2019
3273 Clouds 9 1010 87 10000 1 0 01:50 30.11.2019
3274 Clouds 9 1010 81 10000 4.6 260 01:24 30.11.2019
3275 Clouds 10 1009 76 10000 5.1 270 00:39 30.11.2019
3276 Clouds 10 1009 76 10000 5.1 270 00:21 30.11.2019
3277 Clouds 9 1009 81 10000 4.1 250 23:44 29.11.2019
3278 Clouds 10 1009 81 10000 4.1 250 23:23 29.11.2019
3279 Clouds 10 1009 81 10000 4.1 250 23:23 29.11.2019
3280 Clouds 10 1009 81 10000 5.1 270 22:48 29.11.2019
3281 Clouds 10 1009 76 10000 4.6 270 22:27 29.11.2019
3282 Clouds 10 1009 81 10000 3.6 240 21:56 29.11.2019
3283 Clouds 10 1008 81 10000 4.1 250 21:38 29.11.2019
3284 Clouds 10 1008 81 10000 4.1 250 21:19 29.11.2019
3285 Clouds 10 1008 81 10000 4.6 250 20:54 29.11.2019
3286 Clouds 10 1008 81 10000 4.6 270 20:36 29.11.2019
3287 Clouds 10 1008 81 10000 4.6 270 20:18 29.11.2019
3288 Clouds 11 1008 81 10000 6.7 270 19:41 29.11.2019
3289 Clouds 11 1008 81 10000 6.7 270 19:21 29.11.2019
3290 Clouds 11 1008 87 10000 6.7 270 18:59 29.11.2019
3291 Clouds 11 1007 87 10000 8.2 260 18:41 29.11.2019
3292 Clouds 11 1007 87 10000 8.2 260 18:22 29.11.2019
3293 Clouds 11 1007 87 10000 7.7 260 17:54 29.11.2019
3294 Clouds 11 1007 87 10000 3.1 290 17:36 29.11.2019
3295 Rain 11 1007 87 10000 3.1 290 17:18 29.11.2019
3296 Clouds 11 1006 87 10000 2.1 250 16:42 29.11.2019
3297 Clouds 11 1006 87 10000 2.1 250 16:21 29.11.2019
3298 Clouds 11 1006 87 10000 1.5 360 15:43 29.11.2019
3299 Clouds 11 1006 87 10000 1.5 360 15:25 29.11.2019
3300 Clouds 11 1006 87 10000 3.6 290 14:59 29.11.2019
3301 Rain 11 1005 93 10000 5.7 270 14:40 29.11.2019
3302 Rain 11 1005 93 10000 5.7 270 14:21 29.11.2019
3303 Rain 11 1005 93 10000 5.1 260 13:55 29.11.2019
3304 Rain 11 1005 93 8000 5.7 270 13:37 29.11.2019
3305 Rain 11 1005 93 8000 5.7 270 13:19 29.11.2019
3306 Rain 12 1005 76 10000 6.2 270 12:41 29.11.2019
3307 Rain 12 1005 76 10000 6.2 270 12:23 29.11.2019
3308 Clouds 13 1005 76 10000 7.7 280 11:55 29.11.2019
3309 Clouds 13 1004 76 10000 5.7 260 11:37 29.11.2019
3310 Clouds 13 1004 76 10000 5.7 260 11:18 29.11.2019
3311 Clouds 13 1004 76 10000 5.1 250 10:57 29.11.2019
3312 Clouds 13 1004 77 10000 3.1 260 10:38 29.11.2019
3313 Clouds 13 1004 77 10000 3.1 260 10:19 29.11.2019
3314 Clouds 13 1004 93 6000 2.6 260 09:57 29.11.2019
3315 Clouds 13 1004 93 10000 2.1 280 09:38 29.11.2019
3316 Clouds 13 1004 93 10000 2.1 280 09:19 29.11.2019
3317 -273 0 0 0 0 0 08:54 29.11.2019
3318 Clouds 12 1004 100 8000 6.15 300 08:36 29.11.2019
3319 Rain 12 1004 100 8000 4.2 289 08:18 29.11.2019
3320 Rain 11 1004 93 10000 1 0 07:40 29.11.2019
3321 Rain 11 1004 93 10000 1 0 07:22 29.11.2019
3322 Rain 10 1004 100 10000 1.5 50 06:46 29.11.2019
3323 Rain 10 1004 93 10000 1.5 360 05:48 29.11.2019
3324 Rain 10 1004 100 10000 2.6 310 05:26 29.11.2019
3325 Rain 11 1004 100 10000 4.46 220 04:45 29.11.2019
3326 Rain 10 1004 100 10000 4.46 220 03:23 29.11.2019
3327 Rain 11 1005 93 10000 0.5 0 02:42 29.11.2019
3328 Clouds 11 1005 93 10000 0.5 0 02:20 29.11.2019
3329 Clouds 12 1005 87 10000 2.1 100 01:27 29.11.2019
3330 Clouds 11 1006 100 10000 2.6 80 00:50 29.11.2019
3331 Clouds 10 1006 100 7000 1.5 120 00:22 29.11.2019
3332 Clouds 10 1006 100 7000 2.6 100 23:57 28.11.2019
3333 Clouds 10 1007 100 6000 0.5 0 23:38 28.11.2019
3334 Clouds 10 1007 100 6000 0.5 0 23:20 28.11.2019
3335 Clouds 10 1007 100 7000 4.82 203 22:40 28.11.2019
3336 Clouds 10 1007 100 7000 4.82 203 22:21 28.11.2019
3337 Clouds 10 1007 100 7000 4.82 203 22:21 28.11.2019
3338 Clouds 10 1007 93 7000 4.82 203 21:59 28.11.2019
3339 Clouds 10 1008 100 8000 4.82 203 21:41 28.11.2019
3340 Clouds 10 1008 100 8000 4.82 203 21:21 28.11.2019
3341 Clouds 10 1008 87 9000 2.1 0 20:57 28.11.2019
3342 Clouds 10 1008 100 8000 2.1 50 20:39 28.11.2019
3343 Clouds 10 1008 100 8000 2.1 50 20:20 28.11.2019
3344 Clouds 9 1008 93 9000 4.05 187 19:56 28.11.2019
3345 Clouds 10 1009 87 9000 2.1 70 19:36 28.11.2019
3346 Clouds 9 1009 87 9000 2.1 70 19:18 28.11.2019
3347 Clouds 9 1009 87 10000 2.6 80 18:56 28.11.2019
3348 Clouds 10 1009 87 10000 3.1 100 18:38 28.11.2019
3349 Clouds 9 1009 87 10000 3.1 100 18:18 28.11.2019
3350 Clouds 10 1009 81 10000 2.1 80 17:42 28.11.2019
3351 Clouds 10 1009 81 10000 2.1 80 17:24 28.11.2019
3352 Clouds 10 1009 81 10000 2.1 80 17:23 28.11.2019
3353 Clear 10 1009 81 10000 2.1 100 16:58 28.11.2019
3354 Clear 11 1009 81 10000 2.1 80 16:38 28.11.2019
3355 Clear 12 1009 76 10000 2.6 130 16:19 28.11.2019
3356 Clear 13 1010 67 10000 1 0 15:43 28.11.2019
3357 Clear 14 1010 67 10000 1 0 15:21 28.11.2019
3358 Clear 14 1009 62 10000 1 0 14:59 28.11.2019
3359 Clear 14 1009 63 10000 0.5 0 14:41 28.11.2019
3360 Clouds 14 1009 63 10000 0.5 0 14:22 28.11.2019
3361 Clouds 14 1009 59 10000 1.5 270 13:58 28.11.2019
3362 Clouds 14 1009 59 10000 1.5 270 13:58 28.11.2019
3363 Clouds 14 1010 62 10000 2.1 260 13:40 28.11.2019
3364 Clouds 13 1010 62 10000 2.1 260 13:21 28.11.2019
3365 Clouds 14 1010 62 10000 0.5 0 12:48 28.11.2019
3366 Clouds 13 1010 67 10000 1.5 280 12:29 28.11.2019
3367 Clouds 13 1010 67 10000 2.6 290 11:58 28.11.2019
3368 Clouds 12 1010 71 10000 1 0 11:40 28.11.2019
3369 Clouds 12 1010 71 10000 1 0 11:20 28.11.2019
3370 Clouds 12 1011 76 10000 1 0 10:56 28.11.2019
3371 Clouds 12 1011 76 10000 1.5 230 10:38 28.11.2019
3372 Clouds 12 1011 76 10000 1.5 230 10:18 28.11.2019
3373 Clouds 10 1012 100 7000 5.35 219 09:41 28.11.2019
3374 Clouds 10 1012 100 7000 5.35 219 09:22 28.11.2019
3375 Mist 8 1012 100 4600 0.5 0 08:56 28.11.2019
3376 Mist 7 1012 100 4200 0.5 210 08:37 28.11.2019
3377 Mist 6 1012 100 3400 5.83 209 08:18 28.11.2019
3378 Mist 5 1011 100 2700 1 270 07:41 28.11.2019
3379 Mist 5 1011 100 2700 1 270 07:23 28.11.2019
3380 Clouds 4 1011 100 7000 5.83 209 06:44 28.11.2019
3381 Clouds 4 1011 100 7000 5.83 209 06:23 28.11.2019
3382 Clouds 4 1011 100 6000 0.5 360 05:49 28.11.2019
3383 Mist 4 1011 100 5000 0.5 0 05:18 28.11.2019
3384 Clouds 4 1012 100 8000 1.5 50 02:37 28.11.2019
3385 Clouds 5 1012 100 10000 1.5 90 01:40 28.11.2019
3386 Clouds 6 1012 100 10000 2.1 100 00:44 28.11.2019
3387 Clouds 6 1012 100 10000 2.1 100 00:22 28.11.2019
3388 Clouds 6 1013 100 10000 1.5 80 23:54 27.11.2019
3389 Clouds 6 1013 100 10000 2.1 50 23:36 27.11.2019
3390 Clear 6 1013 100 10000 2.1 50 23:18 27.11.2019
3391 Clouds 6 1013 93 10000 2.1 80 22:38 27.11.2019
3392 Clouds 6 1013 93 10000 2.1 80 22:20 27.11.2019
3393 Clouds 6 1013 100 10000 2.1 60 21:56 27.11.2019
3394 Clouds 5 1014 100 7000 2.6 20 21:37 27.11.2019
3395 Clouds 5 1014 100 7000 2.6 20 21:19 27.11.2019
3396 Clouds 5 1014 93 9000 2.1 10 20:58 27.11.2019
3397 Clear 6 1013 93 10000 2.1 100 20:39 27.11.2019
3398 Clear 6 1013 93 10000 2.1 100 20:21 27.11.2019
3399 Clear 5 1013 93 10000 2.1 120 19:57 27.11.2019
3400 Clear 5 1013 93 10000 3.1 110 19:39 27.11.2019
3401 Clear 5 1013 93 10000 3.1 110 19:19 27.11.2019
3402 Clear 5 1013 93 10000 3.1 110 19:19 27.11.2019
3403 Clear 5 1013 93 10000 3.1 110 18:58 27.11.2019
3404 Clear 6 1013 87 10000 2.6 90 18:37 27.11.2019
3405 Clear 5 1013 87 10000 2.6 90 18:19 27.11.2019
3406 Clear 5 1013 87 10000 2.1 50 17:56 27.11.2019
3407 Clear 5 1013 81 10000 2.1 120 17:37 27.11.2019
3408 Clear 5 1013 81 10000 2.1 120 17:19 27.11.2019
3409 Clear 6 1013 75 10000 2.1 140 16:56 27.11.2019
3410 Clear 6 1013 75 10000 3.6 120 16:37 27.11.2019
3411 Clear 6 1013 75 10000 3.6 120 16:18 27.11.2019
3412 Clear 6 1013 75 10000 3.6 120 16:18 27.11.2019
3413 Clear 7 1013 66 10000 2.6 130 15:56 27.11.2019
3414 Clear 7 1013 66 10000 2.6 130 15:55 27.11.2019
3415 Clear 7 1013 61 10000 1.5 110 15:37 27.11.2019
3416 Clear 7 1013 61 10000 1.5 110 15:19 27.11.2019
3417 Clear 7 1013 61 10000 3.91 164 14:55 27.11.2019
3418 Clear 7 1013 61 10000 1 0 14:36 27.11.2019
3419 Clear 7 1013 61 10000 1 0 14:18 27.11.2019
3420 Clear 7 1013 66 10000 2.1 200 13:55 27.11.2019
3421 Clear 7 1013 62 10000 1.5 240 13:36 27.11.2019
3422 Clear 7 1013 76 10000 2.6 250 13:18 27.11.2019
3423 Clear 7 1013 70 10000 3.1 250 12:41 27.11.2019
3424 Clear 7 1013 70 10000 3.1 250 12:21 27.11.2019
3425 Clear 7 1013 70 10000 3.1 250 11:54 27.11.2019
3426 Clouds 6 1013 70 10000 2.6 280 11:36 27.11.2019
3427 Clouds 6 1013 70 10000 2.1 270 11:18 27.11.2019
3428 Clouds 5 1014 75 10000 2.6 290 10:42 27.11.2019
3429 Clouds 5 1014 75 10000 2.6 290 10:24 27.11.2019
3430 Clouds 5 1014 81 10000 3.1 310 09:49 27.11.2019
3431 Clouds 5 1014 81 10000 4.1 270 09:26 27.11.2019
3432 Clouds 5 1014 86 10000 4.6 300 08:59 27.11.2019
3433 Clouds 4 1014 86 10000 5.7 300 08:41 27.11.2019
3434 Clouds 4 1014 86 10000 5.7 300 08:22 27.11.2019
3435 Clouds 4 1014 86 10000 5.7 300 08:22 27.11.2019
3436 Clouds 4 1014 86 10000 4.6 310 07:47 27.11.2019
3437 Clouds 4 1014 86 10000 4.6 310 07:28 27.11.2019
3438 Clouds 3 1013 86 10000 4.6 290 06:53 27.11.2019
3439 Clouds 3 1013 93 10000 3.6 290 06:35 27.11.2019
3440 Clouds 4 1013 86 10000 3.6 300 05:45 27.11.2019
3441 Clouds 4 1013 86 10000 4.6 300 05:20 27.11.2019
3442 Clouds 4 1013 86 10000 5.1 290 04:47 27.11.2019
3443 Clouds 4 1013 86 10000 5.1 290 04:29 27.11.2019
3444 Clouds 4 1012 86 10000 5.1 290 03:39 27.11.2019
3445 Clouds 4 1012 86 10000 5.1 290 03:19 27.11.2019
3446 Clouds 4 1013 93 10000 4.6 300 02:20 27.11.2019
3447 Clouds 3 1013 93 10000 6.7 330 00:47 27.11.2019
3448 Clouds 3 1013 93 10000 6.7 330 00:29 27.11.2019
3449 Clouds 3 1013 93 10000 6.2 310 23:54 26.11.2019
3450 Clouds 3 1013 93 10000 6.2 310 23:54 26.11.2019
3451 Clouds 3 1013 93 10000 3.6 330 23:36 26.11.2019
3452 Clouds 4 1013 86 10000 3.6 320 23:18 26.11.2019
3453 Clouds 4 1013 86 10000 3.6 320 23:18 26.11.2019
3454 Clouds 4 1013 86 10000 3.6 300 22:39 26.11.2019
3455 Clouds 4 1013 86 10000 3.6 300 22:19 26.11.2019
3456 Clouds 4 1013 86 10000 3.6 300 22:19 26.11.2019
3457 Clouds 4 1013 86 10000 4.1 290 21:59 26.11.2019
3458 Clouds 4 1013 93 10000 4.1 300 21:38 26.11.2019
3459 Clouds 4 1013 93 10000 4.1 300 21:38 26.11.2019
3460 Clouds 4 1013 93 10000 4.1 300 21:19 26.11.2019
3461 Clouds 4 1013 93 10000 3.6 290 20:55 26.11.2019
3462 Clouds 4 1013 93 10000 4.1 290 20:37 26.11.2019
3463 Clouds 4 1013 93 10000 4.1 290 20:19 26.11.2019
3464 Clouds 4 1012 93 10000 3.1 300 19:55 26.11.2019
3465 Clouds 4 1012 93 10000 4.6 340 19:37 26.11.2019
3466 Clouds 4 1012 93 10000 4.6 340 19:18 26.11.2019
3467 Clouds 4 1012 93 10000 4.1 340 18:56 26.11.2019
3468 Clouds 5 1012 93 10000 5.1 350 18:38 26.11.2019
3469 Clouds 5 1011 93 10000 5.7 350 18:20 26.11.2019
3470 Clouds 5 1011 93 10000 5.7 350 17:55 26.11.2019
3471 Clouds 5 1011 93 10000 4.6 350 17:37 26.11.2019
3472 Clouds 5 1011 93 10000 5.1 350 17:19 26.11.2019
3473 Clouds 5 1011 93 10000 5.1 350 16:55 26.11.2019
3474 Clouds 6 1011 87 10000 3.1 320 16:37 26.11.2019
3475 Clouds 6 1011 87 10000 3.1 320 16:18 26.11.2019
3476 Clouds 6 1011 87 10000 3.1 300 15:57 26.11.2019
3477 Clouds 6 1010 93 10000 6.2 350 15:37 26.11.2019
3478 Rain 6 1010 93 10000 6.7 350 15:18 26.11.2019
3479 Clouds 6 1010 93 10000 6.2 350 15:18 26.11.2019
3480 Rain 6 1009 93 10000 6.7 360 14:43 26.11.2019
3481 Rain 6 1009 93 10000 6.7 360 14:24 26.11.2019
3482 Rain 6 1009 93 9000 8.2 10 13:43 26.11.2019
3483 Rain 6 1009 93 9000 8.2 10 13:24 26.11.2019
3484 Rain 6 1009 100 8000 9.3 10 12:57 26.11.2019
3485 Rain 6 1009 93 9000 8.2 10 12:36 26.11.2019
3486 Rain 6 1009 93 10000 9.3 20 12:18 26.11.2019
3487 Rain 6 1009 93 10000 9.3 20 11:55 26.11.2019
3488 Rain 6 1009 93 10000 9.3 20 11:55 26.11.2019
3489 Rain 6 1009 93 10000 9.3 20 11:36 26.11.2019
3490 Rain 6 1009 93 10000 9.3 20 11:36 26.11.2019
3491 Rain 8 1009 93 10000 8.7 20 11:18 26.11.2019
3492 Rain 8 1009 93 10000 8.7 20 11:18 26.11.2019
3493 Rain 8 1009 93 10000 8.7 20 10:54 26.11.2019
3494 Rain 8 1009 87 10000 9.3 20 10:36 26.11.2019
3495 Rain 8 1009 87 10000 9.3 20 10:18 26.11.2019
3496 Rain 9 1009 87 10000 9.3 20 09:42 26.11.2019
3497 Rain 8 1009 87 10000 9.3 20 09:23 26.11.2019
3498 Rain 8 1009 87 10000 9.3 20 09:23 26.11.2019
3499 Rain 8 1009 93 10000 9.3 30 08:47 26.11.2019
3500 Rain 8 1009 87 10000 10.3 30 08:27 26.11.2019
3501 Rain 8 1009 87 10000 9.8 30 07:57 26.11.2019
3502 Rain 8 1009 87 10000 10.8 30 07:36 26.11.2019
3503 Rain 8 1009 87 10000 10.8 30 07:18 26.11.2019
3504 Rain 8 1009 93 10000 9.8 30 06:41 26.11.2019
3505 Rain 9 1009 87 10000 9.8 30 05:58 26.11.2019
3506 Rain 9 1009 87 10000 7.2 40 04:57 26.11.2019
3507 Rain 10 1010 81 10000 7.7 50 02:53 26.11.2019
3508 Clouds 11 1010 76 10000 7.2 60 01:35 26.11.2019
3509 Clouds 10 1010 76 10000 6.7 50 00:53 26.11.2019
3510 Rain 11 1011 76 10000 7.7 50 00:33 26.11.2019
3511 Clouds 11 1011 81 10000 7.2 60 23:56 25.11.2019
3512 Clouds 11 1011 81 10000 7.2 60 23:37 25.11.2019
3513 Clouds 11 1012 81 10000 6.7 60 23:18 25.11.2019
3514 Clouds 11 1012 76 10000 7.2 60 22:39 25.11.2019
3515 Clouds 11 1012 76 10000 7.2 60 22:19 25.11.2019
3516 Clouds 11 1012 76 10000 7.7 60 21:59 25.11.2019
3517 Clouds 11 1012 76 10000 7.7 60 21:59 25.11.2019
3518 Clouds 11 1012 76 10000 6.7 70 21:40 25.11.2019
3519 Clouds 11 1012 76 10000 6.7 70 21:21 25.11.2019
3520 Clouds 11 1012 76 10000 6.7 70 20:58 25.11.2019
3521 Rain 11 1013 76 10000 6.7 60 20:39 25.11.2019
3522 Rain 12 1013 76 10000 6.7 60 20:20 25.11.2019
3523 Rain 12 1013 76 10000 6.7 60 20:20 25.11.2019
3524 Clouds 12 1013 82 10000 6.2 70 19:56 25.11.2019
3525 Clouds 12 1012 82 10000 6.7 70 19:38 25.11.2019
3526 Clouds 12 1012 82 10000 6.7 70 19:19 25.11.2019
3527 Clouds 12 1013 82 10000 5.1 70 18:57 25.11.2019
3528 Clouds 12 1013 82 10000 5.1 70 18:39 25.11.2019
3529 Clouds 12 1013 82 10000 5.1 70 18:21 25.11.2019
3530 Clouds 12 1013 82 10000 6.7 60 17:58 25.11.2019
3531 Clouds 12 1013 76 10000 6.7 60 17:39 25.11.2019
3532 Drizzle 12 1013 76 10000 7.2 70 17:20 25.11.2019
3533 Drizzle 12 1013 76 10000 7.2 70 16:57 25.11.2019
3534 Clouds 12 1013 76 10000 6.7 80 16:39 25.11.2019
3535 Clouds 12 1013 76 10000 6.7 80 16:20 25.11.2019
3536 Clouds 12 1013 76 10000 6.7 80 15:55 25.11.2019
3537 Clouds 12 1013 76 10000 7.2 70 15:36 25.11.2019
3538 Clouds 12 1013 76 10000 7.2 70 15:18 25.11.2019
3539 Clouds 12 1013 71 10000 6.7 80 14:42 25.11.2019
3540 Clouds 12 1013 71 10000 6.7 80 14:23 25.11.2019
3541 Clouds 13 1014 71 10000 7.7 80 13:55 25.11.2019
3542 Clouds 13 1014 71 10000 6.7 80 13:36 25.11.2019
3543 Clouds 13 1014 71 10000 6.7 80 13:18 25.11.2019
3544 Clouds 13 1014 71 10000 6.7 90 12:54 25.11.2019
3545 Clouds 13 1014 71 10000 6.7 90 12:36 25.11.2019
3546 Clouds 13 1014 71 10000 7.2 100 12:18 25.11.2019
3547 Clouds 13 1015 67 10000 8.2 110 11:40 25.11.2019
3548 Clouds 14 1015 67 10000 8.2 110 11:21 25.11.2019
3549 Clouds 13 1015 67 10000 8.7 100 10:54 25.11.2019
3550 Clouds 13 1016 76 10000 7.2 100 10:36 25.11.2019
3551 Clouds 13 1016 76 10000 7.2 100 10:18 25.11.2019
3552 Clouds 12 1016 76 10000 6.7 100 09:41 25.11.2019
3553 Clouds 12 1016 76 10000 6.7 100 09:23 25.11.2019
3554 Clouds 12 1016 82 10000 6.7 100 08:42 25.11.2019
3555 Clouds 12 1016 82 10000 6.7 100 08:23 25.11.2019
3556 Clouds 12 1016 87 10000 4.6 90 07:47 25.11.2019
3557 Clouds 12 1016 87 10000 4.6 90 07:28 25.11.2019
3558 Rain 11 1016 93 10000 5.7 100 06:58 25.11.2019
3559 Rain 11 1016 93 7000 5.7 90 06:23 25.11.2019
3560 Rain 11 1016 100 8000 7.2 100 05:50 25.11.2019
3561 Rain 11 1016 93 10000 4.6 90 05:31 25.11.2019
3562 Rain 11 1016 93 10000 3.6 60 04:35 25.11.2019
3563 Clouds 10 1017 87 10000 4.1 60 02:35 25.11.2019
3564 Clouds 10 1017 81 10000 5.1 70 01:43 25.11.2019
3565 Clouds 10 1017 81 10000 5.1 70 01:24 25.11.2019
3566 Clouds 10 1018 81 10000 5.7 80 00:42 25.11.2019
3567 Clouds 10 1018 87 10000 5.1 100 00:18 25.11.2019
3568 Clouds 10 1018 87 10000 5.1 90 23:44 24.11.2019
3569 Clouds 10 1018 87 10000 5.1 90 23:20 24.11.2019
3570 Clouds 10 1018 87 10000 5.1 90 22:57 24.11.2019
3571 Clouds 10 1018 87 10000 6.2 80 22:38 24.11.2019
3572 Clouds 10 1018 87 10000 6.2 80 22:19 24.11.2019
3573 Clouds 10 1019 87 10000 6.7 70 21:56 24.11.2019
3574 Clouds 10 1019 87 10000 5.1 70 21:36 24.11.2019
3575 Clouds 10 1019 87 10000 5.1 70 21:18 24.11.2019
3576 Clouds 10 1019 87 10000 4.6 80 20:55 24.11.2019
3577 Clouds 10 1019 87 10000 4.6 90 20:37 24.11.2019
3578 Clouds 10 1019 87 10000 4.6 90 20:18 24.11.2019
3579 Clouds 10 1020 87 10000 5.1 80 19:54 24.11.2019
3580 Clouds 10 1020 87 10000 5.1 110 19:36 24.11.2019
3581 Clouds 10 1020 87 10000 5.1 110 19:36 24.11.2019
3582 Drizzle 10 1020 87 10000 4.6 90 19:18 24.11.2019
3583 Drizzle 10 1020 87 10000 4.6 90 18:54 24.11.2019
3584 Clouds 10 1020 87 10000 5.7 80 18:36 24.11.2019
3585 Clouds 11 1020 81 10000 6.2 80 18:18 24.11.2019
3586 Clouds 10 1020 81 10000 6.2 80 17:54 24.11.2019
3587 Clouds 11 1020 81 10000 5.1 80 17:36 24.11.2019
3588 Clouds 11 1020 81 10000 5.7 60 17:18 24.11.2019
3589 Clouds 11 1020 81 10000 5.1 70 16:41 24.11.2019
3590 Clouds 10 1020 81 10000 5.1 70 16:23 24.11.2019
3591 Clouds 11 1020 81 10000 5.1 70 15:57 24.11.2019
3592 Clouds 11 1020 81 10000 5.1 70 15:39 24.11.2019
3593 Clouds 10 1020 81 10000 5.1 70 15:21 24.11.2019
3594 Clouds 11 1020 81 10000 5.7 70 14:40 24.11.2019
3595 Clouds 11 1020 81 10000 5.7 70 14:20 24.11.2019
3596 Clouds 11 1020 81 10000 5.7 70 13:59 24.11.2019
3597 Clouds 11 1020 81 10000 6.7 90 13:38 24.11.2019
3598 Clouds 11 1020 81 10000 6.7 90 13:20 24.11.2019
3599 Clouds 11 1020 81 10000 6.2 80 12:56 24.11.2019
3600 Clouds 11 1020 81 10000 6.2 80 12:56 24.11.2019
3601 Clouds 11 1021 81 10000 5.7 90 12:38 24.11.2019
3602 Clouds 11 1021 81 10000 5.1 80 12:18 24.11.2019
3603 Clouds 11 1021 81 10000 5.1 80 11:55 24.11.2019
3604 Clouds 11 1021 81 10000 5.1 80 11:36 24.11.2019
3605 Clouds 11 1021 81 10000 4.6 90 11:18 24.11.2019
3606 Clouds 11 1022 81 10000 4.6 90 10:44 24.11.2019
3607 Clouds 11 1022 81 10000 4.6 90 10:26 24.11.2019
3608 Clouds 10 1022 87 10000 4.1 90 09:40 24.11.2019
3609 Clouds 10 1022 87 10000 4.1 90 09:20 24.11.2019
3610 Clouds 10 1022 87 10000 5.1 80 08:59 24.11.2019
3611 Clouds 10 1022 81 10000 4.6 80 08:40 24.11.2019
3612 Clouds 9 1022 81 10000 4.6 80 08:21 24.11.2019
3613 Clouds 9 1022 81 10000 4.6 90 07:52 24.11.2019
3614 Clouds 9 1022 81 10000 3.6 80 07:33 24.11.2019
3615 Clouds 8 1021 87 10000 4.6 90 06:55 24.11.2019
3616 Clouds 8 1021 87 10000 3.6 70 05:40 24.11.2019
3617 Clouds 8 1021 93 10000 2.6 70 04:42 24.11.2019
3618 Mist 7 1021 100 10000 1 0 02:49 24.11.2019
3619 Clouds 7 1021 100 7000 1.5 210 01:56 24.11.2019
3620 Clouds 7 1021 100 10000 1 0 01:35 24.11.2019
3621 Clouds 7 1021 100 10000 1 0 00:57 24.11.2019
3622 Clouds 7 1022 100 10000 2.1 260 00:38 24.11.2019
3623 Drizzle 7 1022 100 10000 2.6 260 00:19 24.11.2019
3624 Drizzle 7 1022 100 9000 3.1 250 23:43 23.11.2019
3625 Drizzle 6 1022 100 9000 3.1 250 23:21 23.11.2019
3626 Drizzle 7 1022 93 10000 1.5 270 22:57 23.11.2019
3627 Clouds 7 1022 93 10000 2.1 0 22:37 23.11.2019
3628 Clouds 7 1022 93 10000 2.1 0 22:19 23.11.2019
3629 Clouds 6 1022 100 10000 1 0 21:56 23.11.2019
3630 Clouds 6 1022 93 10000 2.1 260 21:37 23.11.2019
3631 Clouds 6 1022 93 10000 2.1 260 21:19 23.11.2019
3632 Clouds 6 1022 93 10000 4.1 80 20:38 23.11.2019
3633 Clouds 6 1022 93 10000 4.1 80 20:38 23.11.2019
3634 Clouds 6 1022 93 10000 4.1 80 20:20 23.11.2019
3635 Clouds 6 1022 87 10000 1 0 19:57 23.11.2019
3636 Clouds 6 1022 87 10000 1 0 19:57 23.11.2019
3637 Clouds 6 1022 87 10000 1 0 19:57 23.11.2019
3638 Clouds 6 1022 87 10000 1 0 19:57 23.11.2019
3639 Clouds 6 1022 87 10000 3.6 10 19:39 23.11.2019
3640 Clouds 6 1022 87 10000 3.6 10 19:19 23.11.2019
3641 Clouds 6 1022 87 10000 3.6 10 19:19 23.11.2019
3642 Clouds 6 1022 87 10000 1.5 260 18:57 23.11.2019
3643 Clouds 6 1022 93 10000 0.5 0 18:38 23.11.2019
3644 Clouds 6 1022 93 10000 2.6 50 18:19 23.11.2019
3645 Clouds 6 1022 93 10000 2.6 50 18:19 23.11.2019
3646 Clouds 5 1022 93 10000 1.5 0 17:43 23.11.2019
3647 Clouds 5 1022 93 10000 1.5 0 17:21 23.11.2019
3648 Clouds 5 1022 87 10000 1.5 0 16:57 23.11.2019
3649 Clouds 5 1022 87 10000 2.6 360 16:38 23.11.2019
3650 Clouds 5 1022 87 10000 2.6 360 16:20 23.11.2019
3651 Clouds 5 1022 87 10000 2.6 360 16:20 23.11.2019
3652 Clouds 5 1022 87 10000 2.1 10 15:58 23.11.2019
3653 Clouds 5 1022 87 10000 2.6 320 15:39 23.11.2019
3654 Clouds 5 1022 87 10000 2.6 320 15:19 23.11.2019
3655 Clouds 5 1022 87 10000 4.1 360 14:56 23.11.2019
3656 Clouds 5 1021 87 10000 3.6 10 14:38 23.11.2019
3657 Clouds 5 1021 87 10000 3.6 10 14:38 23.11.2019
3658 Clouds 5 1021 87 10000 3.6 10 14:20 23.11.2019
3659 Clouds 5 1022 87 10000 2.1 360 13:43 23.11.2019
3660 Clouds 5 1022 87 10000 2.1 360 13:20 23.11.2019
3661 Clouds 5 1022 87 10000 2.6 0 12:58 23.11.2019
3662 Clouds 5 1022 87 10000 2.1 0 12:40 23.11.2019
3663 Clouds 5 1022 87 10000 2.1 0 12:22 23.11.2019
3664 Clouds 7 1022 87 10000 1 0 11:43 23.11.2019
3665 Clouds 5 1023 87 10000 2.6 340 11:21 23.11.2019
3666 Clouds 5 1023 87 10000 1.5 0 10:45 23.11.2019
3667 Clouds 4 1023 87 10000 1.5 0 10:22 23.11.2019
3668 Clouds 4 1023 87 10000 2.6 0 09:43 23.11.2019
3669 Clouds 4 1023 87 10000 2.6 0 09:21 23.11.2019
3670 Clouds 3 1023 93 10000 2.6 360 08:55 23.11.2019
3671 Rain 5 1023 86 10000 3.6 360 08:36 23.11.2019
3672 Rain 3 1023 86 10000 3.6 360 08:18 23.11.2019
3673 Rain 2 1023 93 10000 4.1 360 07:39 23.11.2019
3674 Rain 3 1023 86 10000 2.1 290 06:48 23.11.2019
3675 Rain 3 1023 86 10000 2.1 290 06:21 23.11.2019
3676 Rain 3 1023 86 10000 3.1 350 05:53 23.11.2019
3677 Rain 3 1023 86 10000 3.1 350 05:30 23.11.2019
3678 Rain 2 1022 86 10000 3.6 310 04:50 23.11.2019
3679 Rain 2 1022 86 10000 3.6 310 04:28 23.11.2019
3680 Rain 2 1022 86 10000 1.5 0 02:53 23.11.2019
3681 Rain 2 1022 86 10000 2.1 0 02:22 23.11.2019
3682 Rain 2 1022 93 10000 3.6 250 01:38 23.11.2019
3683 Clouds 2 1022 86 10000 2.6 0 00:43 23.11.2019
3684 Clouds 2 1022 86 10000 6.7 10 00:18 23.11.2019
3685 Clouds 2 1022 86 10000 6.7 10 00:18 23.11.2019
3686 Clouds 2 1022 86 10000 8.2 20 23:42 22.11.2019
3687 Clouds 2 1022 86 10000 8.2 20 23:20 22.11.2019
3688 Drizzle 2 1022 86 10000 9.3 20 22:57 22.11.2019
3689 Drizzle 2 1022 86 10000 9.8 20 22:38 22.11.2019
3690 Drizzle 2 1022 86 10000 9.8 20 22:38 22.11.2019
3691 Drizzle 2 1022 86 10000 9.8 20 22:20 22.11.2019
3692 Drizzle 2 1022 86 10000 9.3 20 21:58 22.11.2019
3693 Drizzle 2 1022 86 10000 9.3 20 21:39 22.11.2019
3694 Drizzle 2 1022 86 10000 9.3 20 21:20 22.11.2019
3695 Drizzle 2 1022 93 10000 8.7 20 20:43 22.11.2019
3696 Drizzle 2 1022 93 10000 8.7 20 20:22 22.11.2019
3697 Drizzle 2 1022 93 10000 9.8 20 19:56 22.11.2019
3698 Drizzle 2 1022 86 10000 9.3 20 19:37 22.11.2019
3699 Drizzle 2 1022 86 10000 9.3 20 19:19 22.11.2019
3700 Drizzle 2 1022 86 10000 9.8 10 18:39 22.11.2019
3701 Drizzle 2 1022 86 10000 9.8 10 18:21 22.11.2019
3702 Drizzle 2 1022 86 10000 10.8 10 17:57 22.11.2019
3703 Clouds 3 1021 93 10000 9.3 20 17:39 22.11.2019
3704 Clouds 4 1021 93 10000 9.3 20 17:20 22.11.2019
3705 Clouds 5 1021 86 10000 8.2 10 16:42 22.11.2019
3706 Clouds 5 1021 86 10000 8.2 10 16:23 22.11.2019
3707 Clouds 4 1021 86 10000 8.2 10 15:44 22.11.2019
3708 Clouds 4 1021 86 10000 8.2 10 15:24 22.11.2019
3709 Clouds 4 1021 86 10000 8.7 20 14:56 22.11.2019
3710 Clouds 4 1021 81 10000 8.2 20 14:38 22.11.2019
3711 Clouds 5 1021 81 10000 8.2 20 14:19 22.11.2019
3712 Clouds 5 1021 87 10000 8.7 20 13:57 22.11.2019
3713 Clouds 5 1021 87 10000 8.7 20 13:57 22.11.2019
3714 Clouds 5 1021 81 10000 8.7 20 13:37 22.11.2019
3715 Clouds 5 1021 81 10000 8.7 20 13:18 22.11.2019
3716 Clouds 7 1020 75 10000 9.8 30 12:55 22.11.2019
3717 Clouds 6 1020 75 10000 9.8 30 12:55 22.11.2019
3718 Clouds 6 1021 70 10000 10.8 40 12:36 22.11.2019
3719 Clouds 7 1021 70 10000 10.8 40 12:18 22.11.2019
3720 Clouds 7 1021 76 10000 11.3 40 11:40 22.11.2019
3721 Clouds 7 1021 76 10000 11.3 40 11:22 22.11.2019
3722 Clouds 7 1021 76 10000 11.3 50 10:59 22.11.2019
3723 Clouds 8 1021 76 10000 9.3 50 10:40 22.11.2019
3724 Clouds 8 1021 76 10000 9.3 50 10:40 22.11.2019
3725 Clouds 8 1021 76 10000 9.3 50 10:21 22.11.2019
3726 Clouds 8 1021 81 10000 7.2 60 09:55 22.11.2019
3727 Drizzle 8 1021 87 10000 6.7 60 09:37 22.11.2019
3728 Drizzle 8 1021 87 10000 6.7 60 09:18 22.11.2019
3729 Drizzle 8 1021 87 8000 8.2 60 08:45 22.11.2019
3730 Drizzle 8 1021 87 8000 8.2 60 08:26 22.11.2019
3731 Rain 8 1021 93 10000 5.1 90 07:45 22.11.2019
3732 Rain 8 1021 93 10000 5.1 90 07:23 22.11.2019
3733 Rain 8 1021 87 10000 5.1 90 06:49 22.11.2019
3734 Rain 8 1021 87 10000 6.2 90 06:30 22.11.2019
3735 Rain 9 1021 93 10000 5.7 100 05:49 22.11.2019
3736 Rain 9 1021 93 10000 4.6 80 04:49 22.11.2019
3737 Rain 9 1021 93 10000 6.2 50 02:53 22.11.2019
3738 Rain 9 1021 87 10000 6.7 80 02:31 22.11.2019
3739 Rain 9 1020 93 10000 7.2 90 01:45 22.11.2019
3740 Rain 9 1020 93 10000 7.2 90 01:20 22.11.2019
3741 Rain 9 1021 93 10000 6.7 80 00:50 22.11.2019
3742 Rain 9 1021 93 10000 6.7 90 00:24 22.11.2019
3743 Rain 10 1021 93 10000 7.2 100 23:49 21.11.2019
3744 Rain 10 1020 93 9000 7.7 90 23:30 21.11.2019
3745 Rain 10 1021 93 10000 7.7 90 22:59 21.11.2019
3746 Rain 10 1020 93 7000 7.2 90 22:39 21.11.2019
3747 Rain 10 1020 93 7000 7.2 90 22:21 21.11.2019
3748 Rain 11 1020 87 7000 8.7 90 21:57 21.11.2019
3749 Rain 10 1020 93 7000 7.7 90 21:37 21.11.2019
3750 Rain 10 1020 93 7000 7.7 90 21:19 21.11.2019
3751 Rain 11 1020 87 6000 9.3 90 20:58 21.11.2019
3752 Rain 11 1020 93 7000 8.7 90 20:38 21.11.2019
3753 Rain 11 1020 93 7000 8.7 90 20:19 21.11.2019
3754 Rain 11 1020 93 8000 7.7 90 19:59 21.11.2019
3755 Rain 11 1020 93 8000 7.7 90 19:59 21.11.2019
3756 Rain 11 1020 93 8000 7.7 90 19:59 21.11.2019
3757 Rain 11 1020 87 10000 9.8 80 19:40 21.11.2019
3758 Rain 11 1020 87 10000 9.8 80 19:21 21.11.2019
3759 Rain 12 1020 87 10000 9.3 90 18:56 21.11.2019
3760 Rain 12 1020 82 10000 7.7 90 18:37 21.11.2019
3761 Rain 12 1020 82 10000 7.7 90 18:19 21.11.2019
3762 Rain 12 1020 82 10000 7.2 90 17:57 21.11.2019
3763 Rain 12 1019 82 10000 7.2 90 17:38 21.11.2019
3764 Rain 12 1019 82 10000 7.2 90 17:19 21.11.2019
3765 Rain 13 1019 82 10000 8.7 90 16:41 21.11.2019
3766 Rain 13 1019 82 10000 8.7 90 16:21 21.11.2019
3767 Rain 13 1019 82 10000 8.2 90 15:57 21.11.2019
3768 Rain 13 1019 82 10000 7.7 100 15:38 21.11.2019
3769 Rain 13 1019 82 10000 7.7 100 15:19 21.11.2019
3770 Clouds 13 1019 82 10000 8.7 100 14:55 21.11.2019
3771 Rain 13 1019 82 10000 7.7 110 14:36 21.11.2019
3772 Rain 13 1019 82 10000 7.7 110 14:18 21.11.2019
3773 Clouds 14 1019 77 10000 6.2 100 13:39 21.11.2019
3774 Clouds 14 1019 77 10000 6.2 100 13:20 21.11.2019
3775 Rain 13 1019 82 10000 7.2 100 12:56 21.11.2019
3776 Clouds 13 1019 82 10000 7.2 100 12:37 21.11.2019
3777 Clouds 13 1019 82 10000 7.2 100 12:19 21.11.2019
3778 Rain 14 1019 87 9000 8.7 100 11:41 21.11.2019
3779 Rain 14 1019 87 9000 8.7 100 11:41 21.11.2019
3780 Rain 14 1019 87 9000 8.7 100 11:21 21.11.2019
3781 Clouds 13 1020 82 10000 7.7 100 10:59 21.11.2019
3782 Rain 13 1020 87 10000 7.7 100 10:41 21.11.2019
3783 Rain 13 1020 87 10000 7.7 100 10:20 21.11.2019
3784 Clouds 13 1021 87 10000 6.7 110 09:56 21.11.2019
3785 Rain 13 1021 82 10000 8.2 100 09:37 21.11.2019
3786 Rain 13 1021 82 10000 8.2 100 09:19 21.11.2019
3787 Clouds 13 1020 87 9000 6.2 100 08:41 21.11.2019
3788 Clouds 13 1020 87 9000 6.2 100 08:20 21.11.2019
3789 Rain 13 1020 82 9000 7.7 100 07:42 21.11.2019
3790 Rain 13 1020 82 9000 7.7 100 07:18 21.11.2019
3791 Rain 13 1020 82 9000 6.2 90 06:57 21.11.2019
3792 Rain 13 1020 87 10000 5.7 100 06:33 21.11.2019
3793 Rain 13 1020 87 10000 5.7 100 05:36 21.11.2019
3794 Clouds 13 1020 82 10000 6.7 110 03:32 21.11.2019
3795 Clouds 13 1020 82 10000 6.2 110 02:41 21.11.2019
3796 Clouds 13 1020 82 10000 7.7 100 01:55 21.11.2019
3797 Clouds 13 1020 82 10000 6.7 110 01:36 21.11.2019
3798 Clouds 13 1020 82 10000 7.2 100 00:54 21.11.2019
3799 Clouds 13 1020 82 10000 7.2 100 00:21 21.11.2019
3800 Clouds 13 1020 82 10000 7.7 100 23:57 20.11.2019
3801 Clouds 13 1021 82 10000 7.7 100 23:39 20.11.2019
3802 Clouds 13 1021 82 10000 7.7 100 23:20 20.11.2019
3803 Clouds 14 1021 77 10000 7.2 110 22:55 20.11.2019
3804 Clouds 14 1021 77 10000 8.2 110 22:37 20.11.2019
3805 Clouds 14 1021 77 10000 8.2 110 22:37 20.11.2019
3806 Clouds 14 1021 77 10000 8.2 110 22:18 20.11.2019
3807 Clouds 14 1021 77 10000 8.2 110 22:18 20.11.2019
3808 Clouds 14 1021 77 10000 6.7 110 21:54 20.11.2019
3809 Clouds 14 1021 77 10000 6.7 100 21:36 20.11.2019
3810 Clouds 14 1021 77 10000 6.7 100 21:18 20.11.2019
3811 Clouds 14 1021 77 10000 5.7 110 20:54 20.11.2019
3812 Clouds 13 1021 77 10000 6.2 110 20:36 20.11.2019
3813 Clouds 13 1021 77 10000 6.2 110 20:18 20.11.2019
3814 Clouds 13 1021 72 10000 7.2 110 19:54 20.11.2019
3815 Clouds 13 1020 72 10000 7.2 100 19:36 20.11.2019
3816 Clouds 13 1020 72 10000 7.2 100 19:18 20.11.2019
3817 Clouds 13 1021 82 10000 6.2 90 18:40 20.11.2019
3818 Clouds 13 1021 82 10000 6.2 90 18:22 20.11.2019
3819 Clouds 13 1021 76 10000 6.2 110 17:59 20.11.2019
3820 Clouds 13 1021 76 10000 5.7 110 17:39 20.11.2019
3821 Clouds 13 1021 76 10000 5.7 110 17:21 20.11.2019
3822 Clouds 13 1021 76 10000 5.7 110 16:57 20.11.2019
3823 -273 0 0 0 0 0 16:39 20.11.2019
3824 Clouds 13 1021 76 10000 5.7 110 16:20 20.11.2019
3825 Clouds 13 1021 76 10000 5.7 110 16:20 20.11.2019
3826 Clouds 13 1021 76 10000 6.7 100 15:57 20.11.2019
3827 Clouds 14 1021 72 10000 8.2 100 15:38 20.11.2019
3828 Clouds 14 1021 72 10000 8.2 100 15:19 20.11.2019
3829 Clouds 14 1021 72 10000 6.7 110 14:41 20.11.2019
3830 Clouds 14 1021 72 10000 6.7 110 14:22 20.11.2019
3831 Clouds 14 1021 77 10000 5.7 110 13:59 20.11.2019
3832 Clouds 14 1022 72 10000 5.1 130 13:40 20.11.2019
3833 Clouds 14 1021 72 10000 6.2 120 13:21 20.11.2019
3834 Clouds 14 1021 72 10000 6.2 120 12:59 20.11.2019
3835 Clouds 15 1022 67 10000 5.1 130 12:38 20.11.2019
3836 Clouds 15 1022 67 10000 5.1 130 12:38 20.11.2019
3837 Clouds 15 1022 67 10000 5.1 130 12:19 20.11.2019
3838 Clouds 15 1022 72 10000 5.7 120 11:46 20.11.2019
3839 Clouds 15 1022 72 10000 5.7 120 11:23 20.11.2019
3840 Clouds 15 1023 67 10000 5.7 120 10:58 20.11.2019
3841 Clouds 15 1023 72 10000 6.7 110 10:39 20.11.2019
3842 Clouds 15 1023 72 10000 6.7 110 10:20 20.11.2019
3843 Clouds 14 1023 77 10000 6.7 120 09:56 20.11.2019
3844 Clouds 14 1023 77 10000 6.7 110 09:37 20.11.2019
3845 Clouds 14 1023 77 10000 6.7 110 09:19 20.11.2019
3846 Clouds 13 1023 82 10000 5.1 120 08:42 20.11.2019
3847 Clouds 13 1023 82 10000 5.1 120 08:24 20.11.2019
3848 Clouds 13 1023 82 10000 4.6 120 07:50 20.11.2019
3849 Clouds 13 1023 82 10000 5.1 110 07:30 20.11.2019
3850 Clouds 13 1023 82 10000 5.7 110 06:56 20.11.2019
3851 Clouds 13 1023 82 10000 5.7 100 06:37 20.11.2019
3852 Clouds 13 1023 82 10000 5.7 100 06:18 20.11.2019
3853 Clouds 13 1023 82 10000 5.1 110 04:40 20.11.2019
3854 Clouds 14 1024 82 10000 5.1 110 02:23 20.11.2019
3855 Clouds 14 1024 82 10000 5.1 120 01:35 20.11.2019
3856 Clouds 14 1024 87 10000 6.7 120 00:46 20.11.2019
3857 Clouds 14 1024 87 10000 6.7 120 00:18 20.11.2019
3858 Clouds 15 1024 82 10000 5.7 120 23:40 19.11.2019
3859 Clouds 15 1024 82 10000 5.7 120 23:22 19.11.2019
3860 Clouds 15 1024 82 10000 5.7 120 22:54 19.11.2019
3861 Clouds 15 1024 87 10000 5.1 120 22:36 19.11.2019
3862 Clouds 15 1024 87 10000 5.1 120 22:18 19.11.2019
3863 Clouds 15 1024 87 10000 5.7 120 21:54 19.11.2019
3864 Clouds 15 1024 87 10000 5.1 120 21:36 19.11.2019
3865 Clouds 15 1024 87 10000 5.1 120 21:36 19.11.2019
3866 Clouds 15 1024 87 10000 5.1 120 21:36 19.11.2019
3867 Clouds 15 1024 87 10000 5.1 120 21:18 19.11.2019
3868 Clouds 15 1024 87 10000 5.7 120 20:54 19.11.2019
3869 Clouds 15 1024 93 10000 5.7 120 20:36 19.11.2019
3870 Clouds 15 1024 93 10000 5.7 120 20:18 19.11.2019
3871 Clouds 15 1024 93 8000 3.1 140 19:41 19.11.2019
3872 Clouds 15 1024 93 8000 3.1 140 19:20 19.11.2019
3873 Clouds 15 1024 93 8000 3.1 130 18:57 19.11.2019
3874 Clouds 15 1024 87 9000 3.6 110 18:39 19.11.2019
3875 Clouds 15 1024 87 9000 3.6 110 18:18 19.11.2019
3876 Clouds 15 1024 87 9000 4.1 110 17:56 19.11.2019
3877 Clouds 15 1024 87 9000 4.1 110 17:56 19.11.2019
3878 Clouds 15 1024 93 8000 4.6 110 17:37 19.11.2019
3879 Clouds 15 1024 93 8000 4.6 110 17:19 19.11.2019
3880 Clouds 15 1024 87 8000 4.1 120 16:56 19.11.2019
3881 Clouds 15 1024 87 6000 4.1 120 16:37 19.11.2019
3882 Clouds 15 1024 87 6000 4.1 120 16:18 19.11.2019
3883 Clouds 16 1024 88 6000 4.6 120 15:42 19.11.2019
3884 Clouds 16 1024 88 6000 4.6 120 15:23 19.11.2019
3885 Clouds 16 1024 82 7000 5.7 110 14:57 19.11.2019
3886 Clouds 17 1024 82 8000 5.7 120 14:39 19.11.2019
3887 Clouds 17 1024 82 8000 5.7 120 14:20 19.11.2019
3888 Clouds 17 1024 77 10000 5.7 120 13:41 19.11.2019
3889 Clouds 17 1024 77 10000 5.7 120 13:20 19.11.2019
3890 Clouds 18 1024 72 10000 4.6 120 12:42 19.11.2019
3891 Clouds 18 1024 72 10000 4.6 120 12:23 19.11.2019
3892 Clouds 17 1024 72 10000 3.6 110 11:59 19.11.2019
3893 Clouds 17 1024 72 10000 4.1 120 11:39 19.11.2019
3894 Clouds 17 1024 72 10000 4.1 120 11:20 19.11.2019
3895 Clouds 17 1025 77 10000 3.6 120 10:58 19.11.2019
3896 Clouds 17 1025 82 8000 3.6 120 10:40 19.11.2019
3897 Clouds 17 1025 82 8000 3.6 120 10:20 19.11.2019
3898 Clouds 17 1025 88 7000 2.6 130 09:42 19.11.2019
3899 Clouds 16 1025 88 7000 2.6 130 09:19 19.11.2019
3900 Mist 16 1025 88 5000 3.1 120 08:56 19.11.2019
3901 Mist 16 1025 93 3300 2.6 140 08:37 19.11.2019
3902 Mist 16 1025 93 3300 2.6 140 08:37 19.11.2019
3903 Mist 16 1025 93 3300 2.6 140 08:19 19.11.2019
3904 Mist 14 1024 100 2700 1 100 07:42 19.11.2019
3905 Mist 14 1024 100 2700 1 100 07:22 19.11.2019
3906 Mist 14 1024 100 2600 1.5 130 06:52 19.11.2019
3907 Mist 13 1024 100 4400 2.1 100 06:33 19.11.2019
3908 Mist 14 1024 100 5000 0.17 297 05:44 19.11.2019
3909 Mist 14 1023 100 5000 2.6 120 04:26 19.11.2019
3910 Clouds 14 1023 100 6000 0.5 0 03:35 19.11.2019
3911 Clouds 14 1023 100 6000 2.6 120 02:57 19.11.2019
3912 Clouds 14 1023 100 7000 2.6 130 02:32 19.11.2019
3913 Clouds 14 1023 93 6000 2.6 100 01:43 19.11.2019
3914 Clouds 14 1023 93 6000 2.1 110 00:22 19.11.2019
3915 Clouds 14 1023 93 8000 1.5 130 23:57 18.11.2019
3916 Clouds 14 1022 93 7000 4.1 110 23:37 18.11.2019
3917 Rain 14 1022 93 7000 3.1 120 23:18 18.11.2019
3918 Rain 14 1022 93 8000 3.1 120 22:45 18.11.2019
3919 Rain 15 1022 93 8000 3.1 120 22:23 18.11.2019
3920 Clouds 15 1022 87 10000 2.1 110 21:56 18.11.2019
3921 Clouds 15 1022 87 10000 2.1 120 21:37 18.11.2019
3922 Clouds 14 1022 87 10000 2.1 120 21:19 18.11.2019
3923 Clouds 14 1022 87 10000 3.1 130 20:57 18.11.2019
3924 Clouds 14 1022 87 10000 2.1 110 20:38 18.11.2019
3925 Clouds 14 1022 87 10000 2.1 110 20:18 18.11.2019
3926 Clouds 14 1022 87 10000 2.1 110 19:55 18.11.2019
3927 Clouds 14 1022 87 10000 2.1 110 19:55 18.11.2019
3928 Clouds 15 1022 82 10000 2.1 120 19:37 18.11.2019
3929 Clouds 14 1022 82 10000 2.1 120 19:18 18.11.2019
3930 Clouds 14 1022 82 10000 2.1 120 19:18 18.11.2019
3931 Clouds 14 1022 82 10000 2.1 130 18:54 18.11.2019
3932 Clouds 14 1022 82 10000 2.1 130 18:54 18.11.2019
3933 Clouds 14 1022 82 10000 2.1 130 18:36 18.11.2019
3934 Clouds 14 1022 82 10000 2.1 130 18:18 18.11.2019
3935 Clouds 15 1021 82 10000 3.1 130 17:38 18.11.2019
3936 Clouds 14 1021 82 10000 3.1 130 17:19 18.11.2019
3937 Clouds 14 1021 82 10000 3.1 130 16:54 18.11.2019
3938 Clouds 14 1021 82 10000 3.1 130 16:54 18.11.2019
3939 Clouds 15 1021 82 10000 3.6 130 16:36 18.11.2019
3940 Clouds 15 1021 82 10000 3.6 130 16:18 18.11.2019
3941 Clouds 15 1021 82 10000 4.6 120 15:54 18.11.2019
3942 Clouds 15 1020 82 10000 4.1 120 15:36 18.11.2019
3943 Clouds 15 1020 82 10000 4.6 120 15:18 18.11.2019
3944 Clouds 16 1020 77 10000 6.2 120 14:41 18.11.2019
3945 Clouds 16 1020 77 10000 6.2 120 14:22 18.11.2019
3946 Clouds 16 1020 77 10000 5.7 120 13:46 18.11.2019
3947 Clouds 16 1020 72 10000 5.1 120 13:28 18.11.2019
3948 Clouds 16 1020 77 10000 5.1 120 12:58 18.11.2019
3949 Clouds 16 1020 72 10000 5.7 120 12:37 18.11.2019
3950 Clouds 16 1020 72 10000 5.7 120 12:18 18.11.2019
3951 Clouds 17 1020 72 10000 5.7 120 11:44 18.11.2019
3952 Clouds 16 1020 72 10000 5.7 120 11:25 18.11.2019
3953 Clouds 17 1021 72 10000 5.7 120 10:55 18.11.2019
3954 Clouds 17 1020 72 10000 5.1 120 10:37 18.11.2019
3955 Clouds 17 1020 72 10000 5.1 120 10:18 18.11.2019
3956 Clouds 17 1021 72 10000 5.1 110 09:54 18.11.2019
3957 Clouds 17 1021 72 10000 5.1 110 09:54 18.11.2019
3958 Clouds 17 1021 77 10000 5.1 120 09:36 18.11.2019
3959 Clouds 16 1021 77 10000 5.1 120 09:18 18.11.2019
3960 Clouds 16 1020 77 10000 3.1 140 08:42 18.11.2019
3961 Clouds 15 1020 77 10000 3.1 140 08:20 18.11.2019
3962 Clouds 14 1020 87 10000 2.6 140 07:47 18.11.2019
3963 Clouds 14 1020 87 10000 2.6 140 07:47 18.11.2019
3964 Clouds 14 1020 87 9000 1.5 110 07:27 18.11.2019
3965 Clouds 13 1020 87 10000 1.5 110 06:49 18.11.2019
3966 Clouds 12 1020 87 10000 2.6 110 06:29 18.11.2019
3967 Clouds 13 1020 87 10000 2.6 100 05:46 18.11.2019
3968 Clouds 13 1020 87 10000 3.1 100 04:35 18.11.2019
3969 Clouds 14 1020 82 10000 4.1 110 01:49 18.11.2019
3970 Clouds 14 1020 77 10000 4.6 100 01:30 18.11.2019
3971 Clouds 14 1021 82 10000 2.6 110 00:21 18.11.2019
3972 Clouds 14 1021 77 10000 3.1 110 23:41 17.11.2019
3973 Clouds 14 1021 77 10000 3.1 110 23:23 17.11.2019
3974 Clouds 14 1021 77 10000 4.1 90 22:57 17.11.2019
3975 Clouds 14 1021 77 10000 4.6 90 22:39 17.11.2019
3976 Clouds 14 1021 77 10000 4.6 90 22:21 17.11.2019
3977 Clouds 14 1021 77 10000 3.6 90 21:57 17.11.2019
3978 Clouds 14 1021 77 10000 4.1 100 21:38 17.11.2019
3979 Clouds 14 1021 77 10000 4.1 100 21:18 17.11.2019
3980 Clouds 14 1021 77 10000 4.1 100 20:55 17.11.2019
3981 Clouds 14 1021 77 10000 4.6 100 20:37 17.11.2019
3982 Clouds 14 1021 77 10000 4.6 100 20:18 17.11.2019
3983 Clouds 14 1021 77 10000 4.6 90 19:55 17.11.2019
3984 Clouds 14 1021 77 10000 4.1 90 19:36 17.11.2019
3985 Clouds 14 1021 77 10000 4.1 90 19:18 17.11.2019
3986 Clouds 14 1021 77 10000 4.1 90 18:54 17.11.2019
3987 Clouds 14 1021 77 10000 4.6 90 18:36 17.11.2019
3988 Clouds 14 1021 77 10000 4.6 90 18:18 17.11.2019
3989 Clouds 14 1021 77 10000 4.6 90 17:56 17.11.2019
3990 Clouds 14 1021 77 10000 4.6 100 17:38 17.11.2019
3991 Clouds 14 1021 77 10000 4.6 100 17:18 17.11.2019
3992 Clouds 14 1021 77 10000 4.6 90 16:55 17.11.2019
3993 Clouds 14 1021 77 10000 4.6 100 16:37 17.11.2019
3994 Clouds 14 1021 77 10000 4.6 100 16:19 17.11.2019
3995 Clouds 15 1021 72 10000 5.7 90 15:41 17.11.2019
3996 Clouds 15 1021 72 10000 5.7 90 15:19 17.11.2019
3997 Clouds 15 1021 72 10000 6.2 90 14:57 17.11.2019
3998 Clouds 15 1021 72 10000 6.7 100 14:39 17.11.2019
3999 Clouds 15 1021 72 10000 6.7 100 14:21 17.11.2019
4000 Clouds 15 1021 72 10000 6.7 100 13:59 17.11.2019
4001 Clouds 15 1021 72 10000 6.2 100 13:40 17.11.2019
4002 Clouds 16 1021 72 10000 6.2 100 13:20 17.11.2019
4003 Clouds 16 1022 67 10000 6.2 100 12:45 17.11.2019
4004 Clouds 16 1022 67 10000 6.2 100 12:24 17.11.2019
4005 Clouds 16 1022 67 10000 6.7 100 11:59 17.11.2019
4006 Clouds 16 1022 67 10000 6.7 100 11:59 17.11.2019
4007 Clouds 16 1022 67 10000 6.7 110 11:40 17.11.2019
4008 Clouds 16 1022 67 10000 6.7 110 11:21 17.11.2019
4009 Clouds 16 1022 67 10000 6.7 110 11:21 17.11.2019
4010 Clouds 16 1022 67 10000 7.2 100 10:56 17.11.2019
4011 Clouds 16 1022 67 10000 7.2 100 10:56 17.11.2019
4012 Clouds 16 1022 72 10000 6.2 100 10:36 17.11.2019
4013 Clouds 16 1022 72 10000 6.2 100 10:18 17.11.2019
4014 Clouds 15 1023 77 10000 5.1 100 09:41 17.11.2019
4015 Clouds 15 1023 77 10000 5.1 100 09:23 17.11.2019
4016 Clouds 15 1023 82 10000 4.6 100 08:44 17.11.2019
4017 Clouds 14 1023 82 10000 4.6 100 08:24 17.11.2019
4018 Clouds 14 1023 82 10000 3.1 70 07:56 17.11.2019
4019 Clouds 14 1023 82 10000 2.6 60 07:38 17.11.2019
4020 Clouds 14 1023 82 10000 2.6 60 07:19 17.11.2019
4021 Clouds 13 1023 87 10000 3.1 60 06:47 17.11.2019
4022 Clouds 13 1023 87 10000 3.6 70 06:27 17.11.2019
4023 Clouds 13 1022 93 10000 1.5 40 04:50 17.11.2019
4024 Clouds 13 1022 93 10000 2.1 70 03:58 17.11.2019
4025 Clouds 13 1022 93 10000 2.1 70 03:58 17.11.2019
4026 Clouds 13 1022 87 10000 2.6 50 03:33 17.11.2019
4027 Clouds 13 1023 93 10000 2.1 70 02:40 17.11.2019
4028 Clouds 13 1023 87 10000 3.6 60 01:45 17.11.2019
4029 Clouds 13 1023 87 10000 2.6 60 00:56 17.11.2019
4030 Clouds 13 1023 93 10000 2.1 70 00:23 17.11.2019
4031 Clouds 13 1023 93 10000 0.5 0 23:54 16.11.2019
4032 Clouds 13 1023 93 10000 2.6 90 23:21 16.11.2019
4033 Clouds 13 1023 93 10000 2.6 90 22:59 16.11.2019
4034 Clouds 14 1023 87 10000 3.6 90 22:41 16.11.2019
4035 Clouds 14 1023 87 10000 3.6 90 22:20 16.11.2019
4036 Clouds 14 1023 87 10000 3.6 90 22:20 16.11.2019
4037 Clouds 13 1023 93 10000 3.1 110 21:56 16.11.2019
4038 Clouds 13 1023 93 10000 3.1 120 21:38 16.11.2019
4039 Clouds 14 1023 93 10000 3.1 120 21:19 16.11.2019
4040 Clouds 14 1023 93 10000 4.6 100 20:55 16.11.2019
4041 Clouds 14 1023 100 7000 3.6 110 20:37 16.11.2019
4042 Mist 14 1023 100 4600 3.6 120 20:18 16.11.2019
4043 Mist 14 1023 100 2600 1.5 130 19:40 16.11.2019
4044 Mist 14 1023 100 2600 1.5 130 19:22 16.11.2019
4045 Mist 14 1023 100 4800 1.5 130 18:47 16.11.2019
4046 Mist 14 1023 100 4800 1.5 130 18:29 16.11.2019
4047 Mist 13 1023 100 4900 0.5 0 17:58 16.11.2019
4048 Clouds 14 1023 93 6000 3.6 110 17:39 16.11.2019
4049 Clouds 14 1023 93 6000 3.6 110 17:20 16.11.2019
4050 Clouds 14 1022 100 6000 4.1 100 16:56 16.11.2019
4051 Clouds 14 1022 100 6000 4.1 100 16:37 16.11.2019
4052 Clouds 14 1022 100 6000 4.1 100 16:18 16.11.2019
4053 Clouds 15 1022 93 9000 6.2 120 15:41 16.11.2019
4054 Clouds 16 1022 93 9000 6.2 120 15:21 16.11.2019
4055 Clouds 17 1022 82 10000 6.7 120 14:58 16.11.2019
4056 Clouds 18 1022 82 10000 5.7 120 14:39 16.11.2019
4057 Clouds 18 1022 82 10000 5.7 120 14:21 16.11.2019
4058 Clouds 19 1022 77 10000 5.7 110 13:56 16.11.2019
4059 Clouds 19 1022 82 10000 6.7 110 13:38 16.11.2019
4060 Clouds 19 1022 82 10000 6.7 110 13:18 16.11.2019
4061 Clouds 20 1022 77 10000 6.2 110 12:54 16.11.2019
4062 Clear 20 1022 68 10000 5.7 120 12:36 16.11.2019
4063 Clear 21 1022 68 10000 5.7 120 12:18 16.11.2019
4064 Clear 20 1023 77 10000 3.6 110 11:42 16.11.2019
4065 Clear 20 1023 77 10000 3.6 110 11:23 16.11.2019
4066 Clear 19 1023 82 9000 3.1 120 10:55 16.11.2019
4067 Clouds 18 1023 88 6000 2.6 120 10:37 16.11.2019
4068 Clouds 18 1023 88 6000 2.6 120 10:18 16.11.2019
4069 Mist 17 1023 100 3200 3.09 152 09:40 16.11.2019
4070 Mist 16 1023 100 3200 3.09 152 09:20 16.11.2019
4071 Fog 15 1023 100 3200 3.09 152 08:56 16.11.2019
4072 Mist 15 1023 100 1900 3.09 152 08:36 16.11.2019
4073 Mist 14 1023 100 1900 3.19 174 08:18 16.11.2019
4074 Fog 14 1023 100 800 3.19 174 07:40 16.11.2019
4075 Fog 14 1023 100 800 3.19 174 07:18 16.11.2019
4076 Mist 13 1023 100 3500 3.19 174 06:43 16.11.2019
4077 Mist 13 1023 100 3500 3.19 174 06:20 16.11.2019
4078 Fog 12 1022 100 1700 4.19 171 04:45 16.11.2019
4079 Fog 13 1022 100 750 4.19 171 03:26 16.11.2019
4080 Clouds 12 1022 100 6000 1.5 310 02:36 16.11.2019
4081 Clouds 12 1022 100 6000 1.5 310 02:36 16.11.2019
4082 Mist 12 1021 100 4400 3.21 154 01:41 16.11.2019
4083 Mist 12 1021 100 4400 3.21 154 01:41 16.11.2019
4084 Clouds 11 1021 100 8000 3.41 168 00:56 16.11.2019
4085 Clouds 10 1021 100 9000 3.41 168 00:31 16.11.2019
4086 Clear 9 1021 100 8000 3.41 168 23:58 15.11.2019
4087 Clouds 10 1020 100 8000 3.41 168 23:38 15.11.2019
4088 Clouds 10 1020 100 8000 2.67 183 23:20 15.11.2019
4089 Clear 10 1021 93 10000 1.5 340 22:40 15.11.2019
4090 Clear 10 1021 93 10000 1.5 340 22:20 15.11.2019
4091 Clear 11 1020 93 10000 1.5 20 21:57 15.11.2019
4092 Clear 11 1021 100 10000 2.1 30 21:38 15.11.2019
4093 Clear 10 1021 100 10000 2.1 30 21:20 15.11.2019
4094 Clear 11 1021 100 8000 1.5 20 20:56 15.11.2019
4095 Clouds 11 1020 100 9000 0.5 330 20:38 15.11.2019
4096 Clouds 11 1020 100 9000 0.5 330 20:19 15.11.2019
4097 Mist 11 1020 100 9000 1 0 19:57 15.11.2019
4098 Clear 12 1020 100 10000 2.6 90 19:38 15.11.2019
4099 Clear 13 1019 93 10000 3.6 90 19:19 15.11.2019
4100 Clear 13 1019 93 10000 4.1 100 18:43 15.11.2019
4101 Clear 13 1019 93 10000 4.1 100 18:25 15.11.2019
4102 Clear 13 1019 93 10000 4.1 100 17:59 15.11.2019
4103 Clear 13 1019 87 10000 4.6 100 17:40 15.11.2019
4104 Clear 14 1019 87 10000 4.6 100 17:22 15.11.2019
4105 Clear 14 1019 77 10000 4.1 100 16:55 15.11.2019
4106 Clear 14 1018 77 10000 4.1 100 16:37 15.11.2019
4107 Clear 14 1018 77 10000 4.1 100 16:18 15.11.2019
4108 Clear 17 1018 68 10000 4.6 100 15:38 15.11.2019
4109 Clear 18 1017 63 10000 5.1 110 15:19 15.11.2019
4110 Clear 18 1017 63 10000 5.1 110 14:56 15.11.2019
4111 Clear 20 1017 52 10000 3.1 240 14:38 15.11.2019
4112 Clear 20 1017 52 10000 3.1 240 14:19 15.11.2019
4113 Clear 20 1017 52 10000 3.6 260 13:56 15.11.2019
4114 Clear 20 1017 56 10000 4.1 250 13:38 15.11.2019
4115 Clear 20 1017 56 10000 4.1 250 13:20 15.11.2019
4116 Clear 20 1017 52 10000 3.1 230 12:57 15.11.2019
4117 Clear 19 1017 56 10000 4.1 250 12:38 15.11.2019
4118 Clear 19 1017 56 10000 4.1 250 12:18 15.11.2019
4119 Clouds 19 1017 56 10000 3.1 240 11:55 15.11.2019
4120 Clouds 19 1016 63 10000 4.1 230 11:37 15.11.2019
4121 Clouds 18 1016 63 10000 4.1 230 11:19 15.11.2019
4122 Clouds 18 1017 72 10000 3.1 260 10:39 15.11.2019
4123 Clouds 18 1017 72 10000 3.1 260 10:21 15.11.2019
4124 Clouds 17 1016 77 10000 2.1 260 09:56 15.11.2019
4125 Clouds 17 1016 77 10000 2.1 260 09:56 15.11.2019
4126 Clouds 17 1016 77 10000 3.6 260 09:38 15.11.2019
4127 Clouds 16 1016 82 10000 2.6 250 09:18 15.11.2019
4128 Clear 16 1015 82 10000 0.5 0 08:42 15.11.2019
4129 Clear 16 1015 82 10000 0.5 0 08:21 15.11.2019
4130 Clouds 15 1015 93 10000 5.04 205 07:45 15.11.2019
4131 Clouds 14 1015 93 10000 5.04 205 07:26 15.11.2019
4132 Clouds 13 1014 100 10000 5.04 205 06:36 15.11.2019
4133 Rain 13 1014 93 10000 5.04 205 05:57 15.11.2019
4134 Rain 13 1014 93 10000 5.04 205 05:57 15.11.2019
4135 Clouds 14 1014 93 10000 1 210 05:38 15.11.2019
4136 Clouds 14 1014 93 10000 1 210 05:38 15.11.2019
4137 Clouds 14 1014 100 10000 4.67 202 04:54 15.11.2019
4138 Clouds 14 1013 100 10000 0.5 0 03:43 15.11.2019
4139 Clouds 13 1012 100 8000 1.5 80 02:34 15.11.2019
4140 Clouds 13 1012 100 10000 0.5 30 01:57 15.11.2019
4141 Clouds 13 1012 100 10000 0.5 30 01:57 15.11.2019
4142 Clouds 13 1012 100 10000 2.1 40 01:32 15.11.2019
4143 Clouds 13 1012 100 10000 2.1 40 01:32 15.11.2019
4144 Clouds 14 1012 93 10000 5.42 188 00:41 15.11.2019
4145 Clouds 13 1012 93 10000 5.42 188 00:23 15.11.2019
4146 Rain 14 1012 100 10000 1.5 50 23:46 14.11.2019
4147 Rain 14 1012 100 10000 1.5 50 23:26 14.11.2019
4148 Rain 15 1011 93 9000 5.7 120 22:42 14.11.2019
4149 Rain 15 1011 93 9000 5.7 120 22:23 14.11.2019
4150 Rain 15 1011 93 9000 5.7 120 22:23 14.11.2019
4151 Rain 15 1012 100 7000 5.1 120 21:59 14.11.2019
4152 Rain 15 1012 100 9000 1.5 0 21:40 14.11.2019
4153 Rain 15 1012 100 9000 1.5 0 21:40 14.11.2019
4154 Rain 15 1012 100 9000 1.5 0 21:22 14.11.2019
4155 Rain 15 1011 100 8000 1.5 150 20:55 14.11.2019
4156 Clouds 15 1011 93 10000 2.6 140 20:37 14.11.2019
4157 Clouds 15 1011 93 10000 2.6 140 20:19 14.11.2019
4158 Rain 15 1011 93 10000 1 0 19:55 14.11.2019
4159 Rain 15 1011 93 10000 2.6 90 19:36 14.11.2019
4160 Rain 15 1011 93 10000 1.5 20 19:18 14.11.2019
4161 Clouds 15 1011 87 10000 2.1 20 18:42 14.11.2019
4162 Clouds 15 1011 87 10000 2.1 20 18:23 14.11.2019
4163 Clouds 15 1011 82 10000 1 0 17:57 14.11.2019
4164 Clouds 15 1011 82 10000 2.1 130 17:38 14.11.2019
4165 Clouds 15 1011 82 10000 2.6 70 17:20 14.11.2019
4166 Clouds 15 1011 82 10000 2.6 70 16:58 14.11.2019
4167 Clouds 15 1011 77 10000 2.6 110 16:37 14.11.2019
4168 Clouds 16 1011 77 10000 2.6 110 16:19 14.11.2019
4169 Clouds 16 1011 72 10000 3.6 90 15:57 14.11.2019
4170 Clouds 16 1010 72 10000 3.6 70 15:38 14.11.2019
4171 Clouds 16 1010 72 10000 3.6 70 15:19 14.11.2019
4172 Clouds 16 1010 72 10000 3.6 70 15:19 14.11.2019
4173 Clouds 16 1010 68 10000 3.6 80 14:46 14.11.2019
4174 Clouds 16 1010 68 10000 3.6 80 14:23 14.11.2019
4175 Clouds 16 1011 68 10000 3.1 90 13:58 14.11.2019
4176 Clouds 16 1011 77 10000 3.1 100 13:39 14.11.2019
4177 Clouds 16 1011 77 10000 3.1 100 13:20 14.11.2019
4178 Clouds 16 1011 72 10000 4.6 80 12:56 14.11.2019
4179 Clouds 16 1011 68 10000 4.6 80 12:37 14.11.2019
4180 Clouds 16 1011 68 10000 4.6 80 12:19 14.11.2019
4181 Clouds 16 1011 72 10000 5.1 90 11:39 14.11.2019
4182 Clouds 16 1011 72 10000 5.1 90 11:20 14.11.2019
4183 Clouds 16 1011 72 10000 5.1 90 10:59 14.11.2019
4184 Clouds 16 1011 77 10000 5.1 100 10:40 14.11.2019
4185 Clouds 16 1011 77 10000 5.1 100 10:20 14.11.2019
4186 Clouds 16 1011 77 10000 4.1 110 09:56 14.11.2019
4187 Clouds 16 1011 77 10000 5.1 90 09:38 14.11.2019
4188 Clouds 15 1012 82 10000 3.6 80 09:19 14.11.2019
4189 Clouds 15 1012 82 10000 3.6 80 08:47 14.11.2019
4190 Clouds 15 1012 82 10000 3.6 80 08:25 14.11.2019
4191 Clouds 15 1011 82 10000 2.6 100 07:57 14.11.2019
4192 Clouds 15 1011 82 10000 4.1 60 07:37 14.11.2019
4193 Clouds 15 1011 82 10000 4.1 60 07:19 14.11.2019
4194 Clouds 16 1011 87 10000 3.1 90 06:42 14.11.2019
4195 Clouds 16 1011 87 10000 3.1 90 06:18 14.11.2019
4196 Clouds 15 1011 87 10000 3.6 80 04:42 14.11.2019
4197 Clouds 15 1011 87 10000 3.6 80 04:22 14.11.2019
4198 Clouds 15 1012 93 10000 2.1 80 02:47 14.11.2019
4199 Clouds 16 1012 87 10000 2.1 130 01:51 14.11.2019
4200 Clouds 15 1012 93 9000 4.1 50 01:32 14.11.2019
4201 Clouds 15 1012 93 8000 0.5 0 00:49 14.11.2019
4202 Clouds 14 1012 93 8000 3.1 30 00:29 14.11.2019
4203 Clouds 14 1012 93 8000 1.5 360 23:41 13.11.2019
4204 Clouds 14 1012 93 8000 1.5 360 23:22 13.11.2019
4205 Clouds 14 1012 93 7000 2.1 260 22:57 13.11.2019
4206 Clouds 15 1012 87 9000 2.17 52 22:39 13.11.2019
4207 Clouds 15 1012 87 9000 2.17 52 22:21 13.11.2019
4208 Clouds 15 1013 87 9000 2.1 50 21:56 13.11.2019
4209 Clouds 14 1013 93 8000 0.5 0 21:37 13.11.2019
4210 Clouds 14 1013 93 8000 0.5 0 21:19 13.11.2019
4211 Clouds 14 1013 93 9000 2.17 52 20:56 13.11.2019
4212 Clouds 14 1013 93 9000 2.17 52 20:37 13.11.2019
4213 Clouds 14 1013 93 9000 2.17 52 20:37 13.11.2019
4214 Clouds 14 1013 93 9000 2.91 92 20:19 13.11.2019
4215 Clouds 14 1013 87 10000 2.91 92 19:56 13.11.2019
4216 Clouds 14 1013 93 7000 1 30 19:37 13.11.2019
4217 Clouds 14 1013 93 7000 1 30 19:18 13.11.2019
4218 Clouds 14 1013 93 8000 2.91 92 18:54 13.11.2019
4219 Clouds 14 1013 93 7000 2.91 92 18:36 13.11.2019
4220 Clouds 14 1013 93 7000 2.91 92 18:18 13.11.2019
4221 Clouds 14 1013 93 7000 2.91 92 18:18 13.11.2019
4222 Clouds 15 1013 93 6000 2.91 92 17:40 13.11.2019
4223 Clouds 15 1013 93 6000 2.06 91 17:22 13.11.2019
4224 Clouds 15 1013 100 6000 2.06 91 16:59 13.11.2019
4225 Mist 15 1013 87 5000 2.1 130 16:40 13.11.2019
4226 Mist 15 1013 87 5000 2.1 130 16:40 13.11.2019
4227 Mist 15 1013 87 5000 2.1 130 16:40 13.11.2019
4228 Mist 15 1013 87 5000 2.1 130 16:40 13.11.2019
4229 Mist 16 1013 87 5000 2.1 130 16:21 13.11.2019
4230 Clouds 16 1013 87 6000 3.1 120 15:58 13.11.2019
4231 Clouds 16 1013 88 7000 3.1 150 15:40 13.11.2019
4232 Clouds 16 1013 88 7000 3.1 150 15:22 13.11.2019
4233 Clouds 16 1013 82 8000 4.1 120 14:57 13.11.2019
4234 Clouds 17 1013 82 9000 4.6 120 14:37 13.11.2019
4235 Clouds 16 1013 82 9000 4.6 120 14:19 13.11.2019
4236 Clouds 17 1013 82 9000 4.6 130 13:37 13.11.2019
4237 Clouds 17 1013 77 10000 4.6 120 13:19 13.11.2019
4238 Clouds 17 1013 77 10000 4.6 120 12:57 13.11.2019
4239 Clouds 17 1013 77 10000 5.1 110 12:38 13.11.2019
4240 Clouds 17 1013 77 10000 5.1 110 12:19 13.11.2019
4241 Clouds 17 1014 77 10000 4.1 120 11:41 13.11.2019
4242 Clouds 17 1014 77 10000 4.1 120 11:21 13.11.2019
4243 Clouds 17 1014 77 10000 5.7 110 10:59 13.11.2019
4244 Clouds 17 1014 82 10000 5.7 100 10:41 13.11.2019
4245 Clouds 17 1014 82 10000 5.7 100 10:21 13.11.2019
4246 Clouds 17 1014 82 10000 5.7 110 09:57 13.11.2019
4247 Clouds 17 1013 82 10000 6.2 100 09:39 13.11.2019
4248 Clouds 16 1013 82 10000 5.1 110 09:20 13.11.2019
4249 Clouds 16 1013 82 10000 6.2 100 09:20 13.11.2019
4250 Clouds 16 1013 82 10000 5.1 110 08:40 13.11.2019
4251 Clouds 16 1013 82 10000 5.1 110 08:21 13.11.2019
4252 Clouds 16 1014 82 10000 4.6 100 07:43 13.11.2019
4253 Clouds 16 1014 82 10000 4.6 100 07:21 13.11.2019
4254 Clouds 15 1014 93 9000 2.6 100 06:47 13.11.2019
4255 Clouds 15 1014 87 10000 3.6 90 06:19 13.11.2019
4256 Clouds 15 1014 87 9000 5.1 90 06:19 13.11.2019
4257 Clouds 15 1014 87 9000 5.1 90 06:19 13.11.2019
4258 Clouds 15 1014 87 10000 3.6 90 05:57 13.11.2019
4259 Clouds 15 1014 93 10000 2.6 100 05:38 13.11.2019
4260 Clouds 15 1015 93 10000 2.6 80 04:44 13.11.2019
4261 Clouds 14 1015 87 10000 2.6 90 02:28 13.11.2019
4262 Clouds 14 1015 87 10000 2.6 80 01:46 13.11.2019
4263 Clouds 14 1016 87 10000 3.6 90 00:57 13.11.2019
4264 Clouds 15 1016 82 10000 3.1 90 00:36 13.11.2019
4265 Clouds 15 1016 82 10000 3.6 100 23:42 12.11.2019
4266 Clouds 15 1016 82 10000 3.6 100 23:22 12.11.2019
4267 Clouds 15 1016 82 10000 4.6 100 22:58 12.11.2019
4268 Clouds 15 1017 87 10000 4.6 110 22:40 12.11.2019
4269 Clouds 15 1017 87 10000 4.6 110 22:18 12.11.2019
4270 Clouds 16 1017 82 10000 4.6 110 21:44 12.11.2019
4271 Clouds 16 1017 82 10000 4.6 110 21:25 12.11.2019
4272 Clouds 15 1017 82 10000 3.6 100 20:58 12.11.2019
4273 Clouds 15 1017 82 10000 5.7 100 20:38 12.11.2019
4274 Clouds 15 1017 82 10000 5.7 100 20:19 12.11.2019
4275 Clouds 15 1017 82 10000 5.1 90 19:58 12.11.2019
4276 Clouds 15 1017 82 10000 5.1 100 19:39 12.11.2019
4277 Clouds 15 1017 82 10000 5.1 100 19:19 12.11.2019
4278 Clouds 15 1017 82 10000 4.1 100 18:59 12.11.2019
4279 Clouds 15 1017 82 10000 3.6 100 18:40 12.11.2019
4280 Clouds 15 1017 82 10000 3.6 100 18:22 12.11.2019
4281 Clouds 15 1017 82 10000 4.1 90 17:57 12.11.2019
4282 Clouds 15 1017 87 10000 4.6 100 17:39 12.11.2019
4283 Clouds 15 1017 87 10000 4.6 100 17:21 12.11.2019
4284 Clouds 15 1017 87 10000 4.6 100 17:21 12.11.2019
4285 Clouds 15 1017 82 10000 5.1 90 16:57 12.11.2019
4286 Clouds 15 1017 87 10000 5.1 90 16:39 12.11.2019
4287 Clouds 16 1017 87 10000 5.1 90 16:20 12.11.2019
4288 Clouds 16 1017 82 10000 6.2 100 15:41 12.11.2019
4289 Clouds 17 1017 82 10000 6.2 100 15:21 12.11.2019
4290 Clouds 19 1017 77 10000 5.1 120 14:56 12.11.2019
4291 Clouds 19 1017 68 10000 6.7 120 14:37 12.11.2019
4292 Clouds 20 1017 68 10000 6.7 120 14:18 12.11.2019
4293 Clouds 20 1017 56 10000 5.7 130 13:56 12.11.2019
4294 Clouds 20 1018 68 10000 5.1 140 13:36 12.11.2019
4295 Clear 20 1018 68 10000 5.1 140 13:18 12.11.2019
4296 Clouds 20 1018 77 10000 5.1 130 12:42 12.11.2019
4297 Clouds 20 1018 77 10000 5.1 130 12:42 12.11.2019
4298 Clouds 20 1018 77 10000 5.1 130 12:19 12.11.2019
4299 Clouds 20 1019 77 10000 5.7 130 11:58 12.11.2019
4300 Clouds 19 1019 82 10000 4.6 130 11:39 12.11.2019
4301 Clouds 19 1019 82 10000 4.6 130 11:21 12.11.2019
4302 Clouds 19 1019 82 10000 5.7 120 10:56 12.11.2019
4303 Clouds 19 1019 82 10000 5.1 120 10:37 12.11.2019
4304 Clouds 19 1019 82 10000 5.1 120 10:19 12.11.2019
4305 Clouds 17 1019 82 10000 5.1 100 09:40 12.11.2019
4306 Clouds 17 1019 82 10000 5.1 100 09:21 12.11.2019
4307 Clouds 16 1019 88 10000 5.1 110 08:51 12.11.2019
4308 Clouds 16 1020 88 7000 4.1 100 08:30 12.11.2019
4309 Mist 15 1019 100 5000 4.04 112 07:45 12.11.2019
4310 Mist 14 1019 100 5000 4.04 112 07:26 12.11.2019
4311 Mist 13 1019 100 5000 4.04 112 06:58 12.11.2019
4312 Mist 14 1019 100 5000 1.5 90 06:39 12.11.2019
4313 Mist 14 1019 100 5000 1.5 90 06:21 12.11.2019
4314 Fog 13 1019 100 500 4.04 112 05:43 12.11.2019
4315 Clouds 14 1019 100 10000 2.67 123 04:41 12.11.2019
4316 Clouds 12 1019 93 10000 1 50 02:51 12.11.2019
4317 Clouds 12 1019 93 10000 1 60 01:39 12.11.2019
4318 Clouds 12 1019 93 10000 1 60 01:19 12.11.2019
4319 Clear 12 1019 93 10000 3.33 138 00:44 12.11.2019
4320 Clear 12 1019 93 10000 3.33 138 00:21 12.11.2019
4321 Clouds 12 1019 93 10000 2.6 10 23:42 11.11.2019
4322 Clouds 12 1019 93 10000 2.6 10 23:21 11.11.2019
4323 Clouds 13 1019 93 10000 3.71 133 22:39 11.11.2019
4324 Clouds 12 1019 93 10000 3.71 133 22:20 11.11.2019
4325 Clear 12 1019 100 10000 2.1 110 21:59 11.11.2019
4326 Clear 13 1019 93 10000 2.1 60 21:39 11.11.2019
4327 Clear 13 1019 93 10000 2.1 60 21:21 11.11.2019
4328 Clear 12 1019 87 10000 0.5 0 20:59 11.11.2019
4329 Clear 12 1019 93 10000 2.1 80 20:41 11.11.2019
4330 Clear 12 1019 93 10000 2.1 80 20:20 11.11.2019
4331 Clouds 12 1019 93 10000 2.1 100 19:56 11.11.2019
4332 Clouds 13 1019 82 10000 1.5 70 19:37 11.11.2019
4333 Clouds 13 1019 82 10000 1.5 70 19:18 11.11.2019
4334 Clouds 13 1019 71 10000 0.5 0 18:41 11.11.2019
4335 Clouds 14 1019 71 10000 0.5 0 18:21 11.11.2019
4336 Clouds 14 1019 67 10000 1.5 30 17:46 11.11.2019
4337 Clouds 14 1019 67 10000 1.5 30 17:28 11.11.2019
4338 Clear 15 1018 71 10000 3.6 100 16:59 11.11.2019
4339 Clear 15 1018 58 10000 3.6 110 16:39 11.11.2019
4340 Clear 15 1018 58 10000 3.6 110 16:20 11.11.2019
4341 Clear 19 1018 45 10000 4.1 110 15:42 11.11.2019
4342 Clear 19 1018 45 10000 4.1 110 15:20 11.11.2019
4343 Clear 19 1018 48 10000 5.1 110 14:57 11.11.2019
4344 Clear 19 1018 45 10000 3.6 0 14:39 11.11.2019
4345 Clear 19 1018 45 10000 3.6 0 14:21 11.11.2019
4346 Clear 21 1018 52 10000 5.7 120 13:57 11.11.2019
4347 Clear 20 1018 43 10000 3.6 200 13:37 11.11.2019
4348 Clear 20 1018 43 10000 3.6 200 13:37 11.11.2019
4349 Clear 20 1018 43 10000 3.6 200 13:19 11.11.2019
4350 Clear 22 1018 35 10000 3.6 220 12:55 11.11.2019
4351 Clear 22 1018 37 10000 3.1 200 12:37 11.11.2019
4352 Clear 22 1018 37 10000 3.1 200 12:19 11.11.2019
4353 Clear 20 1018 45 10000 3.6 180 11:41 11.11.2019
4354 Clear 20 1018 45 10000 3.6 180 11:21 11.11.2019
4355 Clear 19 1019 52 10000 2.6 260 10:44 11.11.2019
4356 Clear 19 1019 52 10000 2.6 260 10:20 11.11.2019
4357 Clear 19 1019 52 10000 2.6 260 10:20 11.11.2019
4358 Clear 18 1019 55 10000 2.6 220 09:59 11.11.2019
4359 Clear 17 1019 59 10000 2.1 250 09:41 11.11.2019
4360 Clear 17 1019 59 10000 2.1 250 09:20 11.11.2019
4361 Clear 15 1019 76 10000 1 0 08:43 11.11.2019
4362 Clear 15 1019 76 10000 1 0 08:23 11.11.2019
4363 Clear 14 1019 82 10000 1 0 07:57 11.11.2019
4364 Clear 14 1019 82 10000 1 0 07:57 11.11.2019
4365 Clear 13 1018 81 10000 0.5 0 07:39 11.11.2019
4366 Clear 13 1018 81 10000 0.5 0 07:19 11.11.2019
4367 Clear 12 1018 81 10000 0.5 0 06:56 11.11.2019
4368 Clear 12 1017 87 10000 1.5 290 06:37 11.11.2019
4369 Clear 11 1017 87 10000 1.5 290 06:19 11.11.2019
4370 Clear 11 1017 87 10000 2.6 260 05:43 11.11.2019
4371 Clear 13 1016 82 10000 3.1 260 03:27 11.11.2019
4372 Clouds 13 1016 82 10000 2.6 0 02:33 11.11.2019
4373 Clear 13 1016 87 10000 2.1 290 01:58 11.11.2019
4374 Clear 15 1015 87 10000 2.1 290 01:36 11.11.2019
4375 Clouds 15 1015 82 10000 1.5 330 00:54 11.11.2019
4376 Clouds 16 1015 82 10000 3.1 300 00:33 11.11.2019
4377 Clouds 16 1015 77 10000 3.1 0 23:57 10.11.2019
4378 Clouds 17 1014 72 10000 3.6 200 23:37 10.11.2019
4379 Clouds 17 1014 72 10000 3.6 200 23:19 10.11.2019
4380 Clouds 17 1014 72 10000 5.7 210 22:55 10.11.2019
4381 Clouds 17 1014 72 10000 5.7 210 22:55 10.11.2019
4382 Clouds 17 1014 72 10000 5.1 210 22:36 10.11.2019
4383 Clouds 17 1014 72 10000 5.1 210 22:18 10.11.2019
4384 Clouds 16 1014 82 10000 2.6 320 21:54 10.11.2019
4385 Clouds 17 1014 77 10000 0.5 0 21:36 10.11.2019
4386 Clouds 16 1014 77 10000 0.5 0 21:18 10.11.2019
4387 Clouds 17 1014 72 10000 3.1 190 20:40 10.11.2019
4388 Clouds 16 1014 72 10000 3.1 190 20:21 10.11.2019
4389 Rain 16 1014 77 10000 3.6 160 19:56 10.11.2019
4390 Rain 16 1013 82 10000 3.6 130 19:37 10.11.2019
4391 Rain 16 1013 82 10000 3.6 130 19:18 10.11.2019
4392 Rain 17 1013 82 10000 4.1 140 18:56 10.11.2019
4393 Rain 17 1013 82 10000 4.1 140 18:56 10.11.2019
4394 Clouds 17 1013 77 10000 2.6 140 18:38 10.11.2019
4395 Clouds 17 1013 77 10000 2.6 140 18:19 10.11.2019
4396 Clouds 17 1013 77 10000 3.1 150 17:56 10.11.2019
4397 Clouds 17 1013 77 10000 3.6 140 17:37 10.11.2019
4398 Clouds 17 1013 77 10000 3.6 140 17:19 10.11.2019
4399 Clouds 17 1012 77 10000 4.1 130 16:56 10.11.2019
4400 Clouds 18 1012 68 10000 3.1 130 16:37 10.11.2019
4401 Clouds 18 1012 68 10000 3.1 130 16:37 10.11.2019
4402 Clouds 18 1012 68 10000 3.1 130 16:19 10.11.2019
4403 Clouds 19 1012 60 10000 4.1 160 15:54 10.11.2019
4404 Clouds 19 1012 60 10000 5.1 150 15:36 10.11.2019
4405 Clouds 20 1012 60 10000 5.1 150 15:18 10.11.2019
4406 Clouds 20 1012 56 10000 6.2 140 14:40 10.11.2019
4407 Clouds 21 1012 56 10000 6.2 140 14:22 10.11.2019
4408 Clouds 22 1012 53 10000 5.1 180 13:56 10.11.2019
4409 Clouds 22 1012 46 10000 4.6 180 13:38 10.11.2019
4410 Clouds 22 1012 46 10000 4.6 180 13:19 10.11.2019
4411 Clouds 22 1012 46 10000 5.7 210 12:42 10.11.2019
4412 Clouds 22 1012 46 10000 5.7 210 12:20 10.11.2019
4413 Clouds 22 1012 46 10000 6.2 200 11:57 10.11.2019
4414 Clouds 22 1013 49 10000 6.7 190 11:38 10.11.2019
4415 Clouds 21 1013 49 10000 6.7 190 11:20 10.11.2019
4416 Clouds 21 1013 56 10000 6.2 180 10:42 10.11.2019
4417 Clouds 21 1013 56 10000 6.2 180 10:22 10.11.2019
4418 Clouds 21 1013 52 10000 6.7 170 09:59 10.11.2019
4419 Clouds 20 1014 56 10000 4.1 140 09:40 10.11.2019
4420 Clouds 20 1014 56 10000 4.1 140 09:21 10.11.2019
4421 Clouds 18 1014 72 10000 2.1 140 08:40 10.11.2019
4422 Clouds 18 1014 72 10000 2.1 140 08:21 10.11.2019
4423 Clouds 17 1014 77 10000 2.6 130 07:53 10.11.2019
4424 Clouds 16 1014 87 10000 1.5 110 07:34 10.11.2019
4425 Clouds 13 1014 87 10000 3.1 130 06:59 10.11.2019
4426 Clouds 12 1014 93 10000 2.6 90 06:22 10.11.2019
4427 Clear 13 1014 93 10000 3.1 120 03:55 10.11.2019
4428 Clear 14 1014 93 10000 2.6 150 02:51 10.11.2019
4429 Clear 14 1014 93 10000 2.6 140 01:41 10.11.2019
4430 Clear 14 1014 93 10000 2.6 140 01:18 10.11.2019
4431 Clear 15 1014 93 7000 3.1 130 00:37 10.11.2019
4432 Clear 15 1015 77 10000 2.1 130 23:42 09.11.2019
4433 Clear 15 1015 77 10000 2.1 130 23:20 09.11.2019
4434 Clear 15 1015 87 10000 2.6 120 22:54 09.11.2019
4435 Clear 15 1015 93 10000 3.1 110 22:36 09.11.2019
4436 Clear 15 1015 93 10000 3.1 110 22:18 09.11.2019
4437 Clear 15 1015 93 10000 2.1 120 21:54 09.11.2019
4438 Clear 15 1015 93 10000 3.6 110 21:36 09.11.2019
4439 Clear 15 1015 93 10000 3.6 110 21:18 09.11.2019
4440 Clear 15 1015 93 10000 3.1 130 20:41 09.11.2019
4441 Clear 15 1015 93 10000 3.1 130 20:41 09.11.2019
4442 Clouds 15 1015 93 10000 3.1 130 20:21 09.11.2019
4443 Clouds 16 1015 82 10000 3.1 130 19:55 09.11.2019
4444 Clouds 16 1015 82 10000 2.6 130 19:36 09.11.2019
4445 Clouds 16 1015 82 10000 2.6 130 19:18 09.11.2019
4446 Clouds 17 1015 77 10000 3.6 130 18:39 09.11.2019
4447 Clouds 17 1015 77 10000 3.6 130 18:39 09.11.2019
4448 Clouds 17 1015 77 10000 4.1 140 18:19 09.11.2019
4449 Clouds 17 1015 77 10000 4.6 120 17:44 09.11.2019
4450 Clouds 17 1015 77 10000 4.6 120 17:23 09.11.2019
4451 Clouds 17 1015 82 10000 3.6 120 16:59 09.11.2019
4452 Clouds 18 1015 72 10000 3.6 140 16:41 09.11.2019
4453 Clouds 18 1015 72 10000 3.6 140 16:20 09.11.2019
4454 Clouds 19 1015 77 10000 4.6 120 15:54 09.11.2019
4455 Clouds 20 1015 72 10000 5.1 120 15:36 09.11.2019
4456 Clouds 20 1015 72 10000 5.1 120 15:18 09.11.2019
4457 Clouds 22 1015 49 10000 4.1 180 14:41 09.11.2019
4458 Clouds 23 1015 49 10000 4.1 180 14:20 09.11.2019
4459 Clouds 23 1015 49 10000 4.6 210 13:57 09.11.2019
4460 Clouds 23 1015 46 10000 4.1 200 13:36 09.11.2019
4461 Clouds 23 1015 46 10000 4.1 200 13:18 09.11.2019
4462 Clouds 23 1015 47 10000 4.6 210 12:44 09.11.2019
4463 Clouds 23 1015 47 10000 4.6 210 12:25 09.11.2019
4464 Clouds 23 1015 46 10000 5.7 200 11:56 09.11.2019
4465 Clouds 23 1015 53 10000 3.1 190 11:38 09.11.2019
4466 Clouds 22 1015 53 10000 3.1 190 11:18 09.11.2019
4467 Clouds 21 1016 60 10000 2.6 170 10:41 09.11.2019
4468 Clouds 21 1016 60 10000 2.6 170 10:19 09.11.2019
4469 Clouds 20 1016 68 10000 2.1 180 09:57 09.11.2019
4470 Clouds 20 1016 68 10000 2.1 180 09:56 09.11.2019
4471 Clouds 20 1016 64 10000 2.1 190 09:38 09.11.2019
4472 Clouds 20 1016 64 10000 2.1 190 09:18 09.11.2019
4473 Clear 19 1016 68 10000 0.5 0 08:43 09.11.2019
4474 Clear 19 1016 68 10000 0.5 0 08:24 09.11.2019
4475 Clear 17 1016 82 10000 0.5 110 07:46 09.11.2019
4476 Clear 16 1016 82 10000 0.5 110 07:24 09.11.2019
4477 Clear 15 1016 87 10000 1.5 60 06:50 09.11.2019
4478 Clear 14 1015 82 10000 2.1 90 06:32 09.11.2019
4479 Clear 13 1015 100 10000 1 50 05:47 09.11.2019
4480 Clear 13 1015 100 10000 0.5 130 05:23 09.11.2019
4481 Clouds 14 1015 93 10000 3 215 03:57 09.11.2019
4482 Clear 14 1014 87 10000 2.6 120 02:45 09.11.2019
4483 Clear 14 1014 87 10000 1.5 60 01:55 09.11.2019
4484 Clear 15 1014 93 10000 2.6 130 00:54 09.11.2019
4485 Clear 14 1014 93 10000 2.1 120 00:36 09.11.2019
4486 Clear 15 1014 87 10000 1 0 23:58 08.11.2019
4487 Clear 16 1014 87 10000 3.74 191 23:39 08.11.2019
4488 Clear 16 1014 87 10000 1.77 236 23:20 08.11.2019
4489 Clear 16 1014 93 10000 1.5 300 22:48 08.11.2019
4490 Clear 16 1014 93 10000 1.5 300 22:48 08.11.2019
4491 Clear 17 1014 87 10000 1.5 330 22:22 08.11.2019
4492 Clear 17 1014 87 10000 1 0 21:57 08.11.2019
4493 Clear 17 1014 82 10000 2.6 40 21:39 08.11.2019
4494 Clear 16 1014 82 10000 2.6 40 21:19 08.11.2019
4495 Clear 16 1014 82 10000 1.5 360 20:43 08.11.2019
4496 Clear 16 1014 82 10000 1.5 360 20:22 08.11.2019
4497 Clear 16 1014 87 10000 2.1 350 19:59 08.11.2019
4498 Clear 16 1014 88 10000 2.1 150 19:39 08.11.2019
4499 Clear 16 1014 88 10000 2.1 150 19:18 08.11.2019
4500 Clear 16 1013 88 10000 2.6 110 18:56 08.11.2019
4501 Clear 16 1013 88 10000 2.6 110 18:56 08.11.2019
4502 Clear 16 1013 88 10000 2.6 110 18:56 08.11.2019
4503 Clear 17 1013 82 10000 4.1 120 18:38 08.11.2019
4504 Clear 17 1013 82 10000 4.1 120 18:38 08.11.2019
4505 Clear 17 1013 82 10000 4.1 120 18:19 08.11.2019
4506 Clear 16 1013 88 10000 4.6 110 17:55 08.11.2019
4507 Clear 16 1013 87 10000 4.6 100 17:37 08.11.2019
4508 Clear 16 1013 87 10000 4.6 100 17:19 08.11.2019
4509 Clear 17 1013 82 10000 4.6 110 16:58 08.11.2019
4510 Clear 18 1013 77 10000 4.6 100 16:39 08.11.2019
4511 Clear 18 1013 77 10000 4.6 100 16:39 08.11.2019
4512 Clear 18 1013 77 10000 4.6 100 16:19 08.11.2019
4513 Clear 19 1012 72 10000 4.6 110 15:57 08.11.2019
4514 Clear 20 1012 60 10000 4.6 100 15:38 08.11.2019
4515 Clear 21 1012 60 10000 4.6 100 15:20 08.11.2019
4516 Clouds 21 1012 60 10000 4.6 100 14:55 08.11.2019
4517 Clouds 22 1012 60 10000 5.1 100 14:36 08.11.2019
4518 Clouds 22 1012 60 10000 5.1 100 14:18 08.11.2019
4519 Clouds 22 1012 56 10000 4.6 110 13:43 08.11.2019
4520 Clouds 23 1012 56 10000 4.6 110 13:22 08.11.2019
4521 Clouds 23 1012 53 10000 5.1 120 12:58 08.11.2019
4522 Clouds 22 1012 60 10000 4.6 110 12:39 08.11.2019
4523 Clouds 24 1012 60 10000 4.1 110 12:21 08.11.2019
4524 Clouds 24 1012 60 10000 4.1 110 11:55 08.11.2019
4525 -273 0 0 0 0 0 11:55 08.11.2019
4526 Clouds 23 1012 64 10000 3.6 120 11:37 08.11.2019
4527 Clouds 22 1012 64 10000 3.6 120 11:19 08.11.2019
4528 Clouds 21 1013 64 10000 0.5 0 10:43 08.11.2019
4529 Clouds 22 1013 64 10000 0.5 0 10:22 08.11.2019
4530 Clouds 19 1013 68 10000 0.5 0 09:59 08.11.2019
4531 Clouds 19 1013 68 10000 4.66 196 09:40 08.11.2019
4532 Clouds 19 1013 68 10000 4.66 196 09:19 08.11.2019
4533 Clouds 17 1013 77 10000 1.5 270 08:46 08.11.2019
4534 Clouds 17 1013 77 10000 1.5 270 08:25 08.11.2019
4535 Clouds 16 1013 87 10000 1 320 07:57 08.11.2019
4536 Clouds 16 1013 93 10000 1 0 07:38 08.11.2019
4537 Clouds 16 1013 93 10000 1 0 07:19 08.11.2019
4538 Fog 13 1012 93 10000 1.5 40 06:38 08.11.2019
4539 Clouds 12 1012 100 10000 1 0 06:20 08.11.2019
4540 Clouds 14 1012 93 10000 0.5 0 05:38 08.11.2019
4541 Clouds 13 1011 93 10000 1.5 10 04:30 08.11.2019
4542 Clouds 13 1011 93 10000 1.5 0 03:43 08.11.2019
4543 Clouds 13 1011 93 10000 1.5 0 03:19 08.11.2019
4544 Clouds 14 1011 93 10000 2.6 360 02:24 08.11.2019
4545 Clouds 14 1011 93 10000 1 30 01:42 08.11.2019
4546 Clouds 14 1011 87 10000 1.5 30 00:59 08.11.2019
4547 Clouds 13 1011 87 10000 1 0 00:24 08.11.2019
4548 Clouds 13 1011 93 10000 1 0 23:55 07.11.2019
4549 Clouds 14 1011 87 10000 0.5 0 23:33 07.11.2019
4550 Clouds 14 1011 87 10000 2.1 90 22:59 07.11.2019
4551 Clouds 15 1011 87 10000 3.1 110 22:41 07.11.2019
4552 Clouds 15 1011 87 10000 3.1 110 22:21 07.11.2019
4553 Clouds 15 1011 87 10000 1.5 40 21:55 07.11.2019
4554 Clouds 15 1011 82 10000 1.5 350 21:37 07.11.2019
4555 Clouds 15 1011 82 10000 1.5 350 21:18 07.11.2019
4556 Clouds 15 1011 82 10000 1.5 350 21:18 07.11.2019
4557 Clouds 15 1011 77 10000 2.1 100 20:55 07.11.2019
4558 Clouds 15 1011 82 10000 1.5 100 20:36 07.11.2019
4559 Clouds 15 1011 82 10000 1.5 100 20:18 07.11.2019
4560 Clouds 15 1010 82 10000 1.5 80 19:40 07.11.2019
4561 Clouds 15 1010 82 10000 1.5 80 19:21 07.11.2019
4562 Clouds 16 1010 72 10000 2.1 360 18:58 07.11.2019
4563 Clouds 16 1010 72 10000 2.1 360 18:58 07.11.2019
4564 Clouds 17 1010 77 10000 2.1 80 18:39 07.11.2019
4565 Clouds 17 1010 77 10000 2.1 80 18:39 07.11.2019
4566 Clouds 17 1010 77 10000 2.1 80 18:39 07.11.2019
4567 Clouds 17 1010 77 10000 2.1 80 18:19 07.11.2019
4568 Clouds 17 1009 77 10000 3.1 120 17:59 07.11.2019
4569 Clouds 18 1009 64 10000 2.1 190 17:38 07.11.2019
4570 Clear 18 1009 64 10000 2.1 190 17:20 07.11.2019
4571 Clear 19 1009 64 10000 1 300 16:55 07.11.2019
4572 Clear 20 1009 56 10000 2.6 310 16:37 07.11.2019
4573 Clear 20 1009 56 10000 2.6 310 16:19 07.11.2019
4574 Clear 21 1009 56 10000 3.6 240 15:43 07.11.2019
4575 Clear 22 1009 50 10000 4.1 230 15:21 07.11.2019
4576 Clear 22 1009 50 10000 5.7 250 14:59 07.11.2019
4577 Clear 22 1009 50 10000 5.7 250 14:39 07.11.2019
4578 Clear 23 1009 47 10000 6.7 250 14:21 07.11.2019
4579 Clear 23 1008 47 10000 7.2 240 13:55 07.11.2019
4580 Clear 23 1008 47 10000 8.7 230 13:37 07.11.2019
4581 Clouds 23 1008 47 10000 8.7 230 13:19 07.11.2019
4582 Clouds 23 1008 47 10000 9.3 230 12:57 07.11.2019
4583 Clouds 23 1008 47 10000 9.3 230 12:38 07.11.2019
4584 Clouds 23 1008 47 10000 7.7 240 12:18 07.11.2019
4585 Clouds 22 1009 47 10000 8.2 250 11:42 07.11.2019
4586 Clouds 22 1009 47 10000 8.2 250 11:42 07.11.2019
4587 Clouds 22 1009 53 10000 6.2 230 11:23 07.11.2019
4588 Clouds 22 1009 53 10000 6.2 230 11:23 07.11.2019
4589 Clouds 22 1009 53 10000 6.7 210 10:43 07.11.2019
4590 Clouds 21 1009 56 10000 6.7 220 10:20 07.11.2019
4591 Clouds 20 1009 68 10000 2.1 0 09:57 07.11.2019
4592 Clouds 20 1009 68 10000 2.1 0 09:38 07.11.2019
4593 Clouds 20 1009 68 10000 0.5 0 09:20 07.11.2019
4594 -273 0 0 0 0 0 08:45 07.11.2019
4595 Clouds 19 1009 77 10000 1.5 160 08:45 07.11.2019
4596 -273 0 0 0 0 0 08:24 07.11.2019
4597 -273 0 0 0 0 0 08:24 07.11.2019
4598 Clouds 17 1009 88 10000 2.6 170 07:58 07.11.2019
4599 Clouds 17 1009 88 10000 2.6 170 07:40 07.11.2019
4600 Clouds 16 1010 88 10000 2.1 120 07:20 07.11.2019
4601 Clouds 15 1009 87 10000 3.1 140 06:46 07.11.2019
4602 Clouds 15 1009 87 10000 3.1 140 06:46 07.11.2019
4603 Clouds 15 1009 93 10000 2.6 120 06:25 07.11.2019
4604 Clouds 15 1009 93 10000 3.1 130 05:50 07.11.2019
4605 Clouds 14 1009 93 10000 3.6 100 05:31 07.11.2019
4606 Clouds 13 1010 93 10000 2.1 100 04:52 07.11.2019
4607 Clouds 14 1010 93 10000 2.1 110 04:29 07.11.2019
4608 Clouds 14 1010 93 10000 1.5 30 01:32 07.11.2019
4609 Clouds 14 1010 93 10000 1.5 20 00:41 07.11.2019
4610 -273 0 0 0 0 0 00:18 07.11.2019
4611 Clouds 15 1010 93 10000 1 0 23:43 06.11.2019
4612 Clouds 15 1010 93 10000 1 360 23:20 06.11.2019
4613 Clouds 15 1010 87 10000 1.5 360 22:40 06.11.2019
4614 Clouds 15 1010 87 10000 1 0 22:21 06.11.2019
4615 Clouds 15 1010 87 10000 1 0 21:58 06.11.2019
4616 Clouds 15 1010 87 10000 1 0 21:58 06.11.2019
4617 Clouds 15 1010 87 10000 1 0 21:39 06.11.2019
4618 Clouds 16 1009 82 10000 6.83 216 21:20 06.11.2019
4619 Clouds 16 1009 72 10000 1.5 110 20:57 06.11.2019
4620 Clouds 16 1009 72 10000 1.5 110 20:39 06.11.2019
4621 Clear 16 1009 77 10000 2.6 120 20:20 06.11.2019
4622 Clear 17 1009 72 10000 2.6 160 19:57 06.11.2019
4623 Clear 17 1009 68 10000 2.6 190 19:37 06.11.2019
4624 Clear 17 1009 68 10000 2.6 190 19:19 06.11.2019
4625 Clear 17 1009 68 10000 2.6 200 18:55 06.11.2019
4626 Clear 18 1009 64 10000 2.6 210 18:37 06.11.2019
4627 Clear 19 1009 64 10000 3.1 220 18:18 06.11.2019
4628 Clear 18 1009 64 10000 2.6 240 17:42 06.11.2019
4629 Clear 18 1009 64 10000 2.6 240 17:23 06.11.2019
4630 Clear 19 1008 56 10000 1 0 16:57 06.11.2019
4631 Clear 19 1008 52 10000 4.6 240 16:39 06.11.2019
4632 Clear 21 1008 52 10000 4.6 240 16:21 06.11.2019
4633 Clear 21 1008 53 10000 4.1 240 15:58 06.11.2019
4634 Clear 22 1008 46 10000 4.6 240 15:38 06.11.2019
4635 Clear 22 1008 46 10000 4.6 240 15:19 06.11.2019
4636 Clear 22 1008 49 10000 5.1 250 14:57 06.11.2019
4637 Clear 23 1008 47 10000 6.2 230 14:39 06.11.2019
4638 Clouds 23 1008 47 10000 6.2 230 14:20 06.11.2019
4639 Clouds 24 1007 44 10000 6.2 240 13:58 06.11.2019
4640 Clouds 24 1007 44 10000 5.7 250 13:37 06.11.2019
4641 Clouds 24 1007 44 10000 5.7 250 13:18 06.11.2019
4642 Clouds 24 1007 41 10000 5.7 230 12:55 06.11.2019
4643 Clouds 24 1007 44 10000 6.2 250 12:37 06.11.2019
4644 Clouds 24 1007 44 10000 6.2 250 12:18 06.11.2019
4645 Clouds 22 1008 41 10000 6.2 250 11:55 06.11.2019
4646 Clouds 22 1008 44 10000 6.2 250 11:36 06.11.2019
4647 Clear 22 1008 44 10000 6.2 250 11:18 06.11.2019
4648 Clear 21 1008 53 10000 6.2 250 10:42 06.11.2019
4649 Clear 21 1008 53 10000 6.2 250 10:24 06.11.2019
4650 Clear 20 1008 52 10000 7.7 250 09:58 06.11.2019
4651 Clear 19 1009 56 10000 2.6 290 09:40 06.11.2019
4652 Clear 18 1009 68 10000 2.1 320 09:20 06.11.2019
4653 Clear 18 1009 68 10000 2.1 320 08:55 06.11.2019
4654 Clear 18 1009 68 10000 6.41 213 08:37 06.11.2019
4655 Clear 18 1009 68 10000 6.08 210 08:18 06.11.2019
4656 Clear 18 1009 68 10000 6.08 210 08:18 06.11.2019
4657 Clear 16 1008 77 10000 2.1 90 07:44 06.11.2019
4658 Clear 16 1008 77 10000 2.1 90 07:26 06.11.2019
4659 Clear 15 1008 72 10000 1 0 06:49 06.11.2019
4660 Clear 14 1008 82 10000 1.5 360 06:30 06.11.2019
4661 Clear 14 1008 82 10000 2.1 10 05:37 06.11.2019
4662 Clear 12 1009 81 10000 0.5 0 03:22 06.11.2019
4663 Clear 13 1009 87 10000 1 0 01:42 06.11.2019
4664 Clear 13 1009 81 10000 2.1 0 00:46 06.11.2019
4665 Clear 13 1009 87 10000 1.5 100 23:59 05.11.2019
4666 Clear 14 1009 82 10000 2.1 30 23:40 05.11.2019
4667 Clear 14 1009 82 10000 2.1 30 23:22 05.11.2019
4668 Clear 14 1009 76 10000 2.1 160 22:57 05.11.2019
4669 Clear 14 1010 77 10000 2.1 130 22:38 05.11.2019
4670 Clear 14 1010 77 10000 2.1 130 22:18 05.11.2019
4671 Clear 15 1010 72 10000 0.5 0 21:43 05.11.2019
4672 Clear 15 1010 72 10000 0.5 0 21:22 05.11.2019
4673 Clear 15 1010 72 10000 2.1 180 20:59 05.11.2019
4674 Clear 14 1010 87 10000 1.5 130 20:39 05.11.2019
4675 Clear 14 1010 87 10000 1.5 130 20:21 05.11.2019
4676 Clear 16 1010 72 10000 0.5 0 19:58 05.11.2019
4677 Clear 16 1010 72 10000 0.5 0 19:58 05.11.2019
4678 Clear 15 1010 77 10000 1.5 60 19:38 05.11.2019
4679 Clear 14 1010 77 10000 1.5 60 19:20 05.11.2019
4680 Clear 16 1010 72 10000 1.5 120 18:58 05.11.2019
4681 Clear 15 1010 77 10000 2.6 120 18:39 05.11.2019
4682 Clear 15 1010 77 10000 2.6 120 18:20 05.11.2019
4683 Clear 16 1010 77 10000 3.1 120 17:58 05.11.2019
4684 Clear 15 1010 67 10000 3.6 110 17:39 05.11.2019
4685 Clear 15 1010 67 10000 3.6 110 17:19 05.11.2019
4686 Clear 17 1010 48 10000 1.5 170 16:55 05.11.2019
4687 Clear 18 1010 40 10000 2.1 210 16:37 05.11.2019
4688 Clear 19 1010 40 10000 2.1 210 16:18 05.11.2019
4689 Clear 21 1010 40 10000 4.1 240 15:38 05.11.2019
4690 Clear 21 1010 40 10000 4.1 240 15:19 05.11.2019
4691 Clouds 21 1010 40 10000 5.1 240 14:58 05.11.2019
4692 Clouds 21 1010 53 10000 4.6 150 14:39 05.11.2019
4693 Clouds 22 1010 53 10000 4.6 150 14:21 05.11.2019
4694 Clouds 22 1010 49 10000 5.7 110 13:44 05.11.2019
4695 Clouds 22 1010 49 10000 5.7 110 13:25 05.11.2019
4696 Clouds 22 1010 46 10000 4.6 130 12:59 05.11.2019
4697 Clouds 23 1010 40 10000 3.1 250 12:39 05.11.2019
4698 Clouds 23 1010 40 10000 3.1 250 12:39 05.11.2019
4699 Clouds 22 1010 40 10000 3.1 250 12:20 05.11.2019
4700 Clouds 22 1011 40 10000 4.1 260 11:55 05.11.2019
4701 Clouds 22 1011 43 10000 3.1 250 11:36 05.11.2019
4702 Clouds 22 1011 43 10000 3.1 250 11:18 05.11.2019
4703 Clouds 21 1011 49 10000 3.6 240 10:42 05.11.2019
4704 Clouds 21 1011 49 10000 3.6 240 10:42 05.11.2019
4705 Clouds 21 1011 49 10000 3.6 240 10:23 05.11.2019
4706 Clear 20 1011 52 10000 3.1 270 09:57 05.11.2019
4707 Clear 20 1011 52 10000 3.1 270 09:57 05.11.2019
4708 Clear 20 1011 60 10000 4.6 260 09:38 05.11.2019
4709 Clear 20 1011 60 10000 4.6 260 09:19 05.11.2019
4710 Clouds 18 1011 82 10000 2.6 270 08:41 05.11.2019
4711 Clouds 17 1011 82 10000 2.6 270 08:21 05.11.2019
4712 Clouds 16 1011 87 10000 2.1 280 07:59 05.11.2019
4713 Clouds 16 1011 93 10000 0.5 300 07:41 05.11.2019
4714 Clouds 16 1011 93 10000 0.5 300 07:23 05.11.2019
4715 Clouds 14 1010 93 10000 2.1 350 06:51 05.11.2019
4716 Clouds 12 1010 93 10000 1.5 350 05:51 05.11.2019
4717 Clouds 13 1009 93 10000 1.5 350 05:29 05.11.2019
4718 Rain 14 1008 82 10000 2.6 240 04:47 05.11.2019
4719 Rain 16 1008 77 10000 2.6 240 03:58 05.11.2019
4720 Rain 16 1007 82 10000 1 0 02:59 05.11.2019
4721 Rain 16 1007 77 10000 1.5 280 02:41 05.11.2019
4722 Rain 17 1007 77 10000 1 0 01:26 05.11.2019
4723 Clouds 18 1007 77 10000 1.5 240 00:38 05.11.2019
4724 Clouds 18 1007 72 10000 3.6 220 23:59 04.11.2019
4725 Clouds 19 1007 72 10000 3.6 220 23:40 04.11.2019
4726 Clouds 19 1007 72 10000 3.6 220 23:18 04.11.2019
4727 Clouds 20 1007 72 10000 5.1 220 22:43 04.11.2019
4728 Clouds 19 1007 72 10000 5.1 220 22:24 04.11.2019
4729 Rain 19 1007 64 10000 5.7 220 21:57 04.11.2019
4730 Clouds 19 1007 64 10000 4.1 200 21:38 04.11.2019
4731 Clouds 20 1007 64 10000 4.1 200 21:20 04.11.2019
4732 Clouds 20 1006 64 10000 5.7 200 20:59 04.11.2019
4733 Clouds 20 1007 64 10000 5.1 200 20:40 04.11.2019
4734 Clouds 20 1007 64 10000 5.1 200 20:21 04.11.2019
4735 Clouds 20 1007 64 10000 6.2 200 19:59 04.11.2019
4736 Clouds 20 1007 64 10000 7.2 200 19:41 04.11.2019
4737 Clouds 20 1007 64 10000 7.2 200 19:22 04.11.2019
4738 Clouds 20 1007 64 10000 4.6 200 18:58 04.11.2019
4739 Clouds 20 1007 64 10000 6.2 200 18:39 04.11.2019
4740 Clouds 20 1007 64 10000 6.2 200 18:19 04.11.2019
4741 Clouds 20 1007 64 10000 6.2 200 18:19 04.11.2019
4742 Clouds 20 1007 64 10000 6.2 200 17:55 04.11.2019
4743 Clouds 20 1007 64 10000 6.2 200 17:55 04.11.2019
4744 Clouds 20 1007 64 10000 5.1 200 17:36 04.11.2019
4745 Clouds 19 1007 64 10000 5.1 200 17:18 04.11.2019
4746 Clouds 20 1007 64 10000 4.6 200 16:41 04.11.2019
4747 Clouds 19 1007 64 10000 4.6 200 16:23 04.11.2019
4748 Clouds 19 1007 64 10000 6.2 200 15:57 04.11.2019
4749 Clouds 19 1007 64 10000 6.2 210 15:39 04.11.2019
4750 Clouds 20 1007 64 10000 6.2 210 15:19 04.11.2019
4751 Clouds 20 1007 64 10000 6.2 210 14:57 04.11.2019
4752 Clouds 20 1007 60 10000 6.2 200 14:39 04.11.2019
4753 Clouds 20 1007 60 10000 6.2 200 14:19 04.11.2019
4754 Clouds 20 1008 68 10000 5.1 200 13:56 04.11.2019
4755 Rain 20 1008 64 10000 6.2 210 13:38 04.11.2019
4756 Rain 20 1008 64 10000 6.2 210 13:19 04.11.2019
4757 Clouds 20 1008 64 10000 6.2 200 12:44 04.11.2019
4758 Clouds 20 1008 64 10000 6.2 200 12:25 04.11.2019
4759 Rain 19 1009 64 10000 4.6 200 11:58 04.11.2019
4760 Rain 19 1009 64 10000 4.6 200 11:58 04.11.2019
4761 Clouds 19 1009 68 10000 5.7 220 11:40 04.11.2019
4762 Clouds 19 1009 68 10000 5.7 220 11:21 04.11.2019
4763 Clouds 19 1010 68 10000 5.7 210 10:45 04.11.2019
4764 Clouds 18 1010 68 10000 5.7 210 10:26 04.11.2019
4765 Clouds 18 1010 68 10000 2.6 210 09:55 04.11.2019
4766 Clouds 17 1010 72 10000 4.6 170 09:37 04.11.2019
4767 Clouds 18 1010 72 10000 4.6 170 09:18 04.11.2019
4768 Clouds 17 1010 72 10000 3.1 150 08:42 04.11.2019
4769 Clouds 17 1010 72 10000 3.1 150 08:21 04.11.2019
4770 Clouds 17 1010 72 10000 3.1 0 07:45 04.11.2019
4771 Clouds 16 1010 72 10000 3.1 0 07:25 04.11.2019
4772 Clouds 16 1010 72 10000 3.1 0 07:25 04.11.2019
4773 Clouds 15 1010 72 10000 1 0 06:59 04.11.2019
4774 Clouds 15 1010 72 10000 2.6 190 06:36 04.11.2019
4775 Clouds 15 1009 72 10000 2.1 130 05:59 04.11.2019
4776 Clouds 15 1009 72 10000 1 0 05:23 04.11.2019
4777 Clouds 15 1010 67 10000 1.5 230 04:25 04.11.2019
4778 Clouds 15 1010 67 10000 4.6 220 03:23 04.11.2019
4779 Clouds 14 1010 71 10000 2.1 220 01:23 04.11.2019
4780 Clouds 13 1010 81 10000 0.5 0 00:52 04.11.2019
4781 Clouds 14 1010 67 10000 3.6 230 00:21 04.11.2019
4782 Clouds 14 1010 67 10000 3.1 230 23:58 03.11.2019
4783 Clouds 13 1011 81 10000 2.1 70 23:36 03.11.2019
4784 Clouds 13 1011 81 10000 2.1 70 23:18 03.11.2019
4785 Clouds 14 1011 76 10000 2.1 180 22:55 03.11.2019
4786 Clouds 14 1011 72 10000 2.1 0 22:37 03.11.2019
4787 Clouds 15 1011 72 10000 2.1 0 22:18 03.11.2019
4788 Clouds 13 1011 76 10000 3.1 130 21:42 03.11.2019
4789 Clouds 13 1011 76 10000 3.1 130 21:21 03.11.2019
4790 Clouds 14 1012 71 10000 2.6 170 20:57 03.11.2019
4791 Clouds 14 1012 71 10000 2.1 140 20:37 03.11.2019
4792 Clouds 13 1012 71 10000 2.1 140 20:18 03.11.2019
4793 Clouds 13 1012 71 10000 2.1 140 20:18 03.11.2019
4794 Clouds 13 1012 71 10000 1.5 150 19:56 03.11.2019
4795 Clouds 12 1012 81 10000 3.1 100 19:38 03.11.2019
4796 Clouds 12 1012 81 10000 3.1 100 19:19 03.11.2019
4797 Clouds 13 1012 76 10000 3.6 120 18:39 03.11.2019
4798 Clouds 13 1012 76 10000 3.6 120 18:19 03.11.2019
4799 Clouds 14 1012 67 10000 2.6 110 17:59 03.11.2019
4800 Clouds 14 1012 67 10000 2.1 140 17:40 03.11.2019
4801 Clouds 14 1012 67 10000 2.1 140 17:19 03.11.2019
4802 Clouds 15 1012 59 10000 3.1 170 16:56 03.11.2019
4803 Clouds 15 1012 63 10000 3.1 180 16:38 03.11.2019
4804 Clouds 15 1012 63 10000 3.1 180 16:19 03.11.2019
4805 Clouds 15 1012 59 10000 3.6 170 15:56 03.11.2019
4806 Clouds 16 1012 55 10000 3.6 200 15:38 03.11.2019
4807 Clouds 16 1012 55 10000 6.2 210 15:20 03.11.2019
4808 Clouds 17 1012 52 10000 5.7 220 14:41 03.11.2019
4809 Clouds 18 1012 52 10000 5.7 220 14:19 03.11.2019
4810 Clouds 19 1012 52 10000 5.1 200 13:56 03.11.2019
4811 Clouds 19 1012 45 10000 5.1 210 13:37 03.11.2019
4812 Clouds 19 1012 45 10000 5.1 210 13:18 03.11.2019
4813 Clouds 18 1012 48 10000 4.6 200 12:38 03.11.2019
4814 Clouds 18 1012 48 10000 4.6 200 12:19 03.11.2019
4815 Clouds 18 1013 45 10000 4.1 200 11:56 03.11.2019
4816 Clouds 17 1013 51 10000 4.6 190 11:38 03.11.2019
4817 Clouds 17 1013 51 10000 4.6 190 11:19 03.11.2019
4818 Clouds 16 1014 48 10000 3.1 150 10:40 03.11.2019
4819 Clouds 16 1014 48 10000 3.1 150 10:22 03.11.2019
4820 Clouds 16 1014 48 10000 3.1 150 10:22 03.11.2019
4821 Clouds 16 1014 48 10000 3.1 150 10:22 03.11.2019
4822 Clouds 16 1014 48 10000 3.1 150 10:22 03.11.2019
4823 Clouds 15 1014 51 10000 3.1 180 09:58 03.11.2019
4824 Clouds 14 1014 54 10000 3.1 150 09:40 03.11.2019
4825 Clouds 14 1014 54 10000 3.1 150 09:21 03.11.2019
4826 Clouds 12 1015 62 10000 3.6 130 08:43 03.11.2019
4827 Clouds 12 1015 62 10000 3.6 130 08:24 03.11.2019
4828 Clouds 12 1015 62 10000 3.6 130 08:24 03.11.2019
4829 Clouds 11 1015 66 10000 3.6 120 07:46 03.11.2019
4830 Clouds 10 1015 71 10000 3.1 130 07:28 03.11.2019
4831 Clouds 9 1015 81 10000 3.1 110 06:53 03.11.2019
4832 Clouds 8 1015 75 10000 3.1 130 06:34 03.11.2019
4833 Clouds 8 1015 75 10000 4.1 110 05:40 03.11.2019
4834 Clouds 7 1015 87 10000 3.1 120 04:58 03.11.2019
4835 Clouds 8 1016 75 10000 2.6 130 04:38 03.11.2019
4836 Clouds 7 1016 87 10000 2.1 120 03:39 03.11.2019
4837 Clouds 8 1016 75 10000 1.5 110 02:45 03.11.2019
4838 Clouds 9 1016 75 10000 1.5 110 02:20 03.11.2019
4839 Clouds 9 1016 75 10000 1.5 110 02:20 03.11.2019
4840 Clouds 9 1016 81 10000 0.5 0 01:42 03.11.2019
4841 Clouds 9 1016 81 10000 0.5 0 01:20 03.11.2019
4842 Clouds 8 1017 87 10000 2.1 100 00:45 03.11.2019
4843 Clouds 8 1017 87 10000 2.1 100 00:27 03.11.2019
4844 Clouds 8 1017 87 10000 1 0 23:58 02.11.2019
4845 Clouds 8 1017 87 10000 1 0 23:38 02.11.2019
4846 Clear 8 1017 87 10000 1 0 23:19 02.11.2019
4847 Clear 8 1017 87 10000 1.5 30 22:56 02.11.2019
4848 Clear 9 1017 81 10000 1 0 22:37 02.11.2019
4849 Clear 9 1017 81 10000 1 0 22:18 02.11.2019
4850 Clear 9 1018 76 10000 1 0 21:56 02.11.2019
4851 Clear 9 1018 76 10000 1.5 140 21:38 02.11.2019
4852 Clear 8 1018 81 10000 1 0 21:18 02.11.2019
4853 Clear 9 1018 76 10000 1.5 140 21:18 02.11.2019
4854 Clear 9 1018 81 10000 1 0 20:58 02.11.2019
4855 Clear 9 1018 87 10000 6.37 183 20:39 02.11.2019
4856 Clouds 9 1018 87 10000 7.46 166 20:19 02.11.2019
4857 Clouds 9 1018 81 10000 1 0 19:41 02.11.2019
4858 Clouds 9 1018 81 10000 1 0 19:23 02.11.2019
4859 Clouds 9 1018 87 10000 2.1 150 18:56 02.11.2019
4860 Clouds 9 1018 76 10000 2.6 140 18:38 02.11.2019
4861 Clouds 9 1018 76 10000 2.6 140 18:38 02.11.2019
4862 Clouds 9 1018 76 10000 3.1 140 18:20 02.11.2019
4863 Clouds 9 1018 76 10000 3.1 140 18:20 02.11.2019
4864 Clouds 9 1018 76 10000 3.1 140 17:57 02.11.2019
4865 Clouds 10 1018 71 10000 3.6 140 17:38 02.11.2019
4866 Clouds 10 1018 71 10000 3.6 140 17:20 02.11.2019
4867 Clouds 11 1018 71 10000 3.6 150 16:57 02.11.2019
4868 Clouds 11 1018 71 10000 4.1 150 16:36 02.11.2019
4869 Clouds 11 1018 71 10000 4.1 150 16:18 02.11.2019
4870 Clouds 11 1018 71 10000 4.1 150 16:18 02.11.2019
4871 Clouds 12 1019 66 10000 4.6 150 15:41 02.11.2019
4872 Clouds 13 1019 62 10000 4.6 140 15:19 02.11.2019
4873 Clouds 13 1019 58 10000 4.1 160 14:43 02.11.2019
4874 Clouds 13 1019 58 10000 4.1 160 14:23 02.11.2019
4875 Clouds 13 1019 58 10000 5.1 150 13:57 02.11.2019
4876 Clouds 13 1019 58 10000 5.7 150 13:38 02.11.2019
4877 Clouds 13 1019 58 10000 5.7 150 13:38 02.11.2019
4878 Clouds 13 1019 58 10000 5.7 150 13:18 02.11.2019
4879 Clouds 14 1020 58 10000 4.6 160 12:41 02.11.2019
4880 Clouds 13 1020 58 10000 4.6 160 12:22 02.11.2019
4881 Clouds 13 1020 62 10000 6.2 140 11:57 02.11.2019
4882 Clouds 13 1020 62 10000 6.2 160 11:39 02.11.2019
4883 Clouds 13 1020 62 10000 6.2 160 11:20 02.11.2019
4884 Clouds 13 1021 62 10000 6.7 150 10:46 02.11.2019
4885 Clouds 13 1021 62 10000 4.6 150 10:27 02.11.2019
4886 Clouds 12 1021 81 10000 0.5 0 09:57 02.11.2019
4887 Clouds 11 1022 87 10000 1.5 270 09:39 02.11.2019
4888 Clouds 11 1022 87 10000 1.5 270 09:19 02.11.2019
4889 Clouds 10 1022 81 10000 2.1 180 08:44 02.11.2019
4890 Clouds 10 1022 81 10000 2.1 180 08:22 02.11.2019
4891 Clouds 10 1022 81 10000 3.1 140 07:47 02.11.2019
4892 Clouds 10 1022 81 10000 4.1 130 07:28 02.11.2019
4893 Clouds 10 1022 81 10000 4.1 130 07:28 02.11.2019
4894 Rain 8 1023 93 10000 1 0 06:54 02.11.2019
4895 Rain 7 1022 93 8000 1.5 340 06:29 02.11.2019
4896 Rain 6 1022 93 10000 2.1 280 05:56 02.11.2019
4897 Rain 7 1022 87 10000 1 20 04:53 02.11.2019
4898 Clouds 6 1022 93 10000 1 260 04:20 02.11.2019
4899 Clouds 6 1022 93 10000 1 260 03:47 02.11.2019
4900 Rain 7 1023 93 10000 2.1 40 02:40 02.11.2019
4901 Clouds 7 1024 87 10000 1.5 280 01:42 02.11.2019
4902 Clouds 7 1024 87 10000 1.5 280 01:21 02.11.2019
4903 Clouds 7 1024 87 10000 7.25 104 00:43 02.11.2019
4904 Clouds 7 1024 87 10000 7.25 104 00:25 02.11.2019
4905 Rain 7 1024 87 10000 0.5 0 23:46 01.11.2019
4906 Rain 7 1024 87 10000 0.5 0 23:20 01.11.2019
4907 Rain 7 1024 81 10000 1.5 0 22:57 01.11.2019
4908 Clouds 6 1024 81 10000 2.6 90 22:38 01.11.2019
4909 Clouds 7 1024 81 10000 2.6 90 22:20 01.11.2019
4910 Clouds 7 1025 75 10000 0.5 0 21:40 01.11.2019
4911 Clouds 7 1025 75 10000 0.5 0 21:22 01.11.2019
4912 Clouds 7 1025 75 10000 0.5 0 20:56 01.11.2019
4913 Clouds 7 1024 75 10000 1.5 0 20:38 01.11.2019
4914 Clouds 7 1024 75 10000 1.5 0 20:18 01.11.2019
4915 Clouds 7 1024 75 10000 1.5 320 19:42 01.11.2019
4916 Clouds 7 1024 75 10000 1.5 320 19:22 01.11.2019
4917 Clouds 7 1024 75 10000 2.6 290 18:58 01.11.2019
4918 Clouds 7 1024 70 10000 1 0 18:39 01.11.2019
4919 Clouds 7 1024 70 10000 1 0 18:19 01.11.2019
4920 Clouds 7 1024 70 10000 2.1 250 17:41 01.11.2019
4921 Clouds 7 1024 70 10000 2.1 250 17:23 01.11.2019
4922 Clouds 7 1024 65 10000 3.1 250 16:59 01.11.2019
4923 Clouds 7 1024 65 10000 2.6 290 16:36 01.11.2019
4924 Clouds 7 1024 65 10000 2.6 290 16:18 01.11.2019
4925 Clouds 7 1024 61 10000 2.6 350 15:41 01.11.2019
4926 Clouds 7 1024 61 10000 2.6 350 15:22 01.11.2019
4927 Clouds 7 1024 61 10000 4.6 350 14:57 01.11.2019
4928 Rain 7 1024 61 10000 5.1 350 14:39 01.11.2019
4929 Rain 8 1024 61 10000 5.1 350 14:21 01.11.2019
4930 Clouds 8 1024 52 10000 3.1 0 13:55 01.11.2019
4931 Clouds 8 1024 49 10000 3.6 350 13:36 01.11.2019
4932 Clouds 8 1024 49 10000 3.6 350 13:18 01.11.2019
4933 Clouds 7 1023 49 10000 7.7 360 12:42 01.11.2019
4934 Clouds 7 1023 49 10000 7.7 360 12:24 01.11.2019
4935 Clouds 6 1024 52 10000 6.2 360 11:43 01.11.2019
4936 Clouds 6 1024 52 10000 6.2 360 11:24 01.11.2019
4937 Clouds 6 1024 60 10000 7.2 360 10:56 01.11.2019
4938 Clouds 6 1024 56 10000 8.2 360 10:38 01.11.2019
4939 Clouds 6 1024 56 10000 8.2 360 10:19 01.11.2019
4940 Clouds 5 1023 56 10000 9.3 360 09:42 01.11.2019
4941 Clouds 5 1023 56 10000 9.3 360 09:42 01.11.2019
4942 Clouds 5 1023 56 10000 9.3 360 09:23 01.11.2019
4943 Rain 4 1023 60 10000 7.7 360 08:57 01.11.2019
4944 Rain 4 1023 56 10000 7.7 360 08:39 01.11.2019
4945 Rain 4 1023 56 10000 7.7 360 08:20 01.11.2019
4946 Rain 4 1024 52 10000 3.6 10 07:46 01.11.2019
4947 Rain 4 1024 52 10000 3.6 10 07:46 01.11.2019
4948 Rain 4 1024 52 10000 3.6 10 07:22 01.11.2019
4949 Rain 4 1023 60 10000 3.1 0 06:55 01.11.2019
4950 Rain 4 1023 65 10000 5.7 360 06:23 01.11.2019
4951 Rain 4 1022 60 10000 7.2 360 05:57 01.11.2019
4952 Rain 4 1022 65 10000 7.7 360 05:35 01.11.2019
4953 Rain 5 1022 75 10000 7.7 20 03:32 01.11.2019
4954 Rain 5 1022 65 10000 7.7 20 01:48 01.11.2019
4955 Clouds 6 1022 65 10000 7.7 20 00:58 01.11.2019
4956 Clouds 6 1022 65 10000 7.7 20 00:20 01.11.2019
4957 Clouds 6 1022 70 10000 7.7 30 23:44 31.10.2019
4958 Clouds 6 1022 70 10000 7.7 30 23:24 31.10.2019
4959 Clouds 6 1022 70 10000 7.7 20 22:58 31.10.2019
4960 Clouds 6 1022 75 10000 7.7 20 22:40 31.10.2019
4961 Clouds 6 1022 75 10000 7.7 20 22:40 31.10.2019
4962 Clouds 6 1022 75 10000 7.7 20 22:21 31.10.2019
4963 Rain 6 1023 75 10000 5.1 10 21:45 31.10.2019
4964 Rain 6 1023 75 10000 5.1 10 21:23 31.10.2019
4965 Rain 5 1023 87 10000 6.7 10 20:59 31.10.2019
4966 Rain 5 1023 87 10000 7.7 10 20:40 31.10.2019
4967 Rain 5 1023 87 10000 7.7 10 20:22 31.10.2019
4968 Rain 5 1023 87 10000 7.2 10 19:45 31.10.2019
4969 Rain 5 1023 87 10000 7.2 10 19:26 31.10.2019
4970 Rain 5 1023 87 10000 6.7 10 18:58 31.10.2019
4971 Rain 5 1023 87 10000 6.7 10 18:39 31.10.2019
4972 Rain 5 1023 87 10000 6.7 10 18:21 31.10.2019
4973 Rain 5 1023 87 10000 6.7 10 18:21 31.10.2019
4974 Rain 5 1023 87 10000 6.7 10 18:21 31.10.2019
4975 Rain 5 1023 87 10000 7.2 10 17:54 31.10.2019
4976 Rain 5 1023 87 10000 7.2 10 17:36 31.10.2019
4977 Rain 5 1023 87 10000 7.2 10 17:18 31.10.2019
4978 Rain 5 1022 87 10000 6.7 10 16:41 31.10.2019
4979 Rain 6 1022 87 10000 6.7 10 16:20 31.10.2019
4980 Rain 6 1022 87 10000 6.7 20 15:58 31.10.2019
4981 Rain 6 1022 87 10000 6.7 20 15:39 31.10.2019
4982 Rain 6 1022 87 10000 6.7 20 15:20 31.10.2019
4983 Rain 7 1022 87 10000 6.7 20 14:56 31.10.2019
4984 Rain 7 1022 87 10000 7.2 10 14:38 31.10.2019
4985 Rain 7 1022 87 10000 7.2 10 14:20 31.10.2019
4986 Rain 7 1022 87 10000 8.2 10 13:56 31.10.2019
4987 Rain 7 1022 87 10000 7.2 10 13:37 31.10.2019
4988 Rain 7 1022 87 10000 7.2 10 13:19 31.10.2019
4989 Rain 7 1022 87 10000 7.7 10 12:43 31.10.2019
4990 Rain 7 1022 87 10000 7.7 10 12:24 31.10.2019
4991 Rain 7 1022 87 10000 7.7 20 11:59 31.10.2019
4992 Rain 7 1022 87 10000 8.2 20 11:41 31.10.2019
4993 Rain 7 1022 87 10000 8.2 20 11:19 31.10.2019
4994 Rain 7 1023 87 10000 8.7 10 10:57 31.10.2019
4995 Rain 7 1022 81 10000 9.3 10 10:38 31.10.2019
4996 Rain 7 1022 81 10000 9.3 10 10:19 31.10.2019
4997 Rain 6 1022 87 10000 8.2 20 09:43 31.10.2019
4998 Rain 6 1022 87 10000 8.2 20 09:19 31.10.2019
4999 Rain 6 1022 87 10000 8.2 20 08:54 31.10.2019
5000 Rain 6 1022 87 10000 7.2 20 08:34 31.10.2019
5001 Rain 6 1021 87 10000 7.2 20 07:58 31.10.2019
5002 Rain 6 1021 87 10000 7.7 20 07:39 31.10.2019
5003 Rain 6 1021 87 10000 7.7 20 07:21 31.10.2019
5004 Rain 6 1021 87 10000 7.7 20 06:38 31.10.2019
5005 Rain 5 1021 87 10000 7.7 20 06:19 31.10.2019
5006 Rain 6 1021 93 9000 2.6 0 04:35 31.10.2019
5007 Drizzle 8 1021 87 10000 2.1 0 02:45 31.10.2019
5008 Drizzle 9 1021 87 10000 0.5 0 01:53 31.10.2019
5009 Clouds 9 1021 87 10000 2.6 90 00:40 31.10.2019
5010 Clouds 9 1021 87 10000 2.6 90 00:22 31.10.2019
5011 Clouds 9 1021 81 10000 1 0 23:33 30.10.2019
5012 Clouds 9 1022 87 10000 2.1 0 22:55 30.10.2019
5013 Clouds 9 1022 87 10000 2.6 90 22:37 30.10.2019
5014 Clouds 9 1022 87 10000 2.6 90 22:18 30.10.2019
5015 Rain 9 1023 81 10000 1.5 250 21:54 30.10.2019
5016 Rain 9 1023 81 10000 1.5 250 21:54 30.10.2019
5017 Clouds 9 1023 81 10000 1 0 21:36 30.10.2019
5018 Clouds 9 1023 81 10000 1 0 21:18 30.10.2019
5019 Clouds 9 1023 76 10000 2.6 270 20:42 30.10.2019
5020 Clouds 9 1023 76 10000 2.6 270 20:22 30.10.2019
5021 Clouds 9 1023 76 10000 1.5 0 19:59 30.10.2019
5022 Clouds 9 1023 76 10000 0.5 0 19:39 30.10.2019
5023 Clouds 9 1023 76 10000 0.5 0 19:20 30.10.2019
5024 Clouds 9 1023 76 10000 1 0 18:58 30.10.2019
5025 Clouds 10 1023 66 10000 1 0 18:37 30.10.2019
5026 Clouds 9 1023 71 10000 1.5 200 18:18 30.10.2019
5027 Clouds 10 1023 71 10000 2.1 20 17:41 30.10.2019
5028 Clouds 9 1023 71 10000 2.1 20 17:20 30.10.2019
5029 Clouds 9 1023 76 10000 3.6 10 16:59 30.10.2019
5030 Clouds 9 1022 76 10000 5.7 20 16:40 30.10.2019
5031 Clouds 9 1022 76 10000 5.7 20 16:22 30.10.2019
5032 Clouds 9 1022 76 10000 6.7 30 15:57 30.10.2019
5033 Clouds 9 1022 76 10000 5.1 10 15:38 30.10.2019
5034 Clouds 9 1022 76 10000 5.1 10 15:19 30.10.2019
5035 Clouds 9 1023 81 10000 5.1 360 14:56 30.10.2019
5036 Clouds 9 1023 81 10000 5.1 360 14:56 30.10.2019
5037 Clouds 9 1023 81 10000 3.6 10 14:38 30.10.2019
5038 Clouds 9 1023 81 10000 3.6 10 14:18 30.10.2019
5039 Clouds 9 1022 87 10000 4.6 20 13:42 30.10.2019
5040 Clouds 9 1022 87 10000 4.6 20 13:21 30.10.2019
5041 Rain 10 1022 87 10000 3.6 10 12:59 30.10.2019
5042 Rain 10 1023 87 10000 4.1 350 12:41 30.10.2019
5043 Rain 10 1023 87 10000 4.1 350 12:22 30.10.2019
5044 Clouds 10 1022 76 10000 5.1 10 11:43 30.10.2019
5045 Clouds 10 1022 76 10000 5.1 10 11:25 30.10.2019
5046 Clouds 10 1022 76 10000 4.6 10 10:58 30.10.2019
5047 Clouds 10 1022 81 10000 6.7 360 10:39 30.10.2019
5048 Clouds 10 1022 81 10000 6.7 360 10:20 30.10.2019
5049 Clouds 9 1021 87 10000 5.1 10 09:40 30.10.2019
5050 Clouds 9 1021 87 10000 5.1 10 09:22 30.10.2019
5051 Drizzle 10 1021 93 10000 5.1 10 08:54 30.10.2019
5052 Drizzle 10 1021 93 7000 5.7 10 08:36 30.10.2019
5053 Drizzle 10 1021 93 7000 5.7 10 08:18 30.10.2019
5054 Clouds 10 1020 87 10000 5.1 20 07:42 30.10.2019
5055 Clouds 10 1020 87 10000 5.1 30 06:56 30.10.2019
5056 Mist 10 1020 93 4500 1 0 06:37 30.10.2019
5057 Mist 10 1019 93 4600 3.1 260 05:56 30.10.2019
5058 Mist 11 1019 93 5000 2.6 260 05:37 30.10.2019
5059 Mist 12 1018 93 1800 2.1 260 03:54 30.10.2019
5060 Mist 12 1018 100 3500 0.5 0 03:21 30.10.2019
5061 Mist 12 1017 100 4400 1 0 02:49 30.10.2019
5062 Mist 12 1017 100 4800 0.5 0 01:49 30.10.2019
5063 Clouds 12 1017 100 7000 1.6 284 00:37 30.10.2019
5064 Clouds 12 1017 100 7000 1.6 284 00:19 30.10.2019
5065 Clouds 13 1017 93 8000 1.6 284 23:39 29.10.2019
5066 Clouds 13 1017 93 8000 1.71 172 23:19 29.10.2019
5067 Clouds 12 1017 93 7000 2.1 20 22:41 29.10.2019
5068 Clouds 12 1017 93 7000 2.1 20 22:19 29.10.2019
5069 Clouds 12 1017 100 7000 2.1 10 21:55 29.10.2019
5070 Clouds 12 1017 100 6000 1 0 21:36 29.10.2019
5071 Clouds 12 1017 100 6000 1 0 21:18 29.10.2019
5072 Clouds 13 1017 93 10000 1.71 172 20:42 29.10.2019
5073 Clouds 13 1017 93 10000 2.97 164 20:23 29.10.2019
5074 Clouds 13 1017 93 10000 2.97 164 19:59 29.10.2019
5075 Clouds 13 1017 93 10000 0.5 0 19:39 29.10.2019
5076 Clouds 13 1017 93 10000 0.5 0 19:20 29.10.2019
5077 Clouds 14 1016 87 10000 1 110 18:58 29.10.2019
5078 Clouds 15 1016 82 10000 3.6 110 18:39 29.10.2019
5079 Clouds 14 1016 82 10000 3.6 110 18:20 29.10.2019
5080 Clouds 14 1017 87 10000 2.6 110 17:56 29.10.2019
5081 Clouds 15 1016 82 10000 3.6 100 17:38 29.10.2019
5082 Clouds 15 1016 82 10000 3.6 100 17:19 29.10.2019
5083 Clouds 15 1016 82 10000 4.1 130 16:41 29.10.2019
5084 Clouds 16 1016 82 10000 4.1 130 16:22 29.10.2019
5085 Clouds 16 1016 77 10000 5.1 130 15:59 29.10.2019
5086 Clouds 16 1016 77 10000 5.1 120 15:41 29.10.2019
5087 Clouds 16 1016 77 10000 5.1 120 15:20 29.10.2019
5088 Clouds 17 1016 72 10000 5.1 110 14:56 29.10.2019
5089 Clouds 17 1016 72 10000 5.7 120 14:38 29.10.2019
5090 Clouds 18 1016 72 10000 5.7 120 14:20 29.10.2019
5091 Clouds 19 1016 63 10000 4.6 130 13:40 29.10.2019
5092 Clouds 19 1016 63 10000 4.6 130 13:40 29.10.2019
5093 Clouds 18 1016 63 10000 4.6 130 13:22 29.10.2019
5094 Clouds 19 1016 59 10000 4.1 140 12:56 29.10.2019
5095 Clouds 19 1016 59 10000 3.1 140 12:37 29.10.2019
5096 Clouds 19 1016 59 10000 3.1 140 12:19 29.10.2019
5097 Clouds 18 1016 59 10000 2.1 0 11:42 29.10.2019
5098 Clouds 18 1016 59 10000 2.1 0 11:22 29.10.2019
5099 Clouds 17 1017 63 10000 1.5 0 10:58 29.10.2019
5100 Clouds 17 1017 72 10000 0.5 0 10:40 29.10.2019
5101 Clouds 16 1017 72 10000 0.5 0 10:20 29.10.2019
5102 Mist 14 1017 100 4900 2.1 260 09:58 29.10.2019
5103 Mist 13 1017 100 2000 1 0 09:40 29.10.2019
5104 Mist 13 1017 100 2000 1 0 09:21 29.10.2019
5105 Fog 10 1017 100 100 1 0 08:45 29.10.2019
5106 Fog 10 1017 100 100 1 0 08:25 29.10.2019
5107 Fog 8 1017 100 100 0.5 0 07:55 29.10.2019
5108 Fog 7 1016 100 100 1 280 07:37 29.10.2019
5109 Fog 7 1016 100 100 1 280 07:18 29.10.2019
5110 Fog 6 1016 100 150 2.8 320 06:44 29.10.2019
5111 Fog 5 1016 100 150 2.8 320 06:21 29.10.2019
5112 Fog 6 1015 100 200 1.5 270 05:50 29.10.2019
5113 Fog 6 1015 100 200 1.5 300 05:26 29.10.2019
5114 Fog 6 1015 100 250 1.5 120 04:30 29.10.2019
5115 Fog 8 1015 100 1000 2.1 250 02:32 29.10.2019
5116 Fog 7 1015 100 2700 2.1 280 01:46 29.10.2019
5117 Fog 8 1015 100 1400 2.1 260 01:18 29.10.2019
5118 Fog 7 1015 100 8000 1.5 310 00:32 29.10.2019
5119 Fog 8 1015 100 10000 1.5 360 23:43 28.10.2019
5120 Fog 8 1015 100 10000 1.5 360 23:21 28.10.2019
5121 Fog 8 1015 100 10000 2.1 20 22:58 28.10.2019
5122 Fog 9 1015 100 8000 1.5 350 22:37 28.10.2019
5123 Fog 9 1015 100 8000 1.5 350 22:18 28.10.2019
5124 Clouds 9 1015 100 8000 0.5 0 21:55 28.10.2019
5125 Clouds 9 1015 100 10000 1 350 21:37 28.10.2019
5126 Clouds 10 1015 100 10000 1 350 21:18 28.10.2019
5127 Clouds 10 1015 100 10000 1 350 21:18 28.10.2019
5128 Clouds 10 1015 100 10000 2.6 40 20:44 28.10.2019
5129 Clouds 10 1015 100 10000 2.6 40 20:44 28.10.2019
5130 Clouds 10 1015 100 10000 2.6 40 20:24 28.10.2019
5131 Clear 10 1015 100 10000 2.6 30 19:58 28.10.2019
5132 Clear 11 1014 93 10000 2.1 30 19:39 28.10.2019
5133 Clear 11 1014 93 10000 2.1 30 19:20 28.10.2019
5134 Clear 11 1014 93 10000 2.1 30 19:20 28.10.2019
5135 Clear 11 1014 93 10000 2.1 40 18:58 28.10.2019
5136 Clear 12 1014 93 10000 2.1 30 18:39 28.10.2019
5137 Clear 12 1014 93 10000 2.1 30 18:21 28.10.2019
5138 Clear 12 1014 93 10000 2.1 30 18:21 28.10.2019
5139 Clear 13 1014 93 10000 2.1 30 17:56 28.10.2019
5140 Clear 13 1014 87 10000 1.5 40 17:38 28.10.2019
5141 Clear 14 1014 87 10000 2.1 110 17:19 28.10.2019
5142 Clear 14 1014 87 10000 2.1 110 16:55 28.10.2019
5143 Clear 15 1013 77 10000 3.1 110 16:37 28.10.2019
5144 Clear 16 1013 77 10000 3.1 110 16:19 28.10.2019
5145 Clear 17 1013 72 10000 4.6 110 15:56 28.10.2019
5146 Clear 18 1013 68 10000 5.1 110 15:37 28.10.2019
5147 Clear 18 1013 68 10000 5.1 110 15:18 28.10.2019
5148 Clear 19 1013 63 10000 5.1 110 14:55 28.10.2019
5149 Clear 19 1014 59 10000 5.1 110 14:36 28.10.2019
5150 Clouds 19 1014 59 10000 5.1 110 14:18 28.10.2019
5151 Clouds 19 1014 59 10000 5.1 110 14:18 28.10.2019
5152 Clouds 19 1014 59 10000 3.6 110 13:42 28.10.2019
5153 Clouds 20 1014 59 10000 3.6 110 13:19 28.10.2019
5154 Clouds 20 1014 59 10000 3.6 110 13:19 28.10.2019
5155 Clouds 20 1014 59 10000 3.1 140 12:59 28.10.2019
5156 Clouds 20 1014 59 10000 3.6 140 12:40 28.10.2019
5157 Clouds 20 1014 59 10000 3.6 140 12:19 28.10.2019
5158 Clouds 19 1015 63 10000 1 0 11:38 28.10.2019
5159 Clouds 18 1015 63 10000 1 0 11:20 28.10.2019
5160 Clouds 17 1015 100 8000 1.5 0 10:43 28.10.2019
5161 Clouds 17 1015 100 8000 1.5 0 10:24 28.10.2019
5162 Mist 16 1015 100 2000 1.5 260 09:59 28.10.2019
5163 Mist 16 1015 100 2000 1.5 260 09:59 28.10.2019
5164 Fog 15 1016 100 150 1 0 09:41 28.10.2019
5165 Fog 15 1016 100 150 1 0 09:20 28.10.2019
5166 Fog 13 1016 100 100 1.5 250 08:58 28.10.2019
5167 Fog 13 1016 100 100 1.5 250 08:58 28.10.2019
5168 Fog 14 1016 100 100 1 0 08:39 28.10.2019
5169 Fog 8 1016 100 100 1.5 270 08:19 28.10.2019
5170 Fog 8 1016 100 100 1.5 270 07:59 28.10.2019
5171 Fog 11 1015 100 150 0.5 0 07:40 28.10.2019
5172 Fog 10 1015 100 150 0.5 0 07:20 28.10.2019
5173 Fog 7 1015 100 250 1 300 06:40 28.10.2019
5174 Fog 6 1015 100 250 1 300 06:19 28.10.2019
5175 Fog 7 1015 100 5000 1.88 280 04:29 28.10.2019
5176 Fog 7 1016 100 400 1.88 280 03:41 28.10.2019
5177 Fog 8 1016 100 1500 1 270 02:45 28.10.2019
5178 Mist 8 1016 100 3000 1 300 01:27 28.10.2019
5179 Clouds 8 1017 100 10000 1.5 350 00:46 28.10.2019
5180 Clouds 9 1017 100 10000 1.5 350 00:22 28.10.2019
5181 Clouds 10 1017 100 10000 0.5 0 23:43 27.10.2019
5182 Clouds 10 1017 100 10000 0.5 0 23:19 27.10.2019
5183 Clouds 10 1018 93 10000 2.1 10 22:43 27.10.2019
5184 Clouds 10 1018 93 10000 2.1 10 22:23 27.10.2019
5185 Clouds 10 1018 93 10000 0.5 330 21:58 27.10.2019
5186 Clouds 11 1018 93 10000 1 360 21:39 27.10.2019
5187 Clouds 11 1018 93 10000 1 360 21:21 27.10.2019
5188 Clouds 10 1018 87 10000 1.5 20 20:58 27.10.2019
5189 Clouds 10 1018 87 10000 1.5 20 20:58 27.10.2019
5190 Clouds 11 1018 93 10000 2.1 10 20:40 27.10.2019
5191 Clouds 10 1018 93 10000 2.1 10 20:22 27.10.2019
5192 Clouds 10 1018 93 10000 2.1 10 19:56 27.10.2019
5193 Clouds 10 1018 93 10000 2.1 30 19:36 27.10.2019
5194 Clouds 10 1018 93 10000 2.1 30 19:18 27.10.2019
5195 Clouds 11 1018 93 10000 1.5 30 18:55 27.10.2019
5196 Clouds 12 1018 81 10000 1.5 40 18:37 27.10.2019
5197 Clouds 11 1018 81 10000 1.5 40 18:19 27.10.2019
5198 Clouds 12 1018 82 10000 1.5 80 17:40 27.10.2019
5199 Clouds 12 1018 82 10000 1.5 80 17:40 27.10.2019
5200 Clouds 13 1018 82 10000 1.5 80 17:21 27.10.2019
5201 Clouds 13 1018 76 10000 2.6 120 16:58 27.10.2019
5202 Clouds 14 1018 72 10000 3.6 110 16:40 27.10.2019
5203 Clouds 14 1018 72 10000 3.6 110 16:22 27.10.2019
5204 Clouds 15 1019 67 10000 4.6 120 15:56 27.10.2019
5205 Clouds 17 1019 63 10000 5.1 110 15:38 27.10.2019
5206 Clouds 17 1019 63 10000 5.1 110 15:19 27.10.2019
5207 Clouds 17 1019 63 10000 4.6 100 14:43 27.10.2019
5208 Clouds 19 1019 63 10000 4.6 100 14:21 27.10.2019
5209 Clouds 19 1019 63 10000 5.1 120 13:58 27.10.2019
5210 Clouds 19 1019 59 10000 4.6 120 13:39 27.10.2019
5211 Clouds 19 1019 59 10000 4.6 120 13:20 27.10.2019
5212 Clouds 19 1020 59 10000 3.1 130 12:55 27.10.2019
5213 Clouds 19 1020 55 10000 2.6 180 12:37 27.10.2019
5214 Clouds 19 1020 55 10000 2.6 180 12:19 27.10.2019
5215 Clouds 19 1021 63 10000 2.1 0 11:41 27.10.2019
5216 Clouds 18 1021 63 10000 2.1 0 11:21 27.10.2019
5217 Clouds 18 1022 67 9000 2.1 120 10:44 27.10.2019
5218 Clouds 17 1022 67 9000 2.1 120 10:25 27.10.2019
5219 Clouds 16 1022 67 9000 1.5 0 09:57 27.10.2019
5220 Clouds 16 1022 71 5000 0.5 0 09:39 27.10.2019
5221 Clouds 16 1022 71 5000 0.5 0 09:18 27.10.2019
5222 Mist 14 1022 87 3100 1 0 08:42 27.10.2019
5223 Mist 13 1022 87 3100 1 0 08:22 27.10.2019
5224 Mist 12 1022 93 2700 1.5 260 07:59 27.10.2019
5225 Mist 13 1022 93 3000 2.16 336 07:41 27.10.2019
5226 Mist 12 1022 93 3000 2.16 336 07:20 27.10.2019
5227 Mist 9 1022 100 2100 2.16 336 06:47 27.10.2019
5228 Mist 9 1022 100 2200 2.16 336 06:26 27.10.2019
5229 Mist 8 1022 100 3900 1 0 05:39 27.10.2019
5230 Mist 8 1022 100 4700 1.5 270 04:50 27.10.2019
5231 Clouds 7 1022 93 7000 2.33 332 02:52 27.10.2019
5232 Clouds 8 1023 93 8000 1 0 02:20 27.10.2019
5233 Clear 6 1023 93 9000 1 290 01:24 27.10.2019
5234 Clear 6 1023 93 9000 0.5 0 00:51 27.10.2019
5235 Clear 6 1023 93 9000 0.5 10 00:29 27.10.2019
5236 Clear 7 1023 93 10000 0.55 35 23:57 26.10.2019
5237 Clear 7 1023 93 10000 1.5 360 23:39 26.10.2019
5238 Clear 7 1023 93 10000 1.5 360 23:21 26.10.2019
5239 Clear 7 1023 93 10000 1 0 22:56 26.10.2019
5240 Clear 7 1023 87 10000 1.5 340 22:37 26.10.2019
5241 Clear 7 1023 87 10000 1.5 340 22:18 26.10.2019
5242 Clear 8 1023 87 10000 1.5 350 21:44 26.10.2019
5243 Clear 8 1023 87 10000 1.5 350 21:22 26.10.2019
5244 Clear 9 1023 81 10000 1.5 340 20:58 26.10.2019
5245 Clear 10 1023 76 10000 0.5 0 20:38 26.10.2019
5246 Clear 9 1023 76 10000 0.5 0 20:18 26.10.2019
5247 Clear 10 1023 71 10000 2.1 60 19:42 26.10.2019
5248 Clear 11 1023 71 10000 2.1 60 19:21 26.10.2019
5249 Clear 12 1023 71 10000 2.6 70 18:57 26.10.2019
5250 Clear 12 1023 71 10000 2.1 90 18:39 26.10.2019
5251 Clear 12 1023 71 10000 2.1 90 18:19 26.10.2019
5252 Clear 13 1023 67 10000 0.5 0 17:56 26.10.2019
5253 Clear 14 1023 63 10000 2.1 40 17:37 26.10.2019
5254 Clear 14 1023 63 10000 2.1 40 17:19 26.10.2019
5255 Clear 16 1023 63 10000 3.1 150 16:43 26.10.2019
5256 Clear 16 1023 63 10000 3.1 150 16:25 26.10.2019
5257 Clear 16 1023 63 10000 3.1 150 16:25 26.10.2019
5258 Clouds 17 1023 63 10000 3.6 130 15:59 26.10.2019
5259 Clouds 17 1023 67 10000 1.5 130 15:37 26.10.2019
5260 Clouds 17 1023 67 10000 1.5 130 15:18 26.10.2019
5261 Clouds 19 1023 59 10000 2.1 70 14:38 26.10.2019
5262 Clouds 18 1023 59 10000 2.1 70 14:19 26.10.2019
5263 Clouds 17 1023 59 10000 2.6 10 13:42 26.10.2019
5264 Clear 17 1023 68 0 3.24 90 13:23 26.10.2019
5265 Clouds 17 1023 59 10000 2.6 30 12:50 26.10.2019
5266 Clouds 17 1024 63 10000 1.5 10 12:29 26.10.2019
5267 Clouds 16 1024 67 10000 3.1 360 11:58 26.10.2019
5268 Clouds 16 1024 67 10000 3.1 360 11:40 26.10.2019
5269 Clouds 16 1024 67 10000 3.1 360 11:22 26.10.2019
5270 Clouds 16 1024 77 8000 2.6 350 10:46 26.10.2019
5271 Clouds 16 1024 77 8000 2.6 350 10:25 26.10.2019
5272 Clouds 15 1024 82 8000 1.5 260 09:48 26.10.2019
5273 Clouds 15 1024 82 7000 2.6 250 09:28 26.10.2019
5274 Mist 14 1024 87 5000 2.1 250 08:47 26.10.2019
5275 Mist 14 1023 87 4000 1 0 08:26 26.10.2019
5276 Mist 14 1023 87 3500 0.5 0 07:57 26.10.2019
5277 Mist 14 1023 87 4300 1 0 07:33 26.10.2019
5278 Clouds 13 1023 93 6000 0.5 0 06:48 26.10.2019
5279 Clouds 13 1022 93 6000 2.87 339 06:29 26.10.2019
5280 Clouds 13 1022 93 6000 0.5 0 05:21 26.10.2019
5281 Clouds 13 1022 93 7000 2.1 270 04:58 26.10.2019
5282 Clouds 13 1022 87 10000 0.5 0 03:24 26.10.2019
5283 Clouds 13 1022 93 10000 1 290 02:18 26.10.2019
5284 Clouds 12 1022 93 10000 2.56 346 01:42 26.10.2019
5285 Clouds 12 1022 87 10000 1.5 50 00:31 26.10.2019
5286 Clouds 12 1022 93 10000 1.5 10 23:47 25.10.2019
5287 Clouds 11 1022 93 10000 1.5 10 23:21 25.10.2019
5288 -273 0 0 0 0 0 22:54 25.10.2019
5289 Clouds 12 1022 87 10000 0.5 0 22:36 25.10.2019
5290 Clouds 12 1021 87 10000 0.5 290 22:18 25.10.2019
5291 Clouds 12 1021 87 10000 0.5 290 21:54 25.10.2019
5292 Clouds 12 1021 87 10000 2.22 28 21:36 25.10.2019
5293 Clouds 12 1021 87 10000 3.25 60 21:18 25.10.2019
5294 Clouds 12 1021 93 10000 2.6 40 20:42 25.10.2019
5295 Clouds 12 1021 93 10000 2.6 40 20:19 25.10.2019
5296 Clouds 13 1021 87 10000 2.6 60 19:45 25.10.2019
5297 Clouds 13 1021 87 10000 2.6 60 19:27 25.10.2019
5298 Clear 14 1021 87 10000 2.1 70 18:47 25.10.2019
5299 Clear 14 1020 82 10000 2.6 100 18:29 25.10.2019
5300 Clear 15 1020 82 10000 2.6 120 17:56 25.10.2019
5301 Clear 16 1020 77 10000 3.6 110 17:36 25.10.2019
5302 Clear 16 1020 77 10000 3.6 110 17:18 25.10.2019
5303 Clouds 19 1019 72 10000 4.1 120 16:43 25.10.2019
5304 Clouds 19 1019 72 10000 4.1 120 16:22 25.10.2019
5305 Clouds 20 1019 68 10000 5.1 120 15:41 25.10.2019
5306 Clouds 20 1019 68 10000 5.1 120 15:23 25.10.2019
5307 Clouds 20 1019 68 10000 5.1 120 14:59 25.10.2019
5308 Clear 20 1019 68 10000 4.6 130 14:41 25.10.2019
5309 Clear 20 1019 68 10000 4.6 130 14:22 25.10.2019
5310 Clear 20 1019 63 10000 4.6 140 13:44 25.10.2019
5311 Clear 20 1019 63 10000 4.6 140 13:25 25.10.2019
5312 Clear 20 1019 63 10000 4.6 140 13:25 25.10.2019
5313 Clouds 20 1020 64 10000 4.6 140 12:58 25.10.2019
5314 Clouds 20 1020 63 10000 4.1 130 12:40 25.10.2019
5315 Clouds 20 1020 63 10000 4.1 130 12:40 25.10.2019
5316 Clouds 19 1020 63 10000 4.1 130 12:20 25.10.2019
5317 Clouds 18 1020 100 9000 2.1 130 11:42 25.10.2019
5318 Clouds 18 1020 100 9000 2.1 130 11:24 25.10.2019
5319 Fog 16 1020 100 1800 2.94 33 10:59 25.10.2019
5320 Fog 16 1020 100 200 1.5 300 10:39 25.10.2019
5321 Fog 16 1020 100 200 1.5 300 10:21 25.10.2019
5322 Fog 15 1020 100 150 0.5 0 09:57 25.10.2019
5323 Fog 14 1020 100 150 1 0 09:38 25.10.2019
5324 Fog 14 1020 100 150 1 0 09:19 25.10.2019
5325 Fog 12 1020 100 150 1 0 08:44 25.10.2019
5326 Fog 12 1020 100 150 1 0 08:24 25.10.2019
5327 Fog 10 1020 100 100 1 0 07:52 25.10.2019
5328 Fog 9 1019 100 100 1.5 290 07:34 25.10.2019
5329 Fog 8 1019 100 300 2.1 310 06:41 25.10.2019
5330 Fog 9 1019 100 500 2.1 280 05:51 25.10.2019
5331 Fog 9 1019 100 400 0.5 290 05:32 25.10.2019
5332 Fog 9 1019 100 450 2.25 21 04:39 25.10.2019
5333 Clouds 11 1019 100 7000 2.1 10 02:46 25.10.2019
5334 Clouds 11 1019 100 8000 1.5 10 01:53 25.10.2019
5335 Mist 11 1019 100 8000 1.5 10 00:41 25.10.2019
5336 Fog 12 1019 100 4600 2.02 109 23:57 24.10.2019
5337 Clouds 11 1019 100 7000 0.5 30 23:37 24.10.2019
5338 Clouds 11 1019 100 7000 0.5 30 23:37 24.10.2019
5339 Clouds 11 1019 100 7000 0.5 30 23:19 24.10.2019
5340 Fog 12 1019 93 7000 1 10 22:54 24.10.2019
5341 Clouds 13 1019 93 8000 2.02 109 22:36 24.10.2019
5342 Clouds 13 1019 93 8000 2.02 109 22:18 24.10.2019
5343 Clouds 12 1020 100 9000 1 30 21:54 24.10.2019
5344 Clouds 12 1020 100 9000 1 30 21:54 24.10.2019
5345 -273 0 0 0 0 0 21:54 24.10.2019
5346 Clear 12 1020 93 10000 1 60 21:36 24.10.2019
5347 Clouds 12 1020 93 10000 1 60 21:18 24.10.2019
5348 Clouds 12 1019 93 10000 2.1 30 20:40 24.10.2019
5349 Clouds 12 1019 93 10000 2.1 30 20:40 24.10.2019
5350 Clouds 13 1019 93 10000 2.1 30 20:22 24.10.2019
5351 Clouds 12 1019 93 10000 2.1 40 19:58 24.10.2019
5352 Clouds 13 1019 93 10000 0.5 30 19:40 24.10.2019
5353 Clouds 14 1019 93 10000 0.5 30 19:22 24.10.2019
5354 Clouds 14 1019 93 10000 0.5 0 18:57 24.10.2019
5355 Clouds 15 1019 93 10000 3.1 100 18:38 24.10.2019
5356 Clouds 15 1019 93 10000 3.1 100 18:19 24.10.2019
5357 Clouds 17 1019 77 10000 4.1 120 17:42 24.10.2019
5358 Clouds 18 1019 77 10000 4.1 120 17:21 24.10.2019
5359 Clouds 19 1019 77 10000 4.1 120 16:58 24.10.2019
5360 Clouds 19 1019 72 10000 4.6 120 16:40 24.10.2019
5361 Clouds 21 1019 72 10000 4.6 120 16:22 24.10.2019
5362 Clouds 20 1019 64 10000 4.1 120 15:58 24.10.2019
5363 Clouds 20 1019 64 10000 4.1 120 15:58 24.10.2019
5364 Clouds 21 1019 64 10000 3.6 120 15:40 24.10.2019
5365 Clear 21 1019 64 10000 3.6 120 15:21 24.10.2019
5366 Clear 21 1020 64 10000 3.6 120 14:57 24.10.2019
5367 Clear 21 1020 64 10000 3.1 140 14:38 24.10.2019
5368 Clear 21 1020 64 10000 3.1 140 14:20 24.10.2019
5369 Clear 21 1020 64 10000 2.6 120 13:41 24.10.2019
5370 Clear 21 1020 64 10000 2.6 120 13:20 24.10.2019
5371 Clear 20 1021 64 10000 3.1 130 12:58 24.10.2019
5372 Clouds 19 1021 68 10000 2.6 140 12:39 24.10.2019
5373 Clouds 19 1021 68 10000 3.6 100 12:19 24.10.2019
5374 Clouds 19 1021 68 10000 3.6 100 11:57 24.10.2019
5375 Clouds 19 1022 72 10000 3.1 130 11:38 24.10.2019
5376 Clouds 19 1022 72 10000 3.1 130 11:19 24.10.2019
5377 Clouds 19 1022 72 10000 3.1 130 11:19 24.10.2019
5378 Clouds 17 1022 77 10000 1.5 0 10:55 24.10.2019
5379 Clouds 17 1022 82 7000 2.1 210 10:36 24.10.2019
5380 Clouds 16 1022 82 7000 2.1 210 10:18 24.10.2019
5381 Mist 14 1022 100 4500 1.5 280 09:38 24.10.2019
5382 Mist 14 1022 100 4500 1.5 280 09:18 24.10.2019
5383 Mist 12 1021 100 2100 2.1 280 08:44 24.10.2019
5384 Mist 12 1021 100 2100 2.1 280 08:21 24.10.2019
5385 Fog 10 1021 100 1800 1 0 07:56 24.10.2019
5386 Mist 10 1021 100 5000 1 0 07:38 24.10.2019
5387 Mist 10 1021 100 5000 1 0 07:20 24.10.2019
5388 Mist 10 1021 100 6000 2.61 11 06:39 24.10.2019
5389 Clear 10 1021 100 7000 0.5 20 05:57 24.10.2019
5390 Fog 11 1021 100 6000 1 360 05:39 24.10.2019
5391 Clear 11 1021 100 7000 2.38 3 04:44 24.10.2019
5392 Clear 11 1021 100 7000 2.6 10 03:36 24.10.2019
5393 Clear 12 1021 100 8000 2.1 10 02:50 24.10.2019
5394 Clouds 13 1021 93 8000 1.5 10 02:21 24.10.2019
5395 Clouds 13 1022 93 9000 1.5 280 01:32 24.10.2019
5396 Clouds 13 1022 93 10000 0.5 290 00:57 24.10.2019
5397 Clouds 14 1022 87 10000 1 350 00:30 24.10.2019
5398 Clouds 14 1022 93 10000 1.5 40 23:59 23.10.2019
5399 Clouds 14 1022 87 10000 2.1 50 23:41 23.10.2019
5400 Clouds 14 1022 87 10000 2.1 50 23:21 23.10.2019
5401 Clouds 13 1022 93 10000 1.5 360 22:57 23.10.2019
5402 Clouds 13 1022 93 10000 1.5 360 22:57 23.10.2019
5403 Clouds 13 1022 93 10000 1.5 330 22:37 23.10.2019
5404 Clouds 13 1022 93 10000 1.5 330 22:18 23.10.2019
5405 Clouds 13 1022 93 10000 1.5 330 22:18 23.10.2019
5406 Clouds 13 1022 93 10000 1.5 310 21:57 23.10.2019
5407 Clouds 13 1022 93 10000 1.5 310 21:57 23.10.2019
5408 Clouds 13 1022 93 10000 0.5 0 21:37 23.10.2019
5409 Clouds 13 1022 93 10000 0.5 0 21:19 23.10.2019
5410 Clouds 12 1022 93 9000 1.5 70 20:54 23.10.2019
5411 Clear 12 1022 93 10000 2.1 20 20:36 23.10.2019
5412 Clear 12 1022 93 10000 2.1 20 20:18 23.10.2019
5413 Clear 13 1022 93 10000 2.1 30 19:43 23.10.2019
5414 Clear 13 1022 93 10000 2.1 30 19:19 23.10.2019
5415 Clear 14 1022 87 10000 1.5 60 18:58 23.10.2019
5416 Clear 14 1022 87 10000 3.1 100 18:39 23.10.2019
5417 Clear 15 1022 87 10000 3.1 100 18:19 23.10.2019
5418 Clear 16 1021 87 10000 3.6 120 17:55 23.10.2019
5419 Clear 17 1021 82 10000 3.6 130 17:36 23.10.2019
5420 Clear 17 1021 82 10000 3.6 130 17:36 23.10.2019
5421 Clear 17 1021 82 10000 3.6 130 17:18 23.10.2019
5422 Clear 18 1021 72 10000 4.6 120 16:40 23.10.2019
5423 Clear 19 1021 72 10000 4.6 120 16:21 23.10.2019
5424 Clear 19 1021 68 10000 5.1 120 15:57 23.10.2019
5425 Clear 19 1021 68 10000 5.1 120 15:57 23.10.2019
5426 Clear 19 1022 68 10000 3.6 120 15:38 23.10.2019
5427 Clear 21 1022 68 10000 3.6 120 15:20 23.10.2019
5428 Clear 19 1022 60 10000 4.6 120 14:56 23.10.2019
5429 Clear 21 1022 60 10000 4.1 130 14:37 23.10.2019
5430 Clear 21 1022 60 10000 4.1 130 14:18 23.10.2019
5431 Clear 20 1023 60 8000 3.6 130 13:42 23.10.2019
5432 Clear 20 1023 60 8000 3.6 130 13:24 23.10.2019
5433 Clear 20 1023 52 8000 1 0 12:57 23.10.2019
5434 Clear 19 1023 55 6000 1 0 12:38 23.10.2019
5435 Clear 19 1023 55 6000 1 0 12:19 23.10.2019
5436 Clear 18 1023 63 6000 1.5 80 11:57 23.10.2019
5437 Mist 18 1024 67 5000 2.6 150 11:39 23.10.2019
5438 Mist 17 1024 67 5000 2.6 150 11:20 23.10.2019
5439 Mist 14 1024 77 3700 1 0 10:46 23.10.2019
5440 Mist 14 1024 77 3700 1 0 10:26 23.10.2019
5441 Mist 13 1024 82 3200 1.5 270 09:58 23.10.2019
5442 Mist 12 1024 87 2800 1.5 270 09:39 23.10.2019
5443 Mist 12 1024 87 2800 1.5 270 09:21 23.10.2019
5444 Mist 12 1024 87 2600 1 300 08:43 23.10.2019
5445 Mist 12 1024 87 2600 1 300 08:25 23.10.2019
5446 Mist 11 1024 93 3800 1.5 320 07:47 23.10.2019
5447 Mist 11 1024 93 5000 3.1 360 07:26 23.10.2019
5448 Mist 11 1024 93 4400 3.1 360 06:48 23.10.2019
5449 Clouds 11 1023 93 7000 3.1 360 06:23 23.10.2019
5450 Clouds 13 1023 93 8000 2.6 360 05:55 23.10.2019
5451 Clouds 12 1024 93 9000 2.1 340 05:18 23.10.2019
5452 Clouds 12 1024 93 10000 3.62 351 03:36 23.10.2019
5453 Clouds 11 1024 100 10000 0.5 0 02:41 23.10.2019
5454 Clouds 11 1024 100 10000 2.6 360 01:34 23.10.2019
5455 Clouds 11 1024 100 10000 2.6 360 00:58 23.10.2019
5456 Clouds 11 1024 100 6000 3.9 359 00:32 23.10.2019
5457 Clear 10 1024 93 7000 1.5 280 23:42 22.10.2019
5458 Clear 10 1024 93 7000 1.5 280 23:19 22.10.2019
5459 Clear 9 1024 100 8000 1.5 280 22:58 22.10.2019
5460 Clear 11 1024 93 10000 2.6 30 22:40 22.10.2019
5461 Clear 11 1024 93 10000 2.6 30 22:21 22.10.2019
5462 Clear 11 1024 100 10000 2.1 20 21:56 22.10.2019
5463 Clear 12 1025 100 10000 2.1 30 21:37 22.10.2019
5464 Clear 12 1025 100 10000 2.1 30 21:18 22.10.2019
5465 Clear 12 1024 93 10000 2.1 40 20:57 22.10.2019
5466 Clear 12 1024 93 10000 1 0 20:39 22.10.2019
5467 Clear 13 1024 93 10000 1 0 20:20 22.10.2019
5468 Clear 13 1024 93 10000 2.6 50 19:55 22.10.2019
5469 Clear 13 1024 93 10000 2.6 40 19:37 22.10.2019
5470 Clear 14 1024 93 10000 2.6 40 19:19 22.10.2019
5471 Clear 15 1024 87 10000 2.6 100 18:41 22.10.2019
5472 Clear 15 1024 87 10000 2.6 100 18:22 22.10.2019
5473 Clear 16 1024 82 10000 3.6 120 17:58 22.10.2019
5474 -273 0 0 0 0 0 17:39 22.10.2019
5475 Clear 18 1023 77 10000 3.6 130 17:20 22.10.2019
5476 Clear 19 1023 72 10000 4.1 130 16:57 22.10.2019
5477 Clear 19 1023 72 10000 4.1 140 16:38 22.10.2019
5478 Clear 20 1023 72 10000 4.1 140 16:19 22.10.2019
5479 Clear 20 1023 68 10000 5.1 120 15:56 22.10.2019
5480 Clear 21 1023 68 10000 5.1 120 15:38 22.10.2019
5481 Clouds 21 1023 68 10000 5.1 120 15:18 22.10.2019
5482 Clouds 21 1023 64 10000 3.6 130 14:43 22.10.2019
5483 Clouds 21 1023 64 10000 3.6 130 14:20 22.10.2019
5484 Clouds 21 1024 60 10000 3.1 140 13:42 22.10.2019
5485 Clouds 21 1024 60 10000 3.1 140 13:22 22.10.2019
5486 Clouds 20 1024 63 10000 4.1 130 12:59 22.10.2019
5487 Clouds 20 1024 63 10000 4.1 150 12:40 22.10.2019
5488 Clouds 19 1024 63 10000 4.1 150 12:21 22.10.2019
5489 Clouds 19 1025 63 10000 3.6 150 11:56 22.10.2019
5490 Clouds 19 1025 63 10000 1.5 0 11:38 22.10.2019
5491 Clouds 19 1025 63 10000 1.5 0 11:20 22.10.2019
5492 Clouds 18 1025 68 10000 1 0 10:55 22.10.2019
5493 Clouds 17 1024 68 10000 2.1 100 10:37 22.10.2019
5494 Clouds 17 1024 68 10000 2.1 100 10:18 22.10.2019
5495 Clouds 16 1024 87 6000 0.5 0 09:44 22.10.2019
5496 Clouds 15 1024 87 6000 0.5 0 09:22 22.10.2019
5497 Mist 14 1024 87 4000 1 0 08:59 22.10.2019
5498 Mist 13 1024 93 5000 3.39 29 08:41 22.10.2019
5499 Mist 13 1024 93 5000 3.39 29 08:20 22.10.2019
5500 Mist 12 1024 100 5000 3.39 29 07:45 22.10.2019
5501 Mist 12 1024 100 5000 3.39 29 07:26 22.10.2019
5502 Mist 12 1023 100 5000 3.39 29 06:47 22.10.2019
5503 Clouds 12 1023 100 8000 3.39 29 06:29 22.10.2019
5504 Clouds 13 1023 100 10000 0.5 0 05:49 22.10.2019
5505 Clouds 13 1023 93 7000 1.5 280 05:18 22.10.2019
5506 Clouds 14 1023 93 10000 0.5 0 02:33 22.10.2019
5507 Clouds 14 1023 93 10000 1.88 30 01:51 22.10.2019
5508 Clouds 14 1023 93 10000 1.88 30 01:24 22.10.2019
5509 Clouds 15 1023 93 10000 0.5 350 00:57 22.10.2019
5510 Clouds 14 1023 100 8000 0.5 0 00:39 22.10.2019
5511 Clouds 14 1023 100 8000 0.5 0 00:20 22.10.2019
5512 Clouds 14 1023 93 10000 1.52 71 23:39 21.10.2019
5513 Clouds 14 1023 93 10000 1.52 71 23:20 21.10.2019
5514 Clouds 14 1023 100 10000 0.5 0 22:59 21.10.2019
5515 Clouds 15 1023 93 10000 1 60 22:40 21.10.2019
5516 Clouds 15 1023 93 10000 1 60 22:40 21.10.2019
5517 Clouds 15 1023 93 10000 1 60 22:20 21.10.2019
5518 Clouds 14 1023 93 10000 1 60 21:58 21.10.2019
5519 Clouds 14 1023 100 8000 1 50 21:39 21.10.2019
5520 Clouds 13 1023 100 8000 1 50 21:20 21.10.2019
5521 Clouds 14 1023 100 8000 1 40 20:58 21.10.2019
5522 Clouds 14 1023 100 8000 1.5 30 20:39 21.10.2019
5523 Clouds 14 1023 100 8000 1.5 30 20:20 21.10.2019
5524 Clouds 14 1023 100 8000 1.5 30 20:20 21.10.2019
5525 Clouds 15 1023 93 8000 1 50 19:57 21.10.2019
5526 Clear 15 1023 93 10000 1 80 19:38 21.10.2019
5527 Clear 15 1023 93 10000 1 80 19:20 21.10.2019
5528 Clear 15 1023 93 10000 1.5 100 18:55 21.10.2019
5529 Clear 16 1023 87 10000 1.5 130 18:36 21.10.2019
5530 Clear 16 1023 87 10000 1.5 130 18:18 21.10.2019
5531 Clear 17 1023 82 10000 3.6 130 17:39 21.10.2019
5532 Clear 18 1023 82 10000 3.6 130 17:20 21.10.2019
5533 Clear 19 1023 77 10000 4.6 120 16:59 21.10.2019
5534 Clear 20 1023 77 10000 5.1 120 16:41 21.10.2019
5535 Clear 21 1023 77 10000 5.1 120 16:22 21.10.2019
5536 Clear 21 1023 72 10000 4.6 130 15:58 21.10.2019
5537 Clear 22 1023 68 10000 5.1 130 15:39 21.10.2019
5538 Clear 22 1023 68 10000 5.1 130 15:20 21.10.2019
5539 Clear 22 1023 68 10000 4.6 130 14:55 21.10.2019
5540 Clear 22 1023 68 10000 5.1 120 14:36 21.10.2019
5541 Clear 22 1023 68 10000 5.1 120 14:18 21.10.2019
5542 Clear 22 1023 68 10000 4.6 100 13:42 21.10.2019
5543 Clear 22 1023 68 10000 4.6 100 13:21 21.10.2019
5544 Clear 21 1023 68 10000 4.1 100 12:59 21.10.2019
5545 Clouds 21 1023 73 10000 3.1 110 12:40 21.10.2019
5546 Clouds 21 1023 73 10000 3.1 110 12:20 21.10.2019
5547 Clouds 20 1024 72 10000 3.1 130 11:55 21.10.2019
5548 Clouds 20 1024 77 10000 3.1 120 11:36 21.10.2019
5549 Clouds 20 1024 77 10000 3.1 120 11:18 21.10.2019
5550 Mist 19 1024 82 10000 1.5 140 10:54 21.10.2019
5551 Mist 19 1024 82 10000 1.5 140 10:54 21.10.2019
5552 Mist 19 1024 82 10000 1.5 140 10:54 21.10.2019
5553 Mist 19 1024 82 10000 1.5 140 10:54 21.10.2019
5554 Mist 19 1024 100 9000 1 0 10:36 21.10.2019
5555 Mist 18 1024 100 9000 1 0 10:18 21.10.2019
5556 Fog 17 1024 100 4200 0.5 0 09:39 21.10.2019
5557 Fog 17 1024 100 4200 0.5 0 09:21 21.10.2019
5558 Fog 14 1024 100 550 0.5 0 08:42 21.10.2019
5559 Fog 14 1024 100 550 0.5 0 08:23 21.10.2019
5560 Fog 12 1023 100 250 1 320 07:55 21.10.2019
5561 Fog 12 1023 100 300 2.5 170.365 07:36 21.10.2019
5562 Fog 12 1023 100 500 0.5 320 07:18 21.10.2019
5563 Fog 12 1023 100 450 1 290 06:43 21.10.2019
5564 Fog 12 1023 100 450 1 290 06:24 21.10.2019
5565 Fog 13 1023 100 400 2.42 166.171 05:33 21.10.2019
5566 Fog 14 1022 100 1100 2.42 166.171 03:41 21.10.2019
5567 Mist 14 1022 100 4100 1 10 02:40 21.10.2019
5568 Mist 14 1022 100 4100 1 10 02:20 21.10.2019
5569 Mist 14 1022 100 2000 0.5 0 01:45 21.10.2019
5570 Mist 14 1022 100 2000 0.5 0 01:45 21.10.2019
5571 Fog 14 1023 100 3500 1 360 00:55 21.10.2019
5572 Mist 13 1023 100 5000 1.5 10 00:28 21.10.2019
5573 Mist 14 1023 100 5000 2.9 169.866 23:58 20.10.2019
5574 Mist 13 1023 100 5000 0.5 10 23:39 20.10.2019
5575 Mist 13 1023 100 5000 0.5 10 23:21 20.10.2019
5576 Clouds 14 1023 100 6000 1 30 22:43 20.10.2019
5577 Clouds 14 1023 100 6000 1 30 22:24 20.10.2019
5578 Clouds 14 1023 100 6000 1 30 22:24 20.10.2019
5579 Clouds 14 1023 93 6000 1 20 21:59 20.10.2019
5580 Clouds 15 1022 93 7000 1 30 21:40 20.10.2019
5581 Clouds 15 1022 93 7000 1 30 21:22 20.10.2019
5582 Clouds 15 1022 93 7000 1 30 21:22 20.10.2019
5583 Clouds 15 1022 93 8000 1.5 30 20:56 20.10.2019
5584 Clouds 15 1022 93 9000 1.5 20 20:38 20.10.2019
5585 Clouds 15 1022 93 9000 1.5 20 20:18 20.10.2019
5586 Clouds 15 1022 93 9000 1.5 20 20:18 20.10.2019
5587 Clouds 15 1022 87 8000 0.5 0 19:55 20.10.2019
5588 Clouds 15 1022 93 8000 3.03 161.708 19:37 20.10.2019
5589 Clouds 15 1022 93 8000 3.03 161.708 19:18 20.10.2019
5590 Clouds 16 1022 87 10000 2.1 110 18:40 20.10.2019
5591 Clouds 16 1022 87 10000 2.1 110 18:22 20.10.2019
5592 Clear 16 1022 82 10000 2.6 120 17:57 20.10.2019
5593 Clear 17 1022 82 10000 3.1 120 17:38 20.10.2019
5594 Clear 18 1022 82 10000 3.1 120 17:20 20.10.2019
5595 Clear 20 1022 72 10000 4.6 110 16:43 20.10.2019
5596 Clear 20 1022 72 10000 4.6 110 16:24 20.10.2019
5597 Clear 21 1022 68 10000 5.1 110 15:59 20.10.2019
5598 Clear 21 1022 68 10000 4.6 110 15:39 20.10.2019
5599 Clear 21 1022 68 10000 4.6 110 15:20 20.10.2019
5600 Clear 21 1022 68 10000 5.1 120 14:58 20.10.2019
5601 Clear 22 1022 64 10000 5.7 110 14:38 20.10.2019
5602 Clear 22 1022 64 10000 5.7 110 14:19 20.10.2019
5603 Clear 22 1022 68 10000 5.7 110 13:56 20.10.2019
5604 Clear 22 1022 68 10000 5.7 110 13:56 20.10.2019
5605 Clear 23 1022 64 10000 3.6 100 13:37 20.10.2019
5606 Clear 23 1022 64 10000 3.6 100 13:18 20.10.2019
5607 Clear 22 1022 68 10000 4.1 100 12:56 20.10.2019
5608 Clear 22 1022 68 10000 4.1 100 12:38 20.10.2019
5609 Clear 22 1022 68 10000 4.1 100 12:20 20.10.2019
5610 Clear 21 1022 68 10000 4.6 110 11:55 20.10.2019
5611 Clouds 21 1022 68 10000 4.1 120 11:37 20.10.2019
5612 Clouds 21 1022 68 10000 4.1 120 11:18 20.10.2019
5613 Clouds 20 1022 72 10000 2.6 130 10:41 20.10.2019
5614 Clouds 19 1022 72 10000 2.6 130 10:22 20.10.2019
5615 Clouds 19 1022 82 10000 2.6 130 09:57 20.10.2019
5616 Clouds 18 1022 77 10000 1.5 160 09:39 20.10.2019
5617 Clouds 18 1022 77 10000 1.5 160 09:21 20.10.2019
5618 Clouds 17 1022 82 7000 2.36 163.951 08:45 20.10.2019
5619 Clouds 16 1022 82 7000 2.36 163.951 08:22 20.10.2019
5620 Clouds 15 1022 93 6000 2.36 163.951 07:50 20.10.2019
5621 Clouds 15 1021 87 6000 0.5 0 07:30 20.10.2019
5622 Clouds 15 1021 87 6000 0.5 0 07:30 20.10.2019
5623 Clouds 14 1021 93 7000 2.36 163.951 06:34 20.10.2019
5624 Clouds 13 1021 93 8000 1 0 05:58 20.10.2019
5625 Clouds 14 1021 93 9000 1.5 190 04:25 20.10.2019
5626 Clouds 14 1020 82 10000 1 0 03:41 20.10.2019
5627 Clouds 14 1020 82 10000 1 0 03:20 20.10.2019
5628 Clouds 15 1020 88 9000 1 0 02:36 20.10.2019
5629 Clouds 15 1021 88 9000 1.5 240 01:58 20.10.2019
5630 Clouds 15 1021 88 9000 2.5 171.611 01:23 20.10.2019
5631 Clouds 15 1021 88 10000 0.5 180 00:55 20.10.2019
5632 Clouds 15 1021 88 9000 2.85 166.626 00:22 20.10.2019
5633 Clouds 16 1021 93 10000 0.5 160 23:59 19.10.2019
5634 Clouds 16 1021 88 10000 1.5 130 23:40 19.10.2019
5635 Clouds 16 1021 88 10000 1.5 130 23:21 19.10.2019
5636 Clouds 16 1021 93 9000 1.5 140 22:55 19.10.2019
5637 Clouds 16 1021 88 9000 1.5 130 22:37 19.10.2019
5638 Clouds 16 1021 88 9000 1.5 130 22:18 19.10.2019
5639 Clouds 16 1020 88 8000 2.1 130 21:45 19.10.2019
5640 Clouds 16 1020 88 8000 2.1 130 21:21 19.10.2019
5641 Clouds 16 1020 93 9000 2.6 120 20:44 19.10.2019
5642 Clouds 16 1020 93 9000 2.6 120 20:44 19.10.2019
5643 Clouds 16 1020 93 9000 2.6 120 20:22 19.10.2019
5644 Clouds 15 1020 93 9000 2.6 120 19:56 19.10.2019
5645 Clouds 16 1020 88 9000 2.6 120 19:38 19.10.2019
5646 Clouds 16 1020 88 9000 2.6 120 19:20 19.10.2019
5647 Clouds 17 1019 88 10000 2.6 120 18:41 19.10.2019
5648 Clouds 17 1019 88 10000 2.6 120 18:23 19.10.2019
5649 Clouds 18 1019 77 10000 3.6 120 17:42 19.10.2019
5650 Clouds 19 1019 77 10000 3.6 120 17:23 19.10.2019
5651 Clouds 19 1019 77 10000 5.1 110 16:59 19.10.2019
5652 Clear 20 1019 72 10000 5.1 120 16:38 19.10.2019
5653 Clear 20 1019 72 10000 5.1 120 16:19 19.10.2019
5654 Clear 22 1019 68 10000 5.7 120 15:44 19.10.2019
5655 Clear 22 1019 68 10000 5.7 120 15:26 19.10.2019
5656 Clear 22 1018 68 10000 5.7 100 14:40 19.10.2019
5657 Clear 22 1018 68 10000 5.7 100 14:40 19.10.2019
5658 Clear 23 1018 68 10000 5.7 100 14:21 19.10.2019
5659 Clear 23 1018 64 10000 5.1 110 13:59 19.10.2019
5660 Clouds 23 1019 68 10000 4.6 100 13:41 19.10.2019
5661 Clouds 23 1019 68 10000 4.6 100 13:21 19.10.2019
5662 Clouds 23 1019 68 10000 3.6 120 12:58 19.10.2019
5663 Clouds 23 1019 64 10000 2.1 0 12:38 19.10.2019
5664 Clouds 23 1019 64 10000 2.1 0 12:20 19.10.2019
5665 Clouds 22 1019 68 10000 2.1 0 11:41 19.10.2019
5666 Clouds 22 1019 68 10000 2.1 0 11:23 19.10.2019
5667 Clouds 22 1019 68 10000 2.1 0 10:58 19.10.2019
5668 Clouds 21 1019 72 10000 1.5 0 10:39 19.10.2019
5669 Clouds 20 1019 77 8000 2.1 180 10:21 19.10.2019
5670 Clouds 18 1019 82 7000 2.17 174.602 09:44 19.10.2019
5671 Mist 18 1019 88 5000 2.17 174.602 09:26 19.10.2019
5672 Mist 17 1019 88 5000 1.53 174.058 09:00 19.10.2019
5673 Mist 16 1019 93 4400 0.5 300 08:40 19.10.2019
5674 Mist 15 1019 93 3000 1.5 280 08:21 19.10.2019
5675 Mist 14 1019 93 3300 1.53 174.058 07:44 19.10.2019
5676 Mist 14 1019 100 2800 1.53 174.058 07:25 19.10.2019
5677 Mist 14 1018 100 3200 0.5 190 06:47 19.10.2019
5678 Mist 14 1018 100 5000 0.5 0 06:26 19.10.2019
5679 Mist 14 1018 100 4500 0.5 0 05:34 19.10.2019
5680 Clouds 13 1018 100 7000 2.1 10 04:23 19.10.2019
5681 Fog 12 1018 100 2800 1 0 02:47 19.10.2019
5682 Fog 13 1018 100 5000 1.24 172.491 01:53 19.10.2019
5683 Mist 14 1018 100 5000 1.5 40 01:25 19.10.2019
5684 Clouds 14 1018 93 7000 1.23 186.566 00:48 19.10.2019
5685 Clouds 14 1018 93 8000 0.5 0 00:27 19.10.2019
5686 Clouds 14 1018 100 7000 1 50 23:45 18.10.2019
5687 Clouds 14 1018 100 7000 1 50 23:26 18.10.2019
5688 Clouds 15 1018 93 9000 1.88 176.287 22:57 18.10.2019
5689 Clouds 14 1018 93 10000 1.5 30 22:39 18.10.2019
5690 Clouds 14 1018 93 10000 1.5 30 22:20 18.10.2019
5691 Clouds 14 1018 93 10000 1 0 21:57 18.10.2019
5692 Clouds 14 1018 100 10000 2.1 40 21:38 18.10.2019
5693 Clouds 14 1018 100 10000 2.1 40 21:20 18.10.2019
5694 Clouds 14 1018 93 9000 2.1 30 20:56 18.10.2019
5695 Clouds 14 1018 93 8000 1.5 20 20:38 18.10.2019
5696 Clouds 14 1018 93 8000 1.5 20 20:20 18.10.2019
5697 Clouds 14 1018 93 9000 1.5 40 19:55 18.10.2019
5698 Clouds 14 1018 93 8000 0.5 20 19:37 18.10.2019
5699 Clouds 14 1018 93 8000 0.5 20 19:19 18.10.2019
5700 Clouds 15 1017 93 10000 3.1 110 18:42 18.10.2019
5701 Clouds 15 1017 93 10000 3.1 110 18:24 18.10.2019
5702 Clouds 15 1017 93 10000 3.1 110 18:24 18.10.2019
5703 Clouds 15 1017 93 10000 3.1 110 18:24 18.10.2019
5704 Clouds 16 1017 93 10000 3.1 120 17:59 18.10.2019
5705 Clear 18 1017 82 10000 4.1 100 17:38 18.10.2019
5706 Clear 18 1017 82 10000 4.1 100 17:20 18.10.2019
5707 Clear 18 1017 82 10000 4.1 100 17:20 18.10.2019
5708 -273 0 0 0 0 0 16:44 18.10.2019
5709 -273 0 0 0 0 0 16:44 18.10.2019
5710 -273 0 0 0 0 0 16:44 18.10.2019
5711 Clear 19 1017 72 10000 5.1 120 16:42 18.10.2019
5712 Clear 22 1017 72 10000 5.1 120 16:21 18.10.2019
5713 Clear 22 1017 77 10000 5.1 120 15:58 18.10.2019
5714 Clear 23 1017 72 10000 4.6 110 15:38 18.10.2019
5715 Clear 23 1017 72 10000 4.6 110 15:20 18.10.2019
5716 Clear 22 1017 72 10000 4.6 120 14:57 18.10.2019
5717 Clear 22 1017 72 10000 5.1 120 14:38 18.10.2019
5718 Clear 23 1017 72 10000 5.1 120 14:19 18.10.2019
5719 Clear 22 1018 64 10000 4.1 120 13:55 18.10.2019
5720 Clear 22 1018 68 10000 3.1 130 13:36 18.10.2019
5721 Clear 22 1018 68 10000 3.1 130 13:18 18.10.2019
5722 Clouds 22 1018 68 10000 2.6 120 12:54 18.10.2019
5723 Clouds 22 1018 68 10000 2.6 120 12:54 18.10.2019
5724 Clouds 21 1018 72 7000 1.5 180 12:36 18.10.2019
5725 Clouds 21 1018 72 7000 1.5 180 12:18 18.10.2019
5726 Mist 19 1019 100 1700 0.5 0 11:41 18.10.2019
5727 Mist 19 1019 100 1700 0.5 0 11:41 18.10.2019
5728 Mist 19 1019 100 1700 0.5 0 11:20 18.10.2019
5729 Fog 17 1019 100 450 1.5 250 10:57 18.10.2019
5730 Fog 17 1019 100 250 1.5 270 10:39 18.10.2019
5731 Fog 16 1019 100 250 1.5 270 10:19 18.10.2019
5732 Fog 16 1019 100 200 2.6 280 09:57 18.10.2019
5733 Fog 15 1019 100 150 3.1 290 09:39 18.10.2019
5734 Fog 16 1019 100 150 3.1 290 09:18 18.10.2019
5735 Fog 14 1019 100 200 1.5 280 08:43 18.10.2019
5736 Fog 13 1019 100 200 1.5 280 08:24 18.10.2019
5737 Fog 12 1019 100 200 0.27 117.043 07:51 18.10.2019
5738 Fog 10 1018 93 200 1 70 07:30 18.10.2019
5739 Fog 10 1018 100 150 2.1 300 06:42 18.10.2019
5740 Fog 9 1018 100 150 2.1 300 06:23 18.10.2019
5741 Fog 9 1018 100 100 2.1 290 05:59 18.10.2019
5742 Fog 9 1018 100 150 2.6 300 05:24 18.10.2019
5743 Fog 9 1018 100 150 2.6 310 04:49 18.10.2019
5744 Fog 9 1018 100 350 1.5 280 03:34 18.10.2019
5745 Fog 10 1018 93 550 0.5 300 02:37 18.10.2019
5746 Fog 10 1018 93 550 0.5 300 02:18 18.10.2019
5747 Mist 11 1019 93 3000 0.74 243.33 01:31 18.10.2019
5748 Mist 11 1018 100 6000 1 360 00:54 18.10.2019
5749 Clear 11 1018 93 6000 1.5 330 00:36 18.10.2019
5750 Clear 11 1018 93 6000 1.5 330 00:18 18.10.2019
5751 Clear 12 1019 93 10000 1 20 23:38 17.10.2019
5752 Clear 11 1019 93 10000 1 20 23:19 17.10.2019
5753 Clear 11 1019 93 10000 1.5 10 22:55 17.10.2019
5754 Clear 11 1019 93 10000 1.5 10 22:55 17.10.2019
5755 Clear 11 1019 93 10000 1.5 10 22:55 17.10.2019
5756 Clear 12 1019 100 10000 1.5 30 22:37 17.10.2019
5757 Clear 12 1019 100 10000 1.5 30 22:37 17.10.2019
5758 Clear 11 1019 100 10000 1.5 30 22:18 17.10.2019
5759 Clear 12 1019 93 10000 2.1 20 21:56 17.10.2019
5760 Clear 12 1019 93 10000 1.5 20 21:37 17.10.2019
5761 Clear 12 1019 93 10000 1.5 20 21:37 17.10.2019
5762 Clear 12 1019 93 10000 1.5 20 21:19 17.10.2019
5763 Clear 13 1019 93 10000 1.5 10 20:56 17.10.2019
5764 Clear 13 1018 87 10000 1.5 20 20:38 17.10.2019
5765 Clear 13 1018 87 10000 1.5 20 20:18 17.10.2019
5766 Clear 13 1018 93 10000 1.5 30 19:42 17.10.2019
5767 Clear 13 1018 93 10000 1.5 30 19:42 17.10.2019
5768 Clear 14 1018 93 10000 1.5 30 19:21 17.10.2019
5769 Clear 15 1018 87 10000 2.6 100 18:59 17.10.2019
5770 Clear 16 1018 87 10000 2.6 110 18:39 17.10.2019
5771 Clear 16 1018 87 10000 2.6 110 18:21 17.10.2019
5772 Clear 16 1018 87 10000 2.6 110 18:21 17.10.2019
5773 Clear 17 1018 87 10000 3.6 110 17:54 17.10.2019
5774 Clear 17 1018 82 10000 4.6 100 17:36 17.10.2019
5775 Clear 18 1018 82 10000 4.6 100 17:18 17.10.2019
5776 Clear 20 1018 68 10000 4.6 100 16:41 17.10.2019
5777 Clear 21 1018 68 10000 4.6 100 16:19 17.10.2019
5778 Clear 21 1018 68 10000 4.6 100 16:19 17.10.2019
5779 Clear 21 1018 68 10000 5.7 110 15:57 17.10.2019
5780 Clear 21 1018 68 10000 5.7 120 15:39 17.10.2019
5781 Clouds 22 1018 68 10000 5.7 120 15:20 17.10.2019
5782 Clouds 22 1018 68 10000 5.7 120 15:20 17.10.2019
5783 Clouds 22 1018 68 10000 4.6 120 14:57 17.10.2019
5784 Clouds 22 1018 68 10000 4.1 120 14:38 17.10.2019
5785 Clouds 21 1018 68 10000 4.1 120 14:20 17.10.2019
5786 Clouds 21 1018 64 10000 2.1 0 13:41 17.10.2019
5787 Clouds 21 1018 64 10000 2.1 0 13:21 17.10.2019
5788 Clouds 21 1019 68 8000 1.5 0 12:58 17.10.2019
5789 Clouds 20 1019 72 6000 1.5 270 12:38 17.10.2019
5790 Clouds 20 1019 72 6000 1.5 270 12:19 17.10.2019
5791 Clouds 19 1019 82 6000 2.1 210 11:55 17.10.2019
5792 Clouds 19 1019 82 6000 2.1 210 11:55 17.10.2019
5793 -273 0 0 0 0 0 11:55 17.10.2019
5794 Clouds 19 1019 82 6000 2.1 210 11:55 17.10.2019
5795 Clouds 18 1019 82 9000 2.6 240 11:37 17.10.2019
5796 Clouds 18 1019 82 9000 2.6 240 11:18 17.10.2019
5797 Mist 16 1019 93 5000 1.5 280 10:41 17.10.2019
5798 Mist 16 1019 93 5000 1.5 280 10:19 17.10.2019
5799 Mist 14 1019 93 5000 1.5 250 09:56 17.10.2019
5800 Mist 14 1019 93 5000 1.5 250 09:56 17.10.2019
5801 Mist 14 1019 100 3700 1.5 0 09:38 17.10.2019
5802 Mist 14 1019 100 3700 1.5 0 09:19 17.10.2019
5803 Mist 13 1019 93 1600 2.1 260 08:48 17.10.2019
5804 -273 0 0 0 0 0 08:27 17.10.2019
5805 Mist 11 1019 93 3200 2.928 317 07:59 17.10.2019
5806 Fog 10 1018 100 800 2.928 317 07:41 17.10.2019
5807 Fog 10 1018 100 800 2.928 317 07:21 17.10.2019
5808 Fog 10 1018 100 800 2.928 317 07:21 17.10.2019
5809 Fog 9 1018 100 250 1.5 230 06:43 17.10.2019
5810 Fog 8 1018 100 250 1.5 230 06:24 17.10.2019
5811 Fog 8 1018 100 3000 0.5 0 05:59 17.10.2019
5812 Fog 8 1018 100 1800 1.5 270 05:35 17.10.2019
5813 Mist 9 1018 93 4600 0.5 270 04:58 17.10.2019
5814 Clouds 8 1018 100 9000 2.576 311 04:31 17.10.2019
5815 Clouds 9 1018 93 10000 2.576 311 03:45 17.10.2019
5816 Clouds 11 1018 93 10000 1 0 01:56 17.10.2019
5817 Clouds 11 1018 87 10000 0.5 0 00:42 17.10.2019
5818 Clouds 12 1018 87 10000 0.5 0 00:20 17.10.2019
5819 Clouds 12 1018 87 10000 1.277 84 23:42 16.10.2019
5820 Clouds 14 1018 87 10000 1.277 84 23:22 16.10.2019
5821 Clouds 12 1018 93 10000 1.277 84 22:58 16.10.2019
5822 Clouds 11 1018 93 10000 1 270 22:38 16.10.2019
5823 Clouds 12 1018 93 10000 1 270 22:20 16.10.2019
5824 Clouds 12 1018 87 10000 0.5 0 21:58 16.10.2019
5825 Clouds 12 1018 87 10000 0.5 0 21:58 16.10.2019
5826 Clouds 12 1018 87 10000 1.277 84 21:38 16.10.2019
5827 Clouds 12 1018 87 10000 2.577 66 21:20 16.10.2019
5828 Clouds 13 1018 87 10000 1 0 20:59 16.10.2019
5829 Clouds 13 1018 87 10000 1 0 20:59 16.10.2019
5830 Clouds 13 1018 93 10000 1 10 20:41 16.10.2019
5831 Clouds 13 1018 93 10000 1 10 20:22 16.10.2019
5832 Clouds 13 1018 87 10000 1 40 19:59 16.10.2019
5833 Clouds 13 1018 87 10000 1 0 19:40 16.10.2019
5834 Clouds 14 1018 87 10000 1 0 19:21 16.10.2019
5835 Clouds 14 1018 87 10000 1 0 18:57 16.10.2019
5836 Clouds 14 1018 87 10000 1 0 18:56 16.10.2019
5837 Clear 14 1017 87 10000 1 130 18:37 16.10.2019
5838 Clear 15 1017 87 10000 1 130 18:18 16.10.2019
5839 Clear 15 1017 82 10000 3.1 130 17:55 16.10.2019
5840 Clear 17 1017 77 10000 4.6 130 17:36 16.10.2019
5841 Clear 17 1017 77 10000 4.6 130 17:18 16.10.2019
5842 Clear 18 1017 72 10000 4.6 130 16:43 16.10.2019
5843 Clear 21 1017 72 10000 4.6 130 16:23 16.10.2019
5844 Clear 22 1017 68 10000 4.6 120 15:59 16.10.2019
5845 Clear 21 1018 63 10000 4.6 130 15:39 16.10.2019
5846 Clear 21 1018 63 10000 4.6 130 15:39 16.10.2019
5847 Clouds 20 1018 63 10000 4.6 130 15:19 16.10.2019
5848 Clouds 20 1018 63 10000 4.6 130 15:19 16.10.2019
5849 Clouds 21 1017 64 10000 5.1 140 14:58 16.10.2019
5850 Clouds 21 1017 64 10000 5.1 140 14:39 16.10.2019
5851 Clouds 21 1017 64 10000 4.6 110 14:19 16.10.2019
5852 Clouds 20 1018 64 10000 5.1 120 13:57 16.10.2019
5853 Clouds 20 1018 64 10000 5.1 120 13:38 16.10.2019
5854 Clouds 20 1018 64 10000 5.1 120 13:38 16.10.2019
5855 Clouds 20 1018 60 10000 4.6 100 13:20 16.10.2019
5856 Clouds 20 1018 64 10000 4.6 110 12:42 16.10.2019
5857 Clouds 20 1018 64 10000 4.6 110 12:19 16.10.2019
5858 Clouds 19 1018 60 10000 3.6 110 11:45 16.10.2019
5859 Clouds 18 1018 68 10000 3.6 150 11:19 16.10.2019
5860 -273 0 0 0 0 0 10:55 16.10.2019
5861 Clouds 18 1019 68 10000 3.1 110 10:36 16.10.2019
5862 Clouds 18 1019 68 10000 3.6 140 10:18 16.10.2019
5863 Clouds 17 1019 68 10000 4.1 130 09:40 16.10.2019
5864 Clouds 17 1019 77 10000 3.1 130 09:21 16.10.2019
5865 Clouds 16 1019 72 10000 3.1 120 08:44 16.10.2019
5866 Clouds 16 1018 72 10000 2.6 130 08:26 16.10.2019
5867 Clouds 16 1018 77 10000 2.1 150 07:56 16.10.2019
5868 Clouds 16 1018 77 10000 2.1 150 07:38 16.10.2019
5869 Clouds 15 1018 82 10000 1.5 160 07:20 16.10.2019
5870 Clouds 15 1018 82 10000 1 0 06:40 16.10.2019
5871 Clouds 16 1018 82 10000 0.5 0 06:19 16.10.2019
5872 Clouds 14 1018 82 10000 2.1 150 03:46 16.10.2019
5873 Clouds 13 1018 87 10000 1.09 116 02:50 16.10.2019
5874 Clouds 11 1018 87 10000 1 0 01:20 16.10.2019
5875 Clouds 11 1018 87 10000 0.5 0 00:57 16.10.2019
5876 Clouds 12 1018 87 10000 0.5 0 00:37 16.10.2019
5877 Clouds 13 1019 87 10000 2.507 116 23:42 15.10.2019
5878 Clouds 16 1019 82 10000 0.5 0 23:22 15.10.2019
5879 Clouds 14 1019 87 10000 2.507 116 22:58 15.10.2019
5880 Clouds 14 1019 87 10000 2.507 116 22:40 15.10.2019
5881 Clouds 13 1019 87 10000 2.507 116 22:21 15.10.2019
5882 Clouds 13 1019 87 10000 2.507 116 21:57 15.10.2019
5883 Clouds 13 1019 87 10000 2.507 116 21:38 15.10.2019
5884 Clouds 13 1019 87 10000 2.76 88 21:20 15.10.2019
5885 Clouds 13 1019 87 10000 2.76 88 20:58 15.10.2019
5886 Clouds 13 1019 87 10000 2.76 88 20:40 15.10.2019
5887 Clouds 13 1019 87 10000 2.76 88 20:21 15.10.2019
5888 Clouds 13 1018 87 10000 0.5 0 19:59 15.10.2019
5889 Clouds 13 1018 87 10000 0.5 0 19:41 15.10.2019
5890 Clouds 13 1018 93 10000 1.5 60 19:20 15.10.2019
5891 Clouds 14 1018 87 10000 1.5 50 18:55 15.10.2019
5892 Clouds 14 1018 87 10000 1.5 50 18:36 15.10.2019
5893 Clouds 14 1018 82 10000 2.6 110 18:18 15.10.2019
5894 Clouds 16 1018 82 10000 3.6 120 17:41 15.10.2019
5895 Clouds 16 1018 82 10000 3.6 120 17:41 15.10.2019
5896 Clouds 17 1018 77 10000 4.1 120 17:20 15.10.2019
5897 Clouds 17 1018 77 10000 4.1 120 17:20 15.10.2019
5898 Clouds 18 1018 72 10000 5.1 120 16:58 15.10.2019
5899 Clouds 19 1018 72 10000 5.1 120 16:39 15.10.2019
5900 Clouds 19 1018 72 10000 4.6 130 16:20 15.10.2019
5901 Clouds 20 1018 68 10000 5.7 130 15:55 15.10.2019
5902 Clouds 20 1018 68 10000 5.7 130 15:55 15.10.2019
5903 Clouds 20 1018 68 10000 5.7 130 15:36 15.10.2019
5904 Clouds 20 1019 68 10000 5.1 120 15:18 15.10.2019
5905 Clouds 21 1019 64 10000 5.1 140 14:38 15.10.2019
5906 Clouds 21 1019 64 10000 4.1 110 14:20 15.10.2019
5907 Clouds 21 1019 64 10000 4.1 110 14:20 15.10.2019
5908 Clouds 21 1019 64 10000 4.1 110 13:58 15.10.2019
5909 Clouds 21 1019 64 10000 4.1 110 13:40 15.10.2019
5910 Clouds 21 1019 64 10000 4.6 100 13:19 15.10.2019
5911 Clouds 20 1020 64 10000 4.1 120 12:43 15.10.2019
5912 Clouds 20 1020 64 10000 4.1 120 12:22 15.10.2019
5913 Clouds 20 1020 64 10000 4.1 110 11:57 15.10.2019
5914 Clouds 20 1020 64 10000 4.1 110 11:38 15.10.2019
5915 Clouds 20 1020 64 10000 4.1 90 11:19 15.10.2019
5916 Clouds 19 1020 72 10000 3.1 110 10:45 15.10.2019
5917 Clouds 18 1020 77 10000 2.1 130 10:22 15.10.2019
5918 Clouds 17 1021 72 10000 1.5 0 09:58 15.10.2019
5919 Clouds 17 1021 72 10000 1.5 0 09:38 15.10.2019
5920 Clouds 16 1021 87 10000 1 0 09:20 15.10.2019
5921 Clouds 15 1020 87 9000 1.5 290 08:55 15.10.2019
5922 Mist 15 1020 93 6000 0.5 0 08:36 15.10.2019
5923 Mist 15 1020 93 6000 0.5 0 08:36 15.10.2019
5924 Mist 14 1020 93 6000 0.5 0 08:18 15.10.2019
5925 Mist 13 1020 93 5000 0.5 0 07:41 15.10.2019
5926 Clouds 12 1020 100 7000 0.5 0 07:21 15.10.2019
5927 Clouds 11 1020 93 7000 0.5 0 06:45 15.10.2019
5928 Clouds 11 1020 100 10000 1.82 157.414 06:27 15.10.2019
5929 Clouds 10 1020 93 10000 1.5 350 05:44 15.10.2019
5930 Clouds 11 1020 100 10000 1 0 05:24 15.10.2019
5931 Clouds 11 1020 93 9000 1.5 30 04:33 15.10.2019
5932 Clouds 13 1019 93 10000 1.52 166.329 03:38 15.10.2019
5933 Clouds 13 1019 93 10000 1.52 166.329 03:38 15.10.2019
5934 Clouds 14 1020 82 10000 0.5 0 02:42 15.10.2019
5935 Clouds 15 1020 87 10000 1.99 176.029 01:49 15.10.2019
5936 Clouds 15 1021 87 10000 0.5 0 01:22 15.10.2019
5937 Clouds 14 1021 87 10000 0.5 0 00:49 15.10.2019
5938 Clouds 14 1021 87 10000 2.31 175.851 00:22 15.10.2019
5939 Clouds 13 1021 87 10000 2.31 175.851 23:45 14.10.2019
5940 Clouds 13 1021 87 10000 2.31 175.851 23:20 14.10.2019
5941 Clouds 13 1021 87 10000 2.31 175.851 23:20 14.10.2019
5942 Clouds 13 1021 93 10000 2.31 175.851 22:57 14.10.2019
5943 Clouds 13 1021 93 10000 2.31 175.851 22:38 14.10.2019
5944 Clouds 13 1021 93 10000 2.31 175.851 22:18 14.10.2019
5945 Clouds 13 1021 93 10000 2.31 175.851 22:18 14.10.2019
5946 Clouds 13 1021 87 10000 0.5 0 21:55 14.10.2019
5947 Clouds 13 1021 87 10000 0.5 0 21:36 14.10.2019
5948 Clouds 14 1021 87 10000 2.9 159.181 21:18 14.10.2019
5949 Clouds 14 1021 93 10000 0.5 0 20:40 14.10.2019
5950 Clouds 14 1021 93 10000 1.5 100 20:22 14.10.2019
5951 Clouds 14 1022 93 10000 3.06 159.113 19:59 14.10.2019
5952 Clouds 14 1022 93 10000 3.019 105 19:41 14.10.2019
5953 Clear 14 1021 87 10000 1.5 90 19:23 14.10.2019
5954 Clear 15 1021 82 10000 2.1 70 18:58 14.10.2019
5955 Clear 15 1021 82 10000 2.1 70 18:38 14.10.2019
5956 Clear 15 1021 87 10000 3.1 100 18:19 14.10.2019
5957 Clear 17 1021 77 10000 4.6 120 17:44 14.10.2019
5958 Clear 18 1021 77 10000 4.6 120 17:26 14.10.2019
5959 Clear 20 1021 72 10000 4.6 130 16:59 14.10.2019
5960 Clear 20 1021 72 10000 5.1 130 16:40 14.10.2019
5961 Clear 21 1021 72 10000 5.1 130 16:21 14.10.2019
5962 Clear 21 1021 68 10000 4.6 120 15:42 14.10.2019
5963 Clear 22 1021 68 10000 4.6 120 15:22 14.10.2019
5964 Clear 22 1022 64 10000 4.6 130 14:56 14.10.2019
5965 Clear 22 1022 64 10000 4.6 130 14:56 14.10.2019
5966 Clear 21 1022 60 10000 4.6 130 14:38 14.10.2019
5967 Clear 22 1022 60 10000 4.6 130 14:19 14.10.2019
5968 Clear 22 1022 60 10000 3.6 110 13:43 14.10.2019
5969 Clear 22 1022 60 10000 3.6 110 13:21 14.10.2019
5970 Clear 21 1023 64 10000 3.6 120 12:54 14.10.2019
5971 Clouds 21 1023 64 10000 3.6 100 12:36 14.10.2019
5972 Clouds 20 1023 64 10000 3.1 140 12:18 14.10.2019
5973 Clouds 21 1023 68 10000 2.6 150 11:43 14.10.2019
5974 Clouds 19 1023 68 10000 2.6 150 11:24 14.10.2019
5975 Clouds 18 1024 72 10000 1 0 10:55 14.10.2019
5976 Clouds 18 1024 77 10000 1 0 10:37 14.10.2019
5977 Clouds 17 1024 93 7000 1 0 10:18 14.10.2019
5978 Mist 16 1024 100 4200 1.5 280 09:41 14.10.2019
5979 Mist 14 1024 100 3500 1.5 250 09:21 14.10.2019
5980 Mist 14 1024 100 3500 1.5 250 08:50 14.10.2019
5981 Mist 14 1024 100 3500 1.5 250 08:50 14.10.2019
5982 Mist 14 1024 93 3800 1.5 280 08:23 14.10.2019
5983 Mist 12 1023 100 3200 2.1 172.044 07:47 14.10.2019
5984 Mist 12 1023 100 3200 2.1 172.044 07:25 14.10.2019
5985 Mist 12 1023 100 3200 2.1 172.044 07:25 14.10.2019
5986 Mist 12 1023 100 1100 0.5 0 06:58 14.10.2019
5987 Fog 11 1023 100 550 0.5 0 06:28 14.10.2019
5988 Fog 12 1023 93 1400 1 0 05:56 14.10.2019
5989 Clouds 11 1023 93 8000 1 0 05:25 14.10.2019
5990 Fog 8 1023 100 500 1 290 03:50 14.10.2019
5991 Fog 9 1023 100 450 1.81 177.307 03:23 14.10.2019
5992 Fog 9 1023 93 300 1.81 177.307 02:25 14.10.2019
5993 Fog 11 1023 100 5000 1 350 01:19 14.10.2019
5994 Clear 11 1023 100 7000 0.5 0 00:41 14.10.2019
5995 Clear 12 1023 100 7000 0.5 0 00:18 14.10.2019
5996 Clear 12 1024 93 10000 1.5 10 23:40 13.10.2019
5997 Clear 12 1024 93 10000 1.5 10 23:19 13.10.2019
5998 Clouds 12 1024 100 10000 1 10 22:56 13.10.2019
5999 Clouds 12 1024 100 10000 2.1 20 22:38 13.10.2019
6000 Clouds 12 1024 100 10000 2.1 20 22:19 13.10.2019
6001 -273 0 0 0 0 0 21:56 13.10.2019
6002 Clouds 13 1024 93 10000 2.1 30 21:36 13.10.2019
6003 Clouds 13 1024 93 10000 2.1 30 21:36 13.10.2019
6004 Clouds 13 1024 93 10000 2.1 30 21:18 13.10.2019
6005 Clouds 13 1024 93 10000 1.5 20 21:18 13.10.2019
6006 Clouds 14 1024 93 10000 1.5 20 20:55 13.10.2019
6007 Clear 13 1024 93 10000 2.1 30 20:37 13.10.2019
6008 Clear 14 1024 93 10000 2.1 30 20:18 13.10.2019
6009 Clear 14 1024 87 10000 2.1 30 19:54 13.10.2019
6010 Clear 14 1024 87 10000 2.1 20 19:36 13.10.2019
6011 Clear 14 1024 87 10000 2.1 20 19:36 13.10.2019
6012 Clear 14 1024 87 10000 2.1 20 19:36 13.10.2019
6013 Clear 14 1024 87 10000 2.1 20 19:18 13.10.2019
6014 Clear 15 1023 77 10000 2.6 120 18:40 13.10.2019
6015 Clear 15 1023 77 10000 2.6 120 18:40 13.10.2019
6016 Clear 16 1023 77 10000 2.6 120 18:21 13.10.2019
6017 Clear 16 1023 77 10000 3.6 120 17:59 13.10.2019
6018 Clear 18 1023 72 10000 4.1 130 17:41 13.10.2019
6019 Clear 18 1023 72 10000 4.1 130 17:22 13.10.2019
6020 Clear 21 1023 64 10000 5.1 110 16:43 13.10.2019
6021 Clear 21 1023 68 10000 5.1 110 16:19 13.10.2019
6022 Clear 22 1023 68 10000 5.1 110 15:58 13.10.2019
6023 Clear 22 1023 68 10000 5.1 110 15:57 13.10.2019
6024 Clear 22 1023 68 10000 5.1 110 15:57 13.10.2019
6025 Clear 22 1023 68 10000 5.7 100 15:38 13.10.2019
6026 Clear 22 1023 64 10000 6.2 100 15:19 13.10.2019
6027 Clear 22 1023 64 10000 6.2 100 14:57 13.10.2019
6028 Clear 23 1023 64 10000 6.2 100 14:38 13.10.2019
6029 Clear 23 1023 64 10000 6.2 100 14:19 13.10.2019
6030 Clear 23 1023 60 10000 5.7 110 13:42 13.10.2019
6031 Clear 23 1023 60 10000 5.7 110 13:42 13.10.2019
6032 Clear 23 1023 60 10000 5.7 110 13:23 13.10.2019
6033 Clear 23 1024 60 10000 5.1 100 12:59 13.10.2019
6034 Clear 22 1024 60 10000 4.6 110 12:39 13.10.2019
6035 Clear 22 1024 60 10000 4.6 110 12:21 13.10.2019
6036 Clear 22 1024 52 10000 1.5 0 11:59 13.10.2019
6037 Clear 22 1024 60 10000 1 0 11:39 13.10.2019
6038 Clear 22 1024 60 10000 1 0 11:20 13.10.2019
6039 Clear 21 1025 64 10000 1 0 10:57 13.10.2019
6040 Clear 21 1025 68 10000 1.5 0 10:38 13.10.2019
6041 Clear 20 1025 68 10000 1.5 0 10:20 13.10.2019
6042 Clear 18 1025 82 8000 3.12 181.543 09:39 13.10.2019
6043 Clear 18 1025 82 8000 2.85 181.892 09:21 13.10.2019
6044 Clear 15 1024 100 8000 3.47 175.786 08:44 13.10.2019
6045 Clear 15 1024 100 8000 3.47 175.786 08:26 13.10.2019
6046 Mist 14 1024 93 4000 3.47 175.786 07:52 13.10.2019
6047 Fog 11 1024 100 2900 3.47 175.786 07:33 13.10.2019
6048 Fog 10 1024 93 8000 3.47 175.786 06:54 13.10.2019
6049 Fog 9 1024 100 10000 3.47 175.786 06:24 13.10.2019
6050 Fog 9 1024 100 10000 3.47 175.786 06:24 13.10.2019
6051 Fog 10 1024 100 6000 2.93 177.512 05:21 13.10.2019
6052 Clear 10 1024 100 8000 1 340 04:34 13.10.2019
6053 Clear 12 1024 93 10000 2.6 30 03:24 13.10.2019
6054 Clear 11 1025 93 10000 2.1 20 02:30 13.10.2019
6055 Clear 11 1025 93 10000 2.1 20 01:36 13.10.2019
6056 Clear 12 1025 93 10000 1.5 50 00:56 13.10.2019
6057 Clear 12 1025 93 10000 2.1 30 00:37 13.10.2019
6058 Clear 12 1025 93 10000 2.1 30 00:18 13.10.2019
6059 Clear 12 1025 93 10000 1 50 23:41 12.10.2019
6060 Clear 12 1025 93 10000 1 50 23:22 12.10.2019
6061 Clear 12 1026 93 10000 1.5 10 22:58 12.10.2019
6062 Clear 12 1025 87 10000 1 0 22:40 12.10.2019
6063 Clear 12 1025 87 10000 1 0 22:40 12.10.2019
6064 Clear 13 1025 87 10000 1 0 22:22 12.10.2019
6065 Clear 13 1025 87 10000 1 0 22:22 12.10.2019
6066 Clear 13 1025 87 10000 1.5 60 21:57 12.10.2019
6067 Clear 14 1025 82 10000 1 50 21:39 12.10.2019
6068 Clear 14 1025 82 10000 1 50 21:20 12.10.2019
6069 Clear 14 1025 82 10000 1 50 21:20 12.10.2019
6070 Clear 13 1025 82 10000 1 60 20:45 12.10.2019
6071 Clear 13 1025 82 10000 1 60 20:45 12.10.2019
6072 Clear 14 1025 82 10000 1 60 20:27 12.10.2019
6073 Clear 15 1025 77 10000 2.6 130 19:42 12.10.2019
6074 Clear 15 1025 77 10000 2.6 130 19:24 12.10.2019
6075 Clear 16 1025 67 10000 2.6 130 18:59 12.10.2019
6076 Clear 16 1025 67 10000 2.6 130 18:41 12.10.2019
6077 Clear 16 1025 67 10000 2.6 130 18:41 12.10.2019
6078 Clear 16 1025 67 10000 2.6 130 18:23 12.10.2019
6079 Clear 17 1025 63 10000 4.1 140 17:45 12.10.2019
6080 Clear 18 1025 63 10000 4.1 140 17:21 12.10.2019
6081 Clear 19 1025 59 10000 5.1 120 16:57 12.10.2019
6082 Clear 19 1025 59 10000 5.1 120 16:57 12.10.2019
6083 Clear 20 1025 56 10000 5.7 120 16:38 12.10.2019
6084 Clear 20 1025 56 10000 5.7 120 16:19 12.10.2019
6085 Clear 21 1025 56 10000 5.7 130 15:45 12.10.2019
6086 Clear 21 1025 56 10000 5.7 130 15:26 12.10.2019
6087 Clear 21 1025 49 10000 6.7 120 14:59 12.10.2019
6088 Clear 21 1025 49 10000 6.7 120 14:38 12.10.2019
6089 Clear 21 1025 49 10000 6.7 120 14:19 12.10.2019
6090 Clouds 22 1026 52 10000 7.2 120 13:45 12.10.2019
6091 Clouds 22 1026 52 10000 7.2 120 13:27 12.10.2019
6092 Clouds 22 1026 43 10000 5.1 140 12:41 12.10.2019
6093 Clouds 22 1026 43 10000 5.1 140 12:22 12.10.2019
6094 Clouds 22 1026 43 10000 5.1 140 12:22 12.10.2019
6095 Clouds 21 1027 46 10000 4.6 160 11:59 12.10.2019
6096 Clouds 21 1027 46 10000 5.1 150 11:40 12.10.2019
6097 Clouds 21 1027 46 10000 5.1 150 11:22 12.10.2019
6098 Clear 21 1027 56 10000 3.1 170 10:56 12.10.2019
6099 Clear 21 1027 60 10000 2.6 150 10:37 12.10.2019
6100 Clear 20 1027 60 10000 2.6 150 10:18 12.10.2019
6101 Clear 19 1027 77 8000 0.5 0 09:55 12.10.2019
6102 Clear 17 1027 93 8000 4.61 181.529 09:37 12.10.2019
6103 Clear 17 1027 93 8000 3.22 179.146 09:18 12.10.2019
6104 Mist 15 1027 100 3300 3.45 175.446 08:41 12.10.2019
6105 Mist 15 1027 100 3300 3.45 175.446 08:41 12.10.2019
6106 Mist 14 1027 100 3300 3.45 175.446 08:20 12.10.2019
6107 Mist 14 1027 100 3300 3.45 175.446 08:20 12.10.2019
6108 Mist 14 1027 100 3300 3.45 175.446 08:20 12.10.2019
6109 Fog 12 1026 100 300 0.5 260 07:36 12.10.2019
6110 Fog 11 1026 100 900 3.45 175.446 06:59 12.10.2019
6111 Fog 10 1026 93 3500 0.5 270 05:49 12.10.2019
6112 Clouds 10 1026 100 7000 2.35 181.246 05:24 12.10.2019
6113 Clear 10 1026 93 7000 2.35 181.246 04:26 12.10.2019
6114 Clear 10 1026 93 7000 2.35 181.246 04:26 12.10.2019
6115 Clear 10 1026 100 8000 2.35 181.246 03:41 12.10.2019
6116 Clouds 10 1026 93 10000 0.5 350 01:56 12.10.2019
6117 Clouds 10 1026 100 10000 2.55 177.935 01:29 12.10.2019
6118 Clear 10 1026 93 10000 1.5 330 00:43 12.10.2019
6119 Clear 10 1026 93 10000 1.5 330 00:19 12.10.2019
6120 Clear 10 1026 93 10000 1.5 330 00:19 12.10.2019
6121 Clear 12 1026 87 10000 1.5 10 23:40 11.10.2019
6122 Clear 12 1026 87 10000 1.5 10 23:20 11.10.2019
6123 Clear 12 1025 87 10000 1.5 20 22:41 11.10.2019
6124 Clear 12 1025 87 10000 1.5 20 22:22 11.10.2019
6125 Clear 13 1025 87 10000 2.1 10 21:59 11.10.2019
6126 Clear 13 1025 87 10000 2.1 20 21:40 11.10.2019
6127 Clear 13 1025 87 10000 2.1 20 21:21 11.10.2019
6128 Clear 13 1025 82 10000 1.5 50 20:45 11.10.2019
6129 Clear 13 1025 82 10000 1.5 50 20:27 11.10.2019
6130 Clear 13 1025 77 10000 1.5 20 19:59 11.10.2019
6131 Clear 14 1024 72 10000 2.89 163.094 19:39 11.10.2019
6132 Clear 14 1024 72 10000 2.89 163.094 19:18 11.10.2019
6133 Clear 14 1024 72 10000 2.89 163.094 19:18 11.10.2019
6134 Clear 14 1024 72 10000 2.89 163.094 19:18 11.10.2019
6135 Clear 14 1024 72 10000 1 110 18:59 11.10.2019
6136 Clear 16 1024 72 10000 3.1 130 18:38 11.10.2019
6137 Clear 16 1024 72 10000 3.1 130 18:19 11.10.2019
6138 Clear 17 1024 72 10000 4.1 130 17:59 11.10.2019
6139 Clear 17 1024 72 10000 4.1 130 17:59 11.10.2019
6140 Clear 19 1023 37 10000 2.6 0 17:38 11.10.2019
6141 Clear 19 1023 37 10000 2.6 0 17:19 11.10.2019
6142 Clouds 21 1023 40 10000 2.6 360 16:58 11.10.2019
6143 Clouds 21 1023 37 10000 1.5 360 16:39 11.10.2019
6144 Clouds 21 1023 37 10000 1.5 360 16:19 11.10.2019
6145 Clouds 21 1023 37 10000 1.5 360 16:19 11.10.2019
6146 Clouds 21 1023 43 10000 4.1 360 15:42 11.10.2019
6147 Clouds 21 1023 43 10000 4.1 360 15:21 11.10.2019
6148 Clouds 22 1022 40 10000 3.6 350 14:59 11.10.2019
6149 Clouds 21 1023 43 10000 5.7 330 14:39 11.10.2019
6150 Clouds 21 1023 43 10000 5.7 330 14:20 11.10.2019
6151 Clouds 21 1022 43 10000 4.6 340 13:45 11.10.2019
6152 Clouds 21 1022 43 10000 4.6 340 13:45 11.10.2019
6153 Clouds 21 1022 43 10000 4.6 340 13:25 11.10.2019
6154 Clouds 20 1022 46 10000 4.1 30 12:57 11.10.2019
6155 Clouds 21 1022 46 10000 4.6 20 12:38 11.10.2019
6156 Clouds 20 1022 46 10000 4.6 20 12:20 11.10.2019
6157 Clouds 20 1022 56 10000 5.1 360 11:58 11.10.2019
6158 Clouds 20 1022 52 10000 5.7 320 11:38 11.10.2019
6159 Clouds 18 1022 67 10000 4.1 320 11:20 11.10.2019
6160 Clouds 18 1022 67 10000 4.1 320 10:54 11.10.2019
6161 Clouds 18 1022 67 10000 4.1 320 10:54 11.10.2019
6162 Clouds 18 1022 72 10000 6.7 350 10:36 11.10.2019
6163 Clouds 17 1022 72 10000 7.2 300 10:18 11.10.2019
6164 Clouds 16 1021 68 10000 6.7 290 09:41 11.10.2019
6165 Clouds 16 1021 68 10000 6.7 290 09:20 11.10.2019
6166 Clouds 16 1020 72 10000 4.6 280 08:56 11.10.2019
6167 Clouds 16 1020 72 10000 3.1 250 08:38 11.10.2019
6168 Clouds 16 1020 72 10000 3.1 250 08:19 11.10.2019
6169 Clouds 16 1020 77 10000 2.6 230 07:51 11.10.2019
6170 Clouds 16 1019 77 10000 3.1 270 07:33 11.10.2019
6171 Clouds 15 1019 77 10000 2.6 270 06:49 11.10.2019
6172 Clouds 16 1019 72 10000 2.6 270 06:24 11.10.2019
6173 Clear 16 1018 67 10000 3.6 240 05:46 11.10.2019
6174 Clear 15 1018 67 10000 3.6 240 05:27 11.10.2019
6175 Clear 15 1018 67 10000 4.6 260 04:47 11.10.2019
6176 Clear 16 1016 59 10000 6.7 330 02:59 11.10.2019
6177 Clear 16 1015 71 10000 1 0 00:52 11.10.2019
6178 Clear 16 1015 72 10000 1.5 10 00:30 11.10.2019
6179 Clear 15 1015 71 10000 2.1 360 23:50 10.10.2019
6180 Clear 16 1015 63 10000 1.5 350 23:24 10.10.2019
6181 Clear 15 1015 67 10000 2.6 10 22:59 10.10.2019
6182 Clear 14 1015 71 10000 0.5 0 22:40 10.10.2019
6183 Clear 14 1015 71 10000 0.5 0 22:21 10.10.2019
6184 Clear 14 1015 71 10000 0.5 0 22:21 10.10.2019
6185 Clear 15 1015 63 10000 1 10 21:59 10.10.2019
6186 Clear 15 1015 59 10000 2.1 360 21:40 10.10.2019
6187 Clear 15 1015 59 10000 2.1 360 21:40 10.10.2019
6188 Clear 15 1015 59 10000 2.1 360 21:22 10.10.2019
6189 Clear 16 1015 55 10000 0.5 0 20:57 10.10.2019
6190 Clear 16 1015 52 10000 1 360 20:39 10.10.2019
6191 Clear 17 1015 52 10000 1 360 20:19 10.10.2019
6192 Clear 18 1015 45 10000 2.1 10 19:55 10.10.2019
6193 Clear 18 1015 42 10000 0.5 0 19:36 10.10.2019
6194 Clear 18 1015 42 10000 0.5 0 19:18 10.10.2019
6195 Clear 20 1014 40 10000 0.5 0 18:41 10.10.2019
6196 Clear 21 1014 40 10000 0.5 0 18:20 10.10.2019
6197 Clear 22 1014 33 10000 2.6 250 17:56 10.10.2019
6198 Clear 23 1014 29 10000 3.6 260 17:37 10.10.2019
6199 Clear 23 1014 29 10000 3.6 260 17:18 10.10.2019
6200 Clear 25 1014 26 10000 6.7 280 16:47 10.10.2019
6201 Clear 25 1014 26 10000 6.7 280 16:26 10.10.2019
6202 Clear 25 1014 26 10000 6.7 280 16:26 10.10.2019
6203 Clear 26 1014 28 10000 5.7 280 15:58 10.10.2019
6204 Clear 26 1014 30 10000 6.2 260 15:38 10.10.2019
6205 Clear 26 1014 30 10000 6.2 260 15:19 10.10.2019
6206 Clear 26 1014 28 10000 5.1 280 14:55 10.10.2019
6207 Clear 26 1014 30 10000 8.2 270 14:36 10.10.2019
6208 Clear 26 1014 30 10000 8.2 270 14:18 10.10.2019
6209 Clear 25 1015 34 10000 7.7 280 13:42 10.10.2019
6210 Clear 25 1015 34 10000 7.7 280 13:24 10.10.2019
6211 Clear 24 1015 36 10000 6.7 270 12:58 10.10.2019
6212 Clear 24 1015 41 10000 5.7 260 12:40 10.10.2019
6213 Clear 24 1015 41 10000 5.7 260 12:20 10.10.2019
6214 Clear 23 1015 41 10000 6.7 270 11:58 10.10.2019
6215 Clear 23 1016 46 10000 5.7 260 11:38 10.10.2019
6216 Clear 22 1016 46 10000 5.7 260 11:19 10.10.2019
6217 Clear 20 1016 68 10000 3.1 240 10:44 10.10.2019
6218 Clear 20 1016 68 10000 3.1 240 10:26 10.10.2019
6219 Clear 19 1016 67 10000 2.6 250 09:56 10.10.2019
6220 Clouds 17 1016 77 8000 2.6 270 09:38 10.10.2019
6221 Clouds 17 1016 77 8000 2.6 270 09:20 10.10.2019
6222 Clear 16 1016 93 9000 1.5 260 08:57 10.10.2019
6223 Clear 15 1016 93 8000 2.04 221.154 08:37 10.10.2019
6224 Clear 15 1016 93 8000 2.04 221.154 08:18 10.10.2019
6225 Clear 15 1016 93 8000 2.04 221.154 08:18 10.10.2019
6226 Fog 12 1015 100 7000 1.5 300 07:42 10.10.2019
6227 Fog 12 1015 100 7000 1.5 300 07:20 10.10.2019
6228 Fog 11 1015 100 7000 1.5 350 06:48 10.10.2019
6229 Clear 10 1015 100 9000 0.5 360 06:29 10.10.2019
6230 Clear 10 1016 93 10000 1.5 50 05:27 10.10.2019
6231 Clear 11 1016 93 10000 2.1 10 04:39 10.10.2019
6232 Clear 11 1016 93 10000 2.1 10 04:21 10.10.2019
6233 Clear 12 1017 93 10000 3.82 177.151 01:43 10.10.2019
6234 Clear 12 1017 93 10000 3.53 180.843 01:24 10.10.2019
6235 Clear 12 1018 93 10000 3.53 180.843 00:54 10.10.2019
6236 Clear 13 1018 93 10000 3.45 170.876 00:22 10.10.2019
6237 Clear 13 1018 93 10000 3.45 170.876 23:40 09.10.2019
6238 Clear 13 1018 93 10000 3.45 170.876 23:20 09.10.2019
6239 Clear 14 1018 87 10000 3.45 170.876 22:56 09.10.2019
6240 Clear 14 1019 87 10000 0.5 0 22:37 09.10.2019
6241 Clear 14 1019 87 10000 0.5 0 22:19 09.10.2019
6242 Clear 14 1019 87 10000 3.45 170.876 21:40 09.10.2019
6243 Clear 14 1019 87 10000 4.8 171.502 21:20 09.10.2019
6244 Clear 15 1019 77 10000 1.5 180 20:56 09.10.2019
6245 Clear 14 1019 87 10000 0.5 0 20:38 09.10.2019
6246 Clear 14 1019 87 10000 0.5 0 20:38 09.10.2019
6247 Clear 14 1019 87 10000 0.5 0 20:19 09.10.2019
6248 Clear 14 1019 87 10000 0.5 0 20:19 09.10.2019
6249 Clear 14 1019 77 10000 5.02 170.153 19:57 09.10.2019
6250 Clear 15 1019 77 10000 3.1 160 19:39 09.10.2019
6251 Clear 15 1019 77 10000 3.1 160 19:20 09.10.2019
6252 Clear 16 1019 72 10000 3.6 160 18:38 09.10.2019
6253 Clear 16 1019 72 10000 3.6 160 18:19 09.10.2019
6254 Clear 17 1019 68 10000 3.6 150 17:57 09.10.2019
6255 Clear 18 1019 49 10000 4.1 160 17:37 09.10.2019
6256 Clear 19 1019 49 10000 4.6 200 17:19 09.10.2019
6257 Clear 20 1019 46 10000 5.1 200 16:42 09.10.2019
6258 Clear 20 1019 46 10000 5.1 200 16:24 09.10.2019
6259 Clear 20 1019 43 10000 4.6 190 15:58 09.10.2019
6260 Clear 20 1019 46 10000 4.1 190 15:40 09.10.2019
6261 Clear 21 1019 46 10000 4.1 190 15:20 09.10.2019
6262 Clear 21 1020 46 10000 4.1 200 14:59 09.10.2019
6263 Clear 21 1020 46 10000 4.6 200 14:41 09.10.2019
6264 Clear 21 1020 46 10000 4.6 200 14:18 09.10.2019
6265 Clear 20 1021 49 10000 4.1 210 13:40 09.10.2019
6266 Clear 20 1021 49 10000 4.1 210 13:22 09.10.2019
6267 Clear 19 1021 49 10000 4.6 200 12:59 09.10.2019
6268 Clear 20 1022 49 10000 4.6 210 12:41 09.10.2019
6269 Clear 19 1022 49 10000 4.6 210 12:21 09.10.2019
6270 Clouds 19 1022 49 10000 5.1 220 11:55 09.10.2019
6271 Clouds 18 1023 52 10000 4.6 210 11:37 09.10.2019
6272 Clear 17 1023 55 10000 4.1 200 11:19 09.10.2019
6273 Clear 17 1023 59 10000 2.6 220 10:43 09.10.2019
6274 Clear 17 1023 59 10000 2.6 220 10:43 09.10.2019
6275 Clear 16 1023 59 10000 2.6 220 10:21 09.10.2019
6276 Clear 16 1024 67 10000 2.1 160 09:59 09.10.2019
6277 Clear 15 1024 63 10000 0.5 0 09:40 09.10.2019
6278 Clear 15 1024 63 10000 0.5 0 09:40 09.10.2019
6279 Clear 15 1024 63 10000 0.5 0 09:40 09.10.2019
6280 Clear 15 1024 63 10000 0.5 0 09:18 09.10.2019
6281 Clear 13 1024 76 10000 6.5 190.293 08:41 09.10.2019
6282 Clear 13 1024 76 10000 6.5 190.293 08:21 09.10.2019
6283 Clear 11 1024 93 10000 0.5 0 07:56 09.10.2019
6284 Clear 10 1023 100 10000 2.1 10 07:37 09.10.2019
6285 Clear 10 1023 100 10000 2.1 10 07:19 09.10.2019
6286 Clear 10 1023 100 10000 2.1 10 07:19 09.10.2019
6287 Clouds 9 1023 100 10000 1 30 06:49 09.10.2019
6288 Clouds 9 1023 93 10000 4.02 183.194 05:55 09.10.2019
6289 Clouds 9 1024 93 10000 4.02 183.194 05:28 09.10.2019
6290 Clouds 9 1024 93 10000 4.02 183.194 04:24 09.10.2019
6291 Clouds 9 1024 93 10000 2.1 360 02:50 09.10.2019
6292 Clouds 9 1025 87 10000 2.6 10 01:43 09.10.2019
6293 Clouds 9 1025 87 10000 2.6 10 01:19 09.10.2019
6294 Clouds 9 1025 87 10000 2.6 10 01:19 09.10.2019
6295 Clouds 8 1025 93 10000 1.5 350 00:56 09.10.2019
6296 Clouds 9 1025 87 10000 1.5 340 00:38 09.10.2019
6297 Clouds 9 1025 87 10000 1.5 340 00:38 09.10.2019
6298 Clouds 9 1025 87 10000 1.5 340 00:38 09.10.2019
6299 Clouds 8 1025 87 10000 1.5 340 00:19 09.10.2019
6300 Clouds 8 1025 87 10000 1.5 20 23:39 08.10.2019
6301 Clouds 8 1025 87 10000 1.5 20 23:18 08.10.2019
6302 Clouds 7 1025 81 10000 2.1 20 22:56 08.10.2019
6303 Clouds 8 1025 81 10000 1.5 20 22:38 08.10.2019
6304 Clouds 8 1025 81 10000 1.5 20 22:19 08.10.2019
6305 Clouds 8 1025 81 10000 3.18 170.277 21:57 08.10.2019
6306 Clouds 9 1025 71 10000 1 100 21:38 08.10.2019
6307 Clouds 9 1025 71 10000 1 100 21:18 08.10.2019
6308 Clouds 9 1025 71 10000 0.5 0 20:55 08.10.2019
6309 Clouds 9 1025 71 10000 3.1 50 20:37 08.10.2019
6310 Clouds 9 1025 71 10000 3.1 50 20:18 08.10.2019
6311 Clouds 9 1024 66 10000 2.6 60 19:55 08.10.2019
6312 Clouds 10 1024 62 10000 3.6 50 19:36 08.10.2019
6313 Clouds 11 1024 62 10000 3.6 50 19:18 08.10.2019
6314 Clouds 12 1024 58 10000 2.6 50 18:42 08.10.2019
6315 Clouds 12 1024 58 10000 2.6 50 18:24 08.10.2019
6316 Clouds 13 1023 54 10000 2.6 70 17:57 08.10.2019
6317 Clouds 13 1023 54 10000 2.6 70 17:57 08.10.2019
6318 Clouds 13 1023 54 10000 3.6 70 17:39 08.10.2019
6319 Clouds 13 1023 54 10000 3.6 70 17:19 08.10.2019
6320 -273 0 0 0 0 0 16:56 08.10.2019
6321 Clouds 14 1023 51 10000 3.6 80 16:56 08.10.2019
6322 Clouds 14 1023 54 10000 3.1 60 16:37 08.10.2019
6323 Clouds 14 1023 48 10000 4.1 70 16:18 08.10.2019
6324 Clouds 14 1022 48 10000 3.1 70 15:38 08.10.2019
6325 Clouds 14 1022 48 10000 3.1 60 15:20 08.10.2019
6326 Clouds 14 1022 48 10000 3.1 60 15:20 08.10.2019
6327 Clouds 15 1022 48 10000 3.1 60 14:56 08.10.2019
6328 Clouds 15 1022 51 10000 3.1 70 14:37 08.10.2019
6329 Clouds 15 1022 51 10000 3.1 70 14:19 08.10.2019
6330 Clouds 15 1022 51 10000 4.1 70 13:55 08.10.2019
6331 Clouds 15 1022 58 10000 4.1 80 13:37 08.10.2019
6332 Clouds 14 1022 58 10000 4.1 80 13:18 08.10.2019
6333 Clouds 15 1022 58 10000 4.1 80 13:18 08.10.2019
6334 Clouds 14 1022 58 10000 4.1 80 13:18 08.10.2019
6335 Clouds 14 1022 58 10000 5.1 70 12:41 08.10.2019
6336 Clouds 14 1022 58 10000 5.1 70 12:20 08.10.2019
6337 Clouds 13 1022 62 10000 1.5 0 11:57 08.10.2019
6338 Clouds 13 1022 62 10000 1.5 0 11:57 08.10.2019
6339 Clouds 12 1022 62 10000 1.5 170 11:38 08.10.2019
6340 Clouds 12 1022 62 10000 1.5 170 11:20 08.10.2019
6341 Clouds 11 1022 66 10000 2.1 0 10:42 08.10.2019
6342 Clouds 11 1022 66 10000 2.1 0 10:23 08.10.2019
6343 Clouds 10 1021 66 10000 9.3 30 09:59 08.10.2019
6344 Clouds 10 1021 71 10000 8.7 20 09:40 08.10.2019
6345 Clouds 10 1021 71 10000 8.7 20 09:22 08.10.2019
6346 Clouds 9 1020 71 10000 8.2 20 08:45 08.10.2019
6347 Clouds 9 1020 71 10000 8.2 20 08:25 08.10.2019
6348 Clouds 8 1020 70 10000 6.7 20 07:48 08.10.2019
6349 Clouds 8 1020 70 10000 6.7 20 07:23 08.10.2019
6350 Clouds 8 1019 76 10000 6.7 20 06:59 08.10.2019
6351 Clear 8 1019 70 10000 7.2 20 06:39 08.10.2019
6352 Clear 8 1019 70 10000 6.7 20 06:21 08.10.2019
6353 Clear 8 1019 66 10000 5.1 30 05:43 08.10.2019
6354 Clear 8 1018 66 10000 6.2 30 04:56 08.10.2019
6355 Clouds 8 1018 66 10000 7.2 30 03:31 08.10.2019
6356 Clouds 8 1018 71 10000 4.6 20 02:41 08.10.2019
6357 Clear 8 1018 71 10000 1 0 01:58 08.10.2019
6358 Clear 8 1018 76 10000 1.5 0 01:40 08.10.2019
6359 Clear 8 1018 71 10000 2.1 0 00:55 08.10.2019
6360 Clear 8 1017 71 10000 7.7 30 00:23 08.10.2019
6361 Clouds 9 1017 76 10000 5.7 30 23:46 07.10.2019
6362 Clouds 10 1017 76 10000 5.7 30 23:21 07.10.2019
6363 Clouds 10 1017 76 10000 5.7 30 23:21 07.10.2019
6364 Clouds 9 1017 71 10000 2.6 0 22:59 07.10.2019
6365 Clouds 10 1017 71 10000 2.6 0 22:41 07.10.2019
6366 Clouds 9 1017 71 10000 2.6 0 22:23 07.10.2019
6367 Clouds 10 1017 71 10000 0.5 0 21:59 07.10.2019
6368 Clouds 10 1018 71 10000 1.5 0 21:40 07.10.2019
6369 Clouds 10 1018 71 10000 1.5 0 21:21 07.10.2019
6370 Clouds 10 1017 71 10000 2.6 150 20:59 07.10.2019
6371 Clouds 10 1017 71 10000 4.6 10 20:40 07.10.2019
6372 Clouds 10 1017 71 10000 4.6 10 20:21 07.10.2019
6373 Clouds 10 1016 66 10000 5.7 360 19:59 07.10.2019
6374 Clouds 10 1016 66 10000 5.1 360 19:41 07.10.2019
6375 Clouds 10 1016 71 10000 6.2 10 19:20 07.10.2019
6376 Clouds 10 1016 71 10000 6.2 10 18:59 07.10.2019
6377 Clouds 10 1016 71 10000 6.2 10 18:39 07.10.2019
6378 Clouds 11 1015 66 10000 4.1 20 18:19 07.10.2019
6379 Clouds 12 1015 62 10000 4.6 20 17:43 07.10.2019
6380 Clouds 12 1015 62 10000 4.6 20 17:23 07.10.2019
6381 Clouds 12 1015 66 10000 4.6 40 16:59 07.10.2019
6382 Clouds 12 1014 62 10000 3.6 70 16:41 07.10.2019
6383 Clouds 12 1014 62 10000 3.6 70 16:22 07.10.2019
6384 Clouds 13 1014 58 10000 3.1 130 15:46 07.10.2019
6385 Clouds 13 1014 58 10000 3.1 130 15:26 07.10.2019
6386 Clouds 14 1014 55 10000 2.6 120 14:58 07.10.2019
6387 Clouds 14 1014 58 10000 4.1 120 14:40 07.10.2019
6388 Clouds 14 1014 58 10000 4.1 120 14:21 07.10.2019
6389 Clouds 14 1014 51 10000 2.6 180 13:43 07.10.2019
6390 Clouds 14 1014 51 10000 2.6 180 13:21 07.10.2019
6391 Clouds 15 1014 51 10000 2.1 0 12:57 07.10.2019
6392 Clouds 14 1014 51 10000 2.1 20 12:39 07.10.2019
6393 Clouds 15 1014 51 10000 2.1 20 12:19 07.10.2019
6394 Clouds 15 1014 48 10000 3.1 290 11:57 07.10.2019
6395 Clouds 14 1014 51 10000 2.1 330 11:38 07.10.2019
6396 Clouds 13 1014 51 10000 2.1 330 11:20 07.10.2019
6397 Clouds 13 1014 51 10000 2.1 330 11:20 07.10.2019
6398 Clouds 12 1014 62 10000 3.1 310 10:42 07.10.2019
6399 Clouds 12 1014 62 10000 3.1 310 10:21 07.10.2019
6400 Clear 11 1014 62 10000 3.6 310 09:43 07.10.2019
6401 Clear 11 1014 62 10000 3.6 310 09:25 07.10.2019
6402 Clear 11 1014 71 10000 3.1 330 08:58 07.10.2019
6403 Clear 10 1014 76 10000 3.6 300 08:39 07.10.2019
6404 Clear 10 1014 76 10000 3.6 300 08:20 07.10.2019
6405 Clear 9 1013 81 10000 1 0 07:43 07.10.2019
6406 Clear 9 1013 81 10000 1 0 07:25 07.10.2019
6407 Clear 9 1013 81 10000 2.6 290 06:55 07.10.2019
6408 Clear 8 1013 87 10000 2.1 270 06:37 07.10.2019
6409 Clear 8 1013 87 10000 3.6 270 05:50 07.10.2019
6410 Clear 8 1013 87 10000 4.6 280 05:24 07.10.2019
6411 Clear 9 1013 81 10000 4.1 260 04:42 07.10.2019
6412 Clear 9 1013 76 10000 5.1 280 03:45 07.10.2019
6413 Clear 9 1013 76 10000 5.1 280 03:45 07.10.2019
6414 Clear 9 1013 76 10000 5.1 280 03:23 07.10.2019
6415 Clear 9 1013 76 10000 5.1 280 03:23 07.10.2019
6416 Clear 9 1013 76 10000 3.1 320 02:23 07.10.2019
6417 Clear 9 1013 76 10000 3.1 320 02:23 07.10.2019
6418 Clouds 9 1013 76 10000 4.6 280 01:57 07.10.2019
6419 Clouds 9 1013 76 10000 4.1 200 01:22 07.10.2019
6420 Clear 9 1013 76 10000 4.6 280 00:44 07.10.2019
6421 Clear 9 1013 76 10000 4.6 280 00:22 07.10.2019
6422 Clear 10 1013 71 10000 4.6 280 23:56 06.10.2019
6423 Clear 11 1013 62 10000 6.2 280 23:38 06.10.2019
6424 Clear 11 1013 62 10000 6.2 280 23:18 06.10.2019
6425 Clear 10 1013 66 10000 4.1 280 22:42 06.10.2019
6426 Clear 10 1013 66 10000 4.1 280 22:22 06.10.2019
6427 Clear 10 1013 66 10000 3.1 250 21:58 06.10.2019
6428 Clear 10 1013 76 10000 1.5 0 21:38 06.10.2019
6429 Clear 10 1013 76 10000 1.5 0 21:19 06.10.2019
6430 Clear 11 1013 66 10000 2.1 290 20:58 06.10.2019
6431 Clear 11 1013 71 10000 0.5 0 20:40 06.10.2019
6432 Clear 10 1013 71 10000 0.5 0 20:21 06.10.2019
6433 Clear 11 1012 66 10000 3.6 320 19:57 06.10.2019
6434 Clear 11 1012 66 10000 3.6 320 19:37 06.10.2019
6435 Clear 10 1012 66 10000 3.6 320 19:19 06.10.2019
6436 Clouds 12 1012 62 10000 4.1 300 18:57 06.10.2019
6437 Clouds 13 1012 62 10000 2.6 310 18:38 06.10.2019
6438 Clouds 13 1012 62 10000 2.6 310 18:19 06.10.2019
6439 Clouds 14 1011 62 10000 4.6 280 17:57 06.10.2019
6440 Clouds 15 1011 59 10000 4.6 280 17:39 06.10.2019
6441 Clouds 15 1011 59 10000 4.6 280 17:19 06.10.2019
6442 Clouds 16 1011 67 10000 3.1 330 16:42 06.10.2019
6443 Clouds 16 1011 67 10000 3.1 330 16:24 06.10.2019
6444 Clouds 15 1011 62 10000 4.6 300 15:56 06.10.2019
6445 Clouds 16 1011 72 10000 3.1 290 15:38 06.10.2019
6446 Clouds 15 1011 72 10000 3.1 290 15:18 06.10.2019
6447 Clouds 16 1011 48 10000 6.7 290 14:42 06.10.2019
6448 Clouds 16 1011 48 10000 6.7 290 14:24 06.10.2019
6449 Clouds 17 1010 48 10000 7.2 290 13:56 06.10.2019
6450 Clouds 17 1010 48 10000 7.2 290 13:56 06.10.2019
6451 Clouds 18 1010 48 10000 7.2 280 13:38 06.10.2019
6452 Clouds 18 1010 48 10000 7.2 280 13:19 06.10.2019
6453 Clouds 18 1010 52 10000 5.1 270 12:56 06.10.2019
6454 Clouds 18 1010 52 10000 4.1 280 12:38 06.10.2019
6455 Clouds 18 1010 55 10000 4.6 290 12:19 06.10.2019
6456 Clouds 18 1010 55 10000 4.6 290 11:55 06.10.2019
6457 Clouds 17 1010 59 10000 5.1 280 11:36 06.10.2019
6458 Clouds 16 1010 59 10000 5.1 280 11:18 06.10.2019
6459 Clouds 16 1010 59 10000 3.6 300 10:42 06.10.2019
6460 Clouds 16 1010 59 10000 3.6 300 10:24 06.10.2019
6461 Clouds 15 1010 76 10000 2.6 260 09:42 06.10.2019
6462 Clouds 15 1010 76 10000 2.6 260 09:22 06.10.2019
6463 Clouds 15 1010 76 10000 2.6 260 09:22 06.10.2019
6464 Clouds 15 1010 76 10000 2.6 260 09:22 06.10.2019
6465 Clear 15 1010 82 10000 2.1 240 08:59 06.10.2019
6466 Clouds 13 1010 93 9000 2.6 240 08:40 06.10.2019
6467 Clouds 13 1010 93 9000 2.6 240 08:20 06.10.2019
6468 Clouds 11 1010 93 9000 3.1 240 07:44 06.10.2019
6469 Clouds 11 1010 93 9000 3.1 240 07:18 06.10.2019
6470 Clouds 9 1009 93 10000 3.1 280 06:19 06.10.2019
6471 Clear 9 1009 93 10000 1.5 290 05:28 06.10.2019
6472 Clear 10 1009 87 10000 1 270 03:35 06.10.2019
6473 Clear 10 1010 93 10000 1 300 02:40 06.10.2019
6474 Clear 10 1010 93 10000 1 300 02:19 06.10.2019
6475 Clear 11 1010 81 10000 1.5 310 01:38 06.10.2019
6476 Clear 11 1010 81 10000 1.5 310 01:20 06.10.2019
6477 Clouds 11 1010 81 10000 1 0 00:45 06.10.2019
6478 Clouds 11 1010 81 10000 1 0 00:21 06.10.2019
6479 Clouds 11 1010 81 10000 1 280 23:43 05.10.2019
6480 Clouds 11 1010 81 10000 1 280 23:21 05.10.2019
6481 Clouds 12 1010 76 10000 1.03 204.058 22:56 05.10.2019
6482 Clouds 12 1011 76 10000 1 290 22:38 05.10.2019
6483 Clouds 12 1011 76 10000 1 290 22:38 05.10.2019
6484 Clouds 12 1011 76 10000 1 290 22:19 05.10.2019
6485 Clouds 12 1010 76 10000 1 330 21:42 05.10.2019
6486 Clouds 12 1010 76 10000 1 330 21:24 05.10.2019
6487 Clouds 12 1010 71 10000 3.1 300 20:58 05.10.2019
6488 Clouds 12 1010 71 10000 3.1 340 20:40 05.10.2019
6489 Clouds 12 1010 71 10000 3.1 340 20:19 05.10.2019
6490 Clouds 12 1010 71 10000 2.1 350 19:56 05.10.2019
6491 Clouds 12 1010 71 10000 2.6 290 19:37 05.10.2019
6492 Clouds 13 1010 71 10000 2.1 290 19:18 05.10.2019
6493 Clouds 13 1010 71 10000 2.1 290 18:55 05.10.2019
6494 Clouds 13 1010 71 10000 3.6 310 18:36 05.10.2019
6495 Clouds 13 1010 71 10000 3.6 310 18:18 05.10.2019
6496 Clouds 13 1009 62 10000 4.6 300 17:41 05.10.2019
6497 Clouds 14 1009 62 10000 4.6 300 17:21 05.10.2019
6498 Clouds 14 1009 62 10000 4.6 300 16:55 05.10.2019
6499 Clouds 14 1009 62 10000 4.6 300 16:55 05.10.2019
6500 Clouds 14 1009 62 10000 4.6 310 16:36 05.10.2019
6501 Clouds 14 1009 62 10000 4.6 310 16:18 05.10.2019
6502 Clouds 15 1009 59 10000 4.1 300 15:55 05.10.2019
6503 Clouds 15 1009 59 10000 5.7 310 15:37 05.10.2019
6504 Clouds 15 1009 59 10000 5.7 310 15:18 05.10.2019
6505 Clouds 15 1009 62 10000 6.7 310 14:41 05.10.2019
6506 Clouds 15 1009 67 10000 6.2 330 14:20 05.10.2019
6507 Clouds 14 1009 67 10000 5.7 310 13:43 05.10.2019
6508 Clouds 14 1009 67 10000 5.7 310 13:25 05.10.2019
6509 Clouds 14 1009 67 10000 6.7 310 12:58 05.10.2019
6510 Clouds 13 1009 71 10000 6.2 320 12:40 05.10.2019
6511 Clouds 13 1009 71 10000 6.7 300 12:18 05.10.2019
6512 Clouds 12 1009 76 10000 6.2 310 11:39 05.10.2019
6513 Clouds 12 1009 76 10000 5.1 300 11:20 05.10.2019
6514 Clouds 12 1009 76 10000 5.1 300 10:54 05.10.2019
6515 Clouds 12 1009 81 10000 6.2 300 10:36 05.10.2019
6516 Clouds 11 1009 87 10000 5.1 300 10:18 05.10.2019
6517 Clouds 11 1009 81 10000 6.2 300 09:39 05.10.2019
6518 Clouds 10 1009 81 10000 6.2 300 09:21 05.10.2019
6519 Clouds 10 1008 87 10000 6.2 300 08:41 05.10.2019
6520 Clouds 10 1008 87 10000 6.2 300 08:21 05.10.2019
6521 Rain 9 1008 93 10000 6.7 300 07:58 05.10.2019
6522 Rain 9 1008 93 9000 5.1 290 07:38 05.10.2019
6523 Rain 9 1008 93 10000 5.7 290 07:19 05.10.2019
6524 Clouds 10 1008 87 10000 4.6 290 06:28 05.10.2019
6525 Clouds 10 1008 87 10000 4.6 270 05:59 05.10.2019
6526 Clouds 10 1008 87 10000 3.1 300 04:42 05.10.2019
6527 Clouds 10 1007 93 10000 5.1 270 03:29 05.10.2019
6528 Rain 10 1008 93 8000 6.2 340 01:55 05.10.2019
6529 Rain 10 1008 87 10000 6.2 330 01:23 05.10.2019
6530 Rain 11 1008 87 10000 6.2 330 00:45 05.10.2019
6531 Rain 11 1008 87 10000 6.2 330 00:26 05.10.2019
6532 Rain 11 1008 87 9000 4.1 340 23:45 04.10.2019
6533 Rain 11 1008 87 9000 4.1 340 23:26 04.10.2019
6534 Clouds 11 1008 87 10000 3.6 330 22:59 04.10.2019
6535 Clouds 11 1008 87 10000 3.6 320 22:41 04.10.2019
6536 Clouds 11 1008 87 10000 3.6 320 22:22 04.10.2019
6537 Clouds 11 1009 87 10000 2.1 330 21:58 04.10.2019
6538 Clouds 12 1008 87 10000 3.1 360 21:39 04.10.2019
6539 Clouds 12 1008 87 10000 3.1 360 21:21 04.10.2019
6540 Clouds 12 1008 87 10000 3.1 360 20:57 04.10.2019
6541 -273 0 0 0 0 0 20:57 04.10.2019
6542 Rain 12 1009 87 10000 2.1 10 20:38 04.10.2019
6543 Rain 12 1009 87 10000 2.1 10 20:38 04.10.2019
6544 Rain 12 1009 87 10000 2.1 10 20:20 04.10.2019
6545 Clouds 12 1010 87 10000 1 0 19:48 04.10.2019
6546 Clouds 12 1010 87 10000 1 0 19:29 04.10.2019
6547 Clouds 12 1009 87 10000 2.6 60 18:59 04.10.2019
6548 Clouds 12 1009 87 10000 1.5 0 18:39 04.10.2019
6549 Clouds 12 1009 87 10000 1.5 0 18:19 04.10.2019
6550 Clouds 12 1008 87 10000 3.1 20 17:55 04.10.2019
6551 Thunderstorm 12 1009 93 2900 4.6 30 17:36 04.10.2019
6552 Thunderstorm 12 1009 93 2900 4.6 30 17:18 04.10.2019
6553 Rain 13 1009 82 10000 4.6 10 16:42 04.10.2019
6554 Rain 13 1009 82 10000 4.6 10 16:19 04.10.2019
6555 Clouds 13 1009 82 10000 3.6 360 15:59 04.10.2019
6556 Clouds 13 1010 82 10000 3.1 360 15:40 04.10.2019
6557 Rain 14 1010 82 10000 3.1 360 15:21 04.10.2019
6558 Rain 14 1010 87 10000 2.6 340 14:59 04.10.2019
6559 Rain 14 1009 82 8000 3.1 20 14:41 04.10.2019
6560 Rain 14 1009 82 8000 3.1 20 14:22 04.10.2019
6561 Rain 14 1009 82 6000 3.6 360 13:54 04.10.2019
6562 Rain 14 1010 82 10000 4.1 320 13:36 04.10.2019
6563 Rain 14 1010 82 10000 4.1 320 13:18 04.10.2019
6564 Clouds 15 1011 72 10000 4.6 270 12:42 04.10.2019
6565 Clouds 15 1011 72 10000 4.6 270 12:24 04.10.2019
6566 Clouds 16 1011 72 10000 4.1 330 11:43 04.10.2019
6567 Clouds 16 1011 72 10000 4.1 330 11:43 04.10.2019
6568 Clouds 16 1011 72 10000 4.1 330 11:43 04.10.2019
6569 Clouds 16 1011 72 10000 4.1 330 11:43 04.10.2019
6570 Clouds 16 1011 72 10000 4.1 330 11:22 04.10.2019
6571 Clouds 15 1010 72 10000 4.1 330 10:57 04.10.2019
6572 Clouds 15 1010 77 10000 5.7 330 10:38 04.10.2019
6573 Clouds 15 1010 77 10000 5.7 330 10:19 04.10.2019
6574 Clouds 15 1010 82 10000 5.1 340 09:43 04.10.2019
6575 Clouds 14 1010 82 10000 5.1 340 09:25 04.10.2019
6576 Clouds 15 1010 82 10000 4.6 300 08:46 04.10.2019
6577 Clouds 15 1010 82 10000 4.6 300 08:27 04.10.2019
6578 Clouds 16 1010 82 10000 4.6 310 07:56 04.10.2019
6579 Clouds 16 1009 82 10000 4.6 300 07:37 04.10.2019
6580 Clouds 16 1009 82 10000 4.6 300 07:18 04.10.2019
6581 Clouds 16 1009 82 10000 3.1 270 06:40 04.10.2019
6582 Clouds 16 1009 82 10000 3.1 270 06:21 04.10.2019
6583 Clouds 17 1008 82 10000 3.6 310 05:21 04.10.2019
6584 Clouds 16 1008 87 10000 2.1 310 04:39 04.10.2019
6585 Rain 17 1007 77 10000 1 0 03:32 04.10.2019
6586 Clear 17 1007 77 10000 0.5 0 02:45 04.10.2019
6587 Clear 17 1007 77 10000 2.1 270 01:54 04.10.2019
6588 -273 0 0 0 0 0 01:54 04.10.2019
6589 -273 0 0 0 0 0 01:54 04.10.2019
6590 Clouds 18 1007 72 10000 1.5 40 01:26 04.10.2019
6591 Clear 18 1007 72 10000 3.6 270 00:34 04.10.2019
6592 Clear 18 1007 68 10000 3.6 260 23:41 03.10.2019
6593 Clear 18 1007 68 10000 3.6 260 23:22 03.10.2019
6594 Clear 18 1007 68 10000 3.6 260 23:22 03.10.2019
6595 Clouds 19 1007 68 10000 3.1 270 22:58 03.10.2019
6596 Clouds 19 1007 68 10000 3.1 270 22:58 03.10.2019
6597 Clear 19 1007 68 10000 1.5 310 22:39 03.10.2019
6598 Clear 19 1007 68 10000 1.5 310 22:39 03.10.2019
6599 Clear 19 1007 68 10000 1.5 310 22:39 03.10.2019
6600 Clear 19 1007 68 10000 1.5 310 22:21 03.10.2019
6601 Clouds 19 1007 68 10000 2.1 300 21:58 03.10.2019
6602 Clear 21 1006 60 10000 3.1 280 21:40 03.10.2019
6603 Clear 21 1006 60 10000 3.1 280 21:20 03.10.2019
6604 Clear 23 1006 57 10000 3.1 260 20:58 03.10.2019
6605 Clear 22 1006 57 10000 3.6 290 20:39 03.10.2019
6606 Clear 22 1006 57 10000 3.6 290 20:20 03.10.2019
6607 Clear 22 1005 60 10000 2.1 0 19:56 03.10.2019
6608 Clear 22 1005 69 10000 2.1 80 19:38 03.10.2019
6609 Clouds 23 1005 69 10000 2.1 80 19:19 03.10.2019
6610 Clouds 23 1005 69 10000 2.1 80 18:56 03.10.2019
6611 Clouds 24 1005 61 10000 2.6 120 18:37 03.10.2019
6612 Clouds 25 1005 61 10000 2.6 120 18:18 03.10.2019
6613 Clouds 27 1005 48 10000 4.6 180 17:42 03.10.2019
6614 Clouds 27 1005 48 10000 4.6 180 17:21 03.10.2019
6615 Clouds 28 1005 42 10000 5.7 210 16:55 03.10.2019
6616 Clear 27 1004 37 10000 5.1 210 16:37 03.10.2019
6617 Clear 27 1004 37 10000 5.1 210 16:19 03.10.2019
6618 Clear 26 1005 45 10000 3.1 120 15:43 03.10.2019
6619 Clear 26 1005 45 10000 3.1 120 15:43 03.10.2019
6620 Clear 28 1005 45 10000 3.1 120 15:23 03.10.2019
6621 Clear 27 1005 48 10000 5.1 90 14:57 03.10.2019
6622 Clear 27 1005 51 10000 5.7 110 14:36 03.10.2019
6623 Clear 27 1005 51 10000 5.7 110 14:36 03.10.2019
6624 Clear 27 1005 51 10000 5.7 110 14:36 03.10.2019
6625 Clear 27 1005 51 10000 5.7 110 14:18 03.10.2019
6626 Clear 27 1006 51 10000 4.6 120 13:43 03.10.2019
6627 Clear 27 1006 51 10000 4.6 120 13:24 03.10.2019
6628 Clear 26 1006 54 10000 3.1 110 12:58 03.10.2019
6629 Clear 26 1006 54 10000 4.1 130 12:39 03.10.2019
6630 Clear 25 1006 50 10000 3.1 140 12:20 03.10.2019
6631 Clear 25 1006 50 10000 3.1 140 11:58 03.10.2019
6632 Clear 25 1006 53 10000 3.6 150 11:39 03.10.2019
6633 Clear 25 1006 53 10000 3.6 150 11:21 03.10.2019
6634 Clear 24 1007 57 10000 3.1 170 10:56 03.10.2019
6635 Clear 24 1007 57 10000 3.1 120 10:38 03.10.2019
6636 Clear 23 1007 57 10000 3.1 120 10:18 03.10.2019
6637 Clear 22 1007 64 10000 3.1 150 09:56 03.10.2019
6638 Clear 22 1007 73 10000 3.1 140 09:37 03.10.2019
6639 Clear 21 1007 73 10000 3.1 140 09:18 03.10.2019
6640 Clouds 20 1007 94 9000 3.1 120 08:41 03.10.2019
6641 Clouds 20 1007 94 9000 3.1 120 08:41 03.10.2019
6642 Clouds 20 1007 94 9000 3.1 120 08:23 03.10.2019
6643 Clouds 18 1007 93 6000 1.5 120 07:41 03.10.2019
6644 Clouds 18 1007 93 6000 1.5 120 07:41 03.10.2019
6645 Clouds 19 1007 93 6000 1.5 120 07:20 03.10.2019
6646 Fog 17 1006 100 6000 3.1 110 06:52 03.10.2019
6647 Clouds 17 1006 100 10000 2.6 130 06:26 03.10.2019
6648 Clouds 17 1007 93 10000 2.1 120 05:47 03.10.2019
6649 Clouds 17 1007 93 10000 2.1 120 05:25 03.10.2019
6650 Clouds 17 1007 93 10000 2.1 120 04:39 03.10.2019
6651 Clouds 18 1007 88 10000 2.1 110 03:30 03.10.2019
6652 Clouds 17 1008 93 10000 1.5 70 02:45 03.10.2019
6653 Clouds 17 1008 93 10000 1.5 70 02:19 03.10.2019
6654 Clouds 17 1008 93 10000 4.36 167.114 01:37 03.10.2019
6655 Clouds 17 1009 93 10000 1 0 00:51 03.10.2019
6656 Clouds 17 1009 93 10000 0.5 0 00:28 03.10.2019
6657 Clouds 17 1009 93 10000 2.1 100 23:44 02.10.2019
6658 Clouds 17 1009 93 10000 2.1 100 23:24 02.10.2019
6659 Clouds 17 1009 88 10000 2.1 100 22:47 02.10.2019
6660 Clouds 18 1009 93 10000 2.1 110 22:24 02.10.2019
6661 Clouds 18 1009 93 10000 2.6 110 21:58 02.10.2019
6662 Clouds 18 1010 88 10000 2.1 120 21:39 02.10.2019
6663 Clouds 18 1010 88 10000 2.1 120 21:20 02.10.2019
6664 Clouds 18 1010 93 10000 1.5 140 20:58 02.10.2019
6665 Clouds 18 1010 88 10000 3.1 130 20:39 02.10.2019
6666 Clouds 18 1010 88 10000 3.1 130 20:21 02.10.2019
6667 Clouds 18 1010 88 10000 3.1 120 19:57 02.10.2019
6668 Clouds 18 1010 88 10000 2.6 120 19:39 02.10.2019
6669 Clouds 18 1010 88 10000 2.6 120 19:21 02.10.2019
6670 Clouds 18 1010 88 10000 3.6 120 18:57 02.10.2019
6671 Clouds 19 1010 82 10000 4.6 110 18:38 02.10.2019
6672 Clouds 19 1010 82 10000 4.6 110 18:20 02.10.2019
6673 Clouds 19 1010 82 10000 5.1 120 17:56 02.10.2019
6674 Clouds 20 1010 77 10000 5.7 110 17:37 02.10.2019
6675 Clouds 21 1010 77 10000 5.7 110 17:19 02.10.2019
6676 Clouds 21 1010 77 10000 5.7 110 17:19 02.10.2019
6677 Clouds 22 1010 73 10000 6.7 110 16:42 02.10.2019
6678 Clouds 22 1010 73 10000 6.7 110 16:22 02.10.2019
6679 Clouds 23 1010 69 10000 6.7 110 15:57 02.10.2019
6680 Clear 23 1010 69 10000 6.2 110 15:38 02.10.2019
6681 Clear 23 1010 69 10000 6.2 110 15:19 02.10.2019
6682 Clear 24 1010 69 10000 6.2 110 14:56 02.10.2019
6683 Clear 23 1010 69 10000 6.2 110 14:38 02.10.2019
6684 Clouds 24 1010 64 10000 6.2 110 14:20 02.10.2019
6685 Clear 24 1011 64 10000 7.2 110 13:43 02.10.2019
6686 Clouds 24 1011 69 10000 7.2 100 13:23 02.10.2019
6687 Clouds 24 1011 69 10000 6.7 110 12:56 02.10.2019
6688 Clouds 24 1011 64 10000 6.7 120 12:37 02.10.2019
6689 Clouds 24 1011 64 10000 6.7 120 12:37 02.10.2019
6690 Clouds 24 1011 64 10000 6.7 120 12:18 02.10.2019
6691 Clouds 24 1011 69 10000 7.2 110 11:43 02.10.2019
6692 Clouds 24 1012 69 10000 5.7 120 11:22 02.10.2019
6693 Clouds 23 1012 69 10000 5.7 120 10:41 02.10.2019
6694 Clouds 22 1012 73 10000 5.1 120 10:20 02.10.2019
6695 Clouds 22 1012 73 10000 4.6 130 09:56 02.10.2019
6696 Clouds 21 1012 73 10000 4.6 130 09:36 02.10.2019
6697 Clouds 21 1012 73 10000 4.6 130 09:18 02.10.2019
6698 Clouds 20 1012 82 10000 3.1 140 08:42 02.10.2019
6699 Clouds 20 1012 82 10000 3.1 140 08:42 02.10.2019
6700 Clouds 20 1012 82 10000 1.5 120 08:22 02.10.2019
6701 Clouds 19 1012 93 10000 5.37 163.024 07:55 02.10.2019